<?xml version="1.0" encoding="UTF-8" standalone="no" ?>
<gpx xmlns="http://www.topografix.com/GPX/1/1" xmlns:xsi="http://www.w3.org/2001/XMLSchema-instance" xsi:schemaLocation="http://www.topografix.com/GPX/1/1 http://www.topografix.com/GPX/1/1/gpx.xsd" version="1.1" creator="VisuGPX - https://www.visugpx.com">
  <metadata>
    <name>Bruxelles-Kaliningrad 14: Ratzeburger See -&amp;gt; Schweriner See</name>
  </metadata>
  <trk>
    <name><![CDATA[Day 14: Ratzeburger See -> Schweriner See]]></name>
    <extensions>
      <line xmlns="http://www.topografix.com/GPX/gpx_style/0/2">
        <color>0000FF</color>
        <width>4</width>
      </line>
    </extensions>
    <trkseg>
      <trkpt lat="53.67789" lon="10.76037">
        <ele>52.861578</ele>
        <time>2024-07-20T07:19:20.054Z</time>
      </trkpt>
      <trkpt lat="53.67776" lon="10.7603">
        <ele>52.861578</ele>
        <time>2024-07-20T07:19:41.240Z</time>
      </trkpt>
      <trkpt lat="53.67783" lon="10.7604">
        <ele>52.861578</ele>
        <time>2024-07-20T07:26:28.242Z</time>
      </trkpt>
      <trkpt lat="53.67791" lon="10.76054">
        <ele>52.861578</ele>
        <time>2024-07-20T07:26:34.245Z</time>
      </trkpt>
      <trkpt lat="53.67797" lon="10.76067">
        <ele>52.861578</ele>
        <time>2024-07-20T07:26:39.254Z</time>
      </trkpt>
      <trkpt lat="53.67803" lon="10.76082">
        <ele>52.861578</ele>
        <time>2024-07-20T07:26:45.238Z</time>
      </trkpt>
      <trkpt lat="53.67809" lon="10.76095">
        <ele>52.861578</ele>
        <time>2024-07-20T07:26:50.231Z</time>
      </trkpt>
      <trkpt lat="53.67813" lon="10.76111">
        <ele>52.861578</ele>
        <time>2024-07-20T07:26:56.236Z</time>
      </trkpt>
      <trkpt lat="53.67815" lon="10.76128">
        <ele>52.861578</ele>
        <time>2024-07-20T07:27:01.245Z</time>
      </trkpt>
      <trkpt lat="53.67816" lon="10.76144">
        <ele>53.083131</ele>
        <time>2024-07-20T07:27:06.257Z</time>
      </trkpt>
      <trkpt lat="53.67816" lon="10.76162">
        <ele>53.637653</ele>
        <time>2024-07-20T07:27:12.231Z</time>
      </trkpt>
      <trkpt lat="53.67817" lon="10.7618">
        <ele>54.207025</ele>
        <time>2024-07-20T07:27:18.233Z</time>
      </trkpt>
      <trkpt lat="53.67813" lon="10.76197">
        <ele>54.765901</ele>
        <time>2024-07-20T07:27:24.233Z</time>
      </trkpt>
      <trkpt lat="53.67811" lon="10.76215">
        <ele>55.32465</ele>
        <time>2024-07-20T07:27:30.242Z</time>
      </trkpt>
      <trkpt lat="53.67807" lon="10.76232">
        <ele>55.882723</ele>
        <time>2024-07-20T07:27:35.235Z</time>
      </trkpt>
      <trkpt lat="53.67803" lon="10.76247">
        <ele>56.402913</ele>
        <time>2024-07-20T07:27:40.228Z</time>
      </trkpt>
      <trkpt lat="53.67798" lon="10.76262">
        <ele>56.910772</ele>
        <time>2024-07-20T07:27:45.234Z</time>
      </trkpt>
      <trkpt lat="53.67792" lon="10.76278">
        <ele>57.50939</ele>
        <time>2024-07-20T07:27:50.239Z</time>
      </trkpt>
      <trkpt lat="53.6779" lon="10.76293">
        <ele>57.983619</ele>
        <time>2024-07-20T07:27:54.233Z</time>
      </trkpt>
      <trkpt lat="53.67788" lon="10.76309">
        <ele>58.490087</ele>
        <time>2024-07-20T07:27:58.244Z</time>
      </trkpt>
      <trkpt lat="53.67785" lon="10.76326">
        <ele>59.035526</ele>
        <time>2024-07-20T07:28:02.250Z</time>
      </trkpt>
      <trkpt lat="53.67781" lon="10.76343">
        <ele>59.607002</ele>
        <time>2024-07-20T07:28:06.226Z</time>
      </trkpt>
      <trkpt lat="53.67778" lon="10.7636">
        <ele>60.144112</ele>
        <time>2024-07-20T07:28:10.222Z</time>
      </trkpt>
      <trkpt lat="53.67773" lon="10.76376">
        <ele>60.685556</ele>
        <time>2024-07-20T07:28:13.238Z</time>
      </trkpt>
      <trkpt lat="53.6777" lon="10.76395">
        <ele>61.327633</ele>
        <time>2024-07-20T07:28:16.239Z</time>
      </trkpt>
      <trkpt lat="53.67766" lon="10.76415">
        <ele>61.9769</ele>
        <time>2024-07-20T07:28:19.246Z</time>
      </trkpt>
      <trkpt lat="53.67763" lon="10.76431">
        <ele>62.336356</ele>
        <time>2024-07-20T07:28:21.225Z</time>
      </trkpt>
      <trkpt lat="53.6776" lon="10.76446">
        <ele>62.530655</ele>
        <time>2024-07-20T07:28:23.232Z</time>
      </trkpt>
      <trkpt lat="53.67756" lon="10.76461">
        <ele>62.715886</ele>
        <time>2024-07-20T07:28:25.235Z</time>
      </trkpt>
      <trkpt lat="53.67752" lon="10.76476">
        <ele>62.908552</ele>
        <time>2024-07-20T07:28:27.234Z</time>
      </trkpt>
      <trkpt lat="53.67748" lon="10.76494">
        <ele>63.135158</ele>
        <time>2024-07-20T07:28:30.246Z</time>
      </trkpt>
      <trkpt lat="53.67743" lon="10.76511">
        <ele>63.357547</ele>
        <time>2024-07-20T07:28:34.243Z</time>
      </trkpt>
      <trkpt lat="53.6774" lon="10.76529">
        <ele>63.576615</ele>
        <time>2024-07-20T07:28:38.241Z</time>
      </trkpt>
      <trkpt lat="53.67736" lon="10.76548">
        <ele>63.812467</ele>
        <time>2024-07-20T07:28:42.221Z</time>
      </trkpt>
      <trkpt lat="53.67735" lon="10.76564">
        <ele>63.999066</ele>
        <time>2024-07-20T07:28:45.238Z</time>
      </trkpt>
      <trkpt lat="53.67732" lon="10.76579">
        <ele>64.188473</ele>
        <time>2024-07-20T07:28:48.238Z</time>
      </trkpt>
      <trkpt lat="53.67727" lon="10.76593">
        <ele>64.373509</ele>
        <time>2024-07-20T07:28:51.221Z</time>
      </trkpt>
      <trkpt lat="53.67724" lon="10.76609">
        <ele>64.570693</ele>
        <time>2024-07-20T07:28:54.237Z</time>
      </trkpt>
      <trkpt lat="53.67721" lon="10.76625">
        <ele>64.760582</ele>
        <time>2024-07-20T07:28:57.235Z</time>
      </trkpt>
      <trkpt lat="53.67717" lon="10.76644">
        <ele>64.998447</ele>
        <time>2024-07-20T07:29:01.253Z</time>
      </trkpt>
      <trkpt lat="53.67714" lon="10.76659">
        <ele>65.185478</ele>
        <time>2024-07-20T07:29:04.245Z</time>
      </trkpt>
      <trkpt lat="53.6771" lon="10.76674">
        <ele>65.381067</ele>
        <time>2024-07-20T07:29:07.248Z</time>
      </trkpt>
      <trkpt lat="53.67706" lon="10.76693">
        <ele>65.617124</ele>
        <time>2024-07-20T07:29:11.253Z</time>
      </trkpt>
      <trkpt lat="53.67703" lon="10.76708">
        <ele>65.799072</ele>
        <time>2024-07-20T07:29:14.252Z</time>
      </trkpt>
      <trkpt lat="53.677" lon="10.76726">
        <ele>66.134548</ele>
        <time>2024-07-20T07:29:18.251Z</time>
      </trkpt>
      <trkpt lat="53.67696" lon="10.76745">
        <ele>66.476305</ele>
        <time>2024-07-20T07:29:22.254Z</time>
      </trkpt>
      <trkpt lat="53.67692" lon="10.76763">
        <ele>66.814782</ele>
        <time>2024-07-20T07:29:26.243Z</time>
      </trkpt>
      <trkpt lat="53.6769" lon="10.76778">
        <ele>67.091115</ele>
        <time>2024-07-20T07:29:29.238Z</time>
      </trkpt>
      <trkpt lat="53.67687" lon="10.76798">
        <ele>67.448904</ele>
        <time>2024-07-20T07:29:33.252Z</time>
      </trkpt>
      <trkpt lat="53.67685" lon="10.76812">
        <ele>67.720333</ele>
        <time>2024-07-20T07:29:36.248Z</time>
      </trkpt>
      <trkpt lat="53.67681" lon="10.76831">
        <ele>68.061084</ele>
        <time>2024-07-20T07:29:40.264Z</time>
      </trkpt>
      <trkpt lat="53.67678" lon="10.76849">
        <ele>68.404758</ele>
        <time>2024-07-20T07:29:44.231Z</time>
      </trkpt>
      <trkpt lat="53.67673" lon="10.76866">
        <ele>68.735632</ele>
        <time>2024-07-20T07:29:48.238Z</time>
      </trkpt>
      <trkpt lat="53.67667" lon="10.76882">
        <ele>69.060905</ele>
        <time>2024-07-20T07:29:52.242Z</time>
      </trkpt>
      <trkpt lat="53.67657" lon="10.76892">
        <ele>69.391114</ele>
        <time>2024-07-20T07:29:56.241Z</time>
      </trkpt>
      <trkpt lat="53.67647" lon="10.769">
        <ele>69.734036</ele>
        <time>2024-07-20T07:30:00.257Z</time>
      </trkpt>
      <trkpt lat="53.67636" lon="10.76909">
        <ele>70.088829</ele>
        <time>2024-07-20T07:30:04.257Z</time>
      </trkpt>
      <trkpt lat="53.67628" lon="10.76916">
        <ele>70.369652</ele>
        <time>2024-07-20T07:30:07.250Z</time>
      </trkpt>
      <trkpt lat="53.67619" lon="10.76923">
        <ele>70.658675</ele>
        <time>2024-07-20T07:30:10.252Z</time>
      </trkpt>
      <trkpt lat="53.67611" lon="10.76932">
        <ele>70.943349</ele>
        <time>2024-07-20T07:30:13.241Z</time>
      </trkpt>
      <trkpt lat="53.67602" lon="10.76939">
        <ele>71.20079</ele>
        <time>2024-07-20T07:30:16.254Z</time>
      </trkpt>
      <trkpt lat="53.67594" lon="10.76947">
        <ele>71.377007</ele>
        <time>2024-07-20T07:30:19.242Z</time>
      </trkpt>
      <trkpt lat="53.67584" lon="10.76955">
        <ele>71.565855</ele>
        <time>2024-07-20T07:30:22.235Z</time>
      </trkpt>
      <trkpt lat="53.67576" lon="10.76961">
        <ele>71.731202</ele>
        <time>2024-07-20T07:30:25.218Z</time>
      </trkpt>
      <trkpt lat="53.67567" lon="10.76969">
        <ele>71.908078</ele>
        <time>2024-07-20T07:30:28.238Z</time>
      </trkpt>
      <trkpt lat="53.67558" lon="10.76976">
        <ele>72.083325</ele>
        <time>2024-07-20T07:30:31.229Z</time>
      </trkpt>
      <trkpt lat="53.6755" lon="10.76983">
        <ele>72.259721</ele>
        <time>2024-07-20T07:30:34.263Z</time>
      </trkpt>
      <trkpt lat="53.67541" lon="10.76992">
        <ele>72.432823</ele>
        <time>2024-07-20T07:30:37.253Z</time>
      </trkpt>
      <trkpt lat="53.67533" lon="10.77">
        <ele>72.608532</ele>
        <time>2024-07-20T07:30:40.248Z</time>
      </trkpt>
      <trkpt lat="53.67523" lon="10.77008">
        <ele>72.7942</ele>
        <time>2024-07-20T07:30:43.238Z</time>
      </trkpt>
      <trkpt lat="53.67515" lon="10.77016">
        <ele>72.976656</ele>
        <time>2024-07-20T07:30:46.241Z</time>
      </trkpt>
      <trkpt lat="53.67507" lon="10.77027">
        <ele>73.153857</ele>
        <time>2024-07-20T07:30:49.236Z</time>
      </trkpt>
      <trkpt lat="53.67499" lon="10.77036">
        <ele>73.325963</ele>
        <time>2024-07-20T07:30:52.245Z</time>
      </trkpt>
      <trkpt lat="53.67492" lon="10.77046">
        <ele>73.490778</ele>
        <time>2024-07-20T07:30:55.244Z</time>
      </trkpt>
      <trkpt lat="53.67485" lon="10.77059">
        <ele>73.681885</ele>
        <time>2024-07-20T07:30:59.239Z</time>
      </trkpt>
      <trkpt lat="53.67477" lon="10.7707">
        <ele>73.86246</ele>
        <time>2024-07-20T07:31:03.245Z</time>
      </trkpt>
      <trkpt lat="53.67481" lon="10.77085">
        <ele>74.037792</ele>
        <time>2024-07-20T07:31:11.232Z</time>
      </trkpt>
      <trkpt lat="53.67485" lon="10.77085">
        <ele>74.116532</ele>
        <time>2024-07-20T07:31:22.012Z</time>
      </trkpt>
      <trkpt lat="53.67494" lon="10.77091">
        <ele>74.281093</ele>
        <time>2024-07-20T07:32:09.240Z</time>
      </trkpt>
      <trkpt lat="53.67502" lon="10.77096">
        <ele>74.296308</ele>
        <time>2024-07-20T07:32:13.251Z</time>
      </trkpt>
      <trkpt lat="53.67512" lon="10.77102">
        <ele>74.072331</ele>
        <time>2024-07-20T07:32:16.251Z</time>
      </trkpt>
      <trkpt lat="53.67523" lon="10.77108">
        <ele>73.794957</ele>
        <time>2024-07-20T07:32:19.237Z</time>
      </trkpt>
      <trkpt lat="53.67534" lon="10.77112">
        <ele>73.534112</ele>
        <time>2024-07-20T07:32:21.251Z</time>
      </trkpt>
      <trkpt lat="53.67546" lon="10.77116">
        <ele>73.262497</ele>
        <time>2024-07-20T07:32:23.236Z</time>
      </trkpt>
      <trkpt lat="53.67559" lon="10.77121">
        <ele>72.955571</ele>
        <time>2024-07-20T07:32:25.236Z</time>
      </trkpt>
      <trkpt lat="53.67572" lon="10.77123">
        <ele>72.662617</ele>
        <time>2024-07-20T07:32:27.247Z</time>
      </trkpt>
      <trkpt lat="53.67585" lon="10.77125">
        <ele>72.378153</ele>
        <time>2024-07-20T07:32:29.233Z</time>
      </trkpt>
      <trkpt lat="53.67599" lon="10.77127">
        <ele>72.064079</ele>
        <time>2024-07-20T07:32:31.262Z</time>
      </trkpt>
      <trkpt lat="53.67613" lon="10.77128">
        <ele>71.744169</ele>
        <time>2024-07-20T07:32:33.230Z</time>
      </trkpt>
      <trkpt lat="53.67628" lon="10.77125">
        <ele>71.392821</ele>
        <time>2024-07-20T07:32:35.225Z</time>
      </trkpt>
      <trkpt lat="53.67644" lon="10.77124">
        <ele>71.025324</ele>
        <time>2024-07-20T07:32:37.237Z</time>
      </trkpt>
      <trkpt lat="53.6766" lon="10.77125">
        <ele>70.662226</ele>
        <time>2024-07-20T07:32:39.248Z</time>
      </trkpt>
      <trkpt lat="53.67676" lon="10.77125">
        <ele>70.299814</ele>
        <time>2024-07-20T07:32:41.273Z</time>
      </trkpt>
      <trkpt lat="53.67693" lon="10.77125">
        <ele>70.485379</ele>
        <time>2024-07-20T07:32:43.241Z</time>
      </trkpt>
      <trkpt lat="53.6771" lon="10.77123">
        <ele>70.680352</ele>
        <time>2024-07-20T07:32:45.238Z</time>
      </trkpt>
      <trkpt lat="53.67727" lon="10.77121">
        <ele>70.869629</ele>
        <time>2024-07-20T07:32:47.237Z</time>
      </trkpt>
      <trkpt lat="53.67742" lon="10.7712">
        <ele>71.041854</ele>
        <time>2024-07-20T07:32:49.240Z</time>
      </trkpt>
      <trkpt lat="53.67755" lon="10.7712">
        <ele>71.18807</ele>
        <time>2024-07-20T07:32:51.252Z</time>
      </trkpt>
      <trkpt lat="53.67767" lon="10.7712">
        <ele>71.316285</ele>
        <time>2024-07-20T07:32:53.251Z</time>
      </trkpt>
      <trkpt lat="53.67778" lon="10.7712">
        <ele>71.438886</ele>
        <time>2024-07-20T07:32:55.237Z</time>
      </trkpt>
      <trkpt lat="53.67788" lon="10.7712">
        <ele>71.55135</ele>
        <time>2024-07-20T07:32:57.244Z</time>
      </trkpt>
      <trkpt lat="53.67798" lon="10.7712">
        <ele>71.66607</ele>
        <time>2024-07-20T07:32:59.235Z</time>
      </trkpt>
      <trkpt lat="53.67808" lon="10.77119">
        <ele>71.778693</ele>
        <time>2024-07-20T07:33:01.251Z</time>
      </trkpt>
      <trkpt lat="53.67818" lon="10.77118">
        <ele>71.89705</ele>
        <time>2024-07-20T07:33:03.232Z</time>
      </trkpt>
      <trkpt lat="53.67829" lon="10.77117">
        <ele>72.015204</ele>
        <time>2024-07-20T07:33:05.238Z</time>
      </trkpt>
      <trkpt lat="53.6784" lon="10.77121">
        <ele>72.141244</ele>
        <time>2024-07-20T07:33:07.247Z</time>
      </trkpt>
      <trkpt lat="53.67851" lon="10.77125">
        <ele>72.275239</ele>
        <time>2024-07-20T07:33:09.242Z</time>
      </trkpt>
      <trkpt lat="53.67863" lon="10.77129">
        <ele>72.37597</ele>
        <time>2024-07-20T07:33:11.249Z</time>
      </trkpt>
      <trkpt lat="53.67874" lon="10.77132">
        <ele>72.452859</ele>
        <time>2024-07-20T07:33:13.238Z</time>
      </trkpt>
      <trkpt lat="53.67885" lon="10.77135">
        <ele>72.535485</ele>
        <time>2024-07-20T07:33:15.248Z</time>
      </trkpt>
      <trkpt lat="53.67896" lon="10.77139">
        <ele>72.613462</ele>
        <time>2024-07-20T07:33:17.250Z</time>
      </trkpt>
      <trkpt lat="53.67907" lon="10.77143">
        <ele>72.690121</ele>
        <time>2024-07-20T07:33:19.245Z</time>
      </trkpt>
      <trkpt lat="53.67918" lon="10.77146">
        <ele>72.766009</ele>
        <time>2024-07-20T07:33:21.261Z</time>
      </trkpt>
      <trkpt lat="53.67928" lon="10.77151">
        <ele>72.842693</ele>
        <time>2024-07-20T07:33:23.219Z</time>
      </trkpt>
      <trkpt lat="53.67938" lon="10.77157">
        <ele>72.915588</ele>
        <time>2024-07-20T07:33:25.235Z</time>
      </trkpt>
      <trkpt lat="53.67948" lon="10.77162">
        <ele>72.987012</ele>
        <time>2024-07-20T07:33:27.235Z</time>
      </trkpt>
      <trkpt lat="53.67957" lon="10.77169">
        <ele>73.057038</ele>
        <time>2024-07-20T07:33:29.239Z</time>
      </trkpt>
      <trkpt lat="53.67966" lon="10.77175">
        <ele>73.128827</ele>
        <time>2024-07-20T07:33:31.266Z</time>
      </trkpt>
      <trkpt lat="53.67976" lon="10.7718">
        <ele>73.197458</ele>
        <time>2024-07-20T07:33:33.246Z</time>
      </trkpt>
      <trkpt lat="53.67984" lon="10.77187">
        <ele>73.265461</ele>
        <time>2024-07-20T07:33:35.251Z</time>
      </trkpt>
      <trkpt lat="53.67993" lon="10.77194">
        <ele>73.330143</ele>
        <time>2024-07-20T07:33:37.254Z</time>
      </trkpt>
      <trkpt lat="53.68005" lon="10.77202">
        <ele>73.422656</ele>
        <time>2024-07-20T07:33:40.253Z</time>
      </trkpt>
      <trkpt lat="53.68016" lon="10.77212">
        <ele>73.50994</ele>
        <time>2024-07-20T07:33:43.245Z</time>
      </trkpt>
      <trkpt lat="53.68027" lon="10.7722">
        <ele>73.580992</ele>
        <time>2024-07-20T07:33:46.245Z</time>
      </trkpt>
      <trkpt lat="53.68037" lon="10.7723">
        <ele>73.557176</ele>
        <time>2024-07-20T07:33:49.269Z</time>
      </trkpt>
      <trkpt lat="53.68048" lon="10.77241">
        <ele>73.531317</ele>
        <time>2024-07-20T07:33:52.259Z</time>
      </trkpt>
      <trkpt lat="53.68059" lon="10.77252">
        <ele>73.505631</ele>
        <time>2024-07-20T07:33:55.232Z</time>
      </trkpt>
      <trkpt lat="53.6807" lon="10.77265">
        <ele>73.480227</ele>
        <time>2024-07-20T07:33:58.245Z</time>
      </trkpt>
      <trkpt lat="53.6808" lon="10.77277">
        <ele>73.454939</ele>
        <time>2024-07-20T07:34:01.230Z</time>
      </trkpt>
      <trkpt lat="53.6809" lon="10.7729">
        <ele>73.429737</ele>
        <time>2024-07-20T07:34:04.251Z</time>
      </trkpt>
      <trkpt lat="53.681" lon="10.77304">
        <ele>73.404135</ele>
        <time>2024-07-20T07:34:07.245Z</time>
      </trkpt>
      <trkpt lat="53.6811" lon="10.77317">
        <ele>73.377895</ele>
        <time>2024-07-20T07:34:10.260Z</time>
      </trkpt>
      <trkpt lat="53.68121" lon="10.77329">
        <ele>73.351842</ele>
        <time>2024-07-20T07:34:13.256Z</time>
      </trkpt>
      <trkpt lat="53.68129" lon="10.77338">
        <ele>73.333235</ele>
        <time>2024-07-20T07:34:15.253Z</time>
      </trkpt>
      <trkpt lat="53.68136" lon="10.77349">
        <ele>73.314387</ele>
        <time>2024-07-20T07:34:17.249Z</time>
      </trkpt>
      <trkpt lat="53.68143" lon="10.7736">
        <ele>73.294775</ele>
        <time>2024-07-20T07:34:19.252Z</time>
      </trkpt>
      <trkpt lat="53.68151" lon="10.7737">
        <ele>73.274681</ele>
        <time>2024-07-20T07:34:21.267Z</time>
      </trkpt>
      <trkpt lat="53.68159" lon="10.77382">
        <ele>73.253773</ele>
        <time>2024-07-20T07:34:23.253Z</time>
      </trkpt>
      <trkpt lat="53.68167" lon="10.77393">
        <ele>73.232928</ele>
        <time>2024-07-20T07:34:25.247Z</time>
      </trkpt>
      <trkpt lat="53.68175" lon="10.77402">
        <ele>73.101231</ele>
        <time>2024-07-20T07:34:27.239Z</time>
      </trkpt>
      <trkpt lat="53.68184" lon="10.7741">
        <ele>72.880539</ele>
        <time>2024-07-20T07:34:29.227Z</time>
      </trkpt>
      <trkpt lat="53.68191" lon="10.77422">
        <ele>72.653124</ele>
        <time>2024-07-20T07:34:31.273Z</time>
      </trkpt>
      <trkpt lat="53.68198" lon="10.77432">
        <ele>72.446453</ele>
        <time>2024-07-20T07:34:33.235Z</time>
      </trkpt>
      <trkpt lat="53.6821" lon="10.77443">
        <ele>72.152511</ele>
        <time>2024-07-20T07:34:36.252Z</time>
      </trkpt>
      <trkpt lat="53.6822" lon="10.77449">
        <ele>71.897577</ele>
        <time>2024-07-20T07:34:39.239Z</time>
      </trkpt>
      <trkpt lat="53.6823" lon="10.77459">
        <ele>71.636341</ele>
        <time>2024-07-20T07:34:42.245Z</time>
      </trkpt>
      <trkpt lat="53.68238" lon="10.77471">
        <ele>71.402103</ele>
        <time>2024-07-20T07:34:45.247Z</time>
      </trkpt>
      <trkpt lat="53.6824" lon="10.77488">
        <ele>71.167666</ele>
        <time>2024-07-20T07:34:48.243Z</time>
      </trkpt>
      <trkpt lat="53.68251" lon="10.77506">
        <ele>70.809712</ele>
        <time>2024-07-20T07:35:26.240Z</time>
      </trkpt>
      <trkpt lat="53.68259" lon="10.77517">
        <ele>70.580688</ele>
        <time>2024-07-20T07:35:33.249Z</time>
      </trkpt>
      <trkpt lat="53.68267" lon="10.77528">
        <ele>70.353159</ele>
        <time>2024-07-20T07:35:37.234Z</time>
      </trkpt>
      <trkpt lat="53.68275" lon="10.7754">
        <ele>70.107525</ele>
        <time>2024-07-20T07:35:41.272Z</time>
      </trkpt>
      <trkpt lat="53.68282" lon="10.77551">
        <ele>69.900613</ele>
        <time>2024-07-20T07:35:44.244Z</time>
      </trkpt>
      <trkpt lat="53.6829" lon="10.77563">
        <ele>69.658268</ele>
        <time>2024-07-20T07:35:47.251Z</time>
      </trkpt>
      <trkpt lat="53.68299" lon="10.77576">
        <ele>69.39306</ele>
        <time>2024-07-20T07:35:50.246Z</time>
      </trkpt>
      <trkpt lat="53.68307" lon="10.77589">
        <ele>69.173945</ele>
        <time>2024-07-20T07:35:53.233Z</time>
      </trkpt>
      <trkpt lat="53.68315" lon="10.77602">
        <ele>69.197769</ele>
        <time>2024-07-20T07:35:56.242Z</time>
      </trkpt>
      <trkpt lat="53.68323" lon="10.77616">
        <ele>69.221944</ele>
        <time>2024-07-20T07:35:59.251Z</time>
      </trkpt>
      <trkpt lat="53.68331" lon="10.7763">
        <ele>69.246598</ele>
        <time>2024-07-20T07:36:02.255Z</time>
      </trkpt>
      <trkpt lat="53.68339" lon="10.7764">
        <ele>69.266329</ele>
        <time>2024-07-20T07:36:04.248Z</time>
      </trkpt>
      <trkpt lat="53.68346" lon="10.7765">
        <ele>69.286292</ele>
        <time>2024-07-20T07:36:06.255Z</time>
      </trkpt>
      <trkpt lat="53.68356" lon="10.77665">
        <ele>69.31365</ele>
        <time>2024-07-20T07:36:09.244Z</time>
      </trkpt>
      <trkpt lat="53.68366" lon="10.7768">
        <ele>69.342789</ele>
        <time>2024-07-20T07:36:12.276Z</time>
      </trkpt>
      <trkpt lat="53.68375" lon="10.77696">
        <ele>69.370873</ele>
        <time>2024-07-20T07:36:15.247Z</time>
      </trkpt>
      <trkpt lat="53.68383" lon="10.77706">
        <ele>69.391892</ele>
        <time>2024-07-20T07:36:17.248Z</time>
      </trkpt>
      <trkpt lat="53.6839" lon="10.77718">
        <ele>69.412702</ele>
        <time>2024-07-20T07:36:19.266Z</time>
      </trkpt>
      <trkpt lat="53.68396" lon="10.77729">
        <ele>69.4324</ele>
        <time>2024-07-20T07:36:21.279Z</time>
      </trkpt>
      <trkpt lat="53.68404" lon="10.77739">
        <ele>69.452525</ele>
        <time>2024-07-20T07:36:23.238Z</time>
      </trkpt>
      <trkpt lat="53.68411" lon="10.77748">
        <ele>69.472388</ele>
        <time>2024-07-20T07:36:25.252Z</time>
      </trkpt>
      <trkpt lat="53.68418" lon="10.77758">
        <ele>69.491539</ele>
        <time>2024-07-20T07:36:27.244Z</time>
      </trkpt>
      <trkpt lat="53.68426" lon="10.77771">
        <ele>69.514667</ele>
        <time>2024-07-20T07:36:30.248Z</time>
      </trkpt>
      <trkpt lat="53.68435" lon="10.77785">
        <ele>69.540396</ele>
        <time>2024-07-20T07:36:33.247Z</time>
      </trkpt>
      <trkpt lat="53.68445" lon="10.77798">
        <ele>69.672552</ele>
        <time>2024-07-20T07:36:36.240Z</time>
      </trkpt>
      <trkpt lat="53.68455" lon="10.77812">
        <ele>69.889301</ele>
        <time>2024-07-20T07:36:39.243Z</time>
      </trkpt>
      <trkpt lat="53.68465" lon="10.77825">
        <ele>70.100671</ele>
        <time>2024-07-20T07:36:42.262Z</time>
      </trkpt>
      <trkpt lat="53.68475" lon="10.77839">
        <ele>70.321986</ele>
        <time>2024-07-20T07:36:45.277Z</time>
      </trkpt>
      <trkpt lat="53.68485" lon="10.77851">
        <ele>70.530083</ele>
        <time>2024-07-20T07:36:48.248Z</time>
      </trkpt>
      <trkpt lat="53.68495" lon="10.77865">
        <ele>70.742343</ele>
        <time>2024-07-20T07:36:51.265Z</time>
      </trkpt>
      <trkpt lat="53.68505" lon="10.77876">
        <ele>70.939582</ele>
        <time>2024-07-20T07:36:54.262Z</time>
      </trkpt>
      <trkpt lat="53.68513" lon="10.7789">
        <ele>71.142871</ele>
        <time>2024-07-20T07:36:57.264Z</time>
      </trkpt>
      <trkpt lat="53.68523" lon="10.77907">
        <ele>71.378944</ele>
        <time>2024-07-20T07:37:00.265Z</time>
      </trkpt>
      <trkpt lat="53.68531" lon="10.77918">
        <ele>71.552085</ele>
        <time>2024-07-20T07:37:02.234Z</time>
      </trkpt>
      <trkpt lat="53.68539" lon="10.7793">
        <ele>71.730443</ele>
        <time>2024-07-20T07:37:04.251Z</time>
      </trkpt>
      <trkpt lat="53.68548" lon="10.77943">
        <ele>71.921555</ele>
        <time>2024-07-20T07:37:06.253Z</time>
      </trkpt>
      <trkpt lat="53.68557" lon="10.77955">
        <ele>72.12294</ele>
        <time>2024-07-20T07:37:08.237Z</time>
      </trkpt>
      <trkpt lat="53.68566" lon="10.77968">
        <ele>72.317883</ele>
        <time>2024-07-20T07:37:10.236Z</time>
      </trkpt>
      <trkpt lat="53.68575" lon="10.7798">
        <ele>72.507054</ele>
        <time>2024-07-20T07:37:12.231Z</time>
      </trkpt>
      <trkpt lat="53.68583" lon="10.77993">
        <ele>72.503339</ele>
        <time>2024-07-20T07:37:14.230Z</time>
      </trkpt>
      <trkpt lat="53.68592" lon="10.78006">
        <ele>72.394635</ele>
        <time>2024-07-20T07:37:16.223Z</time>
      </trkpt>
      <trkpt lat="53.68602" lon="10.78019">
        <ele>72.281103</ele>
        <time>2024-07-20T07:37:18.224Z</time>
      </trkpt>
      <trkpt lat="53.68612" lon="10.78033">
        <ele>72.16476</ele>
        <time>2024-07-20T07:37:20.250Z</time>
      </trkpt>
      <trkpt lat="53.68623" lon="10.78047">
        <ele>72.040845</ele>
        <time>2024-07-20T07:37:22.228Z</time>
      </trkpt>
      <trkpt lat="53.68633" lon="10.78062">
        <ele>71.920069</ele>
        <time>2024-07-20T07:37:24.237Z</time>
      </trkpt>
      <trkpt lat="53.68641" lon="10.78078">
        <ele>71.807101</ele>
        <time>2024-07-20T07:37:26.236Z</time>
      </trkpt>
      <trkpt lat="53.68649" lon="10.78092">
        <ele>71.703129</ele>
        <time>2024-07-20T07:37:28.243Z</time>
      </trkpt>
      <trkpt lat="53.68657" lon="10.78105">
        <ele>71.60567</ele>
        <time>2024-07-20T07:37:30.249Z</time>
      </trkpt>
      <trkpt lat="53.68664" lon="10.78117">
        <ele>71.513084</ele>
        <time>2024-07-20T07:37:32.231Z</time>
      </trkpt>
      <trkpt lat="53.68672" lon="10.78129">
        <ele>71.418879</ele>
        <time>2024-07-20T07:37:34.230Z</time>
      </trkpt>
      <trkpt lat="53.6868" lon="10.78139">
        <ele>71.328812</ele>
        <time>2024-07-20T07:37:36.244Z</time>
      </trkpt>
      <trkpt lat="53.68687" lon="10.78149">
        <ele>71.244963</ele>
        <time>2024-07-20T07:37:38.236Z</time>
      </trkpt>
      <trkpt lat="53.68694" lon="10.7816">
        <ele>71.162814</ele>
        <time>2024-07-20T07:37:40.240Z</time>
      </trkpt>
      <trkpt lat="53.68704" lon="10.78172">
        <ele>71.049298</ele>
        <time>2024-07-20T07:37:43.231Z</time>
      </trkpt>
      <trkpt lat="53.68713" lon="10.78186">
        <ele>70.969807</ele>
        <time>2024-07-20T07:37:46.240Z</time>
      </trkpt>
      <trkpt lat="53.68721" lon="10.782">
        <ele>71.202549</ele>
        <time>2024-07-20T07:37:49.244Z</time>
      </trkpt>
      <trkpt lat="53.68728" lon="10.78211">
        <ele>71.403257</ele>
        <time>2024-07-20T07:37:52.248Z</time>
      </trkpt>
      <trkpt lat="53.68736" lon="10.78221">
        <ele>71.610513</ele>
        <time>2024-07-20T07:37:55.270Z</time>
      </trkpt>
      <trkpt lat="53.68743" lon="10.78232">
        <ele>71.801559</ele>
        <time>2024-07-20T07:37:58.227Z</time>
      </trkpt>
      <trkpt lat="53.68749" lon="10.78244">
        <ele>71.998109</ele>
        <time>2024-07-20T07:38:01.281Z</time>
      </trkpt>
      <trkpt lat="53.68757" lon="10.78253">
        <ele>72.190999</ele>
        <time>2024-07-20T07:38:04.267Z</time>
      </trkpt>
      <trkpt lat="53.68765" lon="10.78264">
        <ele>72.397367</ele>
        <time>2024-07-20T07:38:07.250Z</time>
      </trkpt>
      <trkpt lat="53.68772" lon="10.78275">
        <ele>72.604443</ele>
        <time>2024-07-20T07:38:10.260Z</time>
      </trkpt>
      <trkpt lat="53.68779" lon="10.78287">
        <ele>72.809457</ele>
        <time>2024-07-20T07:38:13.245Z</time>
      </trkpt>
      <trkpt lat="53.68787" lon="10.78299">
        <ele>73.024498</ele>
        <time>2024-07-20T07:38:16.248Z</time>
      </trkpt>
      <trkpt lat="53.68796" lon="10.78311">
        <ele>73.264572</ele>
        <time>2024-07-20T07:38:19.256Z</time>
      </trkpt>
      <trkpt lat="53.68804" lon="10.78321">
        <ele>73.461991</ele>
        <time>2024-07-20T07:38:22.259Z</time>
      </trkpt>
      <trkpt lat="53.68808" lon="10.78335">
        <ele>73.661713</ele>
        <time>2024-07-20T07:38:25.237Z</time>
      </trkpt>
      <trkpt lat="53.68814" lon="10.7835">
        <ele>73.871662</ele>
        <time>2024-07-20T07:38:28.261Z</time>
      </trkpt>
      <trkpt lat="53.68822" lon="10.78361">
        <ele>74.099605</ele>
        <time>2024-07-20T07:38:31.277Z</time>
      </trkpt>
      <trkpt lat="53.68826" lon="10.78377">
        <ele>74.312744</ele>
        <time>2024-07-20T07:38:34.247Z</time>
      </trkpt>
      <trkpt lat="53.6882" lon="10.78391">
        <ele>74.510651</ele>
        <time>2024-07-20T07:38:37.245Z</time>
      </trkpt>
      <trkpt lat="53.68815" lon="10.78405">
        <ele>74.685326</ele>
        <time>2024-07-20T07:38:40.251Z</time>
      </trkpt>
      <trkpt lat="53.6881" lon="10.78421">
        <ele>74.82221</ele>
        <time>2024-07-20T07:38:44.254Z</time>
      </trkpt>
      <trkpt lat="53.68805" lon="10.78437">
        <ele>74.952907</ele>
        <time>2024-07-20T07:38:48.259Z</time>
      </trkpt>
      <trkpt lat="53.68801" lon="10.78451">
        <ele>75.066747</ele>
        <time>2024-07-20T07:38:53.265Z</time>
      </trkpt>
      <trkpt lat="53.68796" lon="10.78466">
        <ele>75.189327</ele>
        <time>2024-07-20T07:38:59.239Z</time>
      </trkpt>
      <trkpt lat="53.68791" lon="10.7848">
        <ele>75.306302</ele>
        <time>2024-07-20T07:39:05.250Z</time>
      </trkpt>
      <trkpt lat="53.68788" lon="10.78495">
        <ele>75.420195</ele>
        <time>2024-07-20T07:39:11.271Z</time>
      </trkpt>
      <trkpt lat="53.68782" lon="10.78507">
        <ele>75.530305</ele>
        <time>2024-07-20T07:39:17.237Z</time>
      </trkpt>
      <trkpt lat="53.68776" lon="10.78521">
        <ele>75.656754</ele>
        <time>2024-07-20T07:39:22.266Z</time>
      </trkpt>
      <trkpt lat="53.68771" lon="10.78535">
        <ele>75.778781</ele>
        <time>2024-07-20T07:39:26.246Z</time>
      </trkpt>
      <trkpt lat="53.68768" lon="10.78553">
        <ele>75.9126</ele>
        <time>2024-07-20T07:39:30.240Z</time>
      </trkpt>
      <trkpt lat="53.68763" lon="10.78568">
        <ele>76.031615</ele>
        <time>2024-07-20T07:39:34.242Z</time>
      </trkpt>
      <trkpt lat="53.68761" lon="10.78584">
        <ele>76.151968</ele>
        <time>2024-07-20T07:39:38.242Z</time>
      </trkpt>
      <trkpt lat="53.68759" lon="10.786">
        <ele>76.272854</ele>
        <time>2024-07-20T07:39:42.261Z</time>
      </trkpt>
      <trkpt lat="53.68756" lon="10.78618">
        <ele>76.408656</ele>
        <time>2024-07-20T07:39:46.237Z</time>
      </trkpt>
      <trkpt lat="53.68752" lon="10.78636">
        <ele>76.544383</ele>
        <time>2024-07-20T07:39:50.275Z</time>
      </trkpt>
      <trkpt lat="53.68748" lon="10.78653">
        <ele>76.678675</ele>
        <time>2024-07-20T07:39:54.230Z</time>
      </trkpt>
      <trkpt lat="53.68745" lon="10.78668">
        <ele>76.791</ele>
        <time>2024-07-20T07:39:57.271Z</time>
      </trkpt>
      <trkpt lat="53.68741" lon="10.78682">
        <ele>76.875403</ele>
        <time>2024-07-20T07:40:00.260Z</time>
      </trkpt>
      <trkpt lat="53.68736" lon="10.78699">
        <ele>76.949082</ele>
        <time>2024-07-20T07:40:04.261Z</time>
      </trkpt>
      <trkpt lat="53.6873" lon="10.78717">
        <ele>77.022176</ele>
        <time>2024-07-20T07:40:07.249Z</time>
      </trkpt>
      <trkpt lat="53.68723" lon="10.78732">
        <ele>77.09389</ele>
        <time>2024-07-20T07:40:10.255Z</time>
      </trkpt>
      <trkpt lat="53.68718" lon="10.78751">
        <ele>77.170928</ele>
        <time>2024-07-20T07:40:13.240Z</time>
      </trkpt>
      <trkpt lat="53.68715" lon="10.78771">
        <ele>77.247754</ele>
        <time>2024-07-20T07:40:16.268Z</time>
      </trkpt>
      <trkpt lat="53.68711" lon="10.78788">
        <ele>77.31689</ele>
        <time>2024-07-20T07:40:19.258Z</time>
      </trkpt>
      <trkpt lat="53.68708" lon="10.78805">
        <ele>77.380912</ele>
        <time>2024-07-20T07:40:22.249Z</time>
      </trkpt>
      <trkpt lat="53.6871" lon="10.78819">
        <ele>77.437471</ele>
        <time>2024-07-20T07:40:27.263Z</time>
      </trkpt>
      <trkpt lat="53.68719" lon="10.78823">
        <ele>77.494466</ele>
        <time>2024-07-20T07:40:30.248Z</time>
      </trkpt>
      <trkpt lat="53.6873" lon="10.78823">
        <ele>77.559623</ele>
        <time>2024-07-20T07:40:33.264Z</time>
      </trkpt>
      <trkpt lat="53.68741" lon="10.78823">
        <ele>77.629774</ele>
        <time>2024-07-20T07:40:36.276Z</time>
      </trkpt>
      <trkpt lat="53.68752" lon="10.78823">
        <ele>77.701804</ele>
        <time>2024-07-20T07:40:39.233Z</time>
      </trkpt>
      <trkpt lat="53.68763" lon="10.78831">
        <ele>77.77451</ele>
        <time>2024-07-20T07:40:42.251Z</time>
      </trkpt>
      <trkpt lat="53.68766" lon="10.78853">
        <ele>77.860404</ele>
        <time>2024-07-20T07:40:45.238Z</time>
      </trkpt>
      <trkpt lat="53.68766" lon="10.7887">
        <ele>77.922027</ele>
        <time>2024-07-20T07:40:47.237Z</time>
      </trkpt>
      <trkpt lat="53.68766" lon="10.78887">
        <ele>77.984077</ele>
        <time>2024-07-20T07:40:49.245Z</time>
      </trkpt>
      <trkpt lat="53.68765" lon="10.78904">
        <ele>78.043973</ele>
        <time>2024-07-20T07:40:51.263Z</time>
      </trkpt>
      <trkpt lat="53.68766" lon="10.7892">
        <ele>78.104838</ele>
        <time>2024-07-20T07:40:53.224Z</time>
      </trkpt>
      <trkpt lat="53.68766" lon="10.78936">
        <ele>78.159672</ele>
        <time>2024-07-20T07:40:55.256Z</time>
      </trkpt>
      <trkpt lat="53.68767" lon="10.78951">
        <ele>78.21427</ele>
        <time>2024-07-20T07:40:57.249Z</time>
      </trkpt>
      <trkpt lat="53.6877" lon="10.78973">
        <ele>78.29338</ele>
        <time>2024-07-20T07:41:00.258Z</time>
      </trkpt>
      <trkpt lat="53.68772" lon="10.78988">
        <ele>78.349753</ele>
        <time>2024-07-20T07:41:02.250Z</time>
      </trkpt>
      <trkpt lat="53.68774" lon="10.79003">
        <ele>78.405655</ele>
        <time>2024-07-20T07:41:04.260Z</time>
      </trkpt>
      <trkpt lat="53.68776" lon="10.79018">
        <ele>78.460126</ele>
        <time>2024-07-20T07:41:06.228Z</time>
      </trkpt>
      <trkpt lat="53.68778" lon="10.7904">
        <ele>78.541623</ele>
        <time>2024-07-20T07:41:09.244Z</time>
      </trkpt>
      <trkpt lat="53.6878" lon="10.79056">
        <ele>78.598395</ele>
        <time>2024-07-20T07:41:11.261Z</time>
      </trkpt>
      <trkpt lat="53.68783" lon="10.79078">
        <ele>78.679785</ele>
        <time>2024-07-20T07:41:14.266Z</time>
      </trkpt>
      <trkpt lat="53.68788" lon="10.79098">
        <ele>78.758347</ele>
        <time>2024-07-20T07:41:17.250Z</time>
      </trkpt>
      <trkpt lat="53.68791" lon="10.79112">
        <ele>78.813863</ele>
        <time>2024-07-20T07:41:19.259Z</time>
      </trkpt>
      <trkpt lat="53.68796" lon="10.79132">
        <ele>78.890113</ele>
        <time>2024-07-20T07:41:22.269Z</time>
      </trkpt>
      <trkpt lat="53.688" lon="10.79153">
        <ele>78.969135</ele>
        <time>2024-07-20T07:41:25.263Z</time>
      </trkpt>
      <trkpt lat="53.68807" lon="10.79172">
        <ele>79.04963</ele>
        <time>2024-07-20T07:41:28.250Z</time>
      </trkpt>
      <trkpt lat="53.68814" lon="10.7919">
        <ele>79.171974</ele>
        <time>2024-07-20T07:41:31.271Z</time>
      </trkpt>
      <trkpt lat="53.68821" lon="10.79207">
        <ele>79.312988</ele>
        <time>2024-07-20T07:41:34.256Z</time>
      </trkpt>
      <trkpt lat="53.68828" lon="10.79226">
        <ele>79.455313</ele>
        <time>2024-07-20T07:41:37.248Z</time>
      </trkpt>
      <trkpt lat="53.68834" lon="10.79244">
        <ele>79.593048</ele>
        <time>2024-07-20T07:41:40.260Z</time>
      </trkpt>
      <trkpt lat="53.68841" lon="10.79262">
        <ele>79.733731</ele>
        <time>2024-07-20T07:41:43.245Z</time>
      </trkpt>
      <trkpt lat="53.68849" lon="10.79279">
        <ele>79.875587</ele>
        <time>2024-07-20T07:41:46.263Z</time>
      </trkpt>
      <trkpt lat="53.68858" lon="10.79295">
        <ele>80.015786</ele>
        <time>2024-07-20T07:41:49.272Z</time>
      </trkpt>
      <trkpt lat="53.68866" lon="10.79311">
        <ele>80.154403</ele>
        <time>2024-07-20T07:41:52.253Z</time>
      </trkpt>
      <trkpt lat="53.68876" lon="10.79326">
        <ele>80.300268</ele>
        <time>2024-07-20T07:41:55.240Z</time>
      </trkpt>
      <trkpt lat="53.68883" lon="10.79336">
        <ele>80.399313</ele>
        <time>2024-07-20T07:41:57.259Z</time>
      </trkpt>
      <trkpt lat="53.68892" lon="10.79351">
        <ele>80.544072</ele>
        <time>2024-07-20T07:42:00.253Z</time>
      </trkpt>
      <trkpt lat="53.689" lon="10.79369">
        <ele>80.689858</ele>
        <time>2024-07-20T07:42:03.253Z</time>
      </trkpt>
      <trkpt lat="53.68907" lon="10.79379">
        <ele>80.791456</ele>
        <time>2024-07-20T07:42:05.261Z</time>
      </trkpt>
      <trkpt lat="53.68916" lon="10.79394">
        <ele>80.929557</ele>
        <time>2024-07-20T07:42:08.273Z</time>
      </trkpt>
      <trkpt lat="53.68925" lon="10.7941">
        <ele>81.053068</ele>
        <time>2024-07-20T07:42:11.267Z</time>
      </trkpt>
      <trkpt lat="53.68934" lon="10.79425">
        <ele>81.086126</ele>
        <time>2024-07-20T07:42:14.256Z</time>
      </trkpt>
      <trkpt lat="53.68944" lon="10.79438">
        <ele>81.117684</ele>
        <time>2024-07-20T07:42:17.261Z</time>
      </trkpt>
      <trkpt lat="53.68949" lon="10.79456">
        <ele>81.147171</ele>
        <time>2024-07-20T07:42:20.255Z</time>
      </trkpt>
      <trkpt lat="53.68943" lon="10.79473">
        <ele>81.177068</ele>
        <time>2024-07-20T07:42:23.270Z</time>
      </trkpt>
      <trkpt lat="53.68936" lon="10.79489">
        <ele>81.205664</ele>
        <time>2024-07-20T07:42:26.241Z</time>
      </trkpt>
      <trkpt lat="53.68929" lon="10.79504">
        <ele>81.234416</ele>
        <time>2024-07-20T07:42:29.257Z</time>
      </trkpt>
      <trkpt lat="53.68924" lon="10.79521">
        <ele>81.263594</ele>
        <time>2024-07-20T07:42:32.248Z</time>
      </trkpt>
      <trkpt lat="53.68927" lon="10.79539">
        <ele>81.292596</ele>
        <time>2024-07-20T07:42:35.230Z</time>
      </trkpt>
      <trkpt lat="53.68936" lon="10.7955">
        <ele>81.319644</ele>
        <time>2024-07-20T07:42:38.236Z</time>
      </trkpt>
      <trkpt lat="53.68944" lon="10.79561">
        <ele>81.345619</ele>
        <time>2024-07-20T07:42:41.274Z</time>
      </trkpt>
      <trkpt lat="53.68953" lon="10.79571">
        <ele>81.373145</ele>
        <time>2024-07-20T07:42:44.268Z</time>
      </trkpt>
      <trkpt lat="53.68963" lon="10.79581">
        <ele>81.401233</ele>
        <time>2024-07-20T07:42:47.255Z</time>
      </trkpt>
      <trkpt lat="53.68972" lon="10.79592">
        <ele>81.429242</ele>
        <time>2024-07-20T07:42:50.250Z</time>
      </trkpt>
      <trkpt lat="53.68981" lon="10.79603">
        <ele>81.458385</ele>
        <time>2024-07-20T07:42:53.262Z</time>
      </trkpt>
      <trkpt lat="53.68991" lon="10.79613">
        <ele>81.486125</ele>
        <time>2024-07-20T07:42:56.267Z</time>
      </trkpt>
      <trkpt lat="53.69" lon="10.79623">
        <ele>81.519922</ele>
        <time>2024-07-20T07:42:59.233Z</time>
      </trkpt>
      <trkpt lat="53.69009" lon="10.79633">
        <ele>81.556843</ele>
        <time>2024-07-20T07:43:02.248Z</time>
      </trkpt>
      <trkpt lat="53.69018" lon="10.79645">
        <ele>81.595828</ele>
        <time>2024-07-20T07:43:05.255Z</time>
      </trkpt>
      <trkpt lat="53.69027" lon="10.79655">
        <ele>81.634029</ele>
        <time>2024-07-20T07:43:08.252Z</time>
      </trkpt>
      <trkpt lat="53.69037" lon="10.79666">
        <ele>81.674835</ele>
        <time>2024-07-20T07:43:11.292Z</time>
      </trkpt>
      <trkpt lat="53.69047" lon="10.79675">
        <ele>81.713611</ele>
        <time>2024-07-20T07:43:14.241Z</time>
      </trkpt>
      <trkpt lat="53.69056" lon="10.79686">
        <ele>81.752474</ele>
        <time>2024-07-20T07:43:17.253Z</time>
      </trkpt>
      <trkpt lat="53.69066" lon="10.79697">
        <ele>81.791961</ele>
        <time>2024-07-20T07:43:20.263Z</time>
      </trkpt>
      <trkpt lat="53.69074" lon="10.79708">
        <ele>81.83019</ele>
        <time>2024-07-20T07:43:23.247Z</time>
      </trkpt>
      <trkpt lat="53.69083" lon="10.79718">
        <ele>81.867846</ele>
        <time>2024-07-20T07:43:26.253Z</time>
      </trkpt>
      <trkpt lat="53.69092" lon="10.79729">
        <ele>81.906265</ele>
        <time>2024-07-20T07:43:29.250Z</time>
      </trkpt>
      <trkpt lat="53.69102" lon="10.79739">
        <ele>81.94565</ele>
        <time>2024-07-20T07:43:32.246Z</time>
      </trkpt>
      <trkpt lat="53.69112" lon="10.79749">
        <ele>81.983959</ele>
        <time>2024-07-20T07:43:35.246Z</time>
      </trkpt>
      <trkpt lat="53.69121" lon="10.7976">
        <ele>82.022357</ele>
        <time>2024-07-20T07:43:38.259Z</time>
      </trkpt>
      <trkpt lat="53.6913" lon="10.7977">
        <ele>82.058634</ele>
        <time>2024-07-20T07:43:41.277Z</time>
      </trkpt>
      <trkpt lat="53.69138" lon="10.79779">
        <ele>82.093594</ele>
        <time>2024-07-20T07:43:44.265Z</time>
      </trkpt>
      <trkpt lat="53.69147" lon="10.79787">
        <ele>82.161567</ele>
        <time>2024-07-20T07:43:47.249Z</time>
      </trkpt>
      <trkpt lat="53.69154" lon="10.79797">
        <ele>82.400125</ele>
        <time>2024-07-20T07:43:50.250Z</time>
      </trkpt>
      <trkpt lat="53.69163" lon="10.79809">
        <ele>82.695205</ele>
        <time>2024-07-20T07:43:54.248Z</time>
      </trkpt>
      <trkpt lat="53.69171" lon="10.79817">
        <ele>82.947381</ele>
        <time>2024-07-20T07:44:06.249Z</time>
      </trkpt>
      <trkpt lat="53.69176" lon="10.79831">
        <ele>83.197483</ele>
        <time>2024-07-20T07:44:10.257Z</time>
      </trkpt>
      <trkpt lat="53.69176" lon="10.79848">
        <ele>83.448349</ele>
        <time>2024-07-20T07:44:13.259Z</time>
      </trkpt>
      <trkpt lat="53.69175" lon="10.79865">
        <ele>83.716297</ele>
        <time>2024-07-20T07:44:16.248Z</time>
      </trkpt>
      <trkpt lat="53.69174" lon="10.79882">
        <ele>83.980651</ele>
        <time>2024-07-20T07:44:19.249Z</time>
      </trkpt>
      <trkpt lat="53.69173" lon="10.799">
        <ele>84.24891</ele>
        <time>2024-07-20T07:44:22.260Z</time>
      </trkpt>
      <trkpt lat="53.69173" lon="10.79919">
        <ele>84.545696</ele>
        <time>2024-07-20T07:44:25.264Z</time>
      </trkpt>
      <trkpt lat="53.69171" lon="10.79939">
        <ele>84.855575</ele>
        <time>2024-07-20T07:44:28.246Z</time>
      </trkpt>
      <trkpt lat="53.6917" lon="10.79959">
        <ele>85.161602</ele>
        <time>2024-07-20T07:44:31.272Z</time>
      </trkpt>
      <trkpt lat="53.69169" lon="10.79979">
        <ele>85.467314</ele>
        <time>2024-07-20T07:44:34.257Z</time>
      </trkpt>
      <trkpt lat="53.69167" lon="10.80001">
        <ele>85.799819</ele>
        <time>2024-07-20T07:44:37.261Z</time>
      </trkpt>
      <trkpt lat="53.69165" lon="10.80022">
        <ele>86.126716</ele>
        <time>2024-07-20T07:44:40.265Z</time>
      </trkpt>
      <trkpt lat="53.69164" lon="10.8004">
        <ele>86.406548</ele>
        <time>2024-07-20T07:44:43.245Z</time>
      </trkpt>
      <trkpt lat="53.69162" lon="10.80059">
        <ele>86.697847</ele>
        <time>2024-07-20T07:44:46.229Z</time>
      </trkpt>
      <trkpt lat="53.69161" lon="10.80079">
        <ele>86.974993</ele>
        <time>2024-07-20T07:44:49.252Z</time>
      </trkpt>
      <trkpt lat="53.6916" lon="10.80098">
        <ele>87.227015</ele>
        <time>2024-07-20T07:44:52.245Z</time>
      </trkpt>
      <trkpt lat="53.69159" lon="10.80116">
        <ele>87.469519</ele>
        <time>2024-07-20T07:44:55.251Z</time>
      </trkpt>
      <trkpt lat="53.69159" lon="10.80135">
        <ele>87.730364</ele>
        <time>2024-07-20T07:44:58.266Z</time>
      </trkpt>
      <trkpt lat="53.69158" lon="10.80153">
        <ele>87.967975</ele>
        <time>2024-07-20T07:45:01.290Z</time>
      </trkpt>
      <trkpt lat="53.69157" lon="10.80171">
        <ele>88.208058</ele>
        <time>2024-07-20T07:45:04.273Z</time>
      </trkpt>
      <trkpt lat="53.69157" lon="10.80191">
        <ele>88.478395</ele>
        <time>2024-07-20T07:45:07.258Z</time>
      </trkpt>
      <trkpt lat="53.69156" lon="10.80212">
        <ele>88.755492</ele>
        <time>2024-07-20T07:45:10.252Z</time>
      </trkpt>
      <trkpt lat="53.69155" lon="10.80233">
        <ele>89.031262</ele>
        <time>2024-07-20T07:45:13.261Z</time>
      </trkpt>
      <trkpt lat="53.69153" lon="10.80253">
        <ele>89.306663</ele>
        <time>2024-07-20T07:45:16.258Z</time>
      </trkpt>
      <trkpt lat="53.69152" lon="10.80273">
        <ele>89.57139</ele>
        <time>2024-07-20T07:45:19.265Z</time>
      </trkpt>
      <trkpt lat="53.69151" lon="10.80289">
        <ele>89.778289</ele>
        <time>2024-07-20T07:45:21.288Z</time>
      </trkpt>
      <trkpt lat="53.69149" lon="10.80309">
        <ele>90.05369</ele>
        <time>2024-07-20T07:45:24.235Z</time>
      </trkpt>
      <trkpt lat="53.69148" lon="10.8033">
        <ele>90.328427</ele>
        <time>2024-07-20T07:45:27.247Z</time>
      </trkpt>
      <trkpt lat="53.69146" lon="10.80351">
        <ele>90.609261</ele>
        <time>2024-07-20T07:45:30.247Z</time>
      </trkpt>
      <trkpt lat="53.69145" lon="10.80369">
        <ele>90.844927</ele>
        <time>2024-07-20T07:45:33.238Z</time>
      </trkpt>
      <trkpt lat="53.69144" lon="10.80389">
        <ele>91.035236</ele>
        <time>2024-07-20T07:45:36.239Z</time>
      </trkpt>
      <trkpt lat="53.69142" lon="10.80409">
        <ele>91.230976</ele>
        <time>2024-07-20T07:45:39.235Z</time>
      </trkpt>
      <trkpt lat="53.69141" lon="10.8043">
        <ele>91.431788</ele>
        <time>2024-07-20T07:45:42.253Z</time>
      </trkpt>
      <trkpt lat="53.69138" lon="10.80451">
        <ele>91.638235</ele>
        <time>2024-07-20T07:45:45.239Z</time>
      </trkpt>
      <trkpt lat="53.69137" lon="10.80467">
        <ele>91.78486</ele>
        <time>2024-07-20T07:45:47.242Z</time>
      </trkpt>
      <trkpt lat="53.69136" lon="10.80487">
        <ele>91.983776</ele>
        <time>2024-07-20T07:45:50.254Z</time>
      </trkpt>
      <trkpt lat="53.69134" lon="10.80508">
        <ele>92.179749</ele>
        <time>2024-07-20T07:45:53.248Z</time>
      </trkpt>
      <trkpt lat="53.69133" lon="10.80529">
        <ele>92.384469</ele>
        <time>2024-07-20T07:45:56.240Z</time>
      </trkpt>
      <trkpt lat="53.69133" lon="10.80549">
        <ele>92.576615</ele>
        <time>2024-07-20T07:45:59.238Z</time>
      </trkpt>
      <trkpt lat="53.69132" lon="10.80568">
        <ele>92.75732</ele>
        <time>2024-07-20T07:46:02.236Z</time>
      </trkpt>
      <trkpt lat="53.69131" lon="10.80586">
        <ele>92.93373</ele>
        <time>2024-07-20T07:46:05.252Z</time>
      </trkpt>
      <trkpt lat="53.6913" lon="10.80605">
        <ele>93.108752</ele>
        <time>2024-07-20T07:46:08.254Z</time>
      </trkpt>
      <trkpt lat="53.69129" lon="10.80623">
        <ele>93.286451</ele>
        <time>2024-07-20T07:46:11.253Z</time>
      </trkpt>
      <trkpt lat="53.69128" lon="10.80642">
        <ele>93.463185</ele>
        <time>2024-07-20T07:46:14.253Z</time>
      </trkpt>
      <trkpt lat="53.69128" lon="10.80661">
        <ele>93.650488</ele>
        <time>2024-07-20T07:46:17.252Z</time>
      </trkpt>
      <trkpt lat="53.69127" lon="10.80682">
        <ele>93.832484</ele>
        <time>2024-07-20T07:46:20.255Z</time>
      </trkpt>
      <trkpt lat="53.69126" lon="10.807">
        <ele>93.996317</ele>
        <time>2024-07-20T07:46:23.251Z</time>
      </trkpt>
      <trkpt lat="53.69125" lon="10.80721">
        <ele>94.178056</ele>
        <time>2024-07-20T07:46:26.242Z</time>
      </trkpt>
      <trkpt lat="53.69123" lon="10.80741">
        <ele>94.347107</ele>
        <time>2024-07-20T07:46:29.237Z</time>
      </trkpt>
      <trkpt lat="53.6912" lon="10.80759">
        <ele>94.510748</ele>
        <time>2024-07-20T07:46:32.249Z</time>
      </trkpt>
      <trkpt lat="53.69119" lon="10.80776">
        <ele>94.659259</ele>
        <time>2024-07-20T07:46:35.244Z</time>
      </trkpt>
      <trkpt lat="53.69118" lon="10.80793">
        <ele>94.808225</ele>
        <time>2024-07-20T07:46:38.247Z</time>
      </trkpt>
      <trkpt lat="53.69116" lon="10.8081">
        <ele>94.95824</ele>
        <time>2024-07-20T07:46:41.270Z</time>
      </trkpt>
      <trkpt lat="53.69115" lon="10.80827">
        <ele>95.102738</ele>
        <time>2024-07-20T07:46:44.256Z</time>
      </trkpt>
      <trkpt lat="53.69115" lon="10.80843">
        <ele>95.241974</ele>
        <time>2024-07-20T07:46:47.259Z</time>
      </trkpt>
      <trkpt lat="53.69114" lon="10.80862">
        <ele>95.403717</ele>
        <time>2024-07-20T07:46:51.260Z</time>
      </trkpt>
      <trkpt lat="53.69111" lon="10.80877">
        <ele>95.541337</ele>
        <time>2024-07-20T07:46:54.245Z</time>
      </trkpt>
      <trkpt lat="53.69104" lon="10.80893">
        <ele>95.710663</ele>
        <time>2024-07-20T07:46:58.256Z</time>
      </trkpt>
      <trkpt lat="53.69103" lon="10.80909">
        <ele>95.851971</ele>
        <time>2024-07-20T07:47:01.240Z</time>
      </trkpt>
      <trkpt lat="53.69101" lon="10.80926">
        <ele>96.002192</ele>
        <time>2024-07-20T07:47:04.258Z</time>
      </trkpt>
      <trkpt lat="53.69099" lon="10.80945">
        <ele>96.165535</ele>
        <time>2024-07-20T07:47:07.248Z</time>
      </trkpt>
      <trkpt lat="53.69097" lon="10.80964">
        <ele>96.331692</ele>
        <time>2024-07-20T07:47:10.256Z</time>
      </trkpt>
      <trkpt lat="53.69095" lon="10.80983">
        <ele>96.279497</ele>
        <time>2024-07-20T07:47:13.255Z</time>
      </trkpt>
      <trkpt lat="53.69093" lon="10.81002">
        <ele>96.227631</ele>
        <time>2024-07-20T07:47:16.249Z</time>
      </trkpt>
      <trkpt lat="53.69091" lon="10.81022">
        <ele>96.171929</ele>
        <time>2024-07-20T07:47:19.252Z</time>
      </trkpt>
      <trkpt lat="53.69091" lon="10.81041">
        <ele>96.118083</ele>
        <time>2024-07-20T07:47:22.262Z</time>
      </trkpt>
      <trkpt lat="53.69089" lon="10.81061">
        <ele>96.061347</ele>
        <time>2024-07-20T07:47:25.253Z</time>
      </trkpt>
      <trkpt lat="53.69087" lon="10.81081">
        <ele>96.006672</ele>
        <time>2024-07-20T07:47:28.239Z</time>
      </trkpt>
      <trkpt lat="53.69086" lon="10.811">
        <ele>95.952803</ele>
        <time>2024-07-20T07:47:31.251Z</time>
      </trkpt>
      <trkpt lat="53.69084" lon="10.81119">
        <ele>95.8984</ele>
        <time>2024-07-20T07:47:34.243Z</time>
      </trkpt>
      <trkpt lat="53.69082" lon="10.81139">
        <ele>95.842424</ele>
        <time>2024-07-20T07:47:37.224Z</time>
      </trkpt>
      <trkpt lat="53.6908" lon="10.81159">
        <ele>95.78769</ele>
        <time>2024-07-20T07:47:40.272Z</time>
      </trkpt>
      <trkpt lat="53.69078" lon="10.8118">
        <ele>95.72697</ele>
        <time>2024-07-20T07:47:43.249Z</time>
      </trkpt>
      <trkpt lat="53.69075" lon="10.81202">
        <ele>95.666356</ele>
        <time>2024-07-20T07:47:46.258Z</time>
      </trkpt>
      <trkpt lat="53.69074" lon="10.81222">
        <ele>95.609071</ele>
        <time>2024-07-20T07:47:49.244Z</time>
      </trkpt>
      <trkpt lat="53.69071" lon="10.81243">
        <ele>95.551267</ele>
        <time>2024-07-20T07:47:52.249Z</time>
      </trkpt>
      <trkpt lat="53.6907" lon="10.81265">
        <ele>95.48376</ele>
        <time>2024-07-20T07:47:55.240Z</time>
      </trkpt>
      <trkpt lat="53.69068" lon="10.81287">
        <ele>95.343469</ele>
        <time>2024-07-20T07:47:58.253Z</time>
      </trkpt>
      <trkpt lat="53.69066" lon="10.81309">
        <ele>95.201228</ele>
        <time>2024-07-20T07:48:01.290Z</time>
      </trkpt>
      <trkpt lat="53.69064" lon="10.81324">
        <ele>95.101667</ele>
        <time>2024-07-20T07:48:03.248Z</time>
      </trkpt>
      <trkpt lat="53.69063" lon="10.81339">
        <ele>95.002731</ele>
        <time>2024-07-20T07:48:05.263Z</time>
      </trkpt>
      <trkpt lat="53.69062" lon="10.81354">
        <ele>94.902349</ele>
        <time>2024-07-20T07:48:07.250Z</time>
      </trkpt>
      <trkpt lat="53.69059" lon="10.81376">
        <ele>94.759518</ele>
        <time>2024-07-20T07:48:10.243Z</time>
      </trkpt>
      <trkpt lat="53.69058" lon="10.81392">
        <ele>94.654856</ele>
        <time>2024-07-20T07:48:12.245Z</time>
      </trkpt>
      <trkpt lat="53.69056" lon="10.81407">
        <ele>94.554831</ele>
        <time>2024-07-20T07:48:14.235Z</time>
      </trkpt>
      <trkpt lat="53.69055" lon="10.81423">
        <ele>94.451077</ele>
        <time>2024-07-20T07:48:16.248Z</time>
      </trkpt>
      <trkpt lat="53.69053" lon="10.81438">
        <ele>94.351967</ele>
        <time>2024-07-20T07:48:18.234Z</time>
      </trkpt>
      <trkpt lat="53.69052" lon="10.81454">
        <ele>94.251609</ele>
        <time>2024-07-20T07:48:20.248Z</time>
      </trkpt>
      <trkpt lat="53.69051" lon="10.81469">
        <ele>94.150606</ele>
        <time>2024-07-20T07:48:22.248Z</time>
      </trkpt>
      <trkpt lat="53.69049" lon="10.81485">
        <ele>94.047286</ele>
        <time>2024-07-20T07:48:24.252Z</time>
      </trkpt>
      <trkpt lat="53.69046" lon="10.81507">
        <ele>93.898742</ele>
        <time>2024-07-20T07:48:27.246Z</time>
      </trkpt>
      <trkpt lat="53.69045" lon="10.81522">
        <ele>93.799994</ele>
        <time>2024-07-20T07:48:29.246Z</time>
      </trkpt>
      <trkpt lat="53.69043" lon="10.81544">
        <ele>93.661462</ele>
        <time>2024-07-20T07:48:32.249Z</time>
      </trkpt>
      <trkpt lat="53.69042" lon="10.81562">
        <ele>93.541737</ele>
        <time>2024-07-20T07:48:35.236Z</time>
      </trkpt>
      <trkpt lat="53.69044" lon="10.81577">
        <ele>93.502494</ele>
        <time>2024-07-20T07:48:41.258Z</time>
      </trkpt>
      <trkpt lat="53.69042" lon="10.81595">
        <ele>93.468207</ele>
        <time>2024-07-20T07:48:47.235Z</time>
      </trkpt>
      <trkpt lat="53.69041" lon="10.81611">
        <ele>93.437098</ele>
        <time>2024-07-20T07:48:51.248Z</time>
      </trkpt>
      <trkpt lat="53.69039" lon="10.81629">
        <ele>93.401166</ele>
        <time>2024-07-20T07:48:54.248Z</time>
      </trkpt>
      <trkpt lat="53.69037" lon="10.81648">
        <ele>93.363669</ele>
        <time>2024-07-20T07:48:57.246Z</time>
      </trkpt>
      <trkpt lat="53.69036" lon="10.81664">
        <ele>93.333012</ele>
        <time>2024-07-20T07:48:59.246Z</time>
      </trkpt>
      <trkpt lat="53.69034" lon="10.81679">
        <ele>93.302698</ele>
        <time>2024-07-20T07:49:01.255Z</time>
      </trkpt>
      <trkpt lat="53.69032" lon="10.81695">
        <ele>93.271562</ele>
        <time>2024-07-20T07:49:03.231Z</time>
      </trkpt>
      <trkpt lat="53.6903" lon="10.81712">
        <ele>93.239097</ele>
        <time>2024-07-20T07:49:05.243Z</time>
      </trkpt>
      <trkpt lat="53.69029" lon="10.81729">
        <ele>93.205818</ele>
        <time>2024-07-20T07:49:07.246Z</time>
      </trkpt>
      <trkpt lat="53.69027" lon="10.81745">
        <ele>93.173978</ele>
        <time>2024-07-20T07:49:09.225Z</time>
      </trkpt>
      <trkpt lat="53.69025" lon="10.81762">
        <ele>93.141513</ele>
        <time>2024-07-20T07:49:11.260Z</time>
      </trkpt>
      <trkpt lat="53.69024" lon="10.81778">
        <ele>93.110296</ele>
        <time>2024-07-20T07:49:13.224Z</time>
      </trkpt>
      <trkpt lat="53.69023" lon="10.81795">
        <ele>93.076664</ele>
        <time>2024-07-20T07:49:15.237Z</time>
      </trkpt>
      <trkpt lat="53.69021" lon="10.81812">
        <ele>93.043112</ele>
        <time>2024-07-20T07:49:17.238Z</time>
      </trkpt>
      <trkpt lat="53.69019" lon="10.8183">
        <ele>93.00908</ele>
        <time>2024-07-20T07:49:19.241Z</time>
      </trkpt>
      <trkpt lat="53.69018" lon="10.81847">
        <ele>92.975805</ele>
        <time>2024-07-20T07:49:21.248Z</time>
      </trkpt>
      <trkpt lat="53.69017" lon="10.81863">
        <ele>92.945789</ele>
        <time>2024-07-20T07:49:23.253Z</time>
      </trkpt>
      <trkpt lat="53.69015" lon="10.81879">
        <ele>93.044037</ele>
        <time>2024-07-20T07:49:25.255Z</time>
      </trkpt>
      <trkpt lat="53.69014" lon="10.81896">
        <ele>93.147065</ele>
        <time>2024-07-20T07:49:27.259Z</time>
      </trkpt>
      <trkpt lat="53.69013" lon="10.81911">
        <ele>93.239344</ele>
        <time>2024-07-20T07:49:29.240Z</time>
      </trkpt>
      <trkpt lat="53.69011" lon="10.81928">
        <ele>93.344581</ele>
        <time>2024-07-20T07:49:31.261Z</time>
      </trkpt>
      <trkpt lat="53.69009" lon="10.81944">
        <ele>93.443106</ele>
        <time>2024-07-20T07:49:33.244Z</time>
      </trkpt>
      <trkpt lat="53.69007" lon="10.8196">
        <ele>93.536316</ele>
        <time>2024-07-20T07:49:35.235Z</time>
      </trkpt>
      <trkpt lat="53.69005" lon="10.81975">
        <ele>93.629147</ele>
        <time>2024-07-20T07:49:37.243Z</time>
      </trkpt>
      <trkpt lat="53.69004" lon="10.8199">
        <ele>93.722619</ele>
        <time>2024-07-20T07:49:39.242Z</time>
      </trkpt>
      <trkpt lat="53.69002" lon="10.82005">
        <ele>93.815829</ele>
        <time>2024-07-20T07:49:41.245Z</time>
      </trkpt>
      <trkpt lat="53.69" lon="10.82027">
        <ele>93.948722</ele>
        <time>2024-07-20T07:49:44.252Z</time>
      </trkpt>
      <trkpt lat="53.68999" lon="10.82048">
        <ele>94.075002</ele>
        <time>2024-07-20T07:49:47.237Z</time>
      </trkpt>
      <trkpt lat="53.68998" lon="10.82069">
        <ele>94.204692</ele>
        <time>2024-07-20T07:49:50.232Z</time>
      </trkpt>
      <trkpt lat="53.68997" lon="10.82088">
        <ele>94.319172</ele>
        <time>2024-07-20T07:49:53.249Z</time>
      </trkpt>
      <trkpt lat="53.68997" lon="10.82107">
        <ele>94.436945</ele>
        <time>2024-07-20T07:49:56.247Z</time>
      </trkpt>
      <trkpt lat="53.68997" lon="10.82127">
        <ele>94.554079</ele>
        <time>2024-07-20T07:49:59.239Z</time>
      </trkpt>
      <trkpt lat="53.68996" lon="10.82146">
        <ele>94.670716</ele>
        <time>2024-07-20T07:50:02.240Z</time>
      </trkpt>
      <trkpt lat="53.68996" lon="10.82165">
        <ele>94.783159</ele>
        <time>2024-07-20T07:50:05.240Z</time>
      </trkpt>
      <trkpt lat="53.68996" lon="10.82184">
        <ele>94.889447</ele>
        <time>2024-07-20T07:50:08.237Z</time>
      </trkpt>
      <trkpt lat="53.68997" lon="10.82203">
        <ele>94.995784</ele>
        <time>2024-07-20T07:50:11.252Z</time>
      </trkpt>
      <trkpt lat="53.68997" lon="10.82222">
        <ele>95.100003</ele>
        <time>2024-07-20T07:50:14.240Z</time>
      </trkpt>
      <trkpt lat="53.68997" lon="10.8224">
        <ele>95.196932</ele>
        <time>2024-07-20T07:50:17.230Z</time>
      </trkpt>
      <trkpt lat="53.68997" lon="10.82259">
        <ele>95.301005</ele>
        <time>2024-07-20T07:50:20.249Z</time>
      </trkpt>
      <trkpt lat="53.68997" lon="10.82276">
        <ele>95.39737</ele>
        <time>2024-07-20T07:50:23.241Z</time>
      </trkpt>
      <trkpt lat="53.68997" lon="10.82295">
        <ele>95.499343</ele>
        <time>2024-07-20T07:50:26.242Z</time>
      </trkpt>
      <trkpt lat="53.68997" lon="10.82314">
        <ele>95.602315</ele>
        <time>2024-07-20T07:50:29.243Z</time>
      </trkpt>
      <trkpt lat="53.68998" lon="10.82331">
        <ele>95.69859</ele>
        <time>2024-07-20T07:50:32.232Z</time>
      </trkpt>
      <trkpt lat="53.68999" lon="10.82348">
        <ele>95.795519</ele>
        <time>2024-07-20T07:50:35.244Z</time>
      </trkpt>
      <trkpt lat="53.68999" lon="10.82366">
        <ele>95.891549</ele>
        <time>2024-07-20T07:50:38.250Z</time>
      </trkpt>
      <trkpt lat="53.68999" lon="10.82384">
        <ele>95.989561</ele>
        <time>2024-07-20T07:50:41.255Z</time>
      </trkpt>
      <trkpt lat="53.68999" lon="10.82403">
        <ele>96.094285</ele>
        <time>2024-07-20T07:50:44.252Z</time>
      </trkpt>
      <trkpt lat="53.68999" lon="10.82422">
        <ele>96.199521</ele>
        <time>2024-07-20T07:50:47.244Z</time>
      </trkpt>
      <trkpt lat="53.68999" lon="10.82441">
        <ele>96.30748</ele>
        <time>2024-07-20T07:50:50.251Z</time>
      </trkpt>
      <trkpt lat="53.69" lon="10.82461">
        <ele>96.414339</ele>
        <time>2024-07-20T07:50:53.245Z</time>
      </trkpt>
      <trkpt lat="53.69" lon="10.82481">
        <ele>96.347484</ele>
        <time>2024-07-20T07:50:56.245Z</time>
      </trkpt>
      <trkpt lat="53.69" lon="10.82503">
        <ele>96.182069</ele>
        <time>2024-07-20T07:50:59.241Z</time>
      </trkpt>
      <trkpt lat="53.69" lon="10.82523">
        <ele>96.029685</ele>
        <time>2024-07-20T07:51:02.257Z</time>
      </trkpt>
      <trkpt lat="53.69" lon="10.82544">
        <ele>95.865869</ele>
        <time>2024-07-20T07:51:05.237Z</time>
      </trkpt>
      <trkpt lat="53.69" lon="10.82565">
        <ele>95.706607</ele>
        <time>2024-07-20T07:51:08.240Z</time>
      </trkpt>
      <trkpt lat="53.69" lon="10.82581">
        <ele>95.588504</ele>
        <time>2024-07-20T07:51:10.246Z</time>
      </trkpt>
      <trkpt lat="53.68999" lon="10.82603">
        <ele>95.415429</ele>
        <time>2024-07-20T07:51:13.223Z</time>
      </trkpt>
      <trkpt lat="53.68999" lon="10.82619">
        <ele>95.297332</ele>
        <time>2024-07-20T07:51:15.237Z</time>
      </trkpt>
      <trkpt lat="53.68999" lon="10.82635">
        <ele>95.175426</ele>
        <time>2024-07-20T07:51:17.251Z</time>
      </trkpt>
      <trkpt lat="53.69" lon="10.82651">
        <ele>95.055015</ele>
        <time>2024-07-20T07:51:19.248Z</time>
      </trkpt>
      <trkpt lat="53.68999" lon="10.82667">
        <ele>94.930817</ele>
        <time>2024-07-20T07:51:21.245Z</time>
      </trkpt>
      <trkpt lat="53.68999" lon="10.82683">
        <ele>94.806618</ele>
        <time>2024-07-20T07:51:23.243Z</time>
      </trkpt>
      <trkpt lat="53.69" lon="10.827">
        <ele>94.677066</ele>
        <time>2024-07-20T07:51:25.253Z</time>
      </trkpt>
      <trkpt lat="53.69" lon="10.82718">
        <ele>94.544393</ele>
        <time>2024-07-20T07:51:27.234Z</time>
      </trkpt>
      <trkpt lat="53.69" lon="10.82736">
        <ele>94.401909</ele>
        <time>2024-07-20T07:51:29.238Z</time>
      </trkpt>
      <trkpt lat="53.69" lon="10.82755">
        <ele>94.2601</ele>
        <time>2024-07-20T07:51:31.260Z</time>
      </trkpt>
      <trkpt lat="53.69" lon="10.82773">
        <ele>94.127412</ele>
        <time>2024-07-20T07:51:33.241Z</time>
      </trkpt>
      <trkpt lat="53.69001" lon="10.82791">
        <ele>94.044997</ele>
        <time>2024-07-20T07:51:35.245Z</time>
      </trkpt>
      <trkpt lat="53.69002" lon="10.82809">
        <ele>93.963298</ele>
        <time>2024-07-20T07:51:37.242Z</time>
      </trkpt>
      <trkpt lat="53.69003" lon="10.82826">
        <ele>93.881388</ele>
        <time>2024-07-20T07:51:39.252Z</time>
      </trkpt>
      <trkpt lat="53.69004" lon="10.82843">
        <ele>93.803194</ele>
        <time>2024-07-20T07:51:41.254Z</time>
      </trkpt>
      <trkpt lat="53.69005" lon="10.8286">
        <ele>93.727232</ele>
        <time>2024-07-20T07:51:43.237Z</time>
      </trkpt>
      <trkpt lat="53.69007" lon="10.82877">
        <ele>93.647884</ele>
        <time>2024-07-20T07:51:45.241Z</time>
      </trkpt>
      <trkpt lat="53.6901" lon="10.82892">
        <ele>93.570946</ele>
        <time>2024-07-20T07:51:47.239Z</time>
      </trkpt>
      <trkpt lat="53.69014" lon="10.82909">
        <ele>93.48889</ele>
        <time>2024-07-20T07:51:49.239Z</time>
      </trkpt>
      <trkpt lat="53.69018" lon="10.82926">
        <ele>93.406121</ele>
        <time>2024-07-20T07:51:51.259Z</time>
      </trkpt>
      <trkpt lat="53.69022" lon="10.82942">
        <ele>93.327188</ele>
        <time>2024-07-20T07:51:53.257Z</time>
      </trkpt>
      <trkpt lat="53.69025" lon="10.82957">
        <ele>93.250131</ele>
        <time>2024-07-20T07:51:55.244Z</time>
      </trkpt>
      <trkpt lat="53.69029" lon="10.82972">
        <ele>93.175346</ele>
        <time>2024-07-20T07:51:57.252Z</time>
      </trkpt>
      <trkpt lat="53.69033" lon="10.82988">
        <ele>93.098055</ele>
        <time>2024-07-20T07:51:59.243Z</time>
      </trkpt>
      <trkpt lat="53.69037" lon="10.83002">
        <ele>93.024843</ele>
        <time>2024-07-20T07:52:01.249Z</time>
      </trkpt>
      <trkpt lat="53.69041" lon="10.83018">
        <ele>92.947027</ele>
        <time>2024-07-20T07:52:03.240Z</time>
      </trkpt>
      <trkpt lat="53.69045" lon="10.83033">
        <ele>92.870574</ele>
        <time>2024-07-20T07:52:05.239Z</time>
      </trkpt>
      <trkpt lat="53.69049" lon="10.83048">
        <ele>92.795063</ele>
        <time>2024-07-20T07:52:07.241Z</time>
      </trkpt>
      <trkpt lat="53.69052" lon="10.83063">
        <ele>92.733916</ele>
        <time>2024-07-20T07:52:09.237Z</time>
      </trkpt>
      <trkpt lat="53.69056" lon="10.83078">
        <ele>92.715266</ele>
        <time>2024-07-20T07:52:11.258Z</time>
      </trkpt>
      <trkpt lat="53.69061" lon="10.83094">
        <ele>92.696493</ele>
        <time>2024-07-20T07:52:13.242Z</time>
      </trkpt>
      <trkpt lat="53.69065" lon="10.83109">
        <ele>92.678448</ele>
        <time>2024-07-20T07:52:15.239Z</time>
      </trkpt>
      <trkpt lat="53.69069" lon="10.83122">
        <ele>92.661118</ele>
        <time>2024-07-20T07:52:17.232Z</time>
      </trkpt>
      <trkpt lat="53.69072" lon="10.83137">
        <ele>92.643555</ele>
        <time>2024-07-20T07:52:19.244Z</time>
      </trkpt>
      <trkpt lat="53.69077" lon="10.83157">
        <ele>92.619037</ele>
        <time>2024-07-20T07:52:22.244Z</time>
      </trkpt>
      <trkpt lat="53.69083" lon="10.83178">
        <ele>92.593824</ele>
        <time>2024-07-20T07:52:25.254Z</time>
      </trkpt>
      <trkpt lat="53.69089" lon="10.83198">
        <ele>92.56939</ele>
        <time>2024-07-20T07:52:28.247Z</time>
      </trkpt>
      <trkpt lat="53.69094" lon="10.83218">
        <ele>92.544822</ele>
        <time>2024-07-20T07:52:31.250Z</time>
      </trkpt>
      <trkpt lat="53.69099" lon="10.83237">
        <ele>92.521779</ele>
        <time>2024-07-20T07:52:34.256Z</time>
      </trkpt>
      <trkpt lat="53.69105" lon="10.83256">
        <ele>92.498635</ele>
        <time>2024-07-20T07:52:37.270Z</time>
      </trkpt>
      <trkpt lat="53.6911" lon="10.83275">
        <ele>92.474501</ele>
        <time>2024-07-20T07:52:40.252Z</time>
      </trkpt>
      <trkpt lat="53.69115" lon="10.83292">
        <ele>92.453441</ele>
        <time>2024-07-20T07:52:43.256Z</time>
      </trkpt>
      <trkpt lat="53.6912" lon="10.83309">
        <ele>92.432263</ele>
        <time>2024-07-20T07:52:46.249Z</time>
      </trkpt>
      <trkpt lat="53.69125" lon="10.83327">
        <ele>92.411226</ele>
        <time>2024-07-20T07:52:49.248Z</time>
      </trkpt>
      <trkpt lat="53.69129" lon="10.83342">
        <ele>92.376643</ele>
        <time>2024-07-20T07:52:52.260Z</time>
      </trkpt>
      <trkpt lat="53.69133" lon="10.83357">
        <ele>92.332191</ele>
        <time>2024-07-20T07:52:55.247Z</time>
      </trkpt>
      <trkpt lat="53.69138" lon="10.83371">
        <ele>92.284707</ele>
        <time>2024-07-20T07:52:58.258Z</time>
      </trkpt>
      <trkpt lat="53.69142" lon="10.83386">
        <ele>92.236458</ele>
        <time>2024-07-20T07:53:01.278Z</time>
      </trkpt>
      <trkpt lat="53.69146" lon="10.834">
        <ele>92.192322</ele>
        <time>2024-07-20T07:53:04.272Z</time>
      </trkpt>
      <trkpt lat="53.69151" lon="10.83418">
        <ele>92.134492</ele>
        <time>2024-07-20T07:53:08.270Z</time>
      </trkpt>
      <trkpt lat="53.69155" lon="10.83432">
        <ele>92.089715</ele>
        <time>2024-07-20T07:53:11.278Z</time>
      </trkpt>
      <trkpt lat="53.69159" lon="10.83446">
        <ele>92.045524</ele>
        <time>2024-07-20T07:53:14.261Z</time>
      </trkpt>
      <trkpt lat="53.69163" lon="10.83461">
        <ele>91.998949</ele>
        <time>2024-07-20T07:53:17.247Z</time>
      </trkpt>
      <trkpt lat="53.69167" lon="10.83475">
        <ele>91.953359</ele>
        <time>2024-07-20T07:53:20.257Z</time>
      </trkpt>
      <trkpt lat="53.69172" lon="10.8349">
        <ele>91.906313</ele>
        <time>2024-07-20T07:53:23.248Z</time>
      </trkpt>
      <trkpt lat="53.69176" lon="10.83507">
        <ele>91.853517</ele>
        <time>2024-07-20T07:53:26.247Z</time>
      </trkpt>
      <trkpt lat="53.69182" lon="10.83524">
        <ele>91.79686</ele>
        <time>2024-07-20T07:53:29.251Z</time>
      </trkpt>
      <trkpt lat="53.69186" lon="10.83543">
        <ele>91.737324</ele>
        <time>2024-07-20T07:53:32.256Z</time>
      </trkpt>
      <trkpt lat="53.69191" lon="10.83562">
        <ele>91.678425</ele>
        <time>2024-07-20T07:53:35.235Z</time>
      </trkpt>
      <trkpt lat="53.69196" lon="10.83581">
        <ele>91.619664</ele>
        <time>2024-07-20T07:53:38.238Z</time>
      </trkpt>
      <trkpt lat="53.69201" lon="10.83598">
        <ele>91.563393</ele>
        <time>2024-07-20T07:53:41.249Z</time>
      </trkpt>
      <trkpt lat="53.69205" lon="10.83615">
        <ele>91.521211</ele>
        <time>2024-07-20T07:53:44.244Z</time>
      </trkpt>
      <trkpt lat="53.6921" lon="10.83631">
        <ele>91.49954</ele>
        <time>2024-07-20T07:53:47.250Z</time>
      </trkpt>
      <trkpt lat="53.69213" lon="10.83646">
        <ele>91.479199</ele>
        <time>2024-07-20T07:53:50.249Z</time>
      </trkpt>
      <trkpt lat="53.69215" lon="10.83662">
        <ele>91.458203</ele>
        <time>2024-07-20T07:53:53.244Z</time>
      </trkpt>
      <trkpt lat="53.6922" lon="10.83677">
        <ele>91.436628</ele>
        <time>2024-07-20T07:53:56.244Z</time>
      </trkpt>
      <trkpt lat="53.69225" lon="10.83693">
        <ele>91.412987</ele>
        <time>2024-07-20T07:53:59.240Z</time>
      </trkpt>
      <trkpt lat="53.69229" lon="10.83708">
        <ele>91.392711</ele>
        <time>2024-07-20T07:54:02.248Z</time>
      </trkpt>
      <trkpt lat="53.69233" lon="10.83722">
        <ele>91.373196</ele>
        <time>2024-07-20T07:54:05.246Z</time>
      </trkpt>
      <trkpt lat="53.69236" lon="10.83736">
        <ele>91.352817</ele>
        <time>2024-07-20T07:54:08.253Z</time>
      </trkpt>
      <trkpt lat="53.69241" lon="10.83751">
        <ele>91.332182</ele>
        <time>2024-07-20T07:54:11.280Z</time>
      </trkpt>
      <trkpt lat="53.69245" lon="10.83768">
        <ele>91.308072</ele>
        <time>2024-07-20T07:54:14.251Z</time>
      </trkpt>
      <trkpt lat="53.6925" lon="10.83789">
        <ele>91.279967</ele>
        <time>2024-07-20T07:54:17.244Z</time>
      </trkpt>
      <trkpt lat="53.69253" lon="10.83809">
        <ele>91.253327</ele>
        <time>2024-07-20T07:54:20.233Z</time>
      </trkpt>
      <trkpt lat="53.69255" lon="10.8383">
        <ele>91.226562</ele>
        <time>2024-07-20T07:54:23.253Z</time>
      </trkpt>
      <trkpt lat="53.69257" lon="10.8385">
        <ele>91.200434</ele>
        <time>2024-07-20T07:54:26.260Z</time>
      </trkpt>
      <trkpt lat="53.69259" lon="10.83868">
        <ele>91.177526</ele>
        <time>2024-07-20T07:54:29.247Z</time>
      </trkpt>
      <trkpt lat="53.6926" lon="10.83886">
        <ele>91.153866</ele>
        <time>2024-07-20T07:54:32.250Z</time>
      </trkpt>
      <trkpt lat="53.69261" lon="10.83906">
        <ele>91.137111</ele>
        <time>2024-07-20T07:54:35.261Z</time>
      </trkpt>
      <trkpt lat="53.69261" lon="10.83926">
        <ele>91.126485</ele>
        <time>2024-07-20T07:54:38.251Z</time>
      </trkpt>
      <trkpt lat="53.69262" lon="10.83946">
        <ele>91.115175</ele>
        <time>2024-07-20T07:54:41.285Z</time>
      </trkpt>
      <trkpt lat="53.69263" lon="10.83967">
        <ele>91.103995</ele>
        <time>2024-07-20T07:54:44.267Z</time>
      </trkpt>
      <trkpt lat="53.69262" lon="10.83986">
        <ele>91.093555</ele>
        <time>2024-07-20T07:54:47.327Z</time>
      </trkpt>
      <trkpt lat="53.69263" lon="10.84007">
        <ele>91.08231</ele>
        <time>2024-07-20T07:54:50.257Z</time>
      </trkpt>
      <trkpt lat="53.69264" lon="10.84026">
        <ele>91.071474</ele>
        <time>2024-07-20T07:54:53.245Z</time>
      </trkpt>
      <trkpt lat="53.69265" lon="10.84044">
        <ele>91.06204</ele>
        <time>2024-07-20T07:54:56.256Z</time>
      </trkpt>
      <trkpt lat="53.69266" lon="10.8406">
        <ele>91.052839</ele>
        <time>2024-07-20T07:54:59.255Z</time>
      </trkpt>
      <trkpt lat="53.69267" lon="10.84078">
        <ele>91.043175</ele>
        <time>2024-07-20T07:55:02.266Z</time>
      </trkpt>
      <trkpt lat="53.6927" lon="10.84094">
        <ele>91.033766</ele>
        <time>2024-07-20T07:55:05.271Z</time>
      </trkpt>
      <trkpt lat="53.69273" lon="10.84111">
        <ele>91.024719</ele>
        <time>2024-07-20T07:55:08.231Z</time>
      </trkpt>
      <trkpt lat="53.69274" lon="10.84128">
        <ele>91.015076</ele>
        <time>2024-07-20T07:55:11.273Z</time>
      </trkpt>
      <trkpt lat="53.69274" lon="10.84144">
        <ele>91.006672</ele>
        <time>2024-07-20T07:55:14.271Z</time>
      </trkpt>
      <trkpt lat="53.69275" lon="10.84162">
        <ele>90.996332</ele>
        <time>2024-07-20T07:55:18.253Z</time>
      </trkpt>
      <trkpt lat="53.69276" lon="10.84178">
        <ele>90.987854</ele>
        <time>2024-07-20T07:55:21.288Z</time>
      </trkpt>
      <trkpt lat="53.69277" lon="10.84195">
        <ele>90.978471</ele>
        <time>2024-07-20T07:55:24.250Z</time>
      </trkpt>
      <trkpt lat="53.69277" lon="10.84211">
        <ele>91.209642</ele>
        <time>2024-07-20T07:55:27.256Z</time>
      </trkpt>
      <trkpt lat="53.69278" lon="10.84227">
        <ele>91.444899</ele>
        <time>2024-07-20T07:55:30.262Z</time>
      </trkpt>
      <trkpt lat="53.69278" lon="10.84243">
        <ele>91.682947</ele>
        <time>2024-07-20T07:55:33.263Z</time>
      </trkpt>
      <trkpt lat="53.69279" lon="10.84258">
        <ele>91.918972</ele>
        <time>2024-07-20T07:55:36.273Z</time>
      </trkpt>
      <trkpt lat="53.6928" lon="10.84275">
        <ele>92.177088</ele>
        <time>2024-07-20T07:55:39.241Z</time>
      </trkpt>
      <trkpt lat="53.69281" lon="10.84293">
        <ele>92.440878</ele>
        <time>2024-07-20T07:55:42.236Z</time>
      </trkpt>
      <trkpt lat="53.69282" lon="10.84311">
        <ele>92.71912</ele>
        <time>2024-07-20T07:55:45.262Z</time>
      </trkpt>
      <trkpt lat="53.69282" lon="10.84331">
        <ele>93.023568</ele>
        <time>2024-07-20T07:55:48.266Z</time>
      </trkpt>
      <trkpt lat="53.69283" lon="10.84351">
        <ele>93.32431</ele>
        <time>2024-07-20T07:55:51.299Z</time>
      </trkpt>
      <trkpt lat="53.69284" lon="10.84369">
        <ele>93.592943</ele>
        <time>2024-07-20T07:55:54.248Z</time>
      </trkpt>
      <trkpt lat="53.69285" lon="10.84389">
        <ele>93.896003</ele>
        <time>2024-07-20T07:55:57.252Z</time>
      </trkpt>
      <trkpt lat="53.69286" lon="10.8441">
        <ele>94.204388</ele>
        <time>2024-07-20T07:56:00.265Z</time>
      </trkpt>
      <trkpt lat="53.69287" lon="10.8443">
        <ele>94.510752</ele>
        <time>2024-07-20T07:56:03.261Z</time>
      </trkpt>
      <trkpt lat="53.69288" lon="10.84451">
        <ele>94.826501</ele>
        <time>2024-07-20T07:56:06.263Z</time>
      </trkpt>
      <trkpt lat="53.6929" lon="10.84472">
        <ele>95.151003</ele>
        <time>2024-07-20T07:56:09.250Z</time>
      </trkpt>
      <trkpt lat="53.69292" lon="10.84493">
        <ele>95.47427</ele>
        <time>2024-07-20T07:56:12.257Z</time>
      </trkpt>
      <trkpt lat="53.69292" lon="10.84515">
        <ele>95.681368</ele>
        <time>2024-07-20T07:56:15.220Z</time>
      </trkpt>
      <trkpt lat="53.69294" lon="10.84537">
        <ele>95.846175</ele>
        <time>2024-07-20T07:56:18.259Z</time>
      </trkpt>
      <trkpt lat="53.69295" lon="10.84557">
        <ele>96.007154</ele>
        <time>2024-07-20T07:56:21.283Z</time>
      </trkpt>
      <trkpt lat="53.69296" lon="10.84579">
        <ele>96.175187</ele>
        <time>2024-07-20T07:56:24.246Z</time>
      </trkpt>
      <trkpt lat="53.69297" lon="10.846">
        <ele>96.339228</ele>
        <time>2024-07-20T07:56:27.249Z</time>
      </trkpt>
      <trkpt lat="53.69298" lon="10.84622">
        <ele>96.505703</ele>
        <time>2024-07-20T07:56:30.248Z</time>
      </trkpt>
      <trkpt lat="53.693" lon="10.84644">
        <ele>96.674535</ele>
        <time>2024-07-20T07:56:33.235Z</time>
      </trkpt>
      <trkpt lat="53.69301" lon="10.84665">
        <ele>96.841193</ele>
        <time>2024-07-20T07:56:36.255Z</time>
      </trkpt>
      <trkpt lat="53.69302" lon="10.84687">
        <ele>97.008457</ele>
        <time>2024-07-20T07:56:39.243Z</time>
      </trkpt>
      <trkpt lat="53.69303" lon="10.84702">
        <ele>97.125907</ele>
        <time>2024-07-20T07:56:41.287Z</time>
      </trkpt>
      <trkpt lat="53.69304" lon="10.84723">
        <ele>97.291233</ele>
        <time>2024-07-20T07:56:44.253Z</time>
      </trkpt>
      <trkpt lat="53.69305" lon="10.84745">
        <ele>97.458755</ele>
        <time>2024-07-20T07:56:47.260Z</time>
      </trkpt>
      <trkpt lat="53.69307" lon="10.84767">
        <ele>97.626463</ele>
        <time>2024-07-20T07:56:50.249Z</time>
      </trkpt>
      <trkpt lat="53.69308" lon="10.84789">
        <ele>97.799571</ele>
        <time>2024-07-20T07:56:53.244Z</time>
      </trkpt>
      <trkpt lat="53.69309" lon="10.84811">
        <ele>97.835454</ele>
        <time>2024-07-20T07:56:56.254Z</time>
      </trkpt>
      <trkpt lat="53.69311" lon="10.84833">
        <ele>97.720903</ele>
        <time>2024-07-20T07:56:59.247Z</time>
      </trkpt>
      <trkpt lat="53.69311" lon="10.84849">
        <ele>97.639383</ele>
        <time>2024-07-20T07:57:01.296Z</time>
      </trkpt>
      <trkpt lat="53.69312" lon="10.84865">
        <ele>97.553929</ele>
        <time>2024-07-20T07:57:03.252Z</time>
      </trkpt>
      <trkpt lat="53.69313" lon="10.84881">
        <ele>97.468638</ele>
        <time>2024-07-20T07:57:05.234Z</time>
      </trkpt>
      <trkpt lat="53.69314" lon="10.84898">
        <ele>97.382751</ele>
        <time>2024-07-20T07:57:07.240Z</time>
      </trkpt>
      <trkpt lat="53.69315" lon="10.84914">
        <ele>97.298132</ele>
        <time>2024-07-20T07:57:09.237Z</time>
      </trkpt>
      <trkpt lat="53.69316" lon="10.8493">
        <ele>97.215622</ele>
        <time>2024-07-20T07:57:11.288Z</time>
      </trkpt>
      <trkpt lat="53.69317" lon="10.84945">
        <ele>97.132663</ele>
        <time>2024-07-20T07:57:13.233Z</time>
      </trkpt>
      <trkpt lat="53.69318" lon="10.84961">
        <ele>97.049186</ele>
        <time>2024-07-20T07:57:15.235Z</time>
      </trkpt>
      <trkpt lat="53.69319" lon="10.84978">
        <ele>96.960777</ele>
        <time>2024-07-20T07:57:17.245Z</time>
      </trkpt>
      <trkpt lat="53.69319" lon="10.84995">
        <ele>96.871567</ele>
        <time>2024-07-20T07:57:19.231Z</time>
      </trkpt>
      <trkpt lat="53.6932" lon="10.85012">
        <ele>96.782044</ele>
        <time>2024-07-20T07:57:21.254Z</time>
      </trkpt>
      <trkpt lat="53.69321" lon="10.85029">
        <ele>96.693693</ele>
        <time>2024-07-20T07:57:23.240Z</time>
      </trkpt>
      <trkpt lat="53.69322" lon="10.85046">
        <ele>96.605451</ele>
        <time>2024-07-20T07:57:25.246Z</time>
      </trkpt>
      <trkpt lat="53.69323" lon="10.85064">
        <ele>96.510733</ele>
        <time>2024-07-20T07:57:27.236Z</time>
      </trkpt>
      <trkpt lat="53.69324" lon="10.85083">
        <ele>96.413258</ele>
        <time>2024-07-20T07:57:29.221Z</time>
      </trkpt>
      <trkpt lat="53.69326" lon="10.85101">
        <ele>96.314968</ele>
        <time>2024-07-20T07:57:31.263Z</time>
      </trkpt>
      <trkpt lat="53.69327" lon="10.85121">
        <ele>96.256896</ele>
        <time>2024-07-20T07:57:33.236Z</time>
      </trkpt>
      <trkpt lat="53.69328" lon="10.85141">
        <ele>96.200389</ele>
        <time>2024-07-20T07:57:35.235Z</time>
      </trkpt>
      <trkpt lat="53.69329" lon="10.8516">
        <ele>96.144276</ele>
        <time>2024-07-20T07:57:37.233Z</time>
      </trkpt>
      <trkpt lat="53.6933" lon="10.85179">
        <ele>96.092092</ele>
        <time>2024-07-20T07:57:39.246Z</time>
      </trkpt>
      <trkpt lat="53.69331" lon="10.85198">
        <ele>96.038057</ele>
        <time>2024-07-20T07:57:41.257Z</time>
      </trkpt>
      <trkpt lat="53.69332" lon="10.85216">
        <ele>95.986029</ele>
        <time>2024-07-20T07:57:43.234Z</time>
      </trkpt>
      <trkpt lat="53.69333" lon="10.85235">
        <ele>95.934842</ele>
        <time>2024-07-20T07:57:45.238Z</time>
      </trkpt>
      <trkpt lat="53.69334" lon="10.85252">
        <ele>95.885333</ele>
        <time>2024-07-20T07:57:47.236Z</time>
      </trkpt>
      <trkpt lat="53.69334" lon="10.85268">
        <ele>95.840318</ele>
        <time>2024-07-20T07:57:49.232Z</time>
      </trkpt>
      <trkpt lat="53.69336" lon="10.85285">
        <ele>95.791475</ele>
        <time>2024-07-20T07:57:51.274Z</time>
      </trkpt>
      <trkpt lat="53.69337" lon="10.85307">
        <ele>95.731325</ele>
        <time>2024-07-20T07:57:54.257Z</time>
      </trkpt>
      <trkpt lat="53.69337" lon="10.85327">
        <ele>95.673021</ele>
        <time>2024-07-20T07:57:57.233Z</time>
      </trkpt>
      <trkpt lat="53.69336" lon="10.85347">
        <ele>95.61804</ele>
        <time>2024-07-20T07:58:00.237Z</time>
      </trkpt>
      <trkpt lat="53.69335" lon="10.85368">
        <ele>95.557789</ele>
        <time>2024-07-20T07:58:03.227Z</time>
      </trkpt>
      <trkpt lat="53.69337" lon="10.85389">
        <ele>95.49912</ele>
        <time>2024-07-20T07:58:06.232Z</time>
      </trkpt>
      <trkpt lat="53.69338" lon="10.8541">
        <ele>95.473821</ele>
        <time>2024-07-20T07:58:09.250Z</time>
      </trkpt>
      <trkpt lat="53.69341" lon="10.85431">
        <ele>95.576719</ele>
        <time>2024-07-20T07:58:12.249Z</time>
      </trkpt>
      <trkpt lat="53.69342" lon="10.85451">
        <ele>95.672683</ele>
        <time>2024-07-20T07:58:15.232Z</time>
      </trkpt>
      <trkpt lat="53.69343" lon="10.85467">
        <ele>95.746903</ele>
        <time>2024-07-20T07:58:17.243Z</time>
      </trkpt>
      <trkpt lat="53.69344" lon="10.85483">
        <ele>95.822632</ele>
        <time>2024-07-20T07:58:19.241Z</time>
      </trkpt>
      <trkpt lat="53.69346" lon="10.85506">
        <ele>95.932947</ele>
        <time>2024-07-20T07:58:22.241Z</time>
      </trkpt>
      <trkpt lat="53.69347" lon="10.85521">
        <ele>96.008409</ele>
        <time>2024-07-20T07:58:24.233Z</time>
      </trkpt>
      <trkpt lat="53.69348" lon="10.85539">
        <ele>96.091078</ele>
        <time>2024-07-20T07:58:26.240Z</time>
      </trkpt>
      <trkpt lat="53.69349" lon="10.85555">
        <ele>96.169728</ele>
        <time>2024-07-20T07:58:28.251Z</time>
      </trkpt>
      <trkpt lat="53.6935" lon="10.85572">
        <ele>96.249957</ele>
        <time>2024-07-20T07:58:30.232Z</time>
      </trkpt>
      <trkpt lat="53.69352" lon="10.85589">
        <ele>96.334128</ele>
        <time>2024-07-20T07:58:32.230Z</time>
      </trkpt>
      <trkpt lat="53.69353" lon="10.85606">
        <ele>96.415723</ele>
        <time>2024-07-20T07:58:34.248Z</time>
      </trkpt>
      <trkpt lat="53.69355" lon="10.85623">
        <ele>96.496672</ele>
        <time>2024-07-20T07:58:36.242Z</time>
      </trkpt>
      <trkpt lat="53.69357" lon="10.8564">
        <ele>96.578753</ele>
        <time>2024-07-20T07:58:38.261Z</time>
      </trkpt>
      <trkpt lat="53.69359" lon="10.85658">
        <ele>96.665281</ele>
        <time>2024-07-20T07:58:40.248Z</time>
      </trkpt>
      <trkpt lat="53.6936" lon="10.85675">
        <ele>96.745104</ele>
        <time>2024-07-20T07:58:42.246Z</time>
      </trkpt>
      <trkpt lat="53.6936" lon="10.8569">
        <ele>96.818957</ele>
        <time>2024-07-20T07:58:44.253Z</time>
      </trkpt>
      <trkpt lat="53.69361" lon="10.85708">
        <ele>96.876556</ele>
        <time>2024-07-20T07:58:46.252Z</time>
      </trkpt>
      <trkpt lat="53.69362" lon="10.85725">
        <ele>96.537584</ele>
        <time>2024-07-20T07:58:48.235Z</time>
      </trkpt>
      <trkpt lat="53.69364" lon="10.85743">
        <ele>96.204581</ele>
        <time>2024-07-20T07:58:50.245Z</time>
      </trkpt>
      <trkpt lat="53.69365" lon="10.8576">
        <ele>95.873948</ele>
        <time>2024-07-20T07:58:52.263Z</time>
      </trkpt>
      <trkpt lat="53.69365" lon="10.85779">
        <ele>95.519198</ele>
        <time>2024-07-20T07:58:54.260Z</time>
      </trkpt>
      <trkpt lat="53.69367" lon="10.85798">
        <ele>95.144526</ele>
        <time>2024-07-20T07:58:56.247Z</time>
      </trkpt>
      <trkpt lat="53.69368" lon="10.85818">
        <ele>94.761475</ele>
        <time>2024-07-20T07:58:58.238Z</time>
      </trkpt>
      <trkpt lat="53.6937" lon="10.85839">
        <ele>94.375519</ele>
        <time>2024-07-20T07:59:00.245Z</time>
      </trkpt>
      <trkpt lat="53.69372" lon="10.8586">
        <ele>93.967479</ele>
        <time>2024-07-20T07:59:02.237Z</time>
      </trkpt>
      <trkpt lat="53.69374" lon="10.85882">
        <ele>93.535143</ele>
        <time>2024-07-20T07:59:04.234Z</time>
      </trkpt>
      <trkpt lat="53.69376" lon="10.85904">
        <ele>93.124336</ele>
        <time>2024-07-20T07:59:06.231Z</time>
      </trkpt>
      <trkpt lat="53.69378" lon="10.85926">
        <ele>92.691122</ele>
        <time>2024-07-20T07:59:08.240Z</time>
      </trkpt>
      <trkpt lat="53.6938" lon="10.85951">
        <ele>92.225352</ele>
        <time>2024-07-20T07:59:10.233Z</time>
      </trkpt>
      <trkpt lat="53.69382" lon="10.85976">
        <ele>91.748529</ele>
        <time>2024-07-20T07:59:12.251Z</time>
      </trkpt>
      <trkpt lat="53.69383" lon="10.86">
        <ele>91.278122</ele>
        <time>2024-07-20T07:59:14.234Z</time>
      </trkpt>
      <trkpt lat="53.69384" lon="10.86026">
        <ele>90.573788</ele>
        <time>2024-07-20T07:59:16.243Z</time>
      </trkpt>
      <trkpt lat="53.69385" lon="10.86053">
        <ele>89.726192</ele>
        <time>2024-07-20T07:59:18.226Z</time>
      </trkpt>
      <trkpt lat="53.69384" lon="10.8608">
        <ele>88.887059</ele>
        <time>2024-07-20T07:59:20.245Z</time>
      </trkpt>
      <trkpt lat="53.69383" lon="10.86105">
        <ele>88.112147</ele>
        <time>2024-07-20T07:59:22.245Z</time>
      </trkpt>
      <trkpt lat="53.69381" lon="10.8613">
        <ele>87.333702</ele>
        <time>2024-07-20T07:59:24.237Z</time>
      </trkpt>
      <trkpt lat="53.6938" lon="10.86156">
        <ele>86.532134</ele>
        <time>2024-07-20T07:59:26.233Z</time>
      </trkpt>
      <trkpt lat="53.69378" lon="10.86181">
        <ele>85.754041</ele>
        <time>2024-07-20T07:59:28.246Z</time>
      </trkpt>
      <trkpt lat="53.69377" lon="10.86203">
        <ele>85.054535</ele>
        <time>2024-07-20T07:59:30.249Z</time>
      </trkpt>
      <trkpt lat="53.69376" lon="10.86223">
        <ele>84.429987</ele>
        <time>2024-07-20T07:59:32.244Z</time>
      </trkpt>
      <trkpt lat="53.69376" lon="10.86243">
        <ele>83.81252</ele>
        <time>2024-07-20T07:59:34.226Z</time>
      </trkpt>
      <trkpt lat="53.69373" lon="10.86265">
        <ele>83.119461</ele>
        <time>2024-07-20T07:59:36.234Z</time>
      </trkpt>
      <trkpt lat="53.69371" lon="10.86285">
        <ele>82.478255</ele>
        <time>2024-07-20T07:59:38.239Z</time>
      </trkpt>
      <trkpt lat="53.69369" lon="10.86304">
        <ele>81.879662</ele>
        <time>2024-07-20T07:59:40.246Z</time>
      </trkpt>
      <trkpt lat="53.69367" lon="10.86322">
        <ele>81.760686</ele>
        <time>2024-07-20T07:59:42.251Z</time>
      </trkpt>
      <trkpt lat="53.69365" lon="10.86338">
        <ele>81.81423</ele>
        <time>2024-07-20T07:59:44.258Z</time>
      </trkpt>
      <trkpt lat="53.69363" lon="10.86356">
        <ele>81.875892</ele>
        <time>2024-07-20T07:59:46.234Z</time>
      </trkpt>
      <trkpt lat="53.69361" lon="10.86373">
        <ele>81.935803</ele>
        <time>2024-07-20T07:59:48.275Z</time>
      </trkpt>
      <trkpt lat="53.69359" lon="10.86389">
        <ele>81.989315</ele>
        <time>2024-07-20T07:59:50.246Z</time>
      </trkpt>
      <trkpt lat="53.69357" lon="10.8641">
        <ele>82.06187</ele>
        <time>2024-07-20T07:59:53.248Z</time>
      </trkpt>
      <trkpt lat="53.69355" lon="10.86431">
        <ele>82.131352</ele>
        <time>2024-07-20T07:59:56.251Z</time>
      </trkpt>
      <trkpt lat="53.69353" lon="10.86451">
        <ele>82.202925</ele>
        <time>2024-07-20T07:59:59.234Z</time>
      </trkpt>
      <trkpt lat="53.69352" lon="10.86472">
        <ele>82.272062</ele>
        <time>2024-07-20T08:00:02.246Z</time>
      </trkpt>
      <trkpt lat="53.6935" lon="10.86491">
        <ele>82.338011</ele>
        <time>2024-07-20T08:00:05.232Z</time>
      </trkpt>
      <trkpt lat="53.69347" lon="10.8651">
        <ele>82.403607</ele>
        <time>2024-07-20T08:00:08.250Z</time>
      </trkpt>
      <trkpt lat="53.69346" lon="10.8653">
        <ele>82.469409</ele>
        <time>2024-07-20T08:00:11.295Z</time>
      </trkpt>
      <trkpt lat="53.69345" lon="10.86549">
        <ele>82.535557</ele>
        <time>2024-07-20T08:00:14.244Z</time>
      </trkpt>
      <trkpt lat="53.69343" lon="10.8657">
        <ele>82.6068</ele>
        <time>2024-07-20T08:00:17.243Z</time>
      </trkpt>
      <trkpt lat="53.69341" lon="10.86592">
        <ele>82.681589</ele>
        <time>2024-07-20T08:00:20.250Z</time>
      </trkpt>
      <trkpt lat="53.69339" lon="10.86615">
        <ele>82.68958</ele>
        <time>2024-07-20T08:00:23.251Z</time>
      </trkpt>
      <trkpt lat="53.69338" lon="10.86637">
        <ele>82.513717</ele>
        <time>2024-07-20T08:00:26.247Z</time>
      </trkpt>
      <trkpt lat="53.69339" lon="10.86659">
        <ele>82.34608</ele>
        <time>2024-07-20T08:00:29.237Z</time>
      </trkpt>
      <trkpt lat="53.69339" lon="10.86674">
        <ele>82.226965</ele>
        <time>2024-07-20T08:00:31.277Z</time>
      </trkpt>
      <trkpt lat="53.69336" lon="10.86696">
        <ele>82.048752</ele>
        <time>2024-07-20T08:00:34.251Z</time>
      </trkpt>
      <trkpt lat="53.69335" lon="10.86713">
        <ele>81.918063</ele>
        <time>2024-07-20T08:00:36.276Z</time>
      </trkpt>
      <trkpt lat="53.69333" lon="10.86729">
        <ele>81.786714</ele>
        <time>2024-07-20T08:00:38.244Z</time>
      </trkpt>
      <trkpt lat="53.69331" lon="10.86746">
        <ele>81.652043</ele>
        <time>2024-07-20T08:00:40.241Z</time>
      </trkpt>
      <trkpt lat="53.69329" lon="10.86763">
        <ele>81.515321</ele>
        <time>2024-07-20T08:00:42.238Z</time>
      </trkpt>
      <trkpt lat="53.69328" lon="10.86781">
        <ele>81.37768</ele>
        <time>2024-07-20T08:00:44.248Z</time>
      </trkpt>
      <trkpt lat="53.69327" lon="10.86798">
        <ele>81.241758</ele>
        <time>2024-07-20T08:00:46.235Z</time>
      </trkpt>
      <trkpt lat="53.69326" lon="10.86817">
        <ele>81.095657</ele>
        <time>2024-07-20T08:00:48.251Z</time>
      </trkpt>
      <trkpt lat="53.69325" lon="10.86835">
        <ele>80.948253</ele>
        <time>2024-07-20T08:00:50.244Z</time>
      </trkpt>
      <trkpt lat="53.69323" lon="10.86854">
        <ele>80.799484</ele>
        <time>2024-07-20T08:00:52.231Z</time>
      </trkpt>
      <trkpt lat="53.6932" lon="10.86874">
        <ele>80.638691</ele>
        <time>2024-07-20T08:00:54.239Z</time>
      </trkpt>
      <trkpt lat="53.69318" lon="10.86895">
        <ele>80.472019</ele>
        <time>2024-07-20T08:00:56.234Z</time>
      </trkpt>
      <trkpt lat="53.69316" lon="10.86915">
        <ele>80.387428</ele>
        <time>2024-07-20T08:00:58.238Z</time>
      </trkpt>
      <trkpt lat="53.69313" lon="10.86936">
        <ele>80.480297</ele>
        <time>2024-07-20T08:01:00.238Z</time>
      </trkpt>
      <trkpt lat="53.69311" lon="10.86957">
        <ele>80.573756</ele>
        <time>2024-07-20T08:01:02.243Z</time>
      </trkpt>
      <trkpt lat="53.69309" lon="10.86978">
        <ele>80.668623</ele>
        <time>2024-07-20T08:01:04.243Z</time>
      </trkpt>
      <trkpt lat="53.69306" lon="10.87">
        <ele>80.765085</ele>
        <time>2024-07-20T08:01:06.247Z</time>
      </trkpt>
      <trkpt lat="53.69304" lon="10.8702">
        <ele>80.854532</ele>
        <time>2024-07-20T08:01:08.235Z</time>
      </trkpt>
      <trkpt lat="53.69303" lon="10.87041">
        <ele>80.946329</ele>
        <time>2024-07-20T08:01:10.247Z</time>
      </trkpt>
      <trkpt lat="53.69301" lon="10.87061">
        <ele>81.036474</ele>
        <time>2024-07-20T08:01:12.237Z</time>
      </trkpt>
      <trkpt lat="53.69299" lon="10.87079">
        <ele>81.119076</ele>
        <time>2024-07-20T08:01:14.242Z</time>
      </trkpt>
      <trkpt lat="53.69298" lon="10.87098">
        <ele>81.202239</ele>
        <time>2024-07-20T08:01:16.250Z</time>
      </trkpt>
      <trkpt lat="53.69296" lon="10.87116">
        <ele>81.282329</ele>
        <time>2024-07-20T08:01:18.249Z</time>
      </trkpt>
      <trkpt lat="53.69294" lon="10.87131">
        <ele>81.351261</ele>
        <time>2024-07-20T08:01:20.236Z</time>
      </trkpt>
      <trkpt lat="53.69292" lon="10.87147">
        <ele>81.421311</ele>
        <time>2024-07-20T08:01:22.258Z</time>
      </trkpt>
      <trkpt lat="53.6929" lon="10.87169">
        <ele>81.516763</ele>
        <time>2024-07-20T08:01:25.245Z</time>
      </trkpt>
      <trkpt lat="53.6929" lon="10.87189">
        <ele>81.606109</ele>
        <time>2024-07-20T08:01:28.241Z</time>
      </trkpt>
      <trkpt lat="53.69288" lon="10.87208">
        <ele>81.689536</ele>
        <time>2024-07-20T08:01:31.249Z</time>
      </trkpt>
      <trkpt lat="53.69287" lon="10.87226">
        <ele>81.972582</ele>
        <time>2024-07-20T08:01:34.251Z</time>
      </trkpt>
      <trkpt lat="53.69285" lon="10.87244">
        <ele>82.253451</ele>
        <time>2024-07-20T08:01:37.235Z</time>
      </trkpt>
      <trkpt lat="53.69283" lon="10.87261">
        <ele>82.530734</ele>
        <time>2024-07-20T08:01:40.238Z</time>
      </trkpt>
      <trkpt lat="53.69282" lon="10.87277">
        <ele>82.797748</ele>
        <time>2024-07-20T08:01:43.239Z</time>
      </trkpt>
      <trkpt lat="53.69281" lon="10.87294">
        <ele>83.058613</ele>
        <time>2024-07-20T08:01:46.236Z</time>
      </trkpt>
      <trkpt lat="53.69279" lon="10.8731">
        <ele>83.323293</ele>
        <time>2024-07-20T08:01:49.251Z</time>
      </trkpt>
      <trkpt lat="53.69278" lon="10.87326">
        <ele>83.585194</ele>
        <time>2024-07-20T08:01:52.258Z</time>
      </trkpt>
      <trkpt lat="53.69276" lon="10.87343">
        <ele>83.846806</ele>
        <time>2024-07-20T08:01:55.240Z</time>
      </trkpt>
      <trkpt lat="53.69275" lon="10.87359">
        <ele>84.107534</ele>
        <time>2024-07-20T08:01:58.245Z</time>
      </trkpt>
      <trkpt lat="53.69273" lon="10.87374">
        <ele>84.356852</ele>
        <time>2024-07-20T08:02:01.283Z</time>
      </trkpt>
      <trkpt lat="53.69272" lon="10.8739">
        <ele>84.602631</ele>
        <time>2024-07-20T08:02:04.273Z</time>
      </trkpt>
      <trkpt lat="53.6927" lon="10.87405">
        <ele>84.855508</ele>
        <time>2024-07-20T08:02:07.253Z</time>
      </trkpt>
      <trkpt lat="53.69269" lon="10.87421">
        <ele>85.104826</ele>
        <time>2024-07-20T08:02:10.250Z</time>
      </trkpt>
      <trkpt lat="53.69268" lon="10.87437">
        <ele>85.357703</ele>
        <time>2024-07-20T08:02:13.248Z</time>
      </trkpt>
      <trkpt lat="53.69266" lon="10.87452">
        <ele>85.613549</ele>
        <time>2024-07-20T08:02:16.257Z</time>
      </trkpt>
      <trkpt lat="53.69264" lon="10.87467">
        <ele>85.854607</ele>
        <time>2024-07-20T08:02:19.260Z</time>
      </trkpt>
      <trkpt lat="53.69263" lon="10.87483">
        <ele>86.101207</ele>
        <time>2024-07-20T08:02:22.259Z</time>
      </trkpt>
      <trkpt lat="53.69261" lon="10.87502">
        <ele>86.415462</ele>
        <time>2024-07-20T08:02:26.270Z</time>
      </trkpt>
      <trkpt lat="53.69259" lon="10.87522">
        <ele>86.673128</ele>
        <time>2024-07-20T08:02:30.252Z</time>
      </trkpt>
      <trkpt lat="53.69257" lon="10.87541">
        <ele>86.902987</ele>
        <time>2024-07-20T08:02:34.269Z</time>
      </trkpt>
      <trkpt lat="53.69256" lon="10.87558">
        <ele>87.089439</ele>
        <time>2024-07-20T08:02:37.257Z</time>
      </trkpt>
      <trkpt lat="53.69255" lon="10.87574">
        <ele>87.281332</ele>
        <time>2024-07-20T08:02:40.240Z</time>
      </trkpt>
      <trkpt lat="53.69253" lon="10.87592">
        <ele>87.484357</ele>
        <time>2024-07-20T08:02:43.241Z</time>
      </trkpt>
      <trkpt lat="53.69251" lon="10.87609">
        <ele>87.688125</ele>
        <time>2024-07-20T08:02:46.253Z</time>
      </trkpt>
      <trkpt lat="53.6925" lon="10.87627">
        <ele>87.889618</ele>
        <time>2024-07-20T08:02:49.237Z</time>
      </trkpt>
      <trkpt lat="53.69248" lon="10.87644">
        <ele>88.097639</ele>
        <time>2024-07-20T08:02:52.237Z</time>
      </trkpt>
      <trkpt lat="53.69247" lon="10.87662">
        <ele>88.299998</ele>
        <time>2024-07-20T08:02:55.239Z</time>
      </trkpt>
      <trkpt lat="53.69245" lon="10.8768">
        <ele>88.506073</ele>
        <time>2024-07-20T08:02:58.247Z</time>
      </trkpt>
      <trkpt lat="53.69243" lon="10.87698">
        <ele>88.722878</ele>
        <time>2024-07-20T08:03:01.257Z</time>
      </trkpt>
      <trkpt lat="53.69241" lon="10.87717">
        <ele>88.939788</ele>
        <time>2024-07-20T08:03:04.236Z</time>
      </trkpt>
      <trkpt lat="53.69239" lon="10.87736">
        <ele>89.158965</ele>
        <time>2024-07-20T08:03:07.221Z</time>
      </trkpt>
      <trkpt lat="53.69237" lon="10.87755">
        <ele>89.384599</ele>
        <time>2024-07-20T08:03:10.276Z</time>
      </trkpt>
      <trkpt lat="53.69235" lon="10.87774">
        <ele>89.612014</ele>
        <time>2024-07-20T08:03:13.244Z</time>
      </trkpt>
      <trkpt lat="53.69233" lon="10.87794">
        <ele>89.837972</ele>
        <time>2024-07-20T08:03:16.253Z</time>
      </trkpt>
      <trkpt lat="53.69231" lon="10.87815">
        <ele>90.006601</ele>
        <time>2024-07-20T08:03:19.243Z</time>
      </trkpt>
      <trkpt lat="53.6923" lon="10.87835">
        <ele>89.995641</ele>
        <time>2024-07-20T08:03:22.237Z</time>
      </trkpt>
      <trkpt lat="53.69228" lon="10.87855">
        <ele>89.985185</ele>
        <time>2024-07-20T08:03:25.250Z</time>
      </trkpt>
      <trkpt lat="53.69225" lon="10.87875">
        <ele>89.974739</ele>
        <time>2024-07-20T08:03:28.233Z</time>
      </trkpt>
      <trkpt lat="53.69222" lon="10.87894">
        <ele>89.964283</ele>
        <time>2024-07-20T08:03:31.290Z</time>
      </trkpt>
      <trkpt lat="53.69216" lon="10.8791">
        <ele>89.954277</ele>
        <time>2024-07-20T08:03:34.253Z</time>
      </trkpt>
      <trkpt lat="53.69215" lon="10.8793">
        <ele>89.943831</ele>
        <time>2024-07-20T08:03:37.248Z</time>
      </trkpt>
      <trkpt lat="53.69213" lon="10.87951">
        <ele>89.932894</ele>
        <time>2024-07-20T08:03:40.253Z</time>
      </trkpt>
      <trkpt lat="53.69211" lon="10.87972">
        <ele>89.922077</ele>
        <time>2024-07-20T08:03:43.248Z</time>
      </trkpt>
      <trkpt lat="53.6921" lon="10.87993">
        <ele>89.910786</ele>
        <time>2024-07-20T08:03:46.236Z</time>
      </trkpt>
      <trkpt lat="53.69208" lon="10.88014">
        <ele>89.899815</ele>
        <time>2024-07-20T08:03:49.254Z</time>
      </trkpt>
      <trkpt lat="53.69206" lon="10.88036">
        <ele>89.888401</ele>
        <time>2024-07-20T08:03:52.254Z</time>
      </trkpt>
      <trkpt lat="53.69206" lon="10.88057">
        <ele>89.877613</ele>
        <time>2024-07-20T08:03:55.248Z</time>
      </trkpt>
      <trkpt lat="53.69207" lon="10.88076">
        <ele>89.867219</ele>
        <time>2024-07-20T08:03:58.239Z</time>
      </trkpt>
      <trkpt lat="53.69207" lon="10.88098">
        <ele>89.855817</ele>
        <time>2024-07-20T08:04:01.259Z</time>
      </trkpt>
      <trkpt lat="53.69208" lon="10.88118">
        <ele>89.87969</ele>
        <time>2024-07-20T08:04:04.243Z</time>
      </trkpt>
      <trkpt lat="53.6921" lon="10.88137">
        <ele>89.922708</ele>
        <time>2024-07-20T08:04:07.253Z</time>
      </trkpt>
      <trkpt lat="53.69211" lon="10.88152">
        <ele>89.958088</ele>
        <time>2024-07-20T08:04:10.254Z</time>
      </trkpt>
      <trkpt lat="53.69213" lon="10.88171">
        <ele>90.002077</ele>
        <time>2024-07-20T08:04:14.250Z</time>
      </trkpt>
      <trkpt lat="53.69217" lon="10.88191">
        <ele>90.05118</ele>
        <time>2024-07-20T08:04:18.265Z</time>
      </trkpt>
      <trkpt lat="53.6922" lon="10.88207">
        <ele>90.090658</ele>
        <time>2024-07-20T08:04:21.272Z</time>
      </trkpt>
      <trkpt lat="53.69224" lon="10.88223">
        <ele>90.131003</ele>
        <time>2024-07-20T08:04:24.267Z</time>
      </trkpt>
      <trkpt lat="53.69229" lon="10.8824">
        <ele>90.175405</ele>
        <time>2024-07-20T08:04:27.263Z</time>
      </trkpt>
      <trkpt lat="53.69234" lon="10.88257">
        <ele>90.218979</ele>
        <time>2024-07-20T08:04:30.249Z</time>
      </trkpt>
      <trkpt lat="53.6924" lon="10.88274">
        <ele>90.26364</ele>
        <time>2024-07-20T08:04:33.250Z</time>
      </trkpt>
      <trkpt lat="53.69247" lon="10.88291">
        <ele>90.310085</ele>
        <time>2024-07-20T08:04:36.270Z</time>
      </trkpt>
      <trkpt lat="53.69254" lon="10.8831">
        <ele>90.361297</ele>
        <time>2024-07-20T08:04:39.270Z</time>
      </trkpt>
      <trkpt lat="53.69259" lon="10.88322">
        <ele>90.396282</ele>
        <time>2024-07-20T08:04:41.294Z</time>
      </trkpt>
      <trkpt lat="53.69266" lon="10.8834">
        <ele>90.446446</ele>
        <time>2024-07-20T08:04:44.248Z</time>
      </trkpt>
      <trkpt lat="53.69273" lon="10.88357">
        <ele>90.493983</ele>
        <time>2024-07-20T08:04:47.248Z</time>
      </trkpt>
      <trkpt lat="53.69279" lon="10.88372">
        <ele>90.535954</ele>
        <time>2024-07-20T08:04:50.252Z</time>
      </trkpt>
      <trkpt lat="53.69286" lon="10.88386">
        <ele>90.537978</ele>
        <time>2024-07-20T08:04:53.234Z</time>
      </trkpt>
      <trkpt lat="53.69293" lon="10.88402">
        <ele>90.509945</ele>
        <time>2024-07-20T08:04:56.250Z</time>
      </trkpt>
      <trkpt lat="53.69301" lon="10.88417">
        <ele>90.483965</ele>
        <time>2024-07-20T08:04:59.235Z</time>
      </trkpt>
      <trkpt lat="53.6931" lon="10.88431">
        <ele>90.454213</ele>
        <time>2024-07-20T08:05:02.239Z</time>
      </trkpt>
      <trkpt lat="53.69319" lon="10.88447">
        <ele>90.42475</ele>
        <time>2024-07-20T08:05:05.242Z</time>
      </trkpt>
      <trkpt lat="53.69327" lon="10.8846">
        <ele>90.399642</ele>
        <time>2024-07-20T08:05:08.274Z</time>
      </trkpt>
      <trkpt lat="53.69336" lon="10.88473">
        <ele>90.372304</ele>
        <time>2024-07-20T08:05:11.269Z</time>
      </trkpt>
      <trkpt lat="53.69344" lon="10.8849">
        <ele>90.341748</ele>
        <time>2024-07-20T08:05:14.256Z</time>
      </trkpt>
      <trkpt lat="53.6935" lon="10.88503">
        <ele>90.320843</ele>
        <time>2024-07-20T08:05:16.275Z</time>
      </trkpt>
      <trkpt lat="53.69355" lon="10.88516">
        <ele>90.299658</ele>
        <time>2024-07-20T08:05:18.250Z</time>
      </trkpt>
      <trkpt lat="53.69361" lon="10.88529">
        <ele>90.276816</ele>
        <time>2024-07-20T08:05:20.253Z</time>
      </trkpt>
      <trkpt lat="53.69367" lon="10.88543">
        <ele>90.253783</ele>
        <time>2024-07-20T08:05:22.249Z</time>
      </trkpt>
      <trkpt lat="53.69373" lon="10.88557">
        <ele>90.229547</ele>
        <time>2024-07-20T08:05:24.238Z</time>
      </trkpt>
      <trkpt lat="53.6938" lon="10.88572">
        <ele>90.203708</ele>
        <time>2024-07-20T08:05:26.237Z</time>
      </trkpt>
      <trkpt lat="53.69387" lon="10.88587">
        <ele>90.178903</ele>
        <time>2024-07-20T08:05:28.242Z</time>
      </trkpt>
      <trkpt lat="53.69394" lon="10.88602">
        <ele>90.152678</ele>
        <time>2024-07-20T08:05:30.246Z</time>
      </trkpt>
      <trkpt lat="53.69401" lon="10.88617">
        <ele>90.06881</ele>
        <time>2024-07-20T08:05:32.243Z</time>
      </trkpt>
      <trkpt lat="53.69409" lon="10.88633">
        <ele>89.932574</ele>
        <time>2024-07-20T08:05:34.239Z</time>
      </trkpt>
      <trkpt lat="53.69417" lon="10.8865">
        <ele>89.788989</ele>
        <time>2024-07-20T08:05:36.248Z</time>
      </trkpt>
      <trkpt lat="53.69424" lon="10.88667">
        <ele>89.644999</ele>
        <time>2024-07-20T08:05:38.239Z</time>
      </trkpt>
      <trkpt lat="53.69432" lon="10.88684">
        <ele>89.506642</ele>
        <time>2024-07-20T08:05:40.257Z</time>
      </trkpt>
      <trkpt lat="53.69439" lon="10.887">
        <ele>89.366383</ele>
        <time>2024-07-20T08:05:42.253Z</time>
      </trkpt>
      <trkpt lat="53.69447" lon="10.88715">
        <ele>89.233179</ele>
        <time>2024-07-20T08:05:44.229Z</time>
      </trkpt>
      <trkpt lat="53.69455" lon="10.8873">
        <ele>89.09949</ele>
        <time>2024-07-20T08:05:46.256Z</time>
      </trkpt>
      <trkpt lat="53.69462" lon="10.88746">
        <ele>88.968856</ele>
        <time>2024-07-20T08:05:48.242Z</time>
      </trkpt>
      <trkpt lat="53.69469" lon="10.8876">
        <ele>88.842243</ele>
        <time>2024-07-20T08:05:50.237Z</time>
      </trkpt>
      <trkpt lat="53.69477" lon="10.88776">
        <ele>88.707054</ele>
        <time>2024-07-20T08:05:52.240Z</time>
      </trkpt>
      <trkpt lat="53.69484" lon="10.8879">
        <ele>88.579918</ele>
        <time>2024-07-20T08:05:54.237Z</time>
      </trkpt>
      <trkpt lat="53.69491" lon="10.88806">
        <ele>88.447709</ele>
        <time>2024-07-20T08:05:56.244Z</time>
      </trkpt>
      <trkpt lat="53.69498" lon="10.88822">
        <ele>88.31566</ele>
        <time>2024-07-20T08:05:58.245Z</time>
      </trkpt>
      <trkpt lat="53.69506" lon="10.88837">
        <ele>88.1838</ele>
        <time>2024-07-20T08:06:00.244Z</time>
      </trkpt>
      <trkpt lat="53.69513" lon="10.88853">
        <ele>88.13123</ele>
        <time>2024-07-20T08:06:02.237Z</time>
      </trkpt>
      <trkpt lat="53.6952" lon="10.88869">
        <ele>88.177048</ele>
        <time>2024-07-20T08:06:04.255Z</time>
      </trkpt>
      <trkpt lat="53.69528" lon="10.88884">
        <ele>88.222438</ele>
        <time>2024-07-20T08:06:06.244Z</time>
      </trkpt>
      <trkpt lat="53.69535" lon="10.88898">
        <ele>88.266007</ele>
        <time>2024-07-20T08:06:08.244Z</time>
      </trkpt>
      <trkpt lat="53.69541" lon="10.88913">
        <ele>88.309116</ele>
        <time>2024-07-20T08:06:10.248Z</time>
      </trkpt>
      <trkpt lat="53.69548" lon="10.88928">
        <ele>88.352508</ele>
        <time>2024-07-20T08:06:12.248Z</time>
      </trkpt>
      <trkpt lat="53.69554" lon="10.88943">
        <ele>88.395575</ele>
        <time>2024-07-20T08:06:14.236Z</time>
      </trkpt>
      <trkpt lat="53.69561" lon="10.88958">
        <ele>88.439571</ele>
        <time>2024-07-20T08:06:16.245Z</time>
      </trkpt>
      <trkpt lat="53.69569" lon="10.88973">
        <ele>88.484398</ele>
        <time>2024-07-20T08:06:18.269Z</time>
      </trkpt>
      <trkpt lat="53.69576" lon="10.88987">
        <ele>88.527149</ele>
        <time>2024-07-20T08:06:20.267Z</time>
      </trkpt>
      <trkpt lat="53.69583" lon="10.89">
        <ele>88.56829</ele>
        <time>2024-07-20T08:06:22.255Z</time>
      </trkpt>
      <trkpt lat="53.69588" lon="10.89013">
        <ele>88.605118</ele>
        <time>2024-07-20T08:06:24.257Z</time>
      </trkpt>
      <trkpt lat="53.69596" lon="10.89031">
        <ele>88.656578</ele>
        <time>2024-07-20T08:06:27.250Z</time>
      </trkpt>
      <trkpt lat="53.69604" lon="10.89048">
        <ele>88.707062</ele>
        <time>2024-07-20T08:06:30.253Z</time>
      </trkpt>
      <trkpt lat="53.69612" lon="10.89064">
        <ele>88.755985</ele>
        <time>2024-07-20T08:06:33.250Z</time>
      </trkpt>
      <trkpt lat="53.6962" lon="10.8908">
        <ele>88.802888</ele>
        <time>2024-07-20T08:06:36.270Z</time>
      </trkpt>
      <trkpt lat="53.69627" lon="10.89095">
        <ele>88.837827</ele>
        <time>2024-07-20T08:06:39.252Z</time>
      </trkpt>
      <trkpt lat="53.69634" lon="10.89111">
        <ele>88.869605</ele>
        <time>2024-07-20T08:06:42.266Z</time>
      </trkpt>
      <trkpt lat="53.6964" lon="10.89124">
        <ele>88.896938</ele>
        <time>2024-07-20T08:06:46.233Z</time>
      </trkpt>
      <trkpt lat="53.69641" lon="10.89124">
        <ele>88.897763</ele>
        <time>2024-07-20T08:07:14.835Z</time>
      </trkpt>
      <trkpt lat="53.69653" lon="10.89152">
        <ele>88.954106</ele>
        <time>2024-07-20T08:08:09.236Z</time>
      </trkpt>
      <trkpt lat="53.6966" lon="10.89164">
        <ele>88.980485</ele>
        <time>2024-07-20T08:08:12.247Z</time>
      </trkpt>
      <trkpt lat="53.69667" lon="10.89178">
        <ele>89.008698</ele>
        <time>2024-07-20T08:08:15.237Z</time>
      </trkpt>
      <trkpt lat="53.69674" lon="10.89193">
        <ele>89.039838</ele>
        <time>2024-07-20T08:08:18.231Z</time>
      </trkpt>
      <trkpt lat="53.69681" lon="10.89208">
        <ele>89.070639</ele>
        <time>2024-07-20T08:08:21.263Z</time>
      </trkpt>
      <trkpt lat="53.69689" lon="10.89224">
        <ele>89.103577</ele>
        <time>2024-07-20T08:08:24.238Z</time>
      </trkpt>
      <trkpt lat="53.69697" lon="10.89241">
        <ele>89.138185</ele>
        <time>2024-07-20T08:08:27.239Z</time>
      </trkpt>
      <trkpt lat="53.69703" lon="10.89253">
        <ele>89.162806</ele>
        <time>2024-07-20T08:08:29.233Z</time>
      </trkpt>
      <trkpt lat="53.69708" lon="10.89266">
        <ele>89.187718</ele>
        <time>2024-07-20T08:08:31.229Z</time>
      </trkpt>
      <trkpt lat="53.69715" lon="10.89279">
        <ele>89.214725</ele>
        <time>2024-07-20T08:08:33.239Z</time>
      </trkpt>
      <trkpt lat="53.69721" lon="10.89293">
        <ele>89.243144</ele>
        <time>2024-07-20T08:08:35.237Z</time>
      </trkpt>
      <trkpt lat="53.69727" lon="10.89307">
        <ele>89.27138</ele>
        <time>2024-07-20T08:08:37.229Z</time>
      </trkpt>
      <trkpt lat="53.69734" lon="10.89322">
        <ele>89.28238</ele>
        <time>2024-07-20T08:08:39.235Z</time>
      </trkpt>
      <trkpt lat="53.69741" lon="10.89337">
        <ele>88.909864</ele>
        <time>2024-07-20T08:08:41.225Z</time>
      </trkpt>
      <trkpt lat="53.69748" lon="10.89352">
        <ele>88.51417</ele>
        <time>2024-07-20T08:08:43.233Z</time>
      </trkpt>
      <trkpt lat="53.69755" lon="10.89368">
        <ele>88.115873</ele>
        <time>2024-07-20T08:08:45.225Z</time>
      </trkpt>
      <trkpt lat="53.69763" lon="10.89385">
        <ele>87.710857</ele>
        <time>2024-07-20T08:08:47.237Z</time>
      </trkpt>
      <trkpt lat="53.6977" lon="10.89401">
        <ele>87.304845</ele>
        <time>2024-07-20T08:08:49.239Z</time>
      </trkpt>
      <trkpt lat="53.69778" lon="10.89417">
        <ele>86.889033</ele>
        <time>2024-07-20T08:08:51.227Z</time>
      </trkpt>
      <trkpt lat="53.69786" lon="10.89433">
        <ele>86.4799</ele>
        <time>2024-07-20T08:08:53.245Z</time>
      </trkpt>
      <trkpt lat="53.69794" lon="10.8945">
        <ele>86.059868</ele>
        <time>2024-07-20T08:08:55.234Z</time>
      </trkpt>
      <trkpt lat="53.69801" lon="10.89466">
        <ele>85.653858</ele>
        <time>2024-07-20T08:08:57.248Z</time>
      </trkpt>
      <trkpt lat="53.6981" lon="10.89483">
        <ele>85.211561</ele>
        <time>2024-07-20T08:08:59.223Z</time>
      </trkpt>
      <trkpt lat="53.69818" lon="10.895">
        <ele>84.780983</ele>
        <time>2024-07-20T08:09:01.235Z</time>
      </trkpt>
      <trkpt lat="53.69826" lon="10.89516">
        <ele>84.366725</ele>
        <time>2024-07-20T08:09:03.241Z</time>
      </trkpt>
      <trkpt lat="53.69834" lon="10.89532">
        <ele>83.94647</ele>
        <time>2024-07-20T08:09:05.253Z</time>
      </trkpt>
      <trkpt lat="53.69842" lon="10.8955">
        <ele>83.518533</ele>
        <time>2024-07-20T08:09:07.228Z</time>
      </trkpt>
      <trkpt lat="53.69848" lon="10.89566">
        <ele>83.292263</ele>
        <time>2024-07-20T08:09:09.232Z</time>
      </trkpt>
      <trkpt lat="53.69855" lon="10.89581">
        <ele>83.257052</ele>
        <time>2024-07-20T08:09:11.235Z</time>
      </trkpt>
      <trkpt lat="53.69862" lon="10.89595">
        <ele>83.222595</ele>
        <time>2024-07-20T08:09:13.238Z</time>
      </trkpt>
      <trkpt lat="53.69868" lon="10.89609">
        <ele>83.188931</ele>
        <time>2024-07-20T08:09:15.230Z</time>
      </trkpt>
      <trkpt lat="53.69875" lon="10.89624">
        <ele>83.153335</ele>
        <time>2024-07-20T08:09:17.230Z</time>
      </trkpt>
      <trkpt lat="53.69882" lon="10.89638">
        <ele>83.118924</ele>
        <time>2024-07-20T08:09:19.237Z</time>
      </trkpt>
      <trkpt lat="53.69889" lon="10.89653">
        <ele>83.08313</ele>
        <time>2024-07-20T08:09:21.223Z</time>
      </trkpt>
      <trkpt lat="53.69897" lon="10.89667">
        <ele>83.046974</ele>
        <time>2024-07-20T08:09:23.217Z</time>
      </trkpt>
      <trkpt lat="53.69903" lon="10.89681">
        <ele>83.012258</ele>
        <time>2024-07-20T08:09:25.236Z</time>
      </trkpt>
      <trkpt lat="53.6991" lon="10.89695">
        <ele>82.977596</ele>
        <time>2024-07-20T08:09:27.235Z</time>
      </trkpt>
      <trkpt lat="53.69917" lon="10.8971">
        <ele>82.942794</ele>
        <time>2024-07-20T08:09:29.216Z</time>
      </trkpt>
      <trkpt lat="53.69923" lon="10.89725">
        <ele>82.908736</ele>
        <time>2024-07-20T08:09:31.232Z</time>
      </trkpt>
      <trkpt lat="53.6993" lon="10.89739">
        <ele>82.874231</ele>
        <time>2024-07-20T08:09:33.245Z</time>
      </trkpt>
      <trkpt lat="53.69936" lon="10.89752">
        <ele>82.842386</ele>
        <time>2024-07-20T08:09:35.224Z</time>
      </trkpt>
      <trkpt lat="53.69943" lon="10.89764">
        <ele>82.810765</ele>
        <time>2024-07-20T08:09:37.233Z</time>
      </trkpt>
      <trkpt lat="53.69949" lon="10.89778">
        <ele>82.778629</ele>
        <time>2024-07-20T08:09:39.233Z</time>
      </trkpt>
      <trkpt lat="53.69955" lon="10.8979">
        <ele>82.747978</ele>
        <time>2024-07-20T08:09:41.232Z</time>
      </trkpt>
      <trkpt lat="53.69963" lon="10.89808">
        <ele>82.93731</ele>
        <time>2024-07-20T08:09:44.239Z</time>
      </trkpt>
      <trkpt lat="53.69969" lon="10.89821">
        <ele>83.144774</ele>
        <time>2024-07-20T08:09:46.245Z</time>
      </trkpt>
      <trkpt lat="53.69975" lon="10.89833">
        <ele>83.342756</ele>
        <time>2024-07-20T08:09:48.244Z</time>
      </trkpt>
      <trkpt lat="53.6998" lon="10.89846">
        <ele>83.544769</ele>
        <time>2024-07-20T08:09:50.239Z</time>
      </trkpt>
      <trkpt lat="53.69986" lon="10.89858">
        <ele>83.753969</ele>
        <time>2024-07-20T08:09:52.251Z</time>
      </trkpt>
      <trkpt lat="53.69992" lon="10.89871">
        <ele>83.956077</ele>
        <time>2024-07-20T08:09:54.254Z</time>
      </trkpt>
      <trkpt lat="53.69998" lon="10.89882">
        <ele>84.156001</ele>
        <time>2024-07-20T08:09:56.232Z</time>
      </trkpt>
      <trkpt lat="53.70004" lon="10.89895">
        <ele>84.353093</ele>
        <time>2024-07-20T08:09:58.244Z</time>
      </trkpt>
      <trkpt lat="53.70012" lon="10.89912">
        <ele>84.644838</ele>
        <time>2024-07-20T08:10:01.223Z</time>
      </trkpt>
      <trkpt lat="53.70021" lon="10.8993">
        <ele>84.932696</ele>
        <time>2024-07-20T08:10:04.242Z</time>
      </trkpt>
      <trkpt lat="53.70029" lon="10.89948">
        <ele>85.22594</ele>
        <time>2024-07-20T08:10:07.231Z</time>
      </trkpt>
      <trkpt lat="53.70035" lon="10.8996">
        <ele>85.42368</ele>
        <time>2024-07-20T08:10:09.234Z</time>
      </trkpt>
      <trkpt lat="53.7004" lon="10.89972">
        <ele>85.619463</ele>
        <time>2024-07-20T08:10:11.250Z</time>
      </trkpt>
      <trkpt lat="53.70046" lon="10.89983">
        <ele>85.815864</ele>
        <time>2024-07-20T08:10:13.246Z</time>
      </trkpt>
      <trkpt lat="53.70053" lon="10.89993">
        <ele>86.012908</ele>
        <time>2024-07-20T08:10:15.242Z</time>
      </trkpt>
      <trkpt lat="53.70059" lon="10.90004">
        <ele>86.21022</ele>
        <time>2024-07-20T08:10:17.245Z</time>
      </trkpt>
      <trkpt lat="53.70069" lon="10.90019">
        <ele>86.498821</ele>
        <time>2024-07-20T08:10:20.234Z</time>
      </trkpt>
      <trkpt lat="53.7008" lon="10.90033">
        <ele>86.713451</ele>
        <time>2024-07-20T08:10:23.241Z</time>
      </trkpt>
      <trkpt lat="53.70087" lon="10.90042">
        <ele>86.812261</ele>
        <time>2024-07-20T08:10:25.245Z</time>
      </trkpt>
      <trkpt lat="53.70095" lon="10.9005">
        <ele>86.909687</ele>
        <time>2024-07-20T08:10:27.248Z</time>
      </trkpt>
      <trkpt lat="53.70106" lon="10.90062">
        <ele>87.052039</ele>
        <time>2024-07-20T08:10:30.232Z</time>
      </trkpt>
      <trkpt lat="53.70118" lon="10.90072">
        <ele>87.192585</ele>
        <time>2024-07-20T08:10:33.232Z</time>
      </trkpt>
      <trkpt lat="53.70129" lon="10.90082">
        <ele>87.327105</ele>
        <time>2024-07-20T08:10:36.238Z</time>
      </trkpt>
      <trkpt lat="53.7014" lon="10.90093">
        <ele>87.465933</ele>
        <time>2024-07-20T08:10:39.246Z</time>
      </trkpt>
      <trkpt lat="53.70152" lon="10.90103">
        <ele>87.607637</ele>
        <time>2024-07-20T08:10:42.250Z</time>
      </trkpt>
      <trkpt lat="53.70164" lon="10.90113">
        <ele>87.750003</ele>
        <time>2024-07-20T08:10:45.246Z</time>
      </trkpt>
      <trkpt lat="53.70176" lon="10.90123">
        <ele>87.895925</ele>
        <time>2024-07-20T08:10:48.262Z</time>
      </trkpt>
      <trkpt lat="53.70187" lon="10.90134">
        <ele>88.03604</ele>
        <time>2024-07-20T08:10:51.247Z</time>
      </trkpt>
      <trkpt lat="53.70198" lon="10.90144">
        <ele>88.171513</ele>
        <time>2024-07-20T08:10:54.233Z</time>
      </trkpt>
      <trkpt lat="53.70209" lon="10.90155">
        <ele>88.307528</ele>
        <time>2024-07-20T08:10:57.247Z</time>
      </trkpt>
      <trkpt lat="53.70221" lon="10.90165">
        <ele>88.447629</ele>
        <time>2024-07-20T08:11:00.236Z</time>
      </trkpt>
      <trkpt lat="53.70232" lon="10.90175">
        <ele>88.578235</ele>
        <time>2024-07-20T08:11:03.238Z</time>
      </trkpt>
      <trkpt lat="53.70243" lon="10.90185">
        <ele>88.674805</ele>
        <time>2024-07-20T08:11:06.256Z</time>
      </trkpt>
      <trkpt lat="53.70254" lon="10.90195">
        <ele>88.767177</ele>
        <time>2024-07-20T08:11:09.233Z</time>
      </trkpt>
      <trkpt lat="53.70264" lon="10.90206">
        <ele>88.86065</ele>
        <time>2024-07-20T08:11:12.233Z</time>
      </trkpt>
      <trkpt lat="53.70276" lon="10.90216">
        <ele>88.958518</ele>
        <time>2024-07-20T08:11:15.231Z</time>
      </trkpt>
      <trkpt lat="53.70287" lon="10.90226">
        <ele>89.054879</ele>
        <time>2024-07-20T08:11:18.236Z</time>
      </trkpt>
      <trkpt lat="53.70298" lon="10.90237">
        <ele>89.152742</ele>
        <time>2024-07-20T08:11:21.231Z</time>
      </trkpt>
      <trkpt lat="53.70309" lon="10.90248">
        <ele>89.246207</ele>
        <time>2024-07-20T08:11:24.232Z</time>
      </trkpt>
      <trkpt lat="53.70317" lon="10.90254">
        <ele>89.315451</ele>
        <time>2024-07-20T08:11:26.240Z</time>
      </trkpt>
      <trkpt lat="53.70326" lon="10.9026">
        <ele>89.383683</ele>
        <time>2024-07-20T08:11:28.234Z</time>
      </trkpt>
      <trkpt lat="53.70334" lon="10.90265">
        <ele>89.452385</ele>
        <time>2024-07-20T08:11:30.249Z</time>
      </trkpt>
      <trkpt lat="53.70346" lon="10.90271">
        <ele>89.5456</ele>
        <time>2024-07-20T08:11:33.252Z</time>
      </trkpt>
      <trkpt lat="53.70356" lon="10.90284">
        <ele>89.640916</ele>
        <time>2024-07-20T08:11:36.240Z</time>
      </trkpt>
      <trkpt lat="53.70366" lon="10.90298">
        <ele>89.735852</ele>
        <time>2024-07-20T08:11:39.244Z</time>
      </trkpt>
      <trkpt lat="53.70377" lon="10.90307">
        <ele>89.830605</ele>
        <time>2024-07-20T08:11:42.234Z</time>
      </trkpt>
      <trkpt lat="53.70388" lon="10.90317">
        <ele>89.92346</ele>
        <time>2024-07-20T08:11:45.234Z</time>
      </trkpt>
      <trkpt lat="53.70398" lon="10.90327">
        <ele>89.928603</ele>
        <time>2024-07-20T08:11:48.245Z</time>
      </trkpt>
      <trkpt lat="53.70407" lon="10.90336">
        <ele>89.92733</ele>
        <time>2024-07-20T08:11:51.234Z</time>
      </trkpt>
      <trkpt lat="53.70417" lon="10.90344">
        <ele>89.925998</ele>
        <time>2024-07-20T08:11:54.236Z</time>
      </trkpt>
      <trkpt lat="53.70426" lon="10.90353">
        <ele>89.924755</ele>
        <time>2024-07-20T08:11:57.239Z</time>
      </trkpt>
      <trkpt lat="53.70435" lon="10.90359">
        <ele>89.923622</ele>
        <time>2024-07-20T08:12:00.253Z</time>
      </trkpt>
      <trkpt lat="53.70444" lon="10.90369">
        <ele>89.922294</ele>
        <time>2024-07-20T08:12:03.245Z</time>
      </trkpt>
      <trkpt lat="53.70455" lon="10.90377">
        <ele>89.920874</ele>
        <time>2024-07-20T08:12:06.259Z</time>
      </trkpt>
      <trkpt lat="53.70466" lon="10.90388">
        <ele>89.919348</ele>
        <time>2024-07-20T08:12:09.256Z</time>
      </trkpt>
      <trkpt lat="53.70477" lon="10.90398">
        <ele>89.917859</ele>
        <time>2024-07-20T08:12:12.246Z</time>
      </trkpt>
      <trkpt lat="53.70485" lon="10.90405">
        <ele>89.916784</ele>
        <time>2024-07-20T08:12:14.235Z</time>
      </trkpt>
      <trkpt lat="53.70496" lon="10.90416">
        <ele>89.915303</ele>
        <time>2024-07-20T08:12:17.242Z</time>
      </trkpt>
      <trkpt lat="53.70507" lon="10.90426">
        <ele>89.913791</ele>
        <time>2024-07-20T08:12:20.235Z</time>
      </trkpt>
      <trkpt lat="53.70518" lon="10.90437">
        <ele>89.912292</ele>
        <time>2024-07-20T08:12:23.243Z</time>
      </trkpt>
      <trkpt lat="53.70528" lon="10.90447">
        <ele>89.910831</ele>
        <time>2024-07-20T08:12:26.217Z</time>
      </trkpt>
      <trkpt lat="53.70539" lon="10.90458">
        <ele>89.909339</ele>
        <time>2024-07-20T08:12:29.249Z</time>
      </trkpt>
      <trkpt lat="53.70549" lon="10.9047">
        <ele>89.937648</ele>
        <time>2024-07-20T08:12:32.250Z</time>
      </trkpt>
      <trkpt lat="53.70559" lon="10.90483">
        <ele>90.018685</ele>
        <time>2024-07-20T08:12:35.256Z</time>
      </trkpt>
      <trkpt lat="53.70568" lon="10.90496">
        <ele>90.095705</ele>
        <time>2024-07-20T08:12:38.250Z</time>
      </trkpt>
      <trkpt lat="53.70577" lon="10.9051">
        <ele>90.175554</ele>
        <time>2024-07-20T08:12:41.240Z</time>
      </trkpt>
      <trkpt lat="53.70586" lon="10.90525">
        <ele>90.256166</ele>
        <time>2024-07-20T08:12:44.255Z</time>
      </trkpt>
      <trkpt lat="53.70594" lon="10.90541">
        <ele>90.337981</ele>
        <time>2024-07-20T08:12:47.230Z</time>
      </trkpt>
      <trkpt lat="53.70602" lon="10.90557">
        <ele>90.418463</ele>
        <time>2024-07-20T08:12:50.239Z</time>
      </trkpt>
      <trkpt lat="53.70609" lon="10.90574">
        <ele>90.496961</ele>
        <time>2024-07-20T08:12:53.223Z</time>
      </trkpt>
      <trkpt lat="53.70616" lon="10.90591">
        <ele>90.574654</ele>
        <time>2024-07-20T08:12:56.240Z</time>
      </trkpt>
      <trkpt lat="53.70622" lon="10.90608">
        <ele>90.650412</ele>
        <time>2024-07-20T08:12:59.232Z</time>
      </trkpt>
      <trkpt lat="53.70627" lon="10.90625">
        <ele>90.722883</ele>
        <time>2024-07-20T08:13:02.243Z</time>
      </trkpt>
      <trkpt lat="53.70632" lon="10.90643">
        <ele>90.800134</ele>
        <time>2024-07-20T08:13:05.247Z</time>
      </trkpt>
      <trkpt lat="53.70637" lon="10.90661">
        <ele>90.87597</ele>
        <time>2024-07-20T08:13:08.247Z</time>
      </trkpt>
      <trkpt lat="53.70642" lon="10.90677">
        <ele>90.944328</ele>
        <time>2024-07-20T08:13:11.248Z</time>
      </trkpt>
      <trkpt lat="53.70645" lon="10.90693">
        <ele>91.011585</ele>
        <time>2024-07-20T08:13:14.242Z</time>
      </trkpt>
      <trkpt lat="53.70649" lon="10.9071">
        <ele>91.054638</ele>
        <time>2024-07-20T08:13:17.241Z</time>
      </trkpt>
      <trkpt lat="53.70652" lon="10.90728">
        <ele>90.936388</ele>
        <time>2024-07-20T08:13:20.254Z</time>
      </trkpt>
      <trkpt lat="53.70654" lon="10.90744">
        <ele>90.828183</ele>
        <time>2024-07-20T08:13:23.250Z</time>
      </trkpt>
      <trkpt lat="53.70655" lon="10.90762">
        <ele>90.706963</ele>
        <time>2024-07-20T08:13:26.243Z</time>
      </trkpt>
      <trkpt lat="53.70656" lon="10.90785">
        <ele>90.557991</ele>
        <time>2024-07-20T08:13:29.259Z</time>
      </trkpt>
      <trkpt lat="53.70657" lon="10.90802">
        <ele>90.443482</ele>
        <time>2024-07-20T08:13:31.267Z</time>
      </trkpt>
      <trkpt lat="53.70661" lon="10.90824">
        <ele>90.296403</ele>
        <time>2024-07-20T08:13:33.242Z</time>
      </trkpt>
      <trkpt lat="53.70663" lon="10.90848">
        <ele>90.132941</ele>
        <time>2024-07-20T08:13:35.236Z</time>
      </trkpt>
      <trkpt lat="53.70665" lon="10.90875">
        <ele>89.957244</ele>
        <time>2024-07-20T08:13:37.224Z</time>
      </trkpt>
      <trkpt lat="53.70665" lon="10.909">
        <ele>89.791509</ele>
        <time>2024-07-20T08:13:39.230Z</time>
      </trkpt>
      <trkpt lat="53.70664" lon="10.90924">
        <ele>89.63254</ele>
        <time>2024-07-20T08:13:41.225Z</time>
      </trkpt>
      <trkpt lat="53.70659" lon="10.90947">
        <ele>89.473755</ele>
        <time>2024-07-20T08:13:43.228Z</time>
      </trkpt>
      <trkpt lat="53.70652" lon="10.90967">
        <ele>89.319802</ele>
        <time>2024-07-20T08:13:45.246Z</time>
      </trkpt>
      <trkpt lat="53.70647" lon="10.90985">
        <ele>89.186296</ele>
        <time>2024-07-20T08:13:47.233Z</time>
      </trkpt>
      <trkpt lat="53.70644" lon="10.90999">
        <ele>89.086338</ele>
        <time>2024-07-20T08:13:49.226Z</time>
      </trkpt>
      <trkpt lat="53.70643" lon="10.91015">
        <ele>89.199547</ele>
        <time>2024-07-20T08:13:51.240Z</time>
      </trkpt>
      <trkpt lat="53.70643" lon="10.9103">
        <ele>89.34471</ele>
        <time>2024-07-20T08:13:53.235Z</time>
      </trkpt>
      <trkpt lat="53.70642" lon="10.91046">
        <ele>89.493789</ele>
        <time>2024-07-20T08:13:55.248Z</time>
      </trkpt>
      <trkpt lat="53.70641" lon="10.91062">
        <ele>89.651839</ele>
        <time>2024-07-20T08:13:57.231Z</time>
      </trkpt>
      <trkpt lat="53.7064" lon="10.91079">
        <ele>89.813682</ele>
        <time>2024-07-20T08:13:59.237Z</time>
      </trkpt>
      <trkpt lat="53.70639" lon="10.91097">
        <ele>89.981771</ele>
        <time>2024-07-20T08:14:01.234Z</time>
      </trkpt>
      <trkpt lat="53.70638" lon="10.91113">
        <ele>90.138576</ele>
        <time>2024-07-20T08:14:03.247Z</time>
      </trkpt>
      <trkpt lat="53.70637" lon="10.9113">
        <ele>90.303806</ele>
        <time>2024-07-20T08:14:05.228Z</time>
      </trkpt>
      <trkpt lat="53.70636" lon="10.91146">
        <ele>90.452764</ele>
        <time>2024-07-20T08:14:07.245Z</time>
      </trkpt>
      <trkpt lat="53.70634" lon="10.91165">
        <ele>90.641087</ele>
        <time>2024-07-20T08:14:10.235Z</time>
      </trkpt>
      <trkpt lat="53.70633" lon="10.91181">
        <ele>90.790748</ele>
        <time>2024-07-20T08:14:13.231Z</time>
      </trkpt>
      <trkpt lat="53.70632" lon="10.91198">
        <ele>90.955984</ele>
        <time>2024-07-20T08:14:17.236Z</time>
      </trkpt>
      <trkpt lat="53.70632" lon="10.91215">
        <ele>91.113222</ele>
        <time>2024-07-20T08:14:21.229Z</time>
      </trkpt>
      <trkpt lat="53.70631" lon="10.91232">
        <ele>91.283935</ele>
        <time>2024-07-20T08:14:24.240Z</time>
      </trkpt>
      <trkpt lat="53.7063" lon="10.91255">
        <ele>91.499068</ele>
        <time>2024-07-20T08:14:27.232Z</time>
      </trkpt>
      <trkpt lat="53.70629" lon="10.91276">
        <ele>91.703757</ele>
        <time>2024-07-20T08:14:30.257Z</time>
      </trkpt>
      <trkpt lat="53.70627" lon="10.91294">
        <ele>91.872359</ele>
        <time>2024-07-20T08:14:33.240Z</time>
      </trkpt>
      <trkpt lat="53.70626" lon="10.91311">
        <ele>91.941791</ele>
        <time>2024-07-20T08:14:36.230Z</time>
      </trkpt>
      <trkpt lat="53.70624" lon="10.91328">
        <ele>91.874638</ele>
        <time>2024-07-20T08:14:39.246Z</time>
      </trkpt>
      <trkpt lat="53.70624" lon="10.91347">
        <ele>91.804117</ele>
        <time>2024-07-20T08:14:42.241Z</time>
      </trkpt>
      <trkpt lat="53.70623" lon="10.91365">
        <ele>91.736023</ele>
        <time>2024-07-20T08:14:45.237Z</time>
      </trkpt>
      <trkpt lat="53.70622" lon="10.91384">
        <ele>91.662639</ele>
        <time>2024-07-20T08:14:48.242Z</time>
      </trkpt>
      <trkpt lat="53.70621" lon="10.91404">
        <ele>91.587154</ele>
        <time>2024-07-20T08:14:51.258Z</time>
      </trkpt>
      <trkpt lat="53.7062" lon="10.91419">
        <ele>91.52826</ele>
        <time>2024-07-20T08:14:53.242Z</time>
      </trkpt>
      <trkpt lat="53.70619" lon="10.91436">
        <ele>91.465656</ele>
        <time>2024-07-20T08:14:55.236Z</time>
      </trkpt>
      <trkpt lat="53.70618" lon="10.91453">
        <ele>91.401593</ele>
        <time>2024-07-20T08:14:57.246Z</time>
      </trkpt>
      <trkpt lat="53.70618" lon="10.9147">
        <ele>91.3369</ele>
        <time>2024-07-20T08:14:59.229Z</time>
      </trkpt>
      <trkpt lat="53.70618" lon="10.91487">
        <ele>91.273368</ele>
        <time>2024-07-20T08:15:01.232Z</time>
      </trkpt>
      <trkpt lat="53.70617" lon="10.91503">
        <ele>91.210271</ele>
        <time>2024-07-20T08:15:03.251Z</time>
      </trkpt>
      <trkpt lat="53.70617" lon="10.9152">
        <ele>91.148632</ele>
        <time>2024-07-20T08:15:05.233Z</time>
      </trkpt>
      <trkpt lat="53.70619" lon="10.91535">
        <ele>91.087028</ele>
        <time>2024-07-20T08:15:07.232Z</time>
      </trkpt>
      <trkpt lat="53.70628" lon="10.91551">
        <ele>91.005426</ele>
        <time>2024-07-20T08:15:10.237Z</time>
      </trkpt>
      <trkpt lat="53.70639" lon="10.91563">
        <ele>90.923328</ele>
        <time>2024-07-20T08:15:13.233Z</time>
      </trkpt>
      <trkpt lat="53.70648" lon="10.91572">
        <ele>90.855788</ele>
        <time>2024-07-20T08:15:18.251Z</time>
      </trkpt>
      <trkpt lat="53.7065" lon="10.91588">
        <ele>90.790572</ele>
        <time>2024-07-20T08:15:22.238Z</time>
      </trkpt>
      <trkpt lat="53.70644" lon="10.916">
        <ele>90.729066</ele>
        <time>2024-07-20T08:15:25.231Z</time>
      </trkpt>
      <trkpt lat="53.70638" lon="10.91613">
        <ele>90.659974</ele>
        <time>2024-07-20T08:15:28.247Z</time>
      </trkpt>
      <trkpt lat="53.70631" lon="10.91627">
        <ele>90.590136</ele>
        <time>2024-07-20T08:15:31.229Z</time>
      </trkpt>
      <trkpt lat="53.70624" lon="10.91641">
        <ele>90.5174</ele>
        <time>2024-07-20T08:15:34.245Z</time>
      </trkpt>
      <trkpt lat="53.70617" lon="10.91656">
        <ele>90.437179</ele>
        <time>2024-07-20T08:15:37.231Z</time>
      </trkpt>
      <trkpt lat="53.70609" lon="10.9167">
        <ele>90.363897</ele>
        <time>2024-07-20T08:15:40.253Z</time>
      </trkpt>
      <trkpt lat="53.70604" lon="10.91685">
        <ele>90.294734</ele>
        <time>2024-07-20T08:15:43.264Z</time>
      </trkpt>
      <trkpt lat="53.70603" lon="10.91702">
        <ele>90.223394</ele>
        <time>2024-07-20T08:15:46.244Z</time>
      </trkpt>
      <trkpt lat="53.70604" lon="10.91719">
        <ele>90.15543</ele>
        <time>2024-07-20T08:15:49.224Z</time>
      </trkpt>
      <trkpt lat="53.70605" lon="10.91739">
        <ele>90.073576</ele>
        <time>2024-07-20T08:15:52.239Z</time>
      </trkpt>
      <trkpt lat="53.70607" lon="10.91755">
        <ele>90.008314</ele>
        <time>2024-07-20T08:15:54.239Z</time>
      </trkpt>
      <trkpt lat="53.70608" lon="10.91774">
        <ele>89.933406</ele>
        <time>2024-07-20T08:15:56.239Z</time>
      </trkpt>
      <trkpt lat="53.70611" lon="10.91793">
        <ele>89.854984</ele>
        <time>2024-07-20T08:15:58.233Z</time>
      </trkpt>
      <trkpt lat="53.70612" lon="10.91815">
        <ele>89.766086</ele>
        <time>2024-07-20T08:16:00.250Z</time>
      </trkpt>
      <trkpt lat="53.70615" lon="10.91839">
        <ele>89.668723</ele>
        <time>2024-07-20T08:16:02.249Z</time>
      </trkpt>
      <trkpt lat="53.70618" lon="10.91862">
        <ele>89.448308</ele>
        <time>2024-07-20T08:16:04.238Z</time>
      </trkpt>
      <trkpt lat="53.70619" lon="10.91884">
        <ele>88.92957</ele>
        <time>2024-07-20T08:16:06.235Z</time>
      </trkpt>
      <trkpt lat="53.70621" lon="10.91905">
        <ele>88.417971</ele>
        <time>2024-07-20T08:16:08.236Z</time>
      </trkpt>
      <trkpt lat="53.70621" lon="10.91925">
        <ele>87.945431</ele>
        <time>2024-07-20T08:16:10.239Z</time>
      </trkpt>
      <trkpt lat="53.70622" lon="10.91944">
        <ele>87.506482</ele>
        <time>2024-07-20T08:16:12.242Z</time>
      </trkpt>
      <trkpt lat="53.70623" lon="10.91962">
        <ele>87.080072</ele>
        <time>2024-07-20T08:16:14.226Z</time>
      </trkpt>
      <trkpt lat="53.70625" lon="10.91981">
        <ele>86.625592</ele>
        <time>2024-07-20T08:16:16.253Z</time>
      </trkpt>
      <trkpt lat="53.70627" lon="10.92003">
        <ele>86.104507</ele>
        <time>2024-07-20T08:16:18.242Z</time>
      </trkpt>
      <trkpt lat="53.70628" lon="10.9203">
        <ele>85.463831</ele>
        <time>2024-07-20T08:16:20.241Z</time>
      </trkpt>
      <trkpt lat="53.7063" lon="10.92059">
        <ele>84.783082</ele>
        <time>2024-07-20T08:16:22.235Z</time>
      </trkpt>
      <trkpt lat="53.70632" lon="10.92088">
        <ele>84.083631</ele>
        <time>2024-07-20T08:16:24.233Z</time>
      </trkpt>
      <trkpt lat="53.70634" lon="10.92118">
        <ele>83.366444</ele>
        <time>2024-07-20T08:16:26.229Z</time>
      </trkpt>
      <trkpt lat="53.70636" lon="10.92148">
        <ele>82.659939</ele>
        <time>2024-07-20T08:16:28.239Z</time>
      </trkpt>
      <trkpt lat="53.70638" lon="10.92177">
        <ele>82.374165</ele>
        <time>2024-07-20T08:16:30.234Z</time>
      </trkpt>
      <trkpt lat="53.70639" lon="10.92205">
        <ele>82.288456</ele>
        <time>2024-07-20T08:16:32.232Z</time>
      </trkpt>
      <trkpt lat="53.70641" lon="10.92233">
        <ele>82.202147</ele>
        <time>2024-07-20T08:16:34.229Z</time>
      </trkpt>
      <trkpt lat="53.70643" lon="10.9226">
        <ele>82.120392</ele>
        <time>2024-07-20T08:16:36.236Z</time>
      </trkpt>
      <trkpt lat="53.70644" lon="10.92285">
        <ele>82.046959</ele>
        <time>2024-07-20T08:16:38.234Z</time>
      </trkpt>
      <trkpt lat="53.70645" lon="10.92307">
        <ele>81.979309</ele>
        <time>2024-07-20T08:16:40.241Z</time>
      </trkpt>
      <trkpt lat="53.70647" lon="10.92329">
        <ele>81.91135</ele>
        <time>2024-07-20T08:16:42.235Z</time>
      </trkpt>
      <trkpt lat="53.70648" lon="10.9235">
        <ele>81.84817</ele>
        <time>2024-07-20T08:16:44.244Z</time>
      </trkpt>
      <trkpt lat="53.70649" lon="10.9237">
        <ele>81.787888</ele>
        <time>2024-07-20T08:16:46.239Z</time>
      </trkpt>
      <trkpt lat="53.70649" lon="10.92388">
        <ele>81.734517</ele>
        <time>2024-07-20T08:16:48.241Z</time>
      </trkpt>
      <trkpt lat="53.70649" lon="10.92405">
        <ele>81.68299</ele>
        <time>2024-07-20T08:16:50.238Z</time>
      </trkpt>
      <trkpt lat="53.70649" lon="10.92421">
        <ele>81.633852</ele>
        <time>2024-07-20T08:16:52.240Z</time>
      </trkpt>
      <trkpt lat="53.70649" lon="10.92438">
        <ele>81.584672</ele>
        <time>2024-07-20T08:16:54.248Z</time>
      </trkpt>
      <trkpt lat="53.70649" lon="10.92455">
        <ele>81.530978</ele>
        <time>2024-07-20T08:16:56.241Z</time>
      </trkpt>
      <trkpt lat="53.7065" lon="10.92475">
        <ele>81.611933</ele>
        <time>2024-07-20T08:16:58.231Z</time>
      </trkpt>
      <trkpt lat="53.7065" lon="10.92494">
        <ele>81.740399</ele>
        <time>2024-07-20T08:17:00.240Z</time>
      </trkpt>
      <trkpt lat="53.7065" lon="10.92514">
        <ele>81.872951</ele>
        <time>2024-07-20T08:17:02.232Z</time>
      </trkpt>
      <trkpt lat="53.7065" lon="10.92533">
        <ele>82.002755</ele>
        <time>2024-07-20T08:17:04.235Z</time>
      </trkpt>
      <trkpt lat="53.7065" lon="10.92552">
        <ele>82.130592</ele>
        <time>2024-07-20T08:17:06.229Z</time>
      </trkpt>
      <trkpt lat="53.70651" lon="10.92571">
        <ele>82.259132</ele>
        <time>2024-07-20T08:17:08.218Z</time>
      </trkpt>
      <trkpt lat="53.70651" lon="10.9259">
        <ele>82.382324</ele>
        <time>2024-07-20T08:17:10.239Z</time>
      </trkpt>
      <trkpt lat="53.70651" lon="10.92606">
        <ele>82.492725</ele>
        <time>2024-07-20T08:17:12.232Z</time>
      </trkpt>
      <trkpt lat="53.70651" lon="10.92622">
        <ele>82.599131</ele>
        <time>2024-07-20T08:17:14.231Z</time>
      </trkpt>
      <trkpt lat="53.70651" lon="10.92643">
        <ele>82.738462</ele>
        <time>2024-07-20T08:17:17.241Z</time>
      </trkpt>
      <trkpt lat="53.70651" lon="10.92663">
        <ele>82.869721</ele>
        <time>2024-07-20T08:17:20.230Z</time>
      </trkpt>
      <trkpt lat="53.70652" lon="10.92681">
        <ele>82.992494</ele>
        <time>2024-07-20T08:17:23.241Z</time>
      </trkpt>
      <trkpt lat="53.70653" lon="10.927">
        <ele>83.121272</ele>
        <time>2024-07-20T08:17:26.229Z</time>
      </trkpt>
      <trkpt lat="53.70653" lon="10.9272">
        <ele>83.255831</ele>
        <time>2024-07-20T08:17:29.238Z</time>
      </trkpt>
      <trkpt lat="53.70653" lon="10.92739">
        <ele>83.382953</ele>
        <time>2024-07-20T08:17:32.243Z</time>
      </trkpt>
      <trkpt lat="53.70654" lon="10.92758">
        <ele>83.510016</ele>
        <time>2024-07-20T08:17:35.236Z</time>
      </trkpt>
      <trkpt lat="53.70654" lon="10.92778">
        <ele>83.55263</ele>
        <time>2024-07-20T08:17:38.236Z</time>
      </trkpt>
      <trkpt lat="53.70654" lon="10.92799">
        <ele>83.55772</ele>
        <time>2024-07-20T08:17:41.240Z</time>
      </trkpt>
      <trkpt lat="53.70655" lon="10.9282">
        <ele>83.563044</ele>
        <time>2024-07-20T08:17:44.250Z</time>
      </trkpt>
      <trkpt lat="53.70655" lon="10.9284">
        <ele>83.568113</ele>
        <time>2024-07-20T08:17:47.229Z</time>
      </trkpt>
      <trkpt lat="53.70655" lon="10.92859">
        <ele>83.572877</ele>
        <time>2024-07-20T08:17:50.230Z</time>
      </trkpt>
      <trkpt lat="53.70656" lon="10.92876">
        <ele>83.577243</ele>
        <time>2024-07-20T08:17:53.212Z</time>
      </trkpt>
      <trkpt lat="53.70657" lon="10.92897">
        <ele>83.582308</ele>
        <time>2024-07-20T08:17:56.213Z</time>
      </trkpt>
      <trkpt lat="53.70657" lon="10.92918">
        <ele>83.587577</ele>
        <time>2024-07-20T08:17:59.227Z</time>
      </trkpt>
      <trkpt lat="53.70658" lon="10.9294">
        <ele>83.593118</ele>
        <time>2024-07-20T08:18:02.232Z</time>
      </trkpt>
      <trkpt lat="53.70658" lon="10.9296">
        <ele>83.598137</ele>
        <time>2024-07-20T08:18:05.233Z</time>
      </trkpt>
      <trkpt lat="53.70658" lon="10.92981">
        <ele>83.603578</ele>
        <time>2024-07-20T08:18:08.232Z</time>
      </trkpt>
      <trkpt lat="53.70658" lon="10.93001">
        <ele>83.608619</ele>
        <time>2024-07-20T08:18:11.232Z</time>
      </trkpt>
      <trkpt lat="53.70658" lon="10.93021">
        <ele>83.613485</ele>
        <time>2024-07-20T08:18:14.249Z</time>
      </trkpt>
      <trkpt lat="53.70658" lon="10.93039">
        <ele>83.618049</ele>
        <time>2024-07-20T08:18:17.245Z</time>
      </trkpt>
      <trkpt lat="53.70658" lon="10.93056">
        <ele>83.622286</ele>
        <time>2024-07-20T08:18:20.239Z</time>
      </trkpt>
      <trkpt lat="53.70658" lon="10.93075">
        <ele>83.657927</ele>
        <time>2024-07-20T08:18:23.245Z</time>
      </trkpt>
      <trkpt lat="53.70658" lon="10.93091">
        <ele>83.725492</ele>
        <time>2024-07-20T08:18:25.228Z</time>
      </trkpt>
      <trkpt lat="53.7066" lon="10.93112">
        <ele>83.819089</ele>
        <time>2024-07-20T08:18:28.235Z</time>
      </trkpt>
      <trkpt lat="53.7066" lon="10.93133">
        <ele>83.909217</ele>
        <time>2024-07-20T08:18:31.229Z</time>
      </trkpt>
      <trkpt lat="53.7066" lon="10.93154">
        <ele>83.998865</ele>
        <time>2024-07-20T08:18:34.231Z</time>
      </trkpt>
      <trkpt lat="53.70661" lon="10.93173">
        <ele>84.082068</ele>
        <time>2024-07-20T08:18:37.228Z</time>
      </trkpt>
      <trkpt lat="53.7066" lon="10.9319">
        <ele>84.155822</ele>
        <time>2024-07-20T08:18:40.258Z</time>
      </trkpt>
      <trkpt lat="53.7066" lon="10.93208">
        <ele>84.233375</ele>
        <time>2024-07-20T08:18:44.230Z</time>
      </trkpt>
      <trkpt lat="53.7066" lon="10.93226">
        <ele>84.312844</ele>
        <time>2024-07-20T08:18:48.258Z</time>
      </trkpt>
      <trkpt lat="53.7066" lon="10.93244">
        <ele>84.391232</ele>
        <time>2024-07-20T08:18:52.256Z</time>
      </trkpt>
      <trkpt lat="53.7066" lon="10.93261">
        <ele>84.462705</ele>
        <time>2024-07-20T08:18:56.238Z</time>
      </trkpt>
      <trkpt lat="53.7066" lon="10.93276">
        <ele>84.530266</ele>
        <time>2024-07-20T08:19:00.242Z</time>
      </trkpt>
      <trkpt lat="53.70661" lon="10.93295">
        <ele>84.609209</ele>
        <time>2024-07-20T08:19:05.256Z</time>
      </trkpt>
      <trkpt lat="53.70661" lon="10.93314">
        <ele>84.692806</ele>
        <time>2024-07-20T08:19:08.229Z</time>
      </trkpt>
      <trkpt lat="53.70661" lon="10.93336">
        <ele>84.788961</ele>
        <time>2024-07-20T08:19:11.268Z</time>
      </trkpt>
      <trkpt lat="53.70662" lon="10.93352">
        <ele>84.857429</ele>
        <time>2024-07-20T08:19:13.211Z</time>
      </trkpt>
      <trkpt lat="53.70663" lon="10.93367">
        <ele>84.925615</ele>
        <time>2024-07-20T08:19:15.229Z</time>
      </trkpt>
      <trkpt lat="53.70663" lon="10.93383">
        <ele>84.955454</ele>
        <time>2024-07-20T08:19:17.227Z</time>
      </trkpt>
      <trkpt lat="53.70663" lon="10.934">
        <ele>84.975129</ele>
        <time>2024-07-20T08:19:19.222Z</time>
      </trkpt>
      <trkpt lat="53.70664" lon="10.93418">
        <ele>84.99636</ele>
        <time>2024-07-20T08:19:21.232Z</time>
      </trkpt>
      <trkpt lat="53.70664" lon="10.93439">
        <ele>85.021131</ele>
        <time>2024-07-20T08:19:23.229Z</time>
      </trkpt>
      <trkpt lat="53.70665" lon="10.9346">
        <ele>85.046608</ele>
        <time>2024-07-20T08:19:25.223Z</time>
      </trkpt>
      <trkpt lat="53.70665" lon="10.9348">
        <ele>85.070057</ele>
        <time>2024-07-20T08:19:27.231Z</time>
      </trkpt>
      <trkpt lat="53.70665" lon="10.93499">
        <ele>85.091986</ele>
        <time>2024-07-20T08:19:29.229Z</time>
      </trkpt>
      <trkpt lat="53.70665" lon="10.93516">
        <ele>85.112157</ele>
        <time>2024-07-20T08:19:31.228Z</time>
      </trkpt>
      <trkpt lat="53.70666" lon="10.93532">
        <ele>85.130693</ele>
        <time>2024-07-20T08:19:33.227Z</time>
      </trkpt>
      <trkpt lat="53.70666" lon="10.93552">
        <ele>85.154029</ele>
        <time>2024-07-20T08:19:36.241Z</time>
      </trkpt>
      <trkpt lat="53.70666" lon="10.93567">
        <ele>85.171947</ele>
        <time>2024-07-20T08:19:39.237Z</time>
      </trkpt>
      <trkpt lat="53.70666" lon="10.93586">
        <ele>85.194572</ele>
        <time>2024-07-20T08:19:43.232Z</time>
      </trkpt>
      <trkpt lat="53.70666" lon="10.93606">
        <ele>85.218608</ele>
        <time>2024-07-20T08:19:47.246Z</time>
      </trkpt>
      <trkpt lat="53.70666" lon="10.93627">
        <ele>85.243115</ele>
        <time>2024-07-20T08:19:50.224Z</time>
      </trkpt>
      <trkpt lat="53.70665" lon="10.93642">
        <ele>85.261181</ele>
        <time>2024-07-20T08:19:52.232Z</time>
      </trkpt>
      <trkpt lat="53.70666" lon="10.9366">
        <ele>85.281588</ele>
        <time>2024-07-20T08:19:54.245Z</time>
      </trkpt>
      <trkpt lat="53.70666" lon="10.93678">
        <ele>85.323294</ele>
        <time>2024-07-20T08:19:56.253Z</time>
      </trkpt>
      <trkpt lat="53.70667" lon="10.93696">
        <ele>85.470421</ele>
        <time>2024-07-20T08:19:58.215Z</time>
      </trkpt>
      <trkpt lat="53.70667" lon="10.93715">
        <ele>85.628158</ele>
        <time>2024-07-20T08:20:00.221Z</time>
      </trkpt>
      <trkpt lat="53.70668" lon="10.93734">
        <ele>85.777963</ele>
        <time>2024-07-20T08:20:02.234Z</time>
      </trkpt>
      <trkpt lat="53.70668" lon="10.93751">
        <ele>85.917622</ele>
        <time>2024-07-20T08:20:04.233Z</time>
      </trkpt>
      <trkpt lat="53.70668" lon="10.93768">
        <ele>86.054872</ele>
        <time>2024-07-20T08:20:06.243Z</time>
      </trkpt>
      <trkpt lat="53.70668" lon="10.93785">
        <ele>86.194558</ele>
        <time>2024-07-20T08:20:08.230Z</time>
      </trkpt>
      <trkpt lat="53.70668" lon="10.93802">
        <ele>86.330219</ele>
        <time>2024-07-20T08:20:10.239Z</time>
      </trkpt>
      <trkpt lat="53.70668" lon="10.93817">
        <ele>86.456953</ele>
        <time>2024-07-20T08:20:12.233Z</time>
      </trkpt>
      <trkpt lat="53.70669" lon="10.93838">
        <ele>86.628476</ele>
        <time>2024-07-20T08:20:15.232Z</time>
      </trkpt>
      <trkpt lat="53.70669" lon="10.93859">
        <ele>86.797372</ele>
        <time>2024-07-20T08:20:18.245Z</time>
      </trkpt>
      <trkpt lat="53.70667" lon="10.93879">
        <ele>86.962047</ele>
        <time>2024-07-20T08:20:21.241Z</time>
      </trkpt>
      <trkpt lat="53.70667" lon="10.93898">
        <ele>87.116473</ele>
        <time>2024-07-20T08:20:24.238Z</time>
      </trkpt>
      <trkpt lat="53.70666" lon="10.93913">
        <ele>87.240015</ele>
        <time>2024-07-20T08:20:27.231Z</time>
      </trkpt>
      <trkpt lat="53.70667" lon="10.93933">
        <ele>87.396821</ele>
        <time>2024-07-20T08:20:31.259Z</time>
      </trkpt>
      <trkpt lat="53.70667" lon="10.93953">
        <ele>87.5651</ele>
        <time>2024-07-20T08:20:35.255Z</time>
      </trkpt>
      <trkpt lat="53.70667" lon="10.93971">
        <ele>87.704786</ele>
        <time>2024-07-20T08:20:38.245Z</time>
      </trkpt>
      <trkpt lat="53.70668" lon="10.93987">
        <ele>87.818356</ele>
        <time>2024-07-20T08:20:41.244Z</time>
      </trkpt>
      <trkpt lat="53.70668" lon="10.94003">
        <ele>87.912038</ele>
        <time>2024-07-20T08:20:44.244Z</time>
      </trkpt>
      <trkpt lat="53.70668" lon="10.9402">
        <ele>88.008789</ele>
        <time>2024-07-20T08:20:47.256Z</time>
      </trkpt>
      <trkpt lat="53.70668" lon="10.94036">
        <ele>88.101874</ele>
        <time>2024-07-20T08:20:50.258Z</time>
      </trkpt>
      <trkpt lat="53.70668" lon="10.94053">
        <ele>88.203699</ele>
        <time>2024-07-20T08:20:53.236Z</time>
      </trkpt>
      <trkpt lat="53.70669" lon="10.94073">
        <ele>88.318991</ele>
        <time>2024-07-20T08:20:56.243Z</time>
      </trkpt>
      <trkpt lat="53.70668" lon="10.94089">
        <ele>88.412588</ele>
        <time>2024-07-20T08:20:58.246Z</time>
      </trkpt>
      <trkpt lat="53.70667" lon="10.94105">
        <ele>88.507256</ele>
        <time>2024-07-20T08:21:00.239Z</time>
      </trkpt>
      <trkpt lat="53.70665" lon="10.94121">
        <ele>88.601824</ele>
        <time>2024-07-20T08:21:02.238Z</time>
      </trkpt>
      <trkpt lat="53.70663" lon="10.94138">
        <ele>88.698794</ele>
        <time>2024-07-20T08:21:04.246Z</time>
      </trkpt>
      <trkpt lat="53.70662" lon="10.94154">
        <ele>88.794112</ele>
        <time>2024-07-20T08:21:06.255Z</time>
      </trkpt>
      <trkpt lat="53.7066" lon="10.94169">
        <ele>88.886573</ele>
        <time>2024-07-20T08:21:08.245Z</time>
      </trkpt>
      <trkpt lat="53.70658" lon="10.94185">
        <ele>88.982276</ele>
        <time>2024-07-20T08:21:10.229Z</time>
      </trkpt>
      <trkpt lat="53.70656" lon="10.94208">
        <ele>89.113222</ele>
        <time>2024-07-20T08:21:13.236Z</time>
      </trkpt>
      <trkpt lat="53.70653" lon="10.94229">
        <ele>89.242219</ele>
        <time>2024-07-20T08:21:16.240Z</time>
      </trkpt>
      <trkpt lat="53.70651" lon="10.9425">
        <ele>89.362678</ele>
        <time>2024-07-20T08:21:19.235Z</time>
      </trkpt>
      <trkpt lat="53.70649" lon="10.94268">
        <ele>89.472651</ele>
        <time>2024-07-20T08:21:22.232Z</time>
      </trkpt>
      <trkpt lat="53.70647" lon="10.94289">
        <ele>89.596755</ele>
        <time>2024-07-20T08:21:25.231Z</time>
      </trkpt>
      <trkpt lat="53.70645" lon="10.94311">
        <ele>89.72443</ele>
        <time>2024-07-20T08:21:28.242Z</time>
      </trkpt>
      <trkpt lat="53.70643" lon="10.94331">
        <ele>89.841561</ele>
        <time>2024-07-20T08:21:31.225Z</time>
      </trkpt>
      <trkpt lat="53.7064" lon="10.94351">
        <ele>89.965202</ele>
        <time>2024-07-20T08:21:34.236Z</time>
      </trkpt>
      <trkpt lat="53.70639" lon="10.94369">
        <ele>90.071134</ele>
        <time>2024-07-20T08:21:37.246Z</time>
      </trkpt>
      <trkpt lat="53.70638" lon="10.94386">
        <ele>90.170154</ele>
        <time>2024-07-20T08:21:40.247Z</time>
      </trkpt>
      <trkpt lat="53.70636" lon="10.94405">
        <ele>90.282774</ele>
        <time>2024-07-20T08:21:44.246Z</time>
      </trkpt>
      <trkpt lat="53.70634" lon="10.94421">
        <ele>90.377896</ele>
        <time>2024-07-20T08:21:47.239Z</time>
      </trkpt>
      <trkpt lat="53.70632" lon="10.94436">
        <ele>90.469231</ele>
        <time>2024-07-20T08:21:50.231Z</time>
      </trkpt>
      <trkpt lat="53.7063" lon="10.94456">
        <ele>90.587878</ele>
        <time>2024-07-20T08:21:54.241Z</time>
      </trkpt>
      <trkpt lat="53.70628" lon="10.94472">
        <ele>90.684349</ele>
        <time>2024-07-20T08:21:57.228Z</time>
      </trkpt>
      <trkpt lat="53.70627" lon="10.94491">
        <ele>90.79267</ele>
        <time>2024-07-20T08:22:01.254Z</time>
      </trkpt>
      <trkpt lat="53.70624" lon="10.94509">
        <ele>90.90386</ele>
        <time>2024-07-20T08:22:05.260Z</time>
      </trkpt>
      <trkpt lat="53.70622" lon="10.94527">
        <ele>91.007774</ele>
        <time>2024-07-20T08:22:10.244Z</time>
      </trkpt>
      <trkpt lat="53.70621" lon="10.94542">
        <ele>91.100777</ele>
        <time>2024-07-20T08:22:16.230Z</time>
      </trkpt>
      <trkpt lat="53.70617" lon="10.94571">
        <ele>91.274372</ele>
        <time>2024-07-20T08:23:44.243Z</time>
      </trkpt>
      <trkpt lat="53.70615" lon="10.94591">
        <ele>91.526803</ele>
        <time>2024-07-20T08:23:48.236Z</time>
      </trkpt>
      <trkpt lat="53.70612" lon="10.94612">
        <ele>91.849679</ele>
        <time>2024-07-20T08:23:51.233Z</time>
      </trkpt>
      <trkpt lat="53.70611" lon="10.94627">
        <ele>92.091867</ele>
        <time>2024-07-20T08:23:53.227Z</time>
      </trkpt>
      <trkpt lat="53.7061" lon="10.94644">
        <ele>92.342202</ele>
        <time>2024-07-20T08:23:55.235Z</time>
      </trkpt>
      <trkpt lat="53.70608" lon="10.94663">
        <ele>92.63981</ele>
        <time>2024-07-20T08:23:57.234Z</time>
      </trkpt>
      <trkpt lat="53.70607" lon="10.94682">
        <ele>92.942732</ele>
        <time>2024-07-20T08:23:59.226Z</time>
      </trkpt>
      <trkpt lat="53.70604" lon="10.94702">
        <ele>93.25137</ele>
        <time>2024-07-20T08:24:01.234Z</time>
      </trkpt>
      <trkpt lat="53.70602" lon="10.9472">
        <ele>93.54336</ele>
        <time>2024-07-20T08:24:03.234Z</time>
      </trkpt>
      <trkpt lat="53.706" lon="10.94738">
        <ele>93.82083</ele>
        <time>2024-07-20T08:24:05.229Z</time>
      </trkpt>
      <trkpt lat="53.70598" lon="10.94754">
        <ele>94.07524</ele>
        <time>2024-07-20T08:24:07.236Z</time>
      </trkpt>
      <trkpt lat="53.70596" lon="10.94776">
        <ele>94.4263</ele>
        <time>2024-07-20T08:24:10.241Z</time>
      </trkpt>
      <trkpt lat="53.70594" lon="10.94791">
        <ele>94.659879</ele>
        <time>2024-07-20T08:24:12.244Z</time>
      </trkpt>
      <trkpt lat="53.70592" lon="10.94813">
        <ele>95.006404</ele>
        <time>2024-07-20T08:24:15.237Z</time>
      </trkpt>
      <trkpt lat="53.70589" lon="10.94834">
        <ele>95.330208</ele>
        <time>2024-07-20T08:24:18.249Z</time>
      </trkpt>
      <trkpt lat="53.70587" lon="10.94855">
        <ele>95.659621</ele>
        <time>2024-07-20T08:24:21.258Z</time>
      </trkpt>
      <trkpt lat="53.70585" lon="10.94876">
        <ele>95.998064</ele>
        <time>2024-07-20T08:24:24.251Z</time>
      </trkpt>
      <trkpt lat="53.70582" lon="10.94898">
        <ele>96.010237</ele>
        <time>2024-07-20T08:24:27.245Z</time>
      </trkpt>
      <trkpt lat="53.7058" lon="10.94918">
        <ele>96.014474</ele>
        <time>2024-07-20T08:24:30.261Z</time>
      </trkpt>
      <trkpt lat="53.70578" lon="10.94936">
        <ele>96.018274</ele>
        <time>2024-07-20T08:24:33.234Z</time>
      </trkpt>
      <trkpt lat="53.70577" lon="10.94955">
        <ele>96.022241</ele>
        <time>2024-07-20T08:24:36.241Z</time>
      </trkpt>
      <trkpt lat="53.70575" lon="10.94973">
        <ele>96.02603</ele>
        <time>2024-07-20T08:24:39.227Z</time>
      </trkpt>
      <trkpt lat="53.70573" lon="10.94992">
        <ele>96.029978</ele>
        <time>2024-07-20T08:24:42.243Z</time>
      </trkpt>
      <trkpt lat="53.7057" lon="10.95012">
        <ele>96.03426</ele>
        <time>2024-07-20T08:24:45.226Z</time>
      </trkpt>
      <trkpt lat="53.70567" lon="10.95034">
        <ele>96.038869</ele>
        <time>2024-07-20T08:24:48.237Z</time>
      </trkpt>
      <trkpt lat="53.70567" lon="10.95051">
        <ele>96.042305</ele>
        <time>2024-07-20T08:24:50.232Z</time>
      </trkpt>
      <trkpt lat="53.70567" lon="10.95068">
        <ele>96.04578</ele>
        <time>2024-07-20T08:24:52.231Z</time>
      </trkpt>
      <trkpt lat="53.70568" lon="10.95087">
        <ele>96.049692</ele>
        <time>2024-07-20T08:24:54.237Z</time>
      </trkpt>
      <trkpt lat="53.70568" lon="10.95108">
        <ele>96.054012</ele>
        <time>2024-07-20T08:24:56.236Z</time>
      </trkpt>
      <trkpt lat="53.70566" lon="10.95128">
        <ele>96.058102</ele>
        <time>2024-07-20T08:24:58.234Z</time>
      </trkpt>
      <trkpt lat="53.70562" lon="10.95144">
        <ele>96.061777</ele>
        <time>2024-07-20T08:25:00.248Z</time>
      </trkpt>
      <trkpt lat="53.70558" lon="10.95161">
        <ele>96.06544</ele>
        <time>2024-07-20T08:25:02.229Z</time>
      </trkpt>
      <trkpt lat="53.70556" lon="10.95177">
        <ele>96.064638</ele>
        <time>2024-07-20T08:25:04.235Z</time>
      </trkpt>
      <trkpt lat="53.70552" lon="10.95198">
        <ele>96.026899</ele>
        <time>2024-07-20T08:25:07.236Z</time>
      </trkpt>
      <trkpt lat="53.70549" lon="10.95218">
        <ele>95.99208</ele>
        <time>2024-07-20T08:25:10.227Z</time>
      </trkpt>
      <trkpt lat="53.70546" lon="10.95237">
        <ele>95.959123</ele>
        <time>2024-07-20T08:25:13.232Z</time>
      </trkpt>
      <trkpt lat="53.70544" lon="10.95254">
        <ele>95.929813</ele>
        <time>2024-07-20T08:25:16.243Z</time>
      </trkpt>
      <trkpt lat="53.70543" lon="10.9527">
        <ele>95.903578</ele>
        <time>2024-07-20T08:25:19.224Z</time>
      </trkpt>
      <trkpt lat="53.70542" lon="10.95285">
        <ele>95.877263</ele>
        <time>2024-07-20T08:25:22.243Z</time>
      </trkpt>
      <trkpt lat="53.7054" lon="10.95303">
        <ele>95.84768</ele>
        <time>2024-07-20T08:25:25.221Z</time>
      </trkpt>
      <trkpt lat="53.70535" lon="10.95325">
        <ele>95.808442</ele>
        <time>2024-07-20T08:25:28.232Z</time>
      </trkpt>
      <trkpt lat="53.70532" lon="10.95341">
        <ele>95.780274</ele>
        <time>2024-07-20T08:25:30.221Z</time>
      </trkpt>
      <trkpt lat="53.7053" lon="10.95356">
        <ele>95.753488</ele>
        <time>2024-07-20T08:25:32.231Z</time>
      </trkpt>
      <trkpt lat="53.70527" lon="10.95374">
        <ele>95.723233</ele>
        <time>2024-07-20T08:25:34.241Z</time>
      </trkpt>
      <trkpt lat="53.70524" lon="10.9539">
        <ele>95.693933</ele>
        <time>2024-07-20T08:25:36.234Z</time>
      </trkpt>
      <trkpt lat="53.7052" lon="10.95406">
        <ele>95.665111</ele>
        <time>2024-07-20T08:25:38.230Z</time>
      </trkpt>
      <trkpt lat="53.70518" lon="10.95422">
        <ele>95.638546</ele>
        <time>2024-07-20T08:25:40.231Z</time>
      </trkpt>
      <trkpt lat="53.70514" lon="10.95443">
        <ele>95.601928</ele>
        <time>2024-07-20T08:25:43.229Z</time>
      </trkpt>
      <trkpt lat="53.70511" lon="10.95463">
        <ele>95.566201</ele>
        <time>2024-07-20T08:25:46.240Z</time>
      </trkpt>
      <trkpt lat="53.70508" lon="10.95478">
        <ele>95.626711</ele>
        <time>2024-07-20T08:25:48.239Z</time>
      </trkpt>
      <trkpt lat="53.70505" lon="10.95493">
        <ele>95.730619</ele>
        <time>2024-07-20T08:25:50.216Z</time>
      </trkpt>
      <trkpt lat="53.70502" lon="10.95509">
        <ele>95.839955</ele>
        <time>2024-07-20T08:25:52.240Z</time>
      </trkpt>
      <trkpt lat="53.70498" lon="10.95531">
        <ele>95.989098</ele>
        <time>2024-07-20T08:25:55.237Z</time>
      </trkpt>
      <trkpt lat="53.70494" lon="10.95552">
        <ele>96.132306</ele>
        <time>2024-07-20T08:25:58.228Z</time>
      </trkpt>
      <trkpt lat="53.7049" lon="10.95573">
        <ele>96.276768</ele>
        <time>2024-07-20T08:26:01.223Z</time>
      </trkpt>
      <trkpt lat="53.70487" lon="10.95588">
        <ele>96.377257</ele>
        <time>2024-07-20T08:26:03.236Z</time>
      </trkpt>
      <trkpt lat="53.70485" lon="10.95604">
        <ele>96.482556</ele>
        <time>2024-07-20T08:26:05.234Z</time>
      </trkpt>
      <trkpt lat="53.70481" lon="10.95618">
        <ele>96.583231</ele>
        <time>2024-07-20T08:26:07.226Z</time>
      </trkpt>
      <trkpt lat="53.70479" lon="10.95633">
        <ele>96.68232</ele>
        <time>2024-07-20T08:26:09.229Z</time>
      </trkpt>
      <trkpt lat="53.70475" lon="10.95647">
        <ele>96.7822</ele>
        <time>2024-07-20T08:26:11.232Z</time>
      </trkpt>
      <trkpt lat="53.70472" lon="10.95663">
        <ele>96.890137</ele>
        <time>2024-07-20T08:26:13.229Z</time>
      </trkpt>
      <trkpt lat="53.70467" lon="10.95684">
        <ele>97.03984</ele>
        <time>2024-07-20T08:26:16.244Z</time>
      </trkpt>
      <trkpt lat="53.70465" lon="10.957">
        <ele>97.144831</ele>
        <time>2024-07-20T08:26:18.228Z</time>
      </trkpt>
      <trkpt lat="53.70462" lon="10.95715">
        <ele>97.245471</ele>
        <time>2024-07-20T08:26:20.229Z</time>
      </trkpt>
      <trkpt lat="53.70459" lon="10.9573">
        <ele>97.351211</ele>
        <time>2024-07-20T08:26:22.237Z</time>
      </trkpt>
      <trkpt lat="53.70456" lon="10.95745">
        <ele>97.455494</ele>
        <time>2024-07-20T08:26:24.228Z</time>
      </trkpt>
      <trkpt lat="53.70452" lon="10.9576">
        <ele>97.531328</ele>
        <time>2024-07-20T08:26:26.246Z</time>
      </trkpt>
      <trkpt lat="53.70449" lon="10.95776">
        <ele>97.546088</ele>
        <time>2024-07-20T08:26:28.232Z</time>
      </trkpt>
      <trkpt lat="53.70446" lon="10.95791">
        <ele>97.560632</ele>
        <time>2024-07-20T08:26:30.243Z</time>
      </trkpt>
      <trkpt lat="53.70442" lon="10.95812">
        <ele>97.579746</ele>
        <time>2024-07-20T08:26:33.238Z</time>
      </trkpt>
      <trkpt lat="53.70439" lon="10.95832">
        <ele>97.597965</ele>
        <time>2024-07-20T08:26:36.245Z</time>
      </trkpt>
      <trkpt lat="53.70436" lon="10.95851">
        <ele>97.615712</ele>
        <time>2024-07-20T08:26:39.244Z</time>
      </trkpt>
      <trkpt lat="53.70432" lon="10.9587">
        <ele>97.634407</ele>
        <time>2024-07-20T08:26:42.227Z</time>
      </trkpt>
      <trkpt lat="53.70428" lon="10.95891">
        <ele>97.653996</ele>
        <time>2024-07-20T08:26:45.239Z</time>
      </trkpt>
      <trkpt lat="53.70424" lon="10.95912">
        <ele>97.672897</ele>
        <time>2024-07-20T08:26:48.232Z</time>
      </trkpt>
      <trkpt lat="53.70421" lon="10.9593">
        <ele>97.689533</ele>
        <time>2024-07-20T08:26:51.232Z</time>
      </trkpt>
      <trkpt lat="53.70417" lon="10.95946">
        <ele>97.704913</ele>
        <time>2024-07-20T08:26:54.243Z</time>
      </trkpt>
      <trkpt lat="53.70415" lon="10.95962">
        <ele>97.719666</ele>
        <time>2024-07-20T08:26:57.227Z</time>
      </trkpt>
      <trkpt lat="53.70411" lon="10.95977">
        <ele>97.734576</ele>
        <time>2024-07-20T08:27:00.255Z</time>
      </trkpt>
      <trkpt lat="53.70409" lon="10.95993">
        <ele>97.749469</ele>
        <time>2024-07-20T08:27:03.241Z</time>
      </trkpt>
      <trkpt lat="53.70405" lon="10.9601">
        <ele>97.765256</ele>
        <time>2024-07-20T08:27:06.226Z</time>
      </trkpt>
      <trkpt lat="53.70402" lon="10.9603">
        <ele>97.783397</ele>
        <time>2024-07-20T08:27:09.253Z</time>
      </trkpt>
      <trkpt lat="53.704" lon="10.96048">
        <ele>97.817336</ele>
        <time>2024-07-20T08:27:12.247Z</time>
      </trkpt>
      <trkpt lat="53.70398" lon="10.96064">
        <ele>97.964645</ele>
        <time>2024-07-20T08:27:15.241Z</time>
      </trkpt>
      <trkpt lat="53.70394" lon="10.96082">
        <ele>98.126353</ele>
        <time>2024-07-20T08:27:18.230Z</time>
      </trkpt>
      <trkpt lat="53.7039" lon="10.96102">
        <ele>98.317452</ele>
        <time>2024-07-20T08:27:21.230Z</time>
      </trkpt>
      <trkpt lat="53.70385" lon="10.9612">
        <ele>98.492612</ele>
        <time>2024-07-20T08:27:24.244Z</time>
      </trkpt>
      <trkpt lat="53.70381" lon="10.96139">
        <ele>98.66476</ele>
        <time>2024-07-20T08:27:27.230Z</time>
      </trkpt>
      <trkpt lat="53.70378" lon="10.96157">
        <ele>98.837146</ele>
        <time>2024-07-20T08:27:30.234Z</time>
      </trkpt>
      <trkpt lat="53.70375" lon="10.96174">
        <ele>98.994366</ele>
        <time>2024-07-20T08:27:33.247Z</time>
      </trkpt>
      <trkpt lat="53.70372" lon="10.9619">
        <ele>99.138111</ele>
        <time>2024-07-20T08:27:36.243Z</time>
      </trkpt>
      <trkpt lat="53.70369" lon="10.96208">
        <ele>99.301658</ele>
        <time>2024-07-20T08:27:39.233Z</time>
      </trkpt>
      <trkpt lat="53.70364" lon="10.96229">
        <ele>99.499154</ele>
        <time>2024-07-20T08:27:42.251Z</time>
      </trkpt>
      <trkpt lat="53.70361" lon="10.96249">
        <ele>99.681686</ele>
        <time>2024-07-20T08:27:45.239Z</time>
      </trkpt>
      <trkpt lat="53.70357" lon="10.96267">
        <ele>99.850713</ele>
        <time>2024-07-20T08:27:48.236Z</time>
      </trkpt>
      <trkpt lat="53.70353" lon="10.96286">
        <ele>100.024685</ele>
        <time>2024-07-20T08:27:51.230Z</time>
      </trkpt>
      <trkpt lat="53.7035" lon="10.96303">
        <ele>100.182347</ele>
        <time>2024-07-20T08:27:54.239Z</time>
      </trkpt>
      <trkpt lat="53.70347" lon="10.9632">
        <ele>100.342136</ele>
        <time>2024-07-20T08:27:57.220Z</time>
      </trkpt>
      <trkpt lat="53.70344" lon="10.96339">
        <ele>100.485576</ele>
        <time>2024-07-20T08:28:00.239Z</time>
      </trkpt>
      <trkpt lat="53.7034" lon="10.96358">
        <ele>100.559993</ele>
        <time>2024-07-20T08:28:03.239Z</time>
      </trkpt>
      <trkpt lat="53.70336" lon="10.96377">
        <ele>100.633113</ele>
        <time>2024-07-20T08:28:06.214Z</time>
      </trkpt>
      <trkpt lat="53.70333" lon="10.96395">
        <ele>100.703246</ele>
        <time>2024-07-20T08:28:09.214Z</time>
      </trkpt>
      <trkpt lat="53.7033" lon="10.96415">
        <ele>100.777598</ele>
        <time>2024-07-20T08:28:12.239Z</time>
      </trkpt>
      <trkpt lat="53.70326" lon="10.96434">
        <ele>100.852303</ele>
        <time>2024-07-20T08:28:15.246Z</time>
      </trkpt>
      <trkpt lat="53.70323" lon="10.96453">
        <ele>100.923669</ele>
        <time>2024-07-20T08:28:18.230Z</time>
      </trkpt>
      <trkpt lat="53.70319" lon="10.96472">
        <ele>100.998153</ele>
        <time>2024-07-20T08:28:21.234Z</time>
      </trkpt>
      <trkpt lat="53.70315" lon="10.9649">
        <ele>101.06934</ele>
        <time>2024-07-20T08:28:24.234Z</time>
      </trkpt>
      <trkpt lat="53.70312" lon="10.96507">
        <ele>101.133189</ele>
        <time>2024-07-20T08:28:27.242Z</time>
      </trkpt>
      <trkpt lat="53.70309" lon="10.96522">
        <ele>101.192435</ele>
        <time>2024-07-20T08:28:30.237Z</time>
      </trkpt>
      <trkpt lat="53.70306" lon="10.96538">
        <ele>101.25203</ele>
        <time>2024-07-20T08:28:33.243Z</time>
      </trkpt>
      <trkpt lat="53.70303" lon="10.96556">
        <ele>101.321746</ele>
        <time>2024-07-20T08:28:37.234Z</time>
      </trkpt>
      <trkpt lat="53.70298" lon="10.96579">
        <ele>101.41364</ele>
        <time>2024-07-20T08:29:00.238Z</time>
      </trkpt>
      <trkpt lat="53.70294" lon="10.96597">
        <ele>101.482948</ele>
        <time>2024-07-20T08:29:04.233Z</time>
      </trkpt>
      <trkpt lat="53.7029" lon="10.96616">
        <ele>101.554392</ele>
        <time>2024-07-20T08:29:08.245Z</time>
      </trkpt>
      <trkpt lat="53.70287" lon="10.96633">
        <ele>101.697796</ele>
        <time>2024-07-20T08:29:12.243Z</time>
      </trkpt>
      <trkpt lat="53.70284" lon="10.96648">
        <ele>101.876619</ele>
        <time>2024-07-20T08:29:15.252Z</time>
      </trkpt>
      <trkpt lat="53.70281" lon="10.96664">
        <ele>102.063687</ele>
        <time>2024-07-20T08:29:18.254Z</time>
      </trkpt>
      <trkpt lat="53.70278" lon="10.96679">
        <ele>102.24424</ele>
        <time>2024-07-20T08:29:21.252Z</time>
      </trkpt>
      <trkpt lat="53.70274" lon="10.96697">
        <ele>102.451898</ele>
        <time>2024-07-20T08:29:24.248Z</time>
      </trkpt>
      <trkpt lat="53.70271" lon="10.96714">
        <ele>102.652823</ele>
        <time>2024-07-20T08:29:27.241Z</time>
      </trkpt>
      <trkpt lat="53.70269" lon="10.96731">
        <ele>102.84356</ele>
        <time>2024-07-20T08:29:30.232Z</time>
      </trkpt>
      <trkpt lat="53.70265" lon="10.96747">
        <ele>103.034879</ele>
        <time>2024-07-20T08:29:33.243Z</time>
      </trkpt>
      <trkpt lat="53.70262" lon="10.96764">
        <ele>103.233113</ele>
        <time>2024-07-20T08:29:36.250Z</time>
      </trkpt>
      <trkpt lat="53.70259" lon="10.96782">
        <ele>103.43993</ele>
        <time>2024-07-20T08:29:39.242Z</time>
      </trkpt>
      <trkpt lat="53.70256" lon="10.96799">
        <ele>103.639275</ele>
        <time>2024-07-20T08:29:42.252Z</time>
      </trkpt>
      <trkpt lat="53.70253" lon="10.96816">
        <ele>103.843453</ele>
        <time>2024-07-20T08:29:45.259Z</time>
      </trkpt>
      <trkpt lat="53.7025" lon="10.96835">
        <ele>104.065798</ele>
        <time>2024-07-20T08:29:48.227Z</time>
      </trkpt>
      <trkpt lat="53.70247" lon="10.96853">
        <ele>104.273184</ele>
        <time>2024-07-20T08:29:51.262Z</time>
      </trkpt>
      <trkpt lat="53.70243" lon="10.96871">
        <ele>104.489283</ele>
        <time>2024-07-20T08:29:54.245Z</time>
      </trkpt>
      <trkpt lat="53.7024" lon="10.96888">
        <ele>104.690865</ele>
        <time>2024-07-20T08:29:57.237Z</time>
      </trkpt>
      <trkpt lat="53.70236" lon="10.96906">
        <ele>104.89432</ele>
        <time>2024-07-20T08:30:00.243Z</time>
      </trkpt>
      <trkpt lat="53.70233" lon="10.96922">
        <ele>104.984162</ele>
        <time>2024-07-20T08:30:03.231Z</time>
      </trkpt>
      <trkpt lat="53.7023" lon="10.96938">
        <ele>104.994795</ele>
        <time>2024-07-20T08:30:06.240Z</time>
      </trkpt>
      <trkpt lat="53.70227" lon="10.96955">
        <ele>105.005277</ele>
        <time>2024-07-20T08:30:09.227Z</time>
      </trkpt>
      <trkpt lat="53.70224" lon="10.96972">
        <ele>105.016197</ele>
        <time>2024-07-20T08:30:12.263Z</time>
      </trkpt>
      <trkpt lat="53.70221" lon="10.96988">
        <ele>105.026554</ele>
        <time>2024-07-20T08:30:15.241Z</time>
      </trkpt>
      <trkpt lat="53.70217" lon="10.97005">
        <ele>105.038068</ele>
        <time>2024-07-20T08:30:18.246Z</time>
      </trkpt>
      <trkpt lat="53.70215" lon="10.97022">
        <ele>105.048762</ele>
        <time>2024-07-20T08:30:21.249Z</time>
      </trkpt>
      <trkpt lat="53.70211" lon="10.9704">
        <ele>105.06068</ele>
        <time>2024-07-20T08:30:24.249Z</time>
      </trkpt>
      <trkpt lat="53.70207" lon="10.97058">
        <ele>105.071812</ele>
        <time>2024-07-20T08:30:27.244Z</time>
      </trkpt>
      <trkpt lat="53.70204" lon="10.97075">
        <ele>105.082997</ele>
        <time>2024-07-20T08:30:30.243Z</time>
      </trkpt>
      <trkpt lat="53.70201" lon="10.97092">
        <ele>105.094183</ele>
        <time>2024-07-20T08:30:33.241Z</time>
      </trkpt>
      <trkpt lat="53.70197" lon="10.97109">
        <ele>105.105082</ele>
        <time>2024-07-20T08:30:36.247Z</time>
      </trkpt>
      <trkpt lat="53.70194" lon="10.97127">
        <ele>105.116238</ele>
        <time>2024-07-20T08:30:39.238Z</time>
      </trkpt>
      <trkpt lat="53.70191" lon="10.97144">
        <ele>105.127495</ele>
        <time>2024-07-20T08:30:42.237Z</time>
      </trkpt>
      <trkpt lat="53.70188" lon="10.97163">
        <ele>105.139396</ele>
        <time>2024-07-20T08:30:45.240Z</time>
      </trkpt>
      <trkpt lat="53.70185" lon="10.97182">
        <ele>105.151732</ele>
        <time>2024-07-20T08:30:48.225Z</time>
      </trkpt>
      <trkpt lat="53.7018" lon="10.97203">
        <ele>105.164955</ele>
        <time>2024-07-20T08:30:51.227Z</time>
      </trkpt>
      <trkpt lat="53.70177" lon="10.97218">
        <ele>105.166564</ele>
        <time>2024-07-20T08:30:53.234Z</time>
      </trkpt>
      <trkpt lat="53.70174" lon="10.97233">
        <ele>105.168178</ele>
        <time>2024-07-20T08:30:55.240Z</time>
      </trkpt>
      <trkpt lat="53.70172" lon="10.97248">
        <ele>105.169853</ele>
        <time>2024-07-20T08:30:57.252Z</time>
      </trkpt>
      <trkpt lat="53.70169" lon="10.97264">
        <ele>105.171537</ele>
        <time>2024-07-20T08:30:59.234Z</time>
      </trkpt>
      <trkpt lat="53.70166" lon="10.9728">
        <ele>105.17328</ele>
        <time>2024-07-20T08:31:01.245Z</time>
      </trkpt>
      <trkpt lat="53.70164" lon="10.97296">
        <ele>105.174979</ele>
        <time>2024-07-20T08:31:03.260Z</time>
      </trkpt>
      <trkpt lat="53.7016" lon="10.97311">
        <ele>105.176632</ele>
        <time>2024-07-20T08:31:05.258Z</time>
      </trkpt>
      <trkpt lat="53.70154" lon="10.9733">
        <ele>105.178875</ele>
        <time>2024-07-20T08:31:08.237Z</time>
      </trkpt>
      <trkpt lat="53.70147" lon="10.97348">
        <ele>105.181049</ele>
        <time>2024-07-20T08:31:11.229Z</time>
      </trkpt>
      <trkpt lat="53.70143" lon="10.97367">
        <ele>105.18316</ele>
        <time>2024-07-20T08:31:14.238Z</time>
      </trkpt>
      <trkpt lat="53.7014" lon="10.97386">
        <ele>105.185255</ele>
        <time>2024-07-20T08:31:17.237Z</time>
      </trkpt>
      <trkpt lat="53.70136" lon="10.97405">
        <ele>105.187327</ele>
        <time>2024-07-20T08:31:20.243Z</time>
      </trkpt>
      <trkpt lat="53.70132" lon="10.97424">
        <ele>105.189418</ele>
        <time>2024-07-20T08:31:23.246Z</time>
      </trkpt>
      <trkpt lat="53.70127" lon="10.97444">
        <ele>105.191603</ele>
        <time>2024-07-20T08:31:26.233Z</time>
      </trkpt>
      <trkpt lat="53.70124" lon="10.97464">
        <ele>105.193743</ele>
        <time>2024-07-20T08:31:29.217Z</time>
      </trkpt>
      <trkpt lat="53.70125" lon="10.97483">
        <ele>105.195771</ele>
        <time>2024-07-20T08:31:32.228Z</time>
      </trkpt>
      <trkpt lat="53.70124" lon="10.97503">
        <ele>105.244575</ele>
        <time>2024-07-20T08:31:35.247Z</time>
      </trkpt>
      <trkpt lat="53.7012" lon="10.97524">
        <ele>105.31192</ele>
        <time>2024-07-20T08:31:38.236Z</time>
      </trkpt>
      <trkpt lat="53.70116" lon="10.97545">
        <ele>105.381578</ele>
        <time>2024-07-20T08:31:41.225Z</time>
      </trkpt>
      <trkpt lat="53.70113" lon="10.9756">
        <ele>105.431305</ele>
        <time>2024-07-20T08:31:43.237Z</time>
      </trkpt>
      <trkpt lat="53.70109" lon="10.97576">
        <ele>105.48248</ele>
        <time>2024-07-20T08:31:45.245Z</time>
      </trkpt>
      <trkpt lat="53.70105" lon="10.9759">
        <ele>105.534529</ele>
        <time>2024-07-20T08:31:47.245Z</time>
      </trkpt>
      <trkpt lat="53.70101" lon="10.97611">
        <ele>105.601664</ele>
        <time>2024-07-20T08:31:50.232Z</time>
      </trkpt>
      <trkpt lat="53.70098" lon="10.97626">
        <ele>105.651387</ele>
        <time>2024-07-20T08:31:53.260Z</time>
      </trkpt>
      <trkpt lat="53.70096" lon="10.97641">
        <ele>105.699761</ele>
        <time>2024-07-20T08:31:56.259Z</time>
      </trkpt>
      <trkpt lat="53.70095" lon="10.97661">
        <ele>105.762457</ele>
        <time>2024-07-20T08:32:00.236Z</time>
      </trkpt>
      <trkpt lat="53.70095" lon="10.97681">
        <ele>105.822244</ele>
        <time>2024-07-20T08:32:04.241Z</time>
      </trkpt>
      <trkpt lat="53.70091" lon="10.97694">
        <ele>105.872089</ele>
        <time>2024-07-20T08:32:07.237Z</time>
      </trkpt>
      <trkpt lat="53.70085" lon="10.97711">
        <ele>105.931314</ele>
        <time>2024-07-20T08:32:10.238Z</time>
      </trkpt>
      <trkpt lat="53.7008" lon="10.9773">
        <ele>105.996009</ele>
        <time>2024-07-20T08:32:13.223Z</time>
      </trkpt>
      <trkpt lat="53.70076" lon="10.9775">
        <ele>106.063682</ele>
        <time>2024-07-20T08:32:16.233Z</time>
      </trkpt>
      <trkpt lat="53.70072" lon="10.97772">
        <ele>106.133858</ele>
        <time>2024-07-20T08:32:19.233Z</time>
      </trkpt>
      <trkpt lat="53.70067" lon="10.97792">
        <ele>106.226458</ele>
        <time>2024-07-20T08:32:22.235Z</time>
      </trkpt>
      <trkpt lat="53.70064" lon="10.97812">
        <ele>106.320063</ele>
        <time>2024-07-20T08:32:25.237Z</time>
      </trkpt>
      <trkpt lat="53.7006" lon="10.9783">
        <ele>106.401605</ele>
        <time>2024-07-20T08:32:28.233Z</time>
      </trkpt>
      <trkpt lat="53.70057" lon="10.97846">
        <ele>106.479796</ele>
        <time>2024-07-20T08:32:31.227Z</time>
      </trkpt>
      <trkpt lat="53.70054" lon="10.97862">
        <ele>106.553828</ele>
        <time>2024-07-20T08:32:34.231Z</time>
      </trkpt>
      <trkpt lat="53.7005" lon="10.97878">
        <ele>106.629779</ele>
        <time>2024-07-20T08:32:37.223Z</time>
      </trkpt>
      <trkpt lat="53.70048" lon="10.97895">
        <ele>106.706594</ele>
        <time>2024-07-20T08:32:40.226Z</time>
      </trkpt>
      <trkpt lat="53.70045" lon="10.97912">
        <ele>106.784481</ele>
        <time>2024-07-20T08:32:43.246Z</time>
      </trkpt>
      <trkpt lat="53.70042" lon="10.97927">
        <ele>106.854095</ele>
        <time>2024-07-20T08:32:46.236Z</time>
      </trkpt>
      <trkpt lat="53.70039" lon="10.97943">
        <ele>106.93078</ele>
        <time>2024-07-20T08:32:49.235Z</time>
      </trkpt>
      <trkpt lat="53.70036" lon="10.97962">
        <ele>107.01465</ele>
        <time>2024-07-20T08:32:52.215Z</time>
      </trkpt>
      <trkpt lat="53.70034" lon="10.9798">
        <ele>107.098964</ele>
        <time>2024-07-20T08:32:55.232Z</time>
      </trkpt>
      <trkpt lat="53.7003" lon="10.97999">
        <ele>107.188331</ele>
        <time>2024-07-20T08:32:58.236Z</time>
      </trkpt>
      <trkpt lat="53.70026" lon="10.98017">
        <ele>107.272041</ele>
        <time>2024-07-20T08:33:01.239Z</time>
      </trkpt>
      <trkpt lat="53.70023" lon="10.98036">
        <ele>107.357351</ele>
        <time>2024-07-20T08:33:04.242Z</time>
      </trkpt>
      <trkpt lat="53.70021" lon="10.98051">
        <ele>107.426497</ele>
        <time>2024-07-20T08:33:06.240Z</time>
      </trkpt>
      <trkpt lat="53.70017" lon="10.98071">
        <ele>107.522812</ele>
        <time>2024-07-20T08:33:09.227Z</time>
      </trkpt>
      <trkpt lat="53.70014" lon="10.98092">
        <ele>107.625279</ele>
        <time>2024-07-20T08:33:12.238Z</time>
      </trkpt>
      <trkpt lat="53.7001" lon="10.98107">
        <ele>107.701081</ele>
        <time>2024-07-20T08:33:14.236Z</time>
      </trkpt>
      <trkpt lat="53.70008" lon="10.98124">
        <ele>107.78005</ele>
        <time>2024-07-20T08:33:16.241Z</time>
      </trkpt>
      <trkpt lat="53.70005" lon="10.9814">
        <ele>107.856707</ele>
        <time>2024-07-20T08:33:18.231Z</time>
      </trkpt>
      <trkpt lat="53.70002" lon="10.98156">
        <ele>107.934925</ele>
        <time>2024-07-20T08:33:20.251Z</time>
      </trkpt>
      <trkpt lat="53.7" lon="10.98171">
        <ele>108.008891</ele>
        <time>2024-07-20T08:33:22.243Z</time>
      </trkpt>
      <trkpt lat="53.69997" lon="10.98186">
        <ele>108.086255</ele>
        <time>2024-07-20T08:33:24.241Z</time>
      </trkpt>
      <trkpt lat="53.69994" lon="10.98202">
        <ele>108.160437</ele>
        <time>2024-07-20T08:33:26.240Z</time>
      </trkpt>
      <trkpt lat="53.6999" lon="10.98222">
        <ele>108.260516</ele>
        <time>2024-07-20T08:33:29.249Z</time>
      </trkpt>
      <trkpt lat="53.69985" lon="10.98241">
        <ele>108.355911</ele>
        <time>2024-07-20T08:33:32.233Z</time>
      </trkpt>
      <trkpt lat="53.69981" lon="10.98255">
        <ele>108.432137</ele>
        <time>2024-07-20T08:33:34.231Z</time>
      </trkpt>
      <trkpt lat="53.69977" lon="10.98271">
        <ele>108.510015</ele>
        <time>2024-07-20T08:33:36.238Z</time>
      </trkpt>
      <trkpt lat="53.69975" lon="10.98286">
        <ele>108.58109</ele>
        <time>2024-07-20T08:33:38.228Z</time>
      </trkpt>
      <trkpt lat="53.69972" lon="10.98307">
        <ele>108.684421</ele>
        <time>2024-07-20T08:33:41.226Z</time>
      </trkpt>
      <trkpt lat="53.69968" lon="10.98327">
        <ele>108.779894</ele>
        <time>2024-07-20T08:33:44.236Z</time>
      </trkpt>
      <trkpt lat="53.69964" lon="10.98343">
        <ele>108.864399</ele>
        <time>2024-07-20T08:33:47.238Z</time>
      </trkpt>
      <trkpt lat="53.6996" lon="10.98358">
        <ele>108.936293</ele>
        <time>2024-07-20T08:33:50.228Z</time>
      </trkpt>
      <trkpt lat="53.69956" lon="10.98372">
        <ele>108.998986</ele>
        <time>2024-07-20T08:33:53.244Z</time>
      </trkpt>
      <trkpt lat="53.69954" lon="10.98387">
        <ele>109.06109</ele>
        <time>2024-07-20T08:33:56.231Z</time>
      </trkpt>
      <trkpt lat="53.69949" lon="10.98406">
        <ele>109.143781</ele>
        <time>2024-07-20T08:34:00.233Z</time>
      </trkpt>
      <trkpt lat="53.69947" lon="10.98421">
        <ele>109.208223</ele>
        <time>2024-07-20T08:34:03.240Z</time>
      </trkpt>
      <trkpt lat="53.69944" lon="10.98437">
        <ele>109.274383</ele>
        <time>2024-07-20T08:34:06.237Z</time>
      </trkpt>
      <trkpt lat="53.69942" lon="10.98454">
        <ele>109.344392</ele>
        <time>2024-07-20T08:34:09.230Z</time>
      </trkpt>
      <trkpt lat="53.6994" lon="10.9847">
        <ele>109.41094</ele>
        <time>2024-07-20T08:34:12.239Z</time>
      </trkpt>
      <trkpt lat="53.69937" lon="10.98486">
        <ele>109.479078</ele>
        <time>2024-07-20T08:34:15.227Z</time>
      </trkpt>
      <trkpt lat="53.69936" lon="10.98502">
        <ele>109.543034</ele>
        <time>2024-07-20T08:34:18.226Z</time>
      </trkpt>
      <trkpt lat="53.69933" lon="10.98517">
        <ele>109.609</ele>
        <time>2024-07-20T08:34:21.209Z</time>
      </trkpt>
      <trkpt lat="53.69931" lon="10.98532">
        <ele>109.672163</ele>
        <time>2024-07-20T08:34:24.228Z</time>
      </trkpt>
      <trkpt lat="53.69927" lon="10.98547">
        <ele>109.736684</ele>
        <time>2024-07-20T08:34:27.231Z</time>
      </trkpt>
      <trkpt lat="53.69924" lon="10.98563">
        <ele>109.802731</ele>
        <time>2024-07-20T08:34:30.237Z</time>
      </trkpt>
      <trkpt lat="53.69921" lon="10.98582">
        <ele>109.881891</ele>
        <time>2024-07-20T08:34:33.239Z</time>
      </trkpt>
      <trkpt lat="53.69918" lon="10.98597">
        <ele>109.948403</ele>
        <time>2024-07-20T08:34:35.237Z</time>
      </trkpt>
      <trkpt lat="53.69915" lon="10.98613">
        <ele>110.016706</ele>
        <time>2024-07-20T08:34:37.265Z</time>
      </trkpt>
      <trkpt lat="53.69912" lon="10.98629">
        <ele>110.084421</ele>
        <time>2024-07-20T08:34:39.239Z</time>
      </trkpt>
      <trkpt lat="53.69909" lon="10.98646">
        <ele>110.245224</ele>
        <time>2024-07-20T08:34:41.253Z</time>
      </trkpt>
      <trkpt lat="53.69907" lon="10.98661">
        <ele>110.742424</ele>
        <time>2024-07-20T08:34:43.249Z</time>
      </trkpt>
      <trkpt lat="53.69904" lon="10.98676">
        <ele>111.2245</ele>
        <time>2024-07-20T08:34:45.248Z</time>
      </trkpt>
      <trkpt lat="53.699" lon="10.98697">
        <ele>111.915934</ele>
        <time>2024-07-20T08:34:48.241Z</time>
      </trkpt>
      <trkpt lat="53.69897" lon="10.98718">
        <ele>112.596697</ele>
        <time>2024-07-20T08:34:51.236Z</time>
      </trkpt>
      <trkpt lat="53.69893" lon="10.98734">
        <ele>113.141676</ele>
        <time>2024-07-20T08:34:54.231Z</time>
      </trkpt>
      <trkpt lat="53.6989" lon="10.98749">
        <ele>113.622572</ele>
        <time>2024-07-20T08:34:57.242Z</time>
      </trkpt>
      <trkpt lat="53.69887" lon="10.98765">
        <ele>114.140159</ele>
        <time>2024-07-20T08:35:00.230Z</time>
      </trkpt>
      <trkpt lat="53.69886" lon="10.98781">
        <ele>114.639315</ele>
        <time>2024-07-20T08:35:03.231Z</time>
      </trkpt>
      <trkpt lat="53.69886" lon="10.98798">
        <ele>115.193475</ele>
        <time>2024-07-20T08:35:07.235Z</time>
      </trkpt>
      <trkpt lat="53.69888" lon="10.98815">
        <ele>115.717623</ele>
        <time>2024-07-20T08:35:11.251Z</time>
      </trkpt>
      <trkpt lat="53.69888" lon="10.98832">
        <ele>116.236402</ele>
        <time>2024-07-20T08:35:15.256Z</time>
      </trkpt>
      <trkpt lat="53.69883" lon="10.98848">
        <ele>116.814602</ele>
        <time>2024-07-20T08:35:20.248Z</time>
      </trkpt>
      <trkpt lat="53.69877" lon="10.98862">
        <ele>117.36315</ele>
        <time>2024-07-20T08:35:25.264Z</time>
      </trkpt>
      <trkpt lat="53.69872" lon="10.98875">
        <ele>117.843879</ele>
        <time>2024-07-20T08:35:31.228Z</time>
      </trkpt>
      <trkpt lat="53.69868" lon="10.9889">
        <ele>118.358565</ele>
        <time>2024-07-20T08:35:41.223Z</time>
      </trkpt>
      <trkpt lat="53.69865" lon="10.98906">
        <ele>118.898558</ele>
        <time>2024-07-20T08:35:51.231Z</time>
      </trkpt>
      <trkpt lat="53.69861" lon="10.98922">
        <ele>119.418251</ele>
        <time>2024-07-20T08:35:59.239Z</time>
      </trkpt>
      <trkpt lat="53.6986" lon="10.98938">
        <ele>119.785404</ele>
        <time>2024-07-20T08:36:08.231Z</time>
      </trkpt>
      <trkpt lat="53.69858" lon="10.98953">
        <ele>120.071972</ele>
        <time>2024-07-20T08:36:15.225Z</time>
      </trkpt>
      <trkpt lat="53.69855" lon="10.98968">
        <ele>120.342462</ele>
        <time>2024-07-20T08:36:22.244Z</time>
      </trkpt>
      <trkpt lat="53.69851" lon="10.98982">
        <ele>120.614782</ele>
        <time>2024-07-20T08:36:29.233Z</time>
      </trkpt>
      <trkpt lat="53.69849" lon="10.98992">
        <ele>120.81239</ele>
        <time>2024-07-20T08:37:17.068Z</time>
      </trkpt>
      <trkpt lat="53.69843" lon="10.99016">
        <ele>121.27708</ele>
        <time>2024-07-20T08:41:05.261Z</time>
      </trkpt>
      <trkpt lat="53.69837" lon="10.99032">
        <ele>121.607237</ele>
        <time>2024-07-20T08:41:09.222Z</time>
      </trkpt>
      <trkpt lat="53.69833" lon="10.99049">
        <ele>121.936579</ele>
        <time>2024-07-20T08:41:12.245Z</time>
      </trkpt>
      <trkpt lat="53.69829" lon="10.99066">
        <ele>122.265722</ele>
        <time>2024-07-20T08:41:15.235Z</time>
      </trkpt>
      <trkpt lat="53.69825" lon="10.99088">
        <ele>122.660233</ele>
        <time>2024-07-20T08:41:18.235Z</time>
      </trkpt>
      <trkpt lat="53.69822" lon="10.99105">
        <ele>122.974475</ele>
        <time>2024-07-20T08:41:20.245Z</time>
      </trkpt>
      <trkpt lat="53.69819" lon="10.99126">
        <ele>123.366216</ele>
        <time>2024-07-20T08:41:23.242Z</time>
      </trkpt>
      <trkpt lat="53.69815" lon="10.9914">
        <ele>123.640485</ele>
        <time>2024-07-20T08:41:25.249Z</time>
      </trkpt>
      <trkpt lat="53.69812" lon="10.99155">
        <ele>123.915851</ele>
        <time>2024-07-20T08:41:27.244Z</time>
      </trkpt>
      <trkpt lat="53.69808" lon="10.99169">
        <ele>124.188595</ele>
        <time>2024-07-20T08:41:29.233Z</time>
      </trkpt>
      <trkpt lat="53.69804" lon="10.99184">
        <ele>124.49523</ele>
        <time>2024-07-20T08:41:31.290Z</time>
      </trkpt>
      <trkpt lat="53.69799" lon="10.99203">
        <ele>124.860365</ele>
        <time>2024-07-20T08:41:33.246Z</time>
      </trkpt>
      <trkpt lat="53.69795" lon="10.99224">
        <ele>125.056801</ele>
        <time>2024-07-20T08:41:35.233Z</time>
      </trkpt>
      <trkpt lat="53.69791" lon="10.99246">
        <ele>125.126838</ele>
        <time>2024-07-20T08:41:37.213Z</time>
      </trkpt>
      <trkpt lat="53.69787" lon="10.99266">
        <ele>125.19339</ele>
        <time>2024-07-20T08:41:39.221Z</time>
      </trkpt>
      <trkpt lat="53.69784" lon="10.99286">
        <ele>125.259488</ele>
        <time>2024-07-20T08:41:41.269Z</time>
      </trkpt>
      <trkpt lat="53.69779" lon="10.99303">
        <ele>125.319061</ele>
        <time>2024-07-20T08:41:43.235Z</time>
      </trkpt>
      <trkpt lat="53.69777" lon="10.99321">
        <ele>125.374936</ele>
        <time>2024-07-20T08:41:45.253Z</time>
      </trkpt>
      <trkpt lat="53.69773" lon="10.99335">
        <ele>125.424386</ele>
        <time>2024-07-20T08:41:47.242Z</time>
      </trkpt>
      <trkpt lat="53.6977" lon="10.99349">
        <ele>125.472503</ele>
        <time>2024-07-20T08:41:49.250Z</time>
      </trkpt>
      <trkpt lat="53.69767" lon="10.99364">
        <ele>125.520961</ele>
        <time>2024-07-20T08:41:51.287Z</time>
      </trkpt>
      <trkpt lat="53.69765" lon="10.9938">
        <ele>125.572557</ele>
        <time>2024-07-20T08:41:53.240Z</time>
      </trkpt>
      <trkpt lat="53.69763" lon="10.99397">
        <ele>125.627962</ele>
        <time>2024-07-20T08:41:55.245Z</time>
      </trkpt>
      <trkpt lat="53.69761" lon="10.99415">
        <ele>125.686051</ele>
        <time>2024-07-20T08:41:57.231Z</time>
      </trkpt>
      <trkpt lat="53.69758" lon="10.99434">
        <ele>125.747389</ele>
        <time>2024-07-20T08:41:59.243Z</time>
      </trkpt>
      <trkpt lat="53.69754" lon="10.99453">
        <ele>125.811373</ele>
        <time>2024-07-20T08:42:01.212Z</time>
      </trkpt>
      <trkpt lat="53.6975" lon="10.99472">
        <ele>125.876115</ele>
        <time>2024-07-20T08:42:03.230Z</time>
      </trkpt>
      <trkpt lat="53.69746" lon="10.99492">
        <ele>125.940329</ele>
        <time>2024-07-20T08:42:05.233Z</time>
      </trkpt>
      <trkpt lat="53.69743" lon="10.99511">
        <ele>125.966875</ele>
        <time>2024-07-20T08:42:07.229Z</time>
      </trkpt>
      <trkpt lat="53.69739" lon="10.99529">
        <ele>125.958265</ele>
        <time>2024-07-20T08:42:09.232Z</time>
      </trkpt>
      <trkpt lat="53.69736" lon="10.99546">
        <ele>125.950204</ele>
        <time>2024-07-20T08:42:11.276Z</time>
      </trkpt>
      <trkpt lat="53.69732" lon="10.99566">
        <ele>125.940794</ele>
        <time>2024-07-20T08:42:14.253Z</time>
      </trkpt>
      <trkpt lat="53.69729" lon="10.99585">
        <ele>125.932004</ele>
        <time>2024-07-20T08:42:17.233Z</time>
      </trkpt>
      <trkpt lat="53.69727" lon="10.99603">
        <ele>125.923531</ele>
        <time>2024-07-20T08:42:20.235Z</time>
      </trkpt>
      <trkpt lat="53.69724" lon="10.99621">
        <ele>125.915558</ele>
        <time>2024-07-20T08:42:23.228Z</time>
      </trkpt>
      <trkpt lat="53.69722" lon="10.99637">
        <ele>125.90791</ele>
        <time>2024-07-20T08:42:26.234Z</time>
      </trkpt>
      <trkpt lat="53.69719" lon="10.99652">
        <ele>125.900615</ele>
        <time>2024-07-20T08:42:29.224Z</time>
      </trkpt>
      <trkpt lat="53.69715" lon="10.99671">
        <ele>125.891559</ele>
        <time>2024-07-20T08:42:33.217Z</time>
      </trkpt>
      <trkpt lat="53.69711" lon="10.9969">
        <ele>125.882883</ele>
        <time>2024-07-20T08:42:37.233Z</time>
      </trkpt>
      <trkpt lat="53.69708" lon="10.99705">
        <ele>125.875354</ele>
        <time>2024-07-20T08:42:40.237Z</time>
      </trkpt>
      <trkpt lat="53.69705" lon="10.99722">
        <ele>125.867589</ele>
        <time>2024-07-20T08:42:43.231Z</time>
      </trkpt>
      <trkpt lat="53.69699" lon="10.9974">
        <ele>125.85839</ele>
        <time>2024-07-20T08:42:46.226Z</time>
      </trkpt>
      <trkpt lat="53.69696" lon="10.99756">
        <ele>125.850923</ele>
        <time>2024-07-20T08:42:48.247Z</time>
      </trkpt>
      <trkpt lat="53.69693" lon="10.99772">
        <ele>125.843126</ele>
        <time>2024-07-20T08:42:50.245Z</time>
      </trkpt>
      <trkpt lat="53.69689" lon="10.99789">
        <ele>125.83487</ele>
        <time>2024-07-20T08:42:52.237Z</time>
      </trkpt>
      <trkpt lat="53.69686" lon="10.99808">
        <ele>125.355791</ele>
        <time>2024-07-20T08:42:54.241Z</time>
      </trkpt>
      <trkpt lat="53.69683" lon="10.99827">
        <ele>124.861329</ele>
        <time>2024-07-20T08:42:56.229Z</time>
      </trkpt>
      <trkpt lat="53.69678" lon="10.99847">
        <ele>124.320036</ele>
        <time>2024-07-20T08:42:58.235Z</time>
      </trkpt>
      <trkpt lat="53.69674" lon="10.99868">
        <ele>123.759718</ele>
        <time>2024-07-20T08:43:00.247Z</time>
      </trkpt>
      <trkpt lat="53.6967" lon="10.99891">
        <ele>123.138209</ele>
        <time>2024-07-20T08:43:02.232Z</time>
      </trkpt>
      <trkpt lat="53.69665" lon="10.99917">
        <ele>122.45152</ele>
        <time>2024-07-20T08:43:04.238Z</time>
      </trkpt>
      <trkpt lat="53.6966" lon="10.99947">
        <ele>121.68377</ele>
        <time>2024-07-20T08:43:06.239Z</time>
      </trkpt>
      <trkpt lat="53.69657" lon="10.99962">
        <ele>121.279949</ele>
        <time>2024-07-20T08:43:07.240Z</time>
      </trkpt>
      <trkpt lat="53.69655" lon="10.99978">
        <ele>120.863739</ele>
        <time>2024-07-20T08:43:08.242Z</time>
      </trkpt>
      <trkpt lat="53.69652" lon="10.99993">
        <ele>120.462177</ele>
        <time>2024-07-20T08:43:09.238Z</time>
      </trkpt>
      <trkpt lat="53.6965" lon="11.00008">
        <ele>120.065576</ele>
        <time>2024-07-20T08:43:10.230Z</time>
      </trkpt>
      <trkpt lat="53.69647" lon="11.00024">
        <ele>119.664162</ele>
        <time>2024-07-20T08:43:11.255Z</time>
      </trkpt>
      <trkpt lat="53.69644" lon="11.00038">
        <ele>119.272076</ele>
        <time>2024-07-20T08:43:12.241Z</time>
      </trkpt>
      <trkpt lat="53.69641" lon="11.00054">
        <ele>118.864655</ele>
        <time>2024-07-20T08:43:13.232Z</time>
      </trkpt>
      <trkpt lat="53.69639" lon="11.00069">
        <ele>118.476934</ele>
        <time>2024-07-20T08:43:14.243Z</time>
      </trkpt>
      <trkpt lat="53.69637" lon="11.00084">
        <ele>118.127955</ele>
        <time>2024-07-20T08:43:15.236Z</time>
      </trkpt>
      <trkpt lat="53.69636" lon="11.001">
        <ele>117.928752</ele>
        <time>2024-07-20T08:43:16.242Z</time>
      </trkpt>
      <trkpt lat="53.69633" lon="11.00115">
        <ele>117.72896</ele>
        <time>2024-07-20T08:43:17.232Z</time>
      </trkpt>
      <trkpt lat="53.69631" lon="11.00131">
        <ele>117.522171</ele>
        <time>2024-07-20T08:43:18.229Z</time>
      </trkpt>
      <trkpt lat="53.69628" lon="11.00146">
        <ele>117.316512</ele>
        <time>2024-07-20T08:43:19.234Z</time>
      </trkpt>
      <trkpt lat="53.69625" lon="11.00162">
        <ele>117.105483</ele>
        <time>2024-07-20T08:43:20.243Z</time>
      </trkpt>
      <trkpt lat="53.69621" lon="11.00178">
        <ele>116.895836</ele>
        <time>2024-07-20T08:43:21.251Z</time>
      </trkpt>
      <trkpt lat="53.69618" lon="11.00194">
        <ele>116.686914</ele>
        <time>2024-07-20T08:43:22.246Z</time>
      </trkpt>
      <trkpt lat="53.69615" lon="11.00209">
        <ele>116.480813</ele>
        <time>2024-07-20T08:43:23.229Z</time>
      </trkpt>
      <trkpt lat="53.69611" lon="11.00224">
        <ele>116.272598</ele>
        <time>2024-07-20T08:43:24.233Z</time>
      </trkpt>
      <trkpt lat="53.69608" lon="11.00239">
        <ele>116.068473</ele>
        <time>2024-07-20T08:43:25.240Z</time>
      </trkpt>
      <trkpt lat="53.69604" lon="11.00254">
        <ele>115.865585</ele>
        <time>2024-07-20T08:43:26.230Z</time>
      </trkpt>
      <trkpt lat="53.69597" lon="11.0028">
        <ele>115.505961</ele>
        <time>2024-07-20T08:43:28.234Z</time>
      </trkpt>
      <trkpt lat="53.69592" lon="11.00301">
        <ele>115.215207</ele>
        <time>2024-07-20T08:43:30.251Z</time>
      </trkpt>
      <trkpt lat="53.69587" lon="11.0032">
        <ele>114.96061</ele>
        <time>2024-07-20T08:43:32.224Z</time>
      </trkpt>
      <trkpt lat="53.69583" lon="11.00339">
        <ele>114.705804</ele>
        <time>2024-07-20T08:43:34.242Z</time>
      </trkpt>
      <trkpt lat="53.6958" lon="11.00359">
        <ele>114.448095</ele>
        <time>2024-07-20T08:43:36.249Z</time>
      </trkpt>
      <trkpt lat="53.69575" lon="11.00378">
        <ele>114.366666</ele>
        <time>2024-07-20T08:43:38.235Z</time>
      </trkpt>
      <trkpt lat="53.69572" lon="11.00396">
        <ele>114.40594</ele>
        <time>2024-07-20T08:43:40.224Z</time>
      </trkpt>
      <trkpt lat="53.69569" lon="11.00415">
        <ele>114.444888</ele>
        <time>2024-07-20T08:43:42.227Z</time>
      </trkpt>
      <trkpt lat="53.69565" lon="11.00432">
        <ele>114.480198</ele>
        <time>2024-07-20T08:43:44.226Z</time>
      </trkpt>
      <trkpt lat="53.69561" lon="11.00449">
        <ele>114.518265</ele>
        <time>2024-07-20T08:43:46.239Z</time>
      </trkpt>
      <trkpt lat="53.69558" lon="11.00466">
        <ele>114.553941</ele>
        <time>2024-07-20T08:43:48.236Z</time>
      </trkpt>
      <trkpt lat="53.69555" lon="11.00483">
        <ele>114.589336</ele>
        <time>2024-07-20T08:43:50.231Z</time>
      </trkpt>
      <trkpt lat="53.69552" lon="11.005">
        <ele>114.625218</ele>
        <time>2024-07-20T08:43:52.253Z</time>
      </trkpt>
      <trkpt lat="53.69549" lon="11.00518">
        <ele>114.661951</ele>
        <time>2024-07-20T08:43:54.237Z</time>
      </trkpt>
      <trkpt lat="53.69546" lon="11.00534">
        <ele>114.696966</ele>
        <time>2024-07-20T08:43:56.245Z</time>
      </trkpt>
      <trkpt lat="53.69542" lon="11.00551">
        <ele>114.732486</ele>
        <time>2024-07-20T08:43:58.240Z</time>
      </trkpt>
      <trkpt lat="53.69539" lon="11.00567">
        <ele>114.766719</ele>
        <time>2024-07-20T08:44:00.234Z</time>
      </trkpt>
      <trkpt lat="53.69536" lon="11.00583">
        <ele>114.799998</ele>
        <time>2024-07-20T08:44:02.239Z</time>
      </trkpt>
      <trkpt lat="53.69533" lon="11.00599">
        <ele>114.833752</ele>
        <time>2024-07-20T08:44:04.241Z</time>
      </trkpt>
      <trkpt lat="53.6953" lon="11.00616">
        <ele>114.868683</ele>
        <time>2024-07-20T08:44:06.238Z</time>
      </trkpt>
      <trkpt lat="53.69527" lon="11.00633">
        <ele>114.905034</ele>
        <time>2024-07-20T08:44:08.246Z</time>
      </trkpt>
      <trkpt lat="53.69524" lon="11.0065">
        <ele>114.941287</ele>
        <time>2024-07-20T08:44:10.239Z</time>
      </trkpt>
      <trkpt lat="53.6952" lon="11.00666">
        <ele>114.705901</ele>
        <time>2024-07-20T08:44:12.240Z</time>
      </trkpt>
      <trkpt lat="53.69517" lon="11.00683">
        <ele>114.34154</ele>
        <time>2024-07-20T08:44:14.232Z</time>
      </trkpt>
      <trkpt lat="53.69514" lon="11.00699">
        <ele>113.965949</ele>
        <time>2024-07-20T08:44:16.230Z</time>
      </trkpt>
      <trkpt lat="53.69512" lon="11.00715">
        <ele>113.619016</ele>
        <time>2024-07-20T08:44:18.241Z</time>
      </trkpt>
      <trkpt lat="53.69509" lon="11.0073">
        <ele>113.279092</ele>
        <time>2024-07-20T08:44:20.249Z</time>
      </trkpt>
      <trkpt lat="53.69506" lon="11.00746">
        <ele>112.92803</ele>
        <time>2024-07-20T08:44:22.244Z</time>
      </trkpt>
      <trkpt lat="53.69504" lon="11.00761">
        <ele>112.587239</ele>
        <time>2024-07-20T08:44:24.245Z</time>
      </trkpt>
      <trkpt lat="53.69501" lon="11.00777">
        <ele>112.238214</ele>
        <time>2024-07-20T08:44:26.231Z</time>
      </trkpt>
      <trkpt lat="53.69498" lon="11.00794">
        <ele>111.856467</ele>
        <time>2024-07-20T08:44:28.240Z</time>
      </trkpt>
      <trkpt lat="53.69494" lon="11.00813">
        <ele>111.432227</ele>
        <time>2024-07-20T08:44:30.252Z</time>
      </trkpt>
      <trkpt lat="53.69489" lon="11.00834">
        <ele>110.957511</ele>
        <time>2024-07-20T08:44:32.243Z</time>
      </trkpt>
      <trkpt lat="53.69485" lon="11.00856">
        <ele>110.466255</ele>
        <time>2024-07-20T08:44:34.260Z</time>
      </trkpt>
      <trkpt lat="53.6948" lon="11.0088">
        <ele>109.921474</ele>
        <time>2024-07-20T08:44:36.229Z</time>
      </trkpt>
      <trkpt lat="53.69475" lon="11.00905">
        <ele>109.359531</ele>
        <time>2024-07-20T08:44:38.241Z</time>
      </trkpt>
      <trkpt lat="53.6947" lon="11.00932">
        <ele>108.749538</ele>
        <time>2024-07-20T08:44:40.215Z</time>
      </trkpt>
      <trkpt lat="53.69467" lon="11.00946">
        <ele>108.423583</ele>
        <time>2024-07-20T08:44:41.267Z</time>
      </trkpt>
      <trkpt lat="53.69462" lon="11.00974">
        <ele>107.799966</ele>
        <time>2024-07-20T08:44:43.226Z</time>
      </trkpt>
      <trkpt lat="53.69457" lon="11.01003">
        <ele>107.158919</ele>
        <time>2024-07-20T08:44:45.237Z</time>
      </trkpt>
      <trkpt lat="53.69454" lon="11.01018">
        <ele>106.827438</ele>
        <time>2024-07-20T08:44:46.232Z</time>
      </trkpt>
      <trkpt lat="53.69451" lon="11.01033">
        <ele>106.487828</ele>
        <time>2024-07-20T08:44:47.237Z</time>
      </trkpt>
      <trkpt lat="53.69448" lon="11.01047">
        <ele>106.156347</ele>
        <time>2024-07-20T08:44:48.236Z</time>
      </trkpt>
      <trkpt lat="53.69444" lon="11.01076">
        <ele>105.521363</ele>
        <time>2024-07-20T08:44:50.217Z</time>
      </trkpt>
      <trkpt lat="53.69439" lon="11.01104">
        <ele>104.892624</ele>
        <time>2024-07-20T08:44:52.241Z</time>
      </trkpt>
      <trkpt lat="53.69433" lon="11.01128">
        <ele>104.340038</ele>
        <time>2024-07-20T08:44:54.238Z</time>
      </trkpt>
      <trkpt lat="53.69429" lon="11.01149">
        <ele>103.863808</ele>
        <time>2024-07-20T08:44:56.231Z</time>
      </trkpt>
      <trkpt lat="53.69426" lon="11.0117">
        <ele>103.410254</ele>
        <time>2024-07-20T08:44:58.245Z</time>
      </trkpt>
      <trkpt lat="53.69423" lon="11.01187">
        <ele>103.034852</ele>
        <time>2024-07-20T08:45:00.246Z</time>
      </trkpt>
      <trkpt lat="53.69421" lon="11.01203">
        <ele>102.680866</ele>
        <time>2024-07-20T08:45:02.229Z</time>
      </trkpt>
      <trkpt lat="53.6942" lon="11.01219">
        <ele>102.345546</ele>
        <time>2024-07-20T08:45:04.238Z</time>
      </trkpt>
      <trkpt lat="53.6942" lon="11.01236">
        <ele>101.978841</ele>
        <time>2024-07-20T08:45:06.237Z</time>
      </trkpt>
      <trkpt lat="53.69419" lon="11.01252">
        <ele>101.80928</ele>
        <time>2024-07-20T08:45:08.239Z</time>
      </trkpt>
      <trkpt lat="53.6942" lon="11.01269">
        <ele>101.645117</ele>
        <time>2024-07-20T08:45:10.215Z</time>
      </trkpt>
      <trkpt lat="53.69418" lon="11.01285">
        <ele>101.487015</ele>
        <time>2024-07-20T08:45:12.244Z</time>
      </trkpt>
      <trkpt lat="53.69419" lon="11.01301">
        <ele>101.327307</ele>
        <time>2024-07-20T08:45:14.239Z</time>
      </trkpt>
      <trkpt lat="53.69421" lon="11.01319">
        <ele>101.15602</ele>
        <time>2024-07-20T08:45:16.262Z</time>
      </trkpt>
      <trkpt lat="53.69422" lon="11.01336">
        <ele>100.987506</ele>
        <time>2024-07-20T08:45:18.243Z</time>
      </trkpt>
      <trkpt lat="53.69423" lon="11.01353">
        <ele>100.818606</ele>
        <time>2024-07-20T08:45:20.242Z</time>
      </trkpt>
      <trkpt lat="53.69424" lon="11.01369">
        <ele>100.655653</ele>
        <time>2024-07-20T08:45:22.239Z</time>
      </trkpt>
      <trkpt lat="53.69425" lon="11.01385">
        <ele>100.497052</ele>
        <time>2024-07-20T08:45:24.244Z</time>
      </trkpt>
      <trkpt lat="53.69424" lon="11.01402">
        <ele>100.335109</ele>
        <time>2024-07-20T08:45:26.242Z</time>
      </trkpt>
      <trkpt lat="53.69424" lon="11.01417">
        <ele>100.185327</ele>
        <time>2024-07-20T08:45:28.243Z</time>
      </trkpt>
      <trkpt lat="53.69424" lon="11.01436">
        <ele>99.998228</ele>
        <time>2024-07-20T08:45:31.276Z</time>
      </trkpt>
      <trkpt lat="53.69419" lon="11.0145">
        <ele>99.834309</ele>
        <time>2024-07-20T08:45:35.244Z</time>
      </trkpt>
      <trkpt lat="53.69409" lon="11.01449">
        <ele>99.66862</ele>
        <time>2024-07-20T08:45:39.226Z</time>
      </trkpt>
      <trkpt lat="53.69399" lon="11.01449">
        <ele>99.506587</ele>
        <time>2024-07-20T08:45:44.245Z</time>
      </trkpt>
      <trkpt lat="53.69389" lon="11.01452">
        <ele>99.342413</ele>
        <time>2024-07-20T08:45:48.240Z</time>
      </trkpt>
      <trkpt lat="53.69382" lon="11.01464">
        <ele>99.183194</ele>
        <time>2024-07-20T08:45:54.249Z</time>
      </trkpt>
      <trkpt lat="53.69388" lon="11.01478">
        <ele>99.011615</ele>
        <time>2024-07-20T08:45:59.259Z</time>
      </trkpt>
      <trkpt lat="53.6939" lon="11.01483">
        <ele>98.964246</ele>
        <time>2024-07-20T08:46:08.780Z</time>
      </trkpt>
      <trkpt lat="53.69399" lon="11.01496">
        <ele>98.821184</ele>
        <time>2024-07-20T09:10:14.236Z</time>
      </trkpt>
      <trkpt lat="53.69404" lon="11.01509">
        <ele>98.69892</ele>
        <time>2024-07-20T09:10:20.243Z</time>
      </trkpt>
      <trkpt lat="53.69411" lon="11.0152">
        <ele>98.573918</ele>
        <time>2024-07-20T09:10:25.226Z</time>
      </trkpt>
      <trkpt lat="53.69412" lon="11.01537">
        <ele>98.448431</ele>
        <time>2024-07-20T09:10:29.221Z</time>
      </trkpt>
      <trkpt lat="53.69411" lon="11.01553">
        <ele>98.33261</ele>
        <time>2024-07-20T09:10:32.234Z</time>
      </trkpt>
      <trkpt lat="53.69412" lon="11.0157">
        <ele>98.197985</ele>
        <time>2024-07-20T09:10:35.234Z</time>
      </trkpt>
      <trkpt lat="53.69412" lon="11.01591">
        <ele>98.042558</ele>
        <time>2024-07-20T09:10:38.223Z</time>
      </trkpt>
      <trkpt lat="53.69411" lon="11.01612">
        <ele>97.883415</ele>
        <time>2024-07-20T09:10:41.240Z</time>
      </trkpt>
      <trkpt lat="53.69411" lon="11.01633">
        <ele>97.72955</ele>
        <time>2024-07-20T09:10:44.240Z</time>
      </trkpt>
      <trkpt lat="53.69414" lon="11.01655">
        <ele>97.562408</ele>
        <time>2024-07-20T09:10:47.221Z</time>
      </trkpt>
      <trkpt lat="53.69416" lon="11.01677">
        <ele>97.393052</ele>
        <time>2024-07-20T09:10:50.238Z</time>
      </trkpt>
      <trkpt lat="53.69418" lon="11.01692">
        <ele>97.279569</ele>
        <time>2024-07-20T09:10:52.240Z</time>
      </trkpt>
      <trkpt lat="53.69422" lon="11.01713">
        <ele>97.110102</ele>
        <time>2024-07-20T09:10:55.236Z</time>
      </trkpt>
      <trkpt lat="53.69424" lon="11.01729">
        <ele>96.992046</ele>
        <time>2024-07-20T09:10:57.234Z</time>
      </trkpt>
      <trkpt lat="53.69427" lon="11.01751">
        <ele>96.823868</ele>
        <time>2024-07-20T09:11:00.223Z</time>
      </trkpt>
      <trkpt lat="53.69429" lon="11.01772">
        <ele>96.67192</ele>
        <time>2024-07-20T09:11:03.239Z</time>
      </trkpt>
      <trkpt lat="53.69432" lon="11.01794">
        <ele>96.548391</ele>
        <time>2024-07-20T09:11:06.238Z</time>
      </trkpt>
      <trkpt lat="53.69434" lon="11.01814">
        <ele>96.432602</ele>
        <time>2024-07-20T09:11:09.237Z</time>
      </trkpt>
      <trkpt lat="53.69435" lon="11.01831">
        <ele>96.33947</ele>
        <time>2024-07-20T09:11:12.235Z</time>
      </trkpt>
      <trkpt lat="53.69436" lon="11.01847">
        <ele>96.245357</ele>
        <time>2024-07-20T09:11:24.241Z</time>
      </trkpt>
      <trkpt lat="53.6944" lon="11.01863">
        <ele>96.150323</ele>
        <time>2024-07-20T09:11:29.231Z</time>
      </trkpt>
      <trkpt lat="53.69444" lon="11.01878">
        <ele>96.057346</ele>
        <time>2024-07-20T09:11:32.242Z</time>
      </trkpt>
      <trkpt lat="53.69447" lon="11.01896">
        <ele>95.954917</ele>
        <time>2024-07-20T09:11:35.231Z</time>
      </trkpt>
      <trkpt lat="53.69447" lon="11.01915">
        <ele>95.846424</ele>
        <time>2024-07-20T09:11:38.222Z</time>
      </trkpt>
      <trkpt lat="53.69447" lon="11.01935">
        <ele>95.731667</ele>
        <time>2024-07-20T09:11:41.243Z</time>
      </trkpt>
      <trkpt lat="53.69448" lon="11.01956">
        <ele>95.616973</ele>
        <time>2024-07-20T09:11:44.242Z</time>
      </trkpt>
      <trkpt lat="53.69449" lon="11.01977">
        <ele>95.496242</ele>
        <time>2024-07-20T09:11:47.228Z</time>
      </trkpt>
      <trkpt lat="53.69449" lon="11.01999">
        <ele>95.375386</ele>
        <time>2024-07-20T09:11:50.220Z</time>
      </trkpt>
      <trkpt lat="53.69449" lon="11.0202">
        <ele>95.254541</ele>
        <time>2024-07-20T09:11:53.232Z</time>
      </trkpt>
      <trkpt lat="53.69448" lon="11.02041">
        <ele>95.136449</ele>
        <time>2024-07-20T09:11:56.232Z</time>
      </trkpt>
      <trkpt lat="53.69451" lon="11.02062">
        <ele>95.017107</ele>
        <time>2024-07-20T09:11:59.225Z</time>
      </trkpt>
      <trkpt lat="53.69456" lon="11.02081">
        <ele>95.090543</ele>
        <time>2024-07-20T09:12:02.218Z</time>
      </trkpt>
      <trkpt lat="53.69456" lon="11.02096">
        <ele>95.155837</ele>
        <time>2024-07-20T09:12:04.238Z</time>
      </trkpt>
      <trkpt lat="53.69456" lon="11.02112">
        <ele>95.224997</ele>
        <time>2024-07-20T09:12:06.243Z</time>
      </trkpt>
      <trkpt lat="53.69456" lon="11.02128">
        <ele>95.29247</ele>
        <time>2024-07-20T09:12:08.229Z</time>
      </trkpt>
      <trkpt lat="53.69457" lon="11.0215">
        <ele>95.385297</ele>
        <time>2024-07-20T09:12:11.219Z</time>
      </trkpt>
      <trkpt lat="53.69457" lon="11.02172">
        <ele>95.48027</ele>
        <time>2024-07-20T09:12:14.228Z</time>
      </trkpt>
      <trkpt lat="53.69457" lon="11.02187">
        <ele>95.548173</ele>
        <time>2024-07-20T09:12:16.241Z</time>
      </trkpt>
      <trkpt lat="53.69457" lon="11.0221">
        <ele>95.64697</ele>
        <time>2024-07-20T09:12:19.231Z</time>
      </trkpt>
      <trkpt lat="53.69457" lon="11.02226">
        <ele>95.712458</ele>
        <time>2024-07-20T09:12:21.246Z</time>
      </trkpt>
      <trkpt lat="53.69458" lon="11.02241">
        <ele>95.778623</ele>
        <time>2024-07-20T09:12:23.236Z</time>
      </trkpt>
      <trkpt lat="53.69458" lon="11.02264">
        <ele>95.875444</ele>
        <time>2024-07-20T09:12:26.239Z</time>
      </trkpt>
      <trkpt lat="53.69459" lon="11.02279">
        <ele>95.940799</ele>
        <time>2024-07-20T09:12:28.232Z</time>
      </trkpt>
      <trkpt lat="53.69459" lon="11.02294">
        <ele>96.007949</ele>
        <time>2024-07-20T09:12:30.235Z</time>
      </trkpt>
      <trkpt lat="53.69459" lon="11.0231">
        <ele>96.074103</ele>
        <time>2024-07-20T09:12:32.227Z</time>
      </trkpt>
      <trkpt lat="53.6946" lon="11.02325">
        <ele>96.140717</ele>
        <time>2024-07-20T09:12:34.226Z</time>
      </trkpt>
      <trkpt lat="53.6946" lon="11.02341">
        <ele>96.209753</ele>
        <time>2024-07-20T09:12:36.246Z</time>
      </trkpt>
      <trkpt lat="53.6946" lon="11.02357">
        <ele>96.276431</ele>
        <time>2024-07-20T09:12:38.227Z</time>
      </trkpt>
      <trkpt lat="53.69461" lon="11.02379">
        <ele>96.406677</ele>
        <time>2024-07-20T09:12:41.243Z</time>
      </trkpt>
      <trkpt lat="53.69461" lon="11.02401">
        <ele>96.557351</ele>
        <time>2024-07-20T09:12:44.238Z</time>
      </trkpt>
      <trkpt lat="53.69462" lon="11.02423">
        <ele>96.70398</ele>
        <time>2024-07-20T09:12:47.241Z</time>
      </trkpt>
      <trkpt lat="53.69463" lon="11.02445">
        <ele>96.851957</ele>
        <time>2024-07-20T09:12:50.233Z</time>
      </trkpt>
      <trkpt lat="53.69463" lon="11.02468">
        <ele>97.007913</ele>
        <time>2024-07-20T09:12:53.226Z</time>
      </trkpt>
      <trkpt lat="53.69463" lon="11.02483">
        <ele>97.110565</ele>
        <time>2024-07-20T09:12:55.238Z</time>
      </trkpt>
      <trkpt lat="53.69464" lon="11.02499">
        <ele>97.215242</ele>
        <time>2024-07-20T09:12:57.232Z</time>
      </trkpt>
      <trkpt lat="53.69464" lon="11.02514">
        <ele>97.317996</ele>
        <time>2024-07-20T09:12:59.243Z</time>
      </trkpt>
      <trkpt lat="53.69464" lon="11.02536">
        <ele>97.468553</ele>
        <time>2024-07-20T09:13:02.241Z</time>
      </trkpt>
      <trkpt lat="53.69464" lon="11.02557">
        <ele>97.611651</ele>
        <time>2024-07-20T09:13:05.227Z</time>
      </trkpt>
      <trkpt lat="53.69464" lon="11.0258">
        <ele>97.761499</ele>
        <time>2024-07-20T09:13:08.248Z</time>
      </trkpt>
      <trkpt lat="53.69464" lon="11.02601">
        <ele>97.904634</ele>
        <time>2024-07-20T09:13:11.240Z</time>
      </trkpt>
      <trkpt lat="53.69465" lon="11.02622">
        <ele>98.048095</ele>
        <time>2024-07-20T09:13:14.233Z</time>
      </trkpt>
      <trkpt lat="53.69465" lon="11.02642">
        <ele>98.184444</ele>
        <time>2024-07-20T09:13:17.225Z</time>
      </trkpt>
      <trkpt lat="53.69466" lon="11.02663">
        <ele>98.322308</ele>
        <time>2024-07-20T09:13:20.226Z</time>
      </trkpt>
      <trkpt lat="53.69465" lon="11.02683">
        <ele>98.322112</ele>
        <time>2024-07-20T09:13:23.265Z</time>
      </trkpt>
      <trkpt lat="53.69466" lon="11.02703">
        <ele>98.263278</ele>
        <time>2024-07-20T09:13:26.234Z</time>
      </trkpt>
      <trkpt lat="53.69467" lon="11.02725">
        <ele>98.201795</ele>
        <time>2024-07-20T09:13:29.239Z</time>
      </trkpt>
      <trkpt lat="53.69467" lon="11.02746">
        <ele>98.138738</ele>
        <time>2024-07-20T09:13:32.250Z</time>
      </trkpt>
      <trkpt lat="53.69468" lon="11.02762">
        <ele>98.093757</ele>
        <time>2024-07-20T09:13:34.247Z</time>
      </trkpt>
      <trkpt lat="53.69467" lon="11.02777">
        <ele>98.049407</ele>
        <time>2024-07-20T09:13:36.239Z</time>
      </trkpt>
      <trkpt lat="53.69468" lon="11.02794">
        <ele>98.001263</ele>
        <time>2024-07-20T09:13:38.241Z</time>
      </trkpt>
      <trkpt lat="53.69469" lon="11.02812">
        <ele>97.949355</ele>
        <time>2024-07-20T09:13:40.251Z</time>
      </trkpt>
      <trkpt lat="53.69469" lon="11.0283">
        <ele>97.897509</ele>
        <time>2024-07-20T09:13:42.244Z</time>
      </trkpt>
      <trkpt lat="53.69469" lon="11.02848">
        <ele>97.845647</ele>
        <time>2024-07-20T09:13:44.245Z</time>
      </trkpt>
      <trkpt lat="53.6947" lon="11.02866">
        <ele>97.793801</ele>
        <time>2024-07-20T09:13:46.240Z</time>
      </trkpt>
      <trkpt lat="53.6947" lon="11.02884">
        <ele>97.742548</ele>
        <time>2024-07-20T09:13:48.251Z</time>
      </trkpt>
      <trkpt lat="53.6947" lon="11.02902">
        <ele>97.690686</ele>
        <time>2024-07-20T09:13:50.247Z</time>
      </trkpt>
      <trkpt lat="53.6947" lon="11.0292">
        <ele>97.638552</ele>
        <time>2024-07-20T09:13:52.245Z</time>
      </trkpt>
      <trkpt lat="53.69471" lon="11.02938">
        <ele>97.586041</ele>
        <time>2024-07-20T09:13:54.243Z</time>
      </trkpt>
      <trkpt lat="53.69471" lon="11.02956">
        <ele>97.535364</ele>
        <time>2024-07-20T09:13:56.241Z</time>
      </trkpt>
      <trkpt lat="53.69471" lon="11.02971">
        <ele>97.491001</ele>
        <time>2024-07-20T09:13:58.239Z</time>
      </trkpt>
      <trkpt lat="53.69472" lon="11.02988">
        <ele>97.422042</ele>
        <time>2024-07-20T09:14:00.240Z</time>
      </trkpt>
      <trkpt lat="53.69473" lon="11.0301">
        <ele>97.32558</ele>
        <time>2024-07-20T09:14:03.255Z</time>
      </trkpt>
      <trkpt lat="53.69473" lon="11.03032">
        <ele>97.230511</ele>
        <time>2024-07-20T09:14:06.244Z</time>
      </trkpt>
      <trkpt lat="53.69473" lon="11.03048">
        <ele>97.163582</ele>
        <time>2024-07-20T09:14:08.249Z</time>
      </trkpt>
      <trkpt lat="53.69473" lon="11.0307">
        <ele>97.068513</ele>
        <time>2024-07-20T09:14:11.231Z</time>
      </trkpt>
      <trkpt lat="53.69473" lon="11.03085">
        <ele>97.002974</ele>
        <time>2024-07-20T09:14:13.209Z</time>
      </trkpt>
      <trkpt lat="53.69474" lon="11.03102">
        <ele>96.934011</ele>
        <time>2024-07-20T09:14:15.242Z</time>
      </trkpt>
      <trkpt lat="53.69474" lon="11.03119">
        <ele>96.857373</ele>
        <time>2024-07-20T09:14:17.234Z</time>
      </trkpt>
      <trkpt lat="53.69475" lon="11.03138">
        <ele>96.777104</ele>
        <time>2024-07-20T09:14:19.233Z</time>
      </trkpt>
      <trkpt lat="53.69476" lon="11.03156">
        <ele>96.699129</ele>
        <time>2024-07-20T09:14:21.261Z</time>
      </trkpt>
      <trkpt lat="53.69476" lon="11.03174">
        <ele>96.622891</ele>
        <time>2024-07-20T09:14:23.237Z</time>
      </trkpt>
      <trkpt lat="53.69473" lon="11.0319">
        <ele>96.552074</ele>
        <time>2024-07-20T09:14:25.230Z</time>
      </trkpt>
      <trkpt lat="53.6947" lon="11.03205">
        <ele>96.485965</ele>
        <time>2024-07-20T09:14:27.243Z</time>
      </trkpt>
      <trkpt lat="53.69469" lon="11.03226">
        <ele>96.393936</ele>
        <time>2024-07-20T09:14:30.246Z</time>
      </trkpt>
      <trkpt lat="53.6947" lon="11.03248">
        <ele>96.299523</ele>
        <time>2024-07-20T09:14:33.244Z</time>
      </trkpt>
      <trkpt lat="53.69471" lon="11.03268">
        <ele>96.214504</ele>
        <time>2024-07-20T09:14:36.249Z</time>
      </trkpt>
      <trkpt lat="53.69472" lon="11.03289">
        <ele>96.074602</ele>
        <time>2024-07-20T09:14:39.243Z</time>
      </trkpt>
      <trkpt lat="53.69472" lon="11.03309">
        <ele>95.915135</ele>
        <time>2024-07-20T09:14:42.235Z</time>
      </trkpt>
      <trkpt lat="53.69473" lon="11.03328">
        <ele>95.760096</ele>
        <time>2024-07-20T09:14:45.238Z</time>
      </trkpt>
      <trkpt lat="53.69474" lon="11.03349">
        <ele>95.595572</ele>
        <time>2024-07-20T09:14:48.255Z</time>
      </trkpt>
      <trkpt lat="53.69474" lon="11.03372">
        <ele>95.41001</ele>
        <time>2024-07-20T09:14:51.256Z</time>
      </trkpt>
      <trkpt lat="53.69475" lon="11.03388">
        <ele>95.279357</ele>
        <time>2024-07-20T09:14:53.233Z</time>
      </trkpt>
      <trkpt lat="53.69476" lon="11.03404">
        <ele>95.154879</ele>
        <time>2024-07-20T09:14:55.257Z</time>
      </trkpt>
      <trkpt lat="53.69477" lon="11.03419">
        <ele>95.033143</ele>
        <time>2024-07-20T09:14:57.240Z</time>
      </trkpt>
      <trkpt lat="53.69477" lon="11.03437">
        <ele>94.895849</ele>
        <time>2024-07-20T09:14:59.244Z</time>
      </trkpt>
      <trkpt lat="53.6948" lon="11.03454">
        <ele>94.756365</ele>
        <time>2024-07-20T09:15:01.243Z</time>
      </trkpt>
      <trkpt lat="53.69482" lon="11.03471">
        <ele>94.618605</ele>
        <time>2024-07-20T09:15:03.213Z</time>
      </trkpt>
      <trkpt lat="53.69483" lon="11.03488">
        <ele>94.48305</ele>
        <time>2024-07-20T09:15:05.234Z</time>
      </trkpt>
      <trkpt lat="53.69483" lon="11.03506">
        <ele>94.335614</ele>
        <time>2024-07-20T09:15:07.232Z</time>
      </trkpt>
      <trkpt lat="53.69483" lon="11.03525">
        <ele>94.188178</ele>
        <time>2024-07-20T09:15:09.244Z</time>
      </trkpt>
      <trkpt lat="53.69483" lon="11.03543">
        <ele>94.044681</ele>
        <time>2024-07-20T09:15:11.257Z</time>
      </trkpt>
      <trkpt lat="53.69482" lon="11.03561">
        <ele>93.900192</ele>
        <time>2024-07-20T09:15:13.240Z</time>
      </trkpt>
      <trkpt lat="53.69482" lon="11.03578">
        <ele>93.790522</ele>
        <time>2024-07-20T09:15:15.239Z</time>
      </trkpt>
      <trkpt lat="53.69483" lon="11.03594">
        <ele>93.898728</ele>
        <time>2024-07-20T09:15:17.243Z</time>
      </trkpt>
      <trkpt lat="53.69484" lon="11.03611">
        <ele>94.011121</ele>
        <time>2024-07-20T09:15:19.253Z</time>
      </trkpt>
      <trkpt lat="53.69484" lon="11.03627">
        <ele>94.116048</ele>
        <time>2024-07-20T09:15:21.250Z</time>
      </trkpt>
      <trkpt lat="53.69485" lon="11.03643">
        <ele>94.225113</ele>
        <time>2024-07-20T09:15:23.237Z</time>
      </trkpt>
      <trkpt lat="53.69485" lon="11.03659">
        <ele>94.331276</ele>
        <time>2024-07-20T09:15:25.243Z</time>
      </trkpt>
      <trkpt lat="53.69485" lon="11.03675">
        <ele>94.439412</ele>
        <time>2024-07-20T09:15:27.241Z</time>
      </trkpt>
      <trkpt lat="53.69485" lon="11.03691">
        <ele>94.544241</ele>
        <time>2024-07-20T09:15:29.238Z</time>
      </trkpt>
      <trkpt lat="53.69485" lon="11.03707">
        <ele>94.649113</ele>
        <time>2024-07-20T09:15:31.249Z</time>
      </trkpt>
      <trkpt lat="53.69486" lon="11.03722">
        <ele>94.751942</ele>
        <time>2024-07-20T09:15:33.219Z</time>
      </trkpt>
      <trkpt lat="53.69485" lon="11.03744">
        <ele>94.9008</ele>
        <time>2024-07-20T09:15:36.238Z</time>
      </trkpt>
      <trkpt lat="53.69486" lon="11.03765">
        <ele>95.03765</ele>
        <time>2024-07-20T09:15:39.261Z</time>
      </trkpt>
      <trkpt lat="53.69486" lon="11.03784">
        <ele>95.164453</ele>
        <time>2024-07-20T09:15:42.240Z</time>
      </trkpt>
      <trkpt lat="53.69485" lon="11.03801">
        <ele>95.281246</ele>
        <time>2024-07-20T09:15:45.236Z</time>
      </trkpt>
      <trkpt lat="53.69486" lon="11.03819">
        <ele>95.397143</ele>
        <time>2024-07-20T09:15:48.241Z</time>
      </trkpt>
      <trkpt lat="53.69487" lon="11.03836">
        <ele>95.513613</ele>
        <time>2024-07-20T09:15:51.254Z</time>
      </trkpt>
      <trkpt lat="53.69488" lon="11.03854">
        <ele>95.635039</ele>
        <time>2024-07-20T09:15:54.255Z</time>
      </trkpt>
      <trkpt lat="53.69488" lon="11.03875">
        <ele>95.773182</ele>
        <time>2024-07-20T09:15:57.221Z</time>
      </trkpt>
      <trkpt lat="53.69489" lon="11.03895">
        <ele>95.907064</ele>
        <time>2024-07-20T09:16:00.243Z</time>
      </trkpt>
      <trkpt lat="53.69489" lon="11.03914">
        <ele>96.034235</ele>
        <time>2024-07-20T09:16:03.240Z</time>
      </trkpt>
      <trkpt lat="53.69489" lon="11.03934">
        <ele>96.159465</ele>
        <time>2024-07-20T09:16:06.242Z</time>
      </trkpt>
      <trkpt lat="53.6949" lon="11.03951">
        <ele>96.275496</ele>
        <time>2024-07-20T09:16:09.249Z</time>
      </trkpt>
      <trkpt lat="53.6949" lon="11.03968">
        <ele>96.388424</ele>
        <time>2024-07-20T09:16:12.254Z</time>
      </trkpt>
      <trkpt lat="53.69491" lon="11.03986">
        <ele>96.505514</ele>
        <time>2024-07-20T09:16:15.262Z</time>
      </trkpt>
      <trkpt lat="53.69492" lon="11.04004">
        <ele>96.622437</ele>
        <time>2024-07-20T09:16:18.251Z</time>
      </trkpt>
      <trkpt lat="53.69492" lon="11.04024">
        <ele>96.755492</ele>
        <time>2024-07-20T09:16:21.260Z</time>
      </trkpt>
      <trkpt lat="53.69492" lon="11.04044">
        <ele>96.887232</ele>
        <time>2024-07-20T09:16:24.253Z</time>
      </trkpt>
      <trkpt lat="53.69493" lon="11.04063">
        <ele>97.012003</ele>
        <time>2024-07-20T09:16:27.260Z</time>
      </trkpt>
      <trkpt lat="53.69493" lon="11.04081">
        <ele>97.124429</ele>
        <time>2024-07-20T09:16:30.244Z</time>
      </trkpt>
      <trkpt lat="53.69494" lon="11.04097">
        <ele>97.22932</ele>
        <time>2024-07-20T09:16:33.253Z</time>
      </trkpt>
      <trkpt lat="53.69494" lon="11.04113">
        <ele>97.334211</ele>
        <time>2024-07-20T09:16:36.264Z</time>
      </trkpt>
      <trkpt lat="53.69494" lon="11.0413">
        <ele>97.447605</ele>
        <time>2024-07-20T09:16:39.244Z</time>
      </trkpt>
      <trkpt lat="53.69493" lon="11.04148">
        <ele>97.569694</ele>
        <time>2024-07-20T09:16:42.228Z</time>
      </trkpt>
      <trkpt lat="53.69494" lon="11.04168">
        <ele>97.696966</ele>
        <time>2024-07-20T09:16:45.252Z</time>
      </trkpt>
      <trkpt lat="53.69494" lon="11.04189">
        <ele>97.784597</ele>
        <time>2024-07-20T09:16:48.249Z</time>
      </trkpt>
      <trkpt lat="53.69495" lon="11.04211">
        <ele>97.727599</ele>
        <time>2024-07-20T09:16:51.245Z</time>
      </trkpt>
      <trkpt lat="53.69495" lon="11.04232">
        <ele>97.672653</ele>
        <time>2024-07-20T09:16:54.232Z</time>
      </trkpt>
      <trkpt lat="53.69496" lon="11.04254">
        <ele>97.617209</ele>
        <time>2024-07-20T09:16:57.225Z</time>
      </trkpt>
      <trkpt lat="53.69496" lon="11.04275">
        <ele>97.563073</ele>
        <time>2024-07-20T09:17:00.243Z</time>
      </trkpt>
      <trkpt lat="53.69496" lon="11.04296">
        <ele>97.508932</ele>
        <time>2024-07-20T09:17:03.246Z</time>
      </trkpt>
      <trkpt lat="53.69496" lon="11.04317">
        <ele>97.456016</ele>
        <time>2024-07-20T09:17:06.246Z</time>
      </trkpt>
      <trkpt lat="53.69497" lon="11.04332">
        <ele>97.416468</ele>
        <time>2024-07-20T09:17:08.238Z</time>
      </trkpt>
      <trkpt lat="53.69497" lon="11.04348">
        <ele>97.375639</ele>
        <time>2024-07-20T09:17:10.249Z</time>
      </trkpt>
      <trkpt lat="53.69497" lon="11.04365">
        <ele>97.332021</ele>
        <time>2024-07-20T09:17:12.264Z</time>
      </trkpt>
      <trkpt lat="53.69498" lon="11.04382">
        <ele>97.28709</ele>
        <time>2024-07-20T09:17:14.241Z</time>
      </trkpt>
      <trkpt lat="53.69498" lon="11.044">
        <ele>97.242703</ele>
        <time>2024-07-20T09:17:16.241Z</time>
      </trkpt>
      <trkpt lat="53.69498" lon="11.04418">
        <ele>97.194951</ele>
        <time>2024-07-20T09:17:18.247Z</time>
      </trkpt>
      <trkpt lat="53.69498" lon="11.04435">
        <ele>97.151815</ele>
        <time>2024-07-20T09:17:20.252Z</time>
      </trkpt>
      <trkpt lat="53.69499" lon="11.04452">
        <ele>97.107838</ele>
        <time>2024-07-20T09:17:22.257Z</time>
      </trkpt>
      <trkpt lat="53.69499" lon="11.04469">
        <ele>97.065486</ele>
        <time>2024-07-20T09:17:24.249Z</time>
      </trkpt>
      <trkpt lat="53.695" lon="11.04486">
        <ele>97.019785</ele>
        <time>2024-07-20T09:17:26.243Z</time>
      </trkpt>
      <trkpt lat="53.695" lon="11.04505">
        <ele>97.09187</ele>
        <time>2024-07-20T09:17:28.255Z</time>
      </trkpt>
      <trkpt lat="53.695" lon="11.04523">
        <ele>97.162192</ele>
        <time>2024-07-20T09:17:30.247Z</time>
      </trkpt>
      <trkpt lat="53.69501" lon="11.04541">
        <ele>97.233304</ele>
        <time>2024-07-20T09:17:32.243Z</time>
      </trkpt>
      <trkpt lat="53.69501" lon="11.04558">
        <ele>97.301338</ele>
        <time>2024-07-20T09:17:34.243Z</time>
      </trkpt>
      <trkpt lat="53.69502" lon="11.04576">
        <ele>97.374122</ele>
        <time>2024-07-20T09:17:36.259Z</time>
      </trkpt>
      <trkpt lat="53.69502" lon="11.04593">
        <ele>97.443286</ele>
        <time>2024-07-20T09:17:38.240Z</time>
      </trkpt>
      <trkpt lat="53.69502" lon="11.0461">
        <ele>97.512411</ele>
        <time>2024-07-20T09:17:40.241Z</time>
      </trkpt>
      <trkpt lat="53.69503" lon="11.04628">
        <ele>97.5832</ele>
        <time>2024-07-20T09:17:42.247Z</time>
      </trkpt>
      <trkpt lat="53.69503" lon="11.04645">
        <ele>97.651915</ele>
        <time>2024-07-20T09:17:44.261Z</time>
      </trkpt>
      <trkpt lat="53.69503" lon="11.04662">
        <ele>97.718261</ele>
        <time>2024-07-20T09:17:46.260Z</time>
      </trkpt>
      <trkpt lat="53.69503" lon="11.04678">
        <ele>97.783391</ele>
        <time>2024-07-20T09:17:48.260Z</time>
      </trkpt>
      <trkpt lat="53.69503" lon="11.04694">
        <ele>97.847323</ele>
        <time>2024-07-20T09:17:50.229Z</time>
      </trkpt>
      <trkpt lat="53.69504" lon="11.04716">
        <ele>97.935252</ele>
        <time>2024-07-20T09:17:53.242Z</time>
      </trkpt>
      <trkpt lat="53.69504" lon="11.04732">
        <ele>97.998403</ele>
        <time>2024-07-20T09:17:55.262Z</time>
      </trkpt>
      <trkpt lat="53.69504" lon="11.04753">
        <ele>98.081521</ele>
        <time>2024-07-20T09:17:58.244Z</time>
      </trkpt>
      <trkpt lat="53.69505" lon="11.04774">
        <ele>98.165057</ele>
        <time>2024-07-20T09:18:01.257Z</time>
      </trkpt>
      <trkpt lat="53.69505" lon="11.04796">
        <ele>98.275964</ele>
        <time>2024-07-20T09:18:04.254Z</time>
      </trkpt>
      <trkpt lat="53.69505" lon="11.04817">
        <ele>98.451211</ele>
        <time>2024-07-20T09:18:07.255Z</time>
      </trkpt>
      <trkpt lat="53.69506" lon="11.04837">
        <ele>98.618396</ele>
        <time>2024-07-20T09:18:10.248Z</time>
      </trkpt>
      <trkpt lat="53.69506" lon="11.04857">
        <ele>98.785377</ele>
        <time>2024-07-20T09:18:13.237Z</time>
      </trkpt>
      <trkpt lat="53.69506" lon="11.04877">
        <ele>98.946663</ele>
        <time>2024-07-20T09:18:16.262Z</time>
      </trkpt>
      <trkpt lat="53.69506" lon="11.04896">
        <ele>99.108774</ele>
        <time>2024-07-20T09:18:19.241Z</time>
      </trkpt>
      <trkpt lat="53.69507" lon="11.04917">
        <ele>99.280451</ele>
        <time>2024-07-20T09:18:22.238Z</time>
      </trkpt>
      <trkpt lat="53.69507" lon="11.04938">
        <ele>99.452437</ele>
        <time>2024-07-20T09:18:25.237Z</time>
      </trkpt>
      <trkpt lat="53.69507" lon="11.04957">
        <ele>99.612823</ele>
        <time>2024-07-20T09:18:28.251Z</time>
      </trkpt>
      <trkpt lat="53.69508" lon="11.04977">
        <ele>99.778168</ele>
        <time>2024-07-20T09:18:31.262Z</time>
      </trkpt>
      <trkpt lat="53.69508" lon="11.04998">
        <ele>99.953035</ele>
        <time>2024-07-20T09:18:34.249Z</time>
      </trkpt>
      <trkpt lat="53.69508" lon="11.05018">
        <ele>100.11841</ele>
        <time>2024-07-20T09:18:37.249Z</time>
      </trkpt>
      <trkpt lat="53.69508" lon="11.05039">
        <ele>100.285391</ele>
        <time>2024-07-20T09:18:40.246Z</time>
      </trkpt>
      <trkpt lat="53.69509" lon="11.05059">
        <ele>100.457529</ele>
        <time>2024-07-20T09:18:43.253Z</time>
      </trkpt>
      <trkpt lat="53.69509" lon="11.0508">
        <ele>100.628688</ele>
        <time>2024-07-20T09:18:46.240Z</time>
      </trkpt>
      <trkpt lat="53.69509" lon="11.05101">
        <ele>100.811989</ele>
        <time>2024-07-20T09:18:49.241Z</time>
      </trkpt>
      <trkpt lat="53.6951" lon="11.05121">
        <ele>101.022426</ele>
        <time>2024-07-20T09:18:52.260Z</time>
      </trkpt>
      <trkpt lat="53.6951" lon="11.05141">
        <ele>101.227426</ele>
        <time>2024-07-20T09:18:55.263Z</time>
      </trkpt>
      <trkpt lat="53.6951" lon="11.05162">
        <ele>101.43865</ele>
        <time>2024-07-20T09:18:58.266Z</time>
      </trkpt>
      <trkpt lat="53.6951" lon="11.05182">
        <ele>101.638543</ele>
        <time>2024-07-20T09:19:01.234Z</time>
      </trkpt>
      <trkpt lat="53.69511" lon="11.05202">
        <ele>101.841525</ele>
        <time>2024-07-20T09:19:04.226Z</time>
      </trkpt>
      <trkpt lat="53.69511" lon="11.05222">
        <ele>102.045962</ele>
        <time>2024-07-20T09:19:07.238Z</time>
      </trkpt>
      <trkpt lat="53.69511" lon="11.05241">
        <ele>102.246875</ele>
        <time>2024-07-20T09:19:10.241Z</time>
      </trkpt>
      <trkpt lat="53.69511" lon="11.0526">
        <ele>102.434538</ele>
        <time>2024-07-20T09:19:13.236Z</time>
      </trkpt>
      <trkpt lat="53.69513" lon="11.05279">
        <ele>102.631037</ele>
        <time>2024-07-20T09:19:16.239Z</time>
      </trkpt>
      <trkpt lat="53.69514" lon="11.05297">
        <ele>102.816146</ele>
        <time>2024-07-20T09:19:19.229Z</time>
      </trkpt>
      <trkpt lat="53.69514" lon="11.05315">
        <ele>103.003998</ele>
        <time>2024-07-20T09:19:22.266Z</time>
      </trkpt>
      <trkpt lat="53.69515" lon="11.05335">
        <ele>103.204632</ele>
        <time>2024-07-20T09:19:25.241Z</time>
      </trkpt>
      <trkpt lat="53.69515" lon="11.05354">
        <ele>103.403512</ele>
        <time>2024-07-20T09:19:28.259Z</time>
      </trkpt>
      <trkpt lat="53.69516" lon="11.05375">
        <ele>103.614736</ele>
        <time>2024-07-20T09:19:31.257Z</time>
      </trkpt>
      <trkpt lat="53.69516" lon="11.05395">
        <ele>103.812859</ele>
        <time>2024-07-20T09:19:34.247Z</time>
      </trkpt>
      <trkpt lat="53.69516" lon="11.05414">
        <ele>103.961002</ele>
        <time>2024-07-20T09:19:37.242Z</time>
      </trkpt>
      <trkpt lat="53.69516" lon="11.05435">
        <ele>104.106138</ele>
        <time>2024-07-20T09:19:40.238Z</time>
      </trkpt>
      <trkpt lat="53.69516" lon="11.05455">
        <ele>104.251273</ele>
        <time>2024-07-20T09:19:43.266Z</time>
      </trkpt>
      <trkpt lat="53.69516" lon="11.05476">
        <ele>104.397905</ele>
        <time>2024-07-20T09:19:46.245Z</time>
      </trkpt>
      <trkpt lat="53.69518" lon="11.05497">
        <ele>104.554888</ele>
        <time>2024-07-20T09:19:49.228Z</time>
      </trkpt>
      <trkpt lat="53.69518" lon="11.05519">
        <ele>104.705388</ele>
        <time>2024-07-20T09:19:52.243Z</time>
      </trkpt>
      <trkpt lat="53.69518" lon="11.05539">
        <ele>104.848384</ele>
        <time>2024-07-20T09:19:55.245Z</time>
      </trkpt>
      <trkpt lat="53.69519" lon="11.05558">
        <ele>104.98925</ele>
        <time>2024-07-20T09:19:58.245Z</time>
      </trkpt>
      <trkpt lat="53.69519" lon="11.05577">
        <ele>105.124762</ele>
        <time>2024-07-20T09:20:01.246Z</time>
      </trkpt>
      <trkpt lat="53.6952" lon="11.05596">
        <ele>105.25782</ele>
        <time>2024-07-20T09:20:04.233Z</time>
      </trkpt>
      <trkpt lat="53.6952" lon="11.05615">
        <ele>105.390194</ele>
        <time>2024-07-20T09:20:07.225Z</time>
      </trkpt>
      <trkpt lat="53.6952" lon="11.05634">
        <ele>105.528926</ele>
        <time>2024-07-20T09:20:10.221Z</time>
      </trkpt>
      <trkpt lat="53.6952" lon="11.05654">
        <ele>105.669159</ele>
        <time>2024-07-20T09:20:13.234Z</time>
      </trkpt>
      <trkpt lat="53.6952" lon="11.05673">
        <ele>105.80718</ele>
        <time>2024-07-20T09:20:16.259Z</time>
      </trkpt>
      <trkpt lat="53.69521" lon="11.05693">
        <ele>105.946328</ele>
        <time>2024-07-20T09:20:19.243Z</time>
      </trkpt>
      <trkpt lat="53.69521" lon="11.0571">
        <ele>105.998521</ele>
        <time>2024-07-20T09:20:22.248Z</time>
      </trkpt>
      <trkpt lat="53.69522" lon="11.05729">
        <ele>105.990015</ele>
        <time>2024-07-20T09:20:25.245Z</time>
      </trkpt>
      <trkpt lat="53.69522" lon="11.05747">
        <ele>105.981953</ele>
        <time>2024-07-20T09:20:28.242Z</time>
      </trkpt>
      <trkpt lat="53.69522" lon="11.05767">
        <ele>105.973322</ele>
        <time>2024-07-20T09:20:31.242Z</time>
      </trkpt>
      <trkpt lat="53.69523" lon="11.05787">
        <ele>105.964375</ele>
        <time>2024-07-20T09:20:34.242Z</time>
      </trkpt>
      <trkpt lat="53.69524" lon="11.05806">
        <ele>105.955583</ele>
        <time>2024-07-20T09:20:37.218Z</time>
      </trkpt>
      <trkpt lat="53.69524" lon="11.05826">
        <ele>105.946773</ele>
        <time>2024-07-20T09:20:40.247Z</time>
      </trkpt>
      <trkpt lat="53.69524" lon="11.05847">
        <ele>105.937367</ele>
        <time>2024-07-20T09:20:43.245Z</time>
      </trkpt>
      <trkpt lat="53.69524" lon="11.05868">
        <ele>105.927931</ele>
        <time>2024-07-20T09:20:46.259Z</time>
      </trkpt>
      <trkpt lat="53.69525" lon="11.0589">
        <ele>105.918136</ele>
        <time>2024-07-20T09:20:49.234Z</time>
      </trkpt>
      <trkpt lat="53.69525" lon="11.0591">
        <ele>105.908904</ele>
        <time>2024-07-20T09:20:52.237Z</time>
      </trkpt>
      <trkpt lat="53.69526" lon="11.05931">
        <ele>105.899601</ele>
        <time>2024-07-20T09:20:55.256Z</time>
      </trkpt>
      <trkpt lat="53.69526" lon="11.05951">
        <ele>105.8906</ele>
        <time>2024-07-20T09:20:58.256Z</time>
      </trkpt>
      <trkpt lat="53.69527" lon="11.05972">
        <ele>105.881284</ele>
        <time>2024-07-20T09:21:01.239Z</time>
      </trkpt>
      <trkpt lat="53.69527" lon="11.05994">
        <ele>105.871355</ele>
        <time>2024-07-20T09:21:04.242Z</time>
      </trkpt>
      <trkpt lat="53.69528" lon="11.06017">
        <ele>105.816483</ele>
        <time>2024-07-20T09:21:07.240Z</time>
      </trkpt>
      <trkpt lat="53.69528" lon="11.0604">
        <ele>105.726081</ele>
        <time>2024-07-20T09:21:10.229Z</time>
      </trkpt>
      <trkpt lat="53.69528" lon="11.06056">
        <ele>105.661119</ele>
        <time>2024-07-20T09:21:12.235Z</time>
      </trkpt>
      <trkpt lat="53.69529" lon="11.06072">
        <ele>105.597913</ele>
        <time>2024-07-20T09:21:14.212Z</time>
      </trkpt>
      <trkpt lat="53.69531" lon="11.06087">
        <ele>105.536188</ele>
        <time>2024-07-20T09:21:16.225Z</time>
      </trkpt>
      <trkpt lat="53.69537" lon="11.06107">
        <ele>105.448223</ele>
        <time>2024-07-20T09:21:19.228Z</time>
      </trkpt>
      <trkpt lat="53.69543" lon="11.06119">
        <ele>105.386722</ele>
        <time>2024-07-20T09:21:21.235Z</time>
      </trkpt>
      <trkpt lat="53.69548" lon="11.06131">
        <ele>105.323996</ele>
        <time>2024-07-20T09:21:23.240Z</time>
      </trkpt>
      <trkpt lat="53.69555" lon="11.0615">
        <ele>105.233193</ele>
        <time>2024-07-20T09:21:26.235Z</time>
      </trkpt>
      <trkpt lat="53.69555" lon="11.06173">
        <ele>105.141608</ele>
        <time>2024-07-20T09:21:29.227Z</time>
      </trkpt>
      <trkpt lat="53.6955" lon="11.06189">
        <ele>105.072716</ele>
        <time>2024-07-20T09:21:31.233Z</time>
      </trkpt>
      <trkpt lat="53.69543" lon="11.06201">
        <ele>105.004827</ele>
        <time>2024-07-20T09:21:33.237Z</time>
      </trkpt>
      <trkpt lat="53.69537" lon="11.06214">
        <ele>104.937539</ele>
        <time>2024-07-20T09:21:35.233Z</time>
      </trkpt>
      <trkpt lat="53.69534" lon="11.0623">
        <ele>104.86862</ele>
        <time>2024-07-20T09:21:37.229Z</time>
      </trkpt>
      <trkpt lat="53.69534" lon="11.06247">
        <ele>104.804478</ele>
        <time>2024-07-20T09:21:39.240Z</time>
      </trkpt>
      <trkpt lat="53.69533" lon="11.06262">
        <ele>104.742724</ele>
        <time>2024-07-20T09:21:41.237Z</time>
      </trkpt>
      <trkpt lat="53.69533" lon="11.06282">
        <ele>104.665073</ele>
        <time>2024-07-20T09:21:44.261Z</time>
      </trkpt>
      <trkpt lat="53.69534" lon="11.06302">
        <ele>105.038699</ele>
        <time>2024-07-20T09:21:47.242Z</time>
      </trkpt>
      <trkpt lat="53.69534" lon="11.06323">
        <ele>105.475395</ele>
        <time>2024-07-20T09:21:50.248Z</time>
      </trkpt>
      <trkpt lat="53.69534" lon="11.06343">
        <ele>105.884938</ele>
        <time>2024-07-20T09:21:53.260Z</time>
      </trkpt>
      <trkpt lat="53.69534" lon="11.06362">
        <ele>106.282024</ele>
        <time>2024-07-20T09:21:56.241Z</time>
      </trkpt>
      <trkpt lat="53.69534" lon="11.06379">
        <ele>106.649989</ele>
        <time>2024-07-20T09:21:59.241Z</time>
      </trkpt>
      <trkpt lat="53.69534" lon="11.06396">
        <ele>107.001481</ele>
        <time>2024-07-20T09:22:02.248Z</time>
      </trkpt>
      <trkpt lat="53.69534" lon="11.06414">
        <ele>107.363227</ele>
        <time>2024-07-20T09:22:05.224Z</time>
      </trkpt>
      <trkpt lat="53.69533" lon="11.06431">
        <ele>107.727863</ele>
        <time>2024-07-20T09:22:08.261Z</time>
      </trkpt>
      <trkpt lat="53.69533" lon="11.06449">
        <ele>108.08966</ele>
        <time>2024-07-20T09:22:11.239Z</time>
      </trkpt>
      <trkpt lat="53.69534" lon="11.06465">
        <ele>108.433325</ele>
        <time>2024-07-20T09:22:14.240Z</time>
      </trkpt>
      <trkpt lat="53.69534" lon="11.06483">
        <ele>108.797149</ele>
        <time>2024-07-20T09:22:17.247Z</time>
      </trkpt>
      <trkpt lat="53.69535" lon="11.06498">
        <ele>109.128607</ele>
        <time>2024-07-20T09:22:20.244Z</time>
      </trkpt>
      <trkpt lat="53.69536" lon="11.06516">
        <ele>109.487571</ele>
        <time>2024-07-20T09:22:23.228Z</time>
      </trkpt>
      <trkpt lat="53.69537" lon="11.06533">
        <ele>109.840655</ele>
        <time>2024-07-20T09:22:26.232Z</time>
      </trkpt>
      <trkpt lat="53.69538" lon="11.06549">
        <ele>110.193739</ele>
        <time>2024-07-20T09:22:29.245Z</time>
      </trkpt>
      <trkpt lat="53.69538" lon="11.06566">
        <ele>110.547588</ele>
        <time>2024-07-20T09:22:32.244Z</time>
      </trkpt>
      <trkpt lat="53.69539" lon="11.06582">
        <ele>110.875181</ele>
        <time>2024-07-20T09:22:35.242Z</time>
      </trkpt>
      <trkpt lat="53.6954" lon="11.06599">
        <ele>111.046548</ele>
        <time>2024-07-20T09:22:38.239Z</time>
      </trkpt>
      <trkpt lat="53.6954" lon="11.06615">
        <ele>111.149898</ele>
        <time>2024-07-20T09:22:41.253Z</time>
      </trkpt>
      <trkpt lat="53.6954" lon="11.06633">
        <ele>111.262047</ele>
        <time>2024-07-20T09:22:44.247Z</time>
      </trkpt>
      <trkpt lat="53.6954" lon="11.0665">
        <ele>111.370546</ele>
        <time>2024-07-20T09:22:47.238Z</time>
      </trkpt>
      <trkpt lat="53.6954" lon="11.06669">
        <ele>111.493447</ele>
        <time>2024-07-20T09:22:50.241Z</time>
      </trkpt>
      <trkpt lat="53.69541" lon="11.06692">
        <ele>111.634094</ele>
        <time>2024-07-20T09:22:53.240Z</time>
      </trkpt>
      <trkpt lat="53.69541" lon="11.06714">
        <ele>111.774611</ele>
        <time>2024-07-20T09:22:56.256Z</time>
      </trkpt>
      <trkpt lat="53.6954" lon="11.06736">
        <ele>111.911435</ele>
        <time>2024-07-20T09:22:59.248Z</time>
      </trkpt>
      <trkpt lat="53.6954" lon="11.06757">
        <ele>112.04627</ele>
        <time>2024-07-20T09:23:02.253Z</time>
      </trkpt>
      <trkpt lat="53.69541" lon="11.06778">
        <ele>112.179228</ele>
        <time>2024-07-20T09:23:05.247Z</time>
      </trkpt>
      <trkpt lat="53.69541" lon="11.06799">
        <ele>112.307917</ele>
        <time>2024-07-20T09:23:08.244Z</time>
      </trkpt>
      <trkpt lat="53.69542" lon="11.06817">
        <ele>112.421406</ele>
        <time>2024-07-20T09:23:11.252Z</time>
      </trkpt>
      <trkpt lat="53.69542" lon="11.06834">
        <ele>112.533335</ele>
        <time>2024-07-20T09:23:14.250Z</time>
      </trkpt>
      <trkpt lat="53.69543" lon="11.06854">
        <ele>112.658248</ele>
        <time>2024-07-20T09:23:17.249Z</time>
      </trkpt>
      <trkpt lat="53.69543" lon="11.06877">
        <ele>112.800045</ele>
        <time>2024-07-20T09:23:20.255Z</time>
      </trkpt>
      <trkpt lat="53.69544" lon="11.06898">
        <ele>112.815335</ele>
        <time>2024-07-20T09:23:23.258Z</time>
      </trkpt>
      <trkpt lat="53.69544" lon="11.06918">
        <ele>112.634717</ele>
        <time>2024-07-20T09:23:26.262Z</time>
      </trkpt>
      <trkpt lat="53.69544" lon="11.06939">
        <ele>112.446802</ele>
        <time>2024-07-20T09:23:29.241Z</time>
      </trkpt>
      <trkpt lat="53.69544" lon="11.0696">
        <ele>112.261638</ele>
        <time>2024-07-20T09:23:32.255Z</time>
      </trkpt>
      <trkpt lat="53.69544" lon="11.06981">
        <ele>112.06835</ele>
        <time>2024-07-20T09:23:35.238Z</time>
      </trkpt>
      <trkpt lat="53.69545" lon="11.07">
        <ele>111.895554</ele>
        <time>2024-07-20T09:23:38.249Z</time>
      </trkpt>
      <trkpt lat="53.69545" lon="11.07018">
        <ele>111.731208</ele>
        <time>2024-07-20T09:23:41.228Z</time>
      </trkpt>
      <trkpt lat="53.69546" lon="11.07041">
        <ele>111.523073</ele>
        <time>2024-07-20T09:23:44.244Z</time>
      </trkpt>
      <trkpt lat="53.69546" lon="11.07058">
        <ele>111.371376</ele>
        <time>2024-07-20T09:23:46.246Z</time>
      </trkpt>
      <trkpt lat="53.69547" lon="11.07076">
        <ele>111.204979</ele>
        <time>2024-07-20T09:23:48.250Z</time>
      </trkpt>
      <trkpt lat="53.69547" lon="11.07097">
        <ele>111.020548</ele>
        <time>2024-07-20T09:23:50.245Z</time>
      </trkpt>
      <trkpt lat="53.69548" lon="11.07117">
        <ele>110.834231</ele>
        <time>2024-07-20T09:23:52.233Z</time>
      </trkpt>
      <trkpt lat="53.69549" lon="11.07138">
        <ele>110.648616</ele>
        <time>2024-07-20T09:23:54.260Z</time>
      </trkpt>
      <trkpt lat="53.69549" lon="11.07158">
        <ele>110.467115</ele>
        <time>2024-07-20T09:23:56.238Z</time>
      </trkpt>
      <trkpt lat="53.69549" lon="11.07178">
        <ele>110.282904</ele>
        <time>2024-07-20T09:23:58.263Z</time>
      </trkpt>
      <trkpt lat="53.69549" lon="11.07199">
        <ele>110.066331</ele>
        <time>2024-07-20T09:24:00.243Z</time>
      </trkpt>
      <trkpt lat="53.6955" lon="11.07219">
        <ele>109.74153</ele>
        <time>2024-07-20T09:24:02.244Z</time>
      </trkpt>
      <trkpt lat="53.6955" lon="11.07241">
        <ele>109.399496</ele>
        <time>2024-07-20T09:24:04.247Z</time>
      </trkpt>
      <trkpt lat="53.69551" lon="11.07262">
        <ele>109.070048</ele>
        <time>2024-07-20T09:24:06.256Z</time>
      </trkpt>
      <trkpt lat="53.69551" lon="11.07283">
        <ele>108.7355</ele>
        <time>2024-07-20T09:24:08.247Z</time>
      </trkpt>
      <trkpt lat="53.69551" lon="11.07304">
        <ele>108.401465</ele>
        <time>2024-07-20T09:24:10.259Z</time>
      </trkpt>
      <trkpt lat="53.69551" lon="11.07324">
        <ele>108.08326</ele>
        <time>2024-07-20T09:24:12.241Z</time>
      </trkpt>
      <trkpt lat="53.69552" lon="11.07343">
        <ele>107.780142</ele>
        <time>2024-07-20T09:24:14.238Z</time>
      </trkpt>
      <trkpt lat="53.69552" lon="11.07363">
        <ele>107.466686</ele>
        <time>2024-07-20T09:24:16.260Z</time>
      </trkpt>
      <trkpt lat="53.69552" lon="11.07383">
        <ele>107.149793</ele>
        <time>2024-07-20T09:24:18.243Z</time>
      </trkpt>
      <trkpt lat="53.69553" lon="11.07404">
        <ele>106.812339</ele>
        <time>2024-07-20T09:24:20.224Z</time>
      </trkpt>
      <trkpt lat="53.69553" lon="11.07425">
        <ele>106.487538</ele>
        <time>2024-07-20T09:24:22.239Z</time>
      </trkpt>
      <trkpt lat="53.69554" lon="11.07446">
        <ele>106.155054</ele>
        <time>2024-07-20T09:24:24.243Z</time>
      </trkpt>
      <trkpt lat="53.69554" lon="11.07468">
        <ele>105.798857</ele>
        <time>2024-07-20T09:24:26.244Z</time>
      </trkpt>
      <trkpt lat="53.69554" lon="11.0749">
        <ele>105.445827</ele>
        <time>2024-07-20T09:24:28.260Z</time>
      </trkpt>
      <trkpt lat="53.69554" lon="11.07513">
        <ele>105.24856</ele>
        <time>2024-07-20T09:24:30.247Z</time>
      </trkpt>
      <trkpt lat="53.69555" lon="11.07536">
        <ele>105.120448</ele>
        <time>2024-07-20T09:24:32.247Z</time>
      </trkpt>
      <trkpt lat="53.69556" lon="11.07558">
        <ele>104.997968</ele>
        <time>2024-07-20T09:24:34.249Z</time>
      </trkpt>
      <trkpt lat="53.69556" lon="11.07579">
        <ele>104.876836</ele>
        <time>2024-07-20T09:24:36.252Z</time>
      </trkpt>
      <trkpt lat="53.69556" lon="11.076">
        <ele>104.764014</ele>
        <time>2024-07-20T09:24:38.239Z</time>
      </trkpt>
      <trkpt lat="53.69557" lon="11.07619">
        <ele>104.6568</ele>
        <time>2024-07-20T09:24:40.262Z</time>
      </trkpt>
      <trkpt lat="53.69557" lon="11.07637">
        <ele>104.555764</ele>
        <time>2024-07-20T09:24:42.249Z</time>
      </trkpt>
      <trkpt lat="53.69557" lon="11.07655">
        <ele>104.452426</ele>
        <time>2024-07-20T09:24:44.245Z</time>
      </trkpt>
      <trkpt lat="53.69557" lon="11.07674">
        <ele>104.349646</ele>
        <time>2024-07-20T09:24:46.225Z</time>
      </trkpt>
      <trkpt lat="53.69558" lon="11.0769">
        <ele>104.256349</ele>
        <time>2024-07-20T09:24:48.237Z</time>
      </trkpt>
      <trkpt lat="53.69558" lon="11.07713">
        <ele>104.132336</ele>
        <time>2024-07-20T09:24:51.245Z</time>
      </trkpt>
      <trkpt lat="53.69559" lon="11.07731">
        <ele>104.031261</ele>
        <time>2024-07-20T09:24:54.239Z</time>
      </trkpt>
      <trkpt lat="53.69559" lon="11.07747">
        <ele>103.940516</ele>
        <time>2024-07-20T09:24:57.226Z</time>
      </trkpt>
      <trkpt lat="53.69559" lon="11.07762">
        <ele>103.854547</ele>
        <time>2024-07-20T09:25:00.231Z</time>
      </trkpt>
      <trkpt lat="53.69558" lon="11.07781">
        <ele>103.750438</ele>
        <time>2024-07-20T09:25:04.234Z</time>
      </trkpt>
      <trkpt lat="53.69558" lon="11.078">
        <ele>103.645456</ele>
        <time>2024-07-20T09:25:08.233Z</time>
      </trkpt>
      <trkpt lat="53.69558" lon="11.07815">
        <ele>103.538504</ele>
        <time>2024-07-20T09:25:11.242Z</time>
      </trkpt>
      <trkpt lat="53.69558" lon="11.07831">
        <ele>103.426854</ele>
        <time>2024-07-20T09:25:14.235Z</time>
      </trkpt>
      <trkpt lat="53.69559" lon="11.07849">
        <ele>103.295163</ele>
        <time>2024-07-20T09:25:17.241Z</time>
      </trkpt>
      <trkpt lat="53.69559" lon="11.07868">
        <ele>103.157898</ele>
        <time>2024-07-20T09:25:20.238Z</time>
      </trkpt>
      <trkpt lat="53.69559" lon="11.07888">
        <ele>103.015495</ele>
        <time>2024-07-20T09:25:23.237Z</time>
      </trkpt>
      <trkpt lat="53.6956" lon="11.0791">
        <ele>102.864011</ele>
        <time>2024-07-20T09:25:26.235Z</time>
      </trkpt>
      <trkpt lat="53.69561" lon="11.07929">
        <ele>102.724118</ele>
        <time>2024-07-20T09:25:29.241Z</time>
      </trkpt>
      <trkpt lat="53.69561" lon="11.07947">
        <ele>102.595385</ele>
        <time>2024-07-20T09:25:32.229Z</time>
      </trkpt>
      <trkpt lat="53.69561" lon="11.07964">
        <ele>102.47932</ele>
        <time>2024-07-20T09:25:35.260Z</time>
      </trkpt>
      <trkpt lat="53.69561" lon="11.07982">
        <ele>102.347744</ele>
        <time>2024-07-20T09:25:38.254Z</time>
      </trkpt>
      <trkpt lat="53.69562" lon="11.08003">
        <ele>102.197528</ele>
        <time>2024-07-20T09:25:41.243Z</time>
      </trkpt>
      <trkpt lat="53.69562" lon="11.0802">
        <ele>102.080907</ele>
        <time>2024-07-20T09:25:43.243Z</time>
      </trkpt>
      <trkpt lat="53.69563" lon="11.08035">
        <ele>101.971447</ele>
        <time>2024-07-20T09:25:45.249Z</time>
      </trkpt>
      <trkpt lat="53.69564" lon="11.08051">
        <ele>101.860196</ele>
        <time>2024-07-20T09:25:47.237Z</time>
      </trkpt>
      <trkpt lat="53.69564" lon="11.08067">
        <ele>101.745702</ele>
        <time>2024-07-20T09:25:49.233Z</time>
      </trkpt>
      <trkpt lat="53.69564" lon="11.08083">
        <ele>101.630447</ele>
        <time>2024-07-20T09:25:51.245Z</time>
      </trkpt>
      <trkpt lat="53.69564" lon="11.08105">
        <ele>101.468654</ele>
        <time>2024-07-20T09:25:54.253Z</time>
      </trkpt>
      <trkpt lat="53.69565" lon="11.08122">
        <ele>101.244634</ele>
        <time>2024-07-20T09:25:56.258Z</time>
      </trkpt>
      <trkpt lat="53.69565" lon="11.08139">
        <ele>101.014348</ele>
        <time>2024-07-20T09:25:58.240Z</time>
      </trkpt>
      <trkpt lat="53.69565" lon="11.08155">
        <ele>100.789537</ele>
        <time>2024-07-20T09:26:00.252Z</time>
      </trkpt>
      <trkpt lat="53.69565" lon="11.08174">
        <ele>100.541842</ele>
        <time>2024-07-20T09:26:02.260Z</time>
      </trkpt>
      <trkpt lat="53.69566" lon="11.08193">
        <ele>100.288682</ele>
        <time>2024-07-20T09:26:04.239Z</time>
      </trkpt>
      <trkpt lat="53.69566" lon="11.08214">
        <ele>99.99509</ele>
        <time>2024-07-20T09:26:07.225Z</time>
      </trkpt>
      <trkpt lat="53.69567" lon="11.08234">
        <ele>99.726974</ele>
        <time>2024-07-20T09:26:10.227Z</time>
      </trkpt>
      <trkpt lat="53.69567" lon="11.08254">
        <ele>99.468521</ele>
        <time>2024-07-20T09:26:13.236Z</time>
      </trkpt>
      <trkpt lat="53.69567" lon="11.08275">
        <ele>99.173715</ele>
        <time>2024-07-20T09:26:16.224Z</time>
      </trkpt>
      <trkpt lat="53.69567" lon="11.08292">
        <ele>98.954252</ele>
        <time>2024-07-20T09:26:18.233Z</time>
      </trkpt>
      <trkpt lat="53.69567" lon="11.0831">
        <ele>98.713288</ele>
        <time>2024-07-20T09:26:20.243Z</time>
      </trkpt>
      <trkpt lat="53.69567" lon="11.08329">
        <ele>98.458864</ele>
        <time>2024-07-20T09:26:22.240Z</time>
      </trkpt>
      <trkpt lat="53.69567" lon="11.08347">
        <ele>98.209792</ele>
        <time>2024-07-20T09:26:24.235Z</time>
      </trkpt>
      <trkpt lat="53.69567" lon="11.08367">
        <ele>97.94682</ele>
        <time>2024-07-20T09:26:26.236Z</time>
      </trkpt>
      <trkpt lat="53.69569" lon="11.08386">
        <ele>97.677559</ele>
        <time>2024-07-20T09:26:28.233Z</time>
      </trkpt>
      <trkpt lat="53.69569" lon="11.08407">
        <ele>97.399665</ele>
        <time>2024-07-20T09:26:30.235Z</time>
      </trkpt>
      <trkpt lat="53.6957" lon="11.08429">
        <ele>97.34006</ele>
        <time>2024-07-20T09:26:32.238Z</time>
      </trkpt>
      <trkpt lat="53.6957" lon="11.0845">
        <ele>97.290049</ele>
        <time>2024-07-20T09:26:34.241Z</time>
      </trkpt>
      <trkpt lat="53.6957" lon="11.08472">
        <ele>97.240294</ele>
        <time>2024-07-20T09:26:36.228Z</time>
      </trkpt>
      <trkpt lat="53.69572" lon="11.08494">
        <ele>97.188674</ele>
        <time>2024-07-20T09:26:38.212Z</time>
      </trkpt>
      <trkpt lat="53.69572" lon="11.08516">
        <ele>97.136769</ele>
        <time>2024-07-20T09:26:40.228Z</time>
      </trkpt>
      <trkpt lat="53.69573" lon="11.08538">
        <ele>97.086234</ele>
        <time>2024-07-20T09:26:42.227Z</time>
      </trkpt>
      <trkpt lat="53.69573" lon="11.08559">
        <ele>97.037882</ele>
        <time>2024-07-20T09:26:44.237Z</time>
      </trkpt>
      <trkpt lat="53.69573" lon="11.08579">
        <ele>96.991858</ele>
        <time>2024-07-20T09:26:46.239Z</time>
      </trkpt>
      <trkpt lat="53.69574" lon="11.08598">
        <ele>96.946751</ele>
        <time>2024-07-20T09:26:48.248Z</time>
      </trkpt>
      <trkpt lat="53.69574" lon="11.08617">
        <ele>96.901412</ele>
        <time>2024-07-20T09:26:50.238Z</time>
      </trkpt>
      <trkpt lat="53.69576" lon="11.08634">
        <ele>96.861339</ele>
        <time>2024-07-20T09:26:52.220Z</time>
      </trkpt>
      <trkpt lat="53.69578" lon="11.0865">
        <ele>96.824198</ele>
        <time>2024-07-20T09:26:54.245Z</time>
      </trkpt>
      <trkpt lat="53.69579" lon="11.08665">
        <ele>96.788461</ele>
        <time>2024-07-20T09:26:56.233Z</time>
      </trkpt>
      <trkpt lat="53.6958" lon="11.08684">
        <ele>96.744356</ele>
        <time>2024-07-20T09:26:59.259Z</time>
      </trkpt>
      <trkpt lat="53.6958" lon="11.08702">
        <ele>96.702511</ele>
        <time>2024-07-20T09:27:02.238Z</time>
      </trkpt>
      <trkpt lat="53.6958" lon="11.0872">
        <ele>96.717366</ele>
        <time>2024-07-20T09:27:05.254Z</time>
      </trkpt>
      <trkpt lat="53.6958" lon="11.08739">
        <ele>96.783478</ele>
        <time>2024-07-20T09:27:08.247Z</time>
      </trkpt>
      <trkpt lat="53.69581" lon="11.08759">
        <ele>96.854623</ele>
        <time>2024-07-20T09:27:11.259Z</time>
      </trkpt>
      <trkpt lat="53.69581" lon="11.08778">
        <ele>96.921452</ele>
        <time>2024-07-20T09:27:14.249Z</time>
      </trkpt>
      <trkpt lat="53.69581" lon="11.08796">
        <ele>96.985468</ele>
        <time>2024-07-20T09:27:17.241Z</time>
      </trkpt>
      <trkpt lat="53.69582" lon="11.08816">
        <ele>97.052836</ele>
        <time>2024-07-20T09:27:20.235Z</time>
      </trkpt>
      <trkpt lat="53.69582" lon="11.08836">
        <ele>97.125991</ele>
        <time>2024-07-20T09:27:23.238Z</time>
      </trkpt>
      <trkpt lat="53.69582" lon="11.08858">
        <ele>97.200885</ele>
        <time>2024-07-20T09:27:26.249Z</time>
      </trkpt>
      <trkpt lat="53.69582" lon="11.08878">
        <ele>97.273689</ele>
        <time>2024-07-20T09:27:29.239Z</time>
      </trkpt>
      <trkpt lat="53.69583" lon="11.08898">
        <ele>97.342977</ele>
        <time>2024-07-20T09:27:32.237Z</time>
      </trkpt>
      <trkpt lat="53.69582" lon="11.08917">
        <ele>97.410175</ele>
        <time>2024-07-20T09:27:36.241Z</time>
      </trkpt>
      <trkpt lat="53.69582" lon="11.08936">
        <ele>97.478037</ele>
        <time>2024-07-20T09:27:40.236Z</time>
      </trkpt>
      <trkpt lat="53.69582" lon="11.08953">
        <ele>97.53643</ele>
        <time>2024-07-20T09:27:43.250Z</time>
      </trkpt>
      <trkpt lat="53.69583" lon="11.08972">
        <ele>97.60152</ele>
        <time>2024-07-20T09:27:46.242Z</time>
      </trkpt>
      <trkpt lat="53.69583" lon="11.08991">
        <ele>97.66842</ele>
        <time>2024-07-20T09:27:49.251Z</time>
      </trkpt>
      <trkpt lat="53.69584" lon="11.09011">
        <ele>97.740186</ele>
        <time>2024-07-20T09:27:52.241Z</time>
      </trkpt>
      <trkpt lat="53.69584" lon="11.09032">
        <ele>97.591076</ele>
        <time>2024-07-20T09:27:55.247Z</time>
      </trkpt>
      <trkpt lat="53.69585" lon="11.09053">
        <ele>97.393891</ele>
        <time>2024-07-20T09:27:58.252Z</time>
      </trkpt>
      <trkpt lat="53.69585" lon="11.09075">
        <ele>97.189678</ele>
        <time>2024-07-20T09:28:01.259Z</time>
      </trkpt>
      <trkpt lat="53.69585" lon="11.09092">
        <ele>97.035824</ele>
        <time>2024-07-20T09:28:03.227Z</time>
      </trkpt>
      <trkpt lat="53.69585" lon="11.09109">
        <ele>96.879953</ele>
        <time>2024-07-20T09:28:05.241Z</time>
      </trkpt>
      <trkpt lat="53.69585" lon="11.09128">
        <ele>96.707681</ele>
        <time>2024-07-20T09:28:07.247Z</time>
      </trkpt>
      <trkpt lat="53.69585" lon="11.09149">
        <ele>96.510793</ele>
        <time>2024-07-20T09:28:09.231Z</time>
      </trkpt>
      <trkpt lat="53.69586" lon="11.09172">
        <ele>96.306434</ele>
        <time>2024-07-20T09:28:11.241Z</time>
      </trkpt>
      <trkpt lat="53.69587" lon="11.09194">
        <ele>96.10102</ele>
        <time>2024-07-20T09:28:13.234Z</time>
      </trkpt>
      <trkpt lat="53.69587" lon="11.09216">
        <ele>95.900416</ele>
        <time>2024-07-20T09:28:15.230Z</time>
      </trkpt>
      <trkpt lat="53.69587" lon="11.09238">
        <ele>95.703432</ele>
        <time>2024-07-20T09:28:17.225Z</time>
      </trkpt>
      <trkpt lat="53.69588" lon="11.09257">
        <ele>95.525533</ele>
        <time>2024-07-20T09:28:19.229Z</time>
      </trkpt>
      <trkpt lat="53.69589" lon="11.09274">
        <ele>95.364911</ele>
        <time>2024-07-20T09:28:21.220Z</time>
      </trkpt>
      <trkpt lat="53.69589" lon="11.09291">
        <ele>95.210118</ele>
        <time>2024-07-20T09:28:23.238Z</time>
      </trkpt>
      <trkpt lat="53.69589" lon="11.09309">
        <ele>95.046169</ele>
        <time>2024-07-20T09:28:25.241Z</time>
      </trkpt>
      <trkpt lat="53.6959" lon="11.09325">
        <ele>94.924078</ele>
        <time>2024-07-20T09:28:27.237Z</time>
      </trkpt>
      <trkpt lat="53.6959" lon="11.09346">
        <ele>94.797516</ele>
        <time>2024-07-20T09:28:30.255Z</time>
      </trkpt>
      <trkpt lat="53.69591" lon="11.09364">
        <ele>94.68378</ele>
        <time>2024-07-20T09:28:33.241Z</time>
      </trkpt>
      <trkpt lat="53.69591" lon="11.09383">
        <ele>94.57056</ele>
        <time>2024-07-20T09:28:36.257Z</time>
      </trkpt>
      <trkpt lat="53.69591" lon="11.09402">
        <ele>94.452581</ele>
        <time>2024-07-20T09:28:39.240Z</time>
      </trkpt>
      <trkpt lat="53.69591" lon="11.09421">
        <ele>94.335212</ele>
        <time>2024-07-20T09:28:42.241Z</time>
      </trkpt>
      <trkpt lat="53.69585" lon="11.09435">
        <ele>94.234568</ele>
        <time>2024-07-20T09:28:45.238Z</time>
      </trkpt>
      <trkpt lat="53.69584" lon="11.09451">
        <ele>94.136436</ele>
        <time>2024-07-20T09:28:51.219Z</time>
      </trkpt>
      <trkpt lat="53.69586" lon="11.09434">
        <ele>94.032688</ele>
        <time>2024-07-20T09:29:03.229Z</time>
      </trkpt>
      <trkpt lat="53.69596" lon="11.09434">
        <ele>93.93042</ele>
        <time>2024-07-20T09:29:11.235Z</time>
      </trkpt>
      <trkpt lat="53.69596" lon="11.09449">
        <ele>93.83367</ele>
        <time>2024-07-20T09:29:15.238Z</time>
      </trkpt>
      <trkpt lat="53.69595" lon="11.09467">
        <ele>93.725332</ele>
        <time>2024-07-20T09:29:18.255Z</time>
      </trkpt>
      <trkpt lat="53.69595" lon="11.09489">
        <ele>93.591501</ele>
        <time>2024-07-20T09:29:21.235Z</time>
      </trkpt>
      <trkpt lat="53.69594" lon="11.09505">
        <ele>93.495361</ele>
        <time>2024-07-20T09:29:23.235Z</time>
      </trkpt>
      <trkpt lat="53.69594" lon="11.09521">
        <ele>93.396366</ele>
        <time>2024-07-20T09:29:25.243Z</time>
      </trkpt>
      <trkpt lat="53.69595" lon="11.09537">
        <ele>93.296128</ele>
        <time>2024-07-20T09:29:27.257Z</time>
      </trkpt>
      <trkpt lat="53.69595" lon="11.09555">
        <ele>93.188533</ele>
        <time>2024-07-20T09:29:29.258Z</time>
      </trkpt>
      <trkpt lat="53.69595" lon="11.09572">
        <ele>93.115586</ele>
        <time>2024-07-20T09:29:31.239Z</time>
      </trkpt>
      <trkpt lat="53.69596" lon="11.09591">
        <ele>93.125693</ele>
        <time>2024-07-20T09:29:33.236Z</time>
      </trkpt>
      <trkpt lat="53.69596" lon="11.09609">
        <ele>93.135267</ele>
        <time>2024-07-20T09:29:35.229Z</time>
      </trkpt>
      <trkpt lat="53.69597" lon="11.09626">
        <ele>93.144466</ele>
        <time>2024-07-20T09:29:37.258Z</time>
      </trkpt>
      <trkpt lat="53.69597" lon="11.09643">
        <ele>93.153655</ele>
        <time>2024-07-20T09:29:39.233Z</time>
      </trkpt>
      <trkpt lat="53.69596" lon="11.0966">
        <ele>93.162972</ele>
        <time>2024-07-20T09:29:41.217Z</time>
      </trkpt>
      <trkpt lat="53.69596" lon="11.09677">
        <ele>93.171729</ele>
        <time>2024-07-20T09:29:43.226Z</time>
      </trkpt>
      <trkpt lat="53.69598" lon="11.09693">
        <ele>93.180698</ele>
        <time>2024-07-20T09:29:45.238Z</time>
      </trkpt>
      <trkpt lat="53.69605" lon="11.0971">
        <ele>93.191862</ele>
        <time>2024-07-20T09:29:48.228Z</time>
      </trkpt>
      <trkpt lat="53.69607" lon="11.09727">
        <ele>93.20121</ele>
        <time>2024-07-20T09:29:51.227Z</time>
      </trkpt>
      <trkpt lat="53.69599" lon="11.09741">
        <ele>93.211859</ele>
        <time>2024-07-20T09:29:54.237Z</time>
      </trkpt>
      <trkpt lat="53.6959" lon="11.09754">
        <ele>93.222398</ele>
        <time>2024-07-20T09:29:57.210Z</time>
      </trkpt>
      <trkpt lat="53.69581" lon="11.09764">
        <ele>93.232174</ele>
        <time>2024-07-20T09:30:00.235Z</time>
      </trkpt>
      <trkpt lat="53.69563" lon="11.0979">
        <ele>93.253597</ele>
        <time>2024-07-20T09:30:22.229Z</time>
      </trkpt>
      <trkpt lat="53.69554" lon="11.09801">
        <ele>93.263661</ele>
        <time>2024-07-20T09:30:25.237Z</time>
      </trkpt>
      <trkpt lat="53.69545" lon="11.09813">
        <ele>93.274342</ele>
        <time>2024-07-20T09:30:28.243Z</time>
      </trkpt>
      <trkpt lat="53.69537" lon="11.09828">
        <ele>93.268212</ele>
        <time>2024-07-20T09:30:31.236Z</time>
      </trkpt>
      <trkpt lat="53.69528" lon="11.09843">
        <ele>93.258751</ele>
        <time>2024-07-20T09:30:34.238Z</time>
      </trkpt>
      <trkpt lat="53.69521" lon="11.09857">
        <ele>93.24992</ele>
        <time>2024-07-20T09:30:37.239Z</time>
      </trkpt>
      <trkpt lat="53.6951" lon="11.09882">
        <ele>93.23569</ele>
        <time>2024-07-20T09:30:56.233Z</time>
      </trkpt>
      <trkpt lat="53.69504" lon="11.09895">
        <ele>93.228033</ele>
        <time>2024-07-20T09:30:59.228Z</time>
      </trkpt>
      <trkpt lat="53.69498" lon="11.0991">
        <ele>93.219887</ele>
        <time>2024-07-20T09:31:02.230Z</time>
      </trkpt>
      <trkpt lat="53.69492" lon="11.09926">
        <ele>93.210979</ele>
        <time>2024-07-20T09:31:05.236Z</time>
      </trkpt>
      <trkpt lat="53.69484" lon="11.09943">
        <ele>93.201225</ele>
        <time>2024-07-20T09:31:08.245Z</time>
      </trkpt>
      <trkpt lat="53.69477" lon="11.09961">
        <ele>93.191239</ele>
        <time>2024-07-20T09:31:11.225Z</time>
      </trkpt>
      <trkpt lat="53.6947" lon="11.09977">
        <ele>93.181743</ele>
        <time>2024-07-20T09:31:14.241Z</time>
      </trkpt>
      <trkpt lat="53.69462" lon="11.09997">
        <ele>93.17092</ele>
        <time>2024-07-20T09:31:17.224Z</time>
      </trkpt>
      <trkpt lat="53.69457" lon="11.10011">
        <ele>93.163197</ele>
        <time>2024-07-20T09:31:19.228Z</time>
      </trkpt>
      <trkpt lat="53.69451" lon="11.10026">
        <ele>93.155476</ele>
        <time>2024-07-20T09:31:21.236Z</time>
      </trkpt>
      <trkpt lat="53.69446" lon="11.1004">
        <ele>93.147795</ele>
        <time>2024-07-20T09:31:23.240Z</time>
      </trkpt>
      <trkpt lat="53.69441" lon="11.10054">
        <ele>93.140194</ele>
        <time>2024-07-20T09:31:25.239Z</time>
      </trkpt>
      <trkpt lat="53.69437" lon="11.10068">
        <ele>93.067857</ele>
        <time>2024-07-20T09:31:27.227Z</time>
      </trkpt>
      <trkpt lat="53.69433" lon="11.10083">
        <ele>92.918974</ele>
        <time>2024-07-20T09:31:29.224Z</time>
      </trkpt>
      <trkpt lat="53.69427" lon="11.10099">
        <ele>92.76204</ele>
        <time>2024-07-20T09:31:31.226Z</time>
      </trkpt>
      <trkpt lat="53.69422" lon="11.10114">
        <ele>92.602019</ele>
        <time>2024-07-20T09:31:33.240Z</time>
      </trkpt>
      <trkpt lat="53.69414" lon="11.10132">
        <ele>92.410034</ele>
        <time>2024-07-20T09:31:35.226Z</time>
      </trkpt>
      <trkpt lat="53.69405" lon="11.10152">
        <ele>92.185379</ele>
        <time>2024-07-20T09:31:37.242Z</time>
      </trkpt>
      <trkpt lat="53.69397" lon="11.10172">
        <ele>91.967014</ele>
        <time>2024-07-20T09:31:39.239Z</time>
      </trkpt>
      <trkpt lat="53.69391" lon="11.10194">
        <ele>91.758831</ele>
        <time>2024-07-20T09:31:41.254Z</time>
      </trkpt>
      <trkpt lat="53.69388" lon="11.10215">
        <ele>91.559688</ele>
        <time>2024-07-20T09:31:43.237Z</time>
      </trkpt>
      <trkpt lat="53.69384" lon="11.10236">
        <ele>91.363942</ele>
        <time>2024-07-20T09:31:45.243Z</time>
      </trkpt>
      <trkpt lat="53.69381" lon="11.10256">
        <ele>91.179208</ele>
        <time>2024-07-20T09:31:47.266Z</time>
      </trkpt>
      <trkpt lat="53.69378" lon="11.10275">
        <ele>91.006634</ele>
        <time>2024-07-20T09:31:49.235Z</time>
      </trkpt>
      <trkpt lat="53.69376" lon="11.10295">
        <ele>90.830665</ele>
        <time>2024-07-20T09:31:51.266Z</time>
      </trkpt>
      <trkpt lat="53.69374" lon="11.10314">
        <ele>90.652079</ele>
        <time>2024-07-20T09:31:53.237Z</time>
      </trkpt>
      <trkpt lat="53.69372" lon="11.10333">
        <ele>90.481174</ele>
        <time>2024-07-20T09:31:55.239Z</time>
      </trkpt>
      <trkpt lat="53.6937" lon="11.10351">
        <ele>90.380188</ele>
        <time>2024-07-20T09:31:57.238Z</time>
      </trkpt>
      <trkpt lat="53.69368" lon="11.10368">
        <ele>90.30716</ele>
        <time>2024-07-20T09:31:59.238Z</time>
      </trkpt>
      <trkpt lat="53.69367" lon="11.10386">
        <ele>90.232966</ele>
        <time>2024-07-20T09:32:01.259Z</time>
      </trkpt>
      <trkpt lat="53.69366" lon="11.10402">
        <ele>90.164824</ele>
        <time>2024-07-20T09:32:03.238Z</time>
      </trkpt>
      <trkpt lat="53.69365" lon="11.10418">
        <ele>90.097933</ele>
        <time>2024-07-20T09:32:05.245Z</time>
      </trkpt>
      <trkpt lat="53.69364" lon="11.10434">
        <ele>90.030625</ele>
        <time>2024-07-20T09:32:07.242Z</time>
      </trkpt>
      <trkpt lat="53.69362" lon="11.10456">
        <ele>89.937102</ele>
        <time>2024-07-20T09:32:10.258Z</time>
      </trkpt>
      <trkpt lat="53.6936" lon="11.10477">
        <ele>89.847721</ele>
        <time>2024-07-20T09:32:13.215Z</time>
      </trkpt>
      <trkpt lat="53.6936" lon="11.10499">
        <ele>89.754653</ele>
        <time>2024-07-20T09:32:16.248Z</time>
      </trkpt>
      <trkpt lat="53.69358" lon="11.10515">
        <ele>89.689922</ele>
        <time>2024-07-20T09:32:18.243Z</time>
      </trkpt>
      <trkpt lat="53.69357" lon="11.10531">
        <ele>89.620116</ele>
        <time>2024-07-20T09:32:20.243Z</time>
      </trkpt>
      <trkpt lat="53.69355" lon="11.10549">
        <ele>89.544492</ele>
        <time>2024-07-20T09:32:22.244Z</time>
      </trkpt>
      <trkpt lat="53.69354" lon="11.10567">
        <ele>89.468709</ele>
        <time>2024-07-20T09:32:24.255Z</time>
      </trkpt>
      <trkpt lat="53.69353" lon="11.10585">
        <ele>89.392482</ele>
        <time>2024-07-20T09:32:26.247Z</time>
      </trkpt>
      <trkpt lat="53.69351" lon="11.10603">
        <ele>89.316868</ele>
        <time>2024-07-20T09:32:28.248Z</time>
      </trkpt>
      <trkpt lat="53.6935" lon="11.1062">
        <ele>89.244666</ele>
        <time>2024-07-20T09:32:30.253Z</time>
      </trkpt>
      <trkpt lat="53.69349" lon="11.10636">
        <ele>89.17873</ele>
        <time>2024-07-20T09:32:32.240Z</time>
      </trkpt>
      <trkpt lat="53.69348" lon="11.10652">
        <ele>89.065939</ele>
        <time>2024-07-20T09:32:34.253Z</time>
      </trkpt>
      <trkpt lat="53.69347" lon="11.10668">
        <ele>88.935743</ele>
        <time>2024-07-20T09:32:36.256Z</time>
      </trkpt>
      <trkpt lat="53.69345" lon="11.10685">
        <ele>88.801564</ele>
        <time>2024-07-20T09:32:38.239Z</time>
      </trkpt>
      <trkpt lat="53.69344" lon="11.10702">
        <ele>88.665597</ele>
        <time>2024-07-20T09:32:40.241Z</time>
      </trkpt>
      <trkpt lat="53.69342" lon="11.10718">
        <ele>88.533837</ele>
        <time>2024-07-20T09:32:42.217Z</time>
      </trkpt>
      <trkpt lat="53.69341" lon="11.10735">
        <ele>88.397379</ele>
        <time>2024-07-20T09:32:44.244Z</time>
      </trkpt>
      <trkpt lat="53.6934" lon="11.10752">
        <ele>88.266912</ele>
        <time>2024-07-20T09:32:46.240Z</time>
      </trkpt>
      <trkpt lat="53.69338" lon="11.10767">
        <ele>88.1446</ele>
        <time>2024-07-20T09:32:48.237Z</time>
      </trkpt>
      <trkpt lat="53.69336" lon="11.10788">
        <ele>87.973922</ele>
        <time>2024-07-20T09:32:51.260Z</time>
      </trkpt>
      <trkpt lat="53.69335" lon="11.10808">
        <ele>87.818162</ele>
        <time>2024-07-20T09:32:54.224Z</time>
      </trkpt>
      <trkpt lat="53.69333" lon="11.10827">
        <ele>87.666395</ele>
        <time>2024-07-20T09:32:57.239Z</time>
      </trkpt>
      <trkpt lat="53.69332" lon="11.10848">
        <ele>87.496475</ele>
        <time>2024-07-20T09:33:00.244Z</time>
      </trkpt>
      <trkpt lat="53.6933" lon="11.10864">
        <ele>87.366081</ele>
        <time>2024-07-20T09:33:02.235Z</time>
      </trkpt>
      <trkpt lat="53.69329" lon="11.10882">
        <ele>87.229799</ele>
        <time>2024-07-20T09:33:04.251Z</time>
      </trkpt>
      <trkpt lat="53.69327" lon="11.10903">
        <ele>87.057725</ele>
        <time>2024-07-20T09:33:06.239Z</time>
      </trkpt>
      <trkpt lat="53.69326" lon="11.1093">
        <ele>86.841227</ele>
        <time>2024-07-20T09:33:08.248Z</time>
      </trkpt>
      <trkpt lat="53.69324" lon="11.1096">
        <ele>86.574077</ele>
        <time>2024-07-20T09:33:10.252Z</time>
      </trkpt>
      <trkpt lat="53.69323" lon="11.10975">
        <ele>86.419543</ele>
        <time>2024-07-20T09:33:11.267Z</time>
      </trkpt>
      <trkpt lat="53.69321" lon="11.11005">
        <ele>86.133226</ele>
        <time>2024-07-20T09:33:13.240Z</time>
      </trkpt>
      <trkpt lat="53.69319" lon="11.11032">
        <ele>85.868213</ele>
        <time>2024-07-20T09:33:15.246Z</time>
      </trkpt>
      <trkpt lat="53.69317" lon="11.11058">
        <ele>85.614826</ele>
        <time>2024-07-20T09:33:17.235Z</time>
      </trkpt>
      <trkpt lat="53.69315" lon="11.11084">
        <ele>85.357633</ele>
        <time>2024-07-20T09:33:19.236Z</time>
      </trkpt>
      <trkpt lat="53.69313" lon="11.1111">
        <ele>85.10387</ele>
        <time>2024-07-20T09:33:21.269Z</time>
      </trkpt>
      <trkpt lat="53.6931" lon="11.11136">
        <ele>84.844013</ele>
        <time>2024-07-20T09:33:23.244Z</time>
      </trkpt>
      <trkpt lat="53.69306" lon="11.11161">
        <ele>84.594583</ele>
        <time>2024-07-20T09:33:25.236Z</time>
      </trkpt>
      <trkpt lat="53.69303" lon="11.11185">
        <ele>84.357221</ele>
        <time>2024-07-20T09:33:27.247Z</time>
      </trkpt>
      <trkpt lat="53.69299" lon="11.11208">
        <ele>84.12442</ele>
        <time>2024-07-20T09:33:29.239Z</time>
      </trkpt>
      <trkpt lat="53.69294" lon="11.11229">
        <ele>83.910231</ele>
        <time>2024-07-20T09:33:31.240Z</time>
      </trkpt>
      <trkpt lat="53.69287" lon="11.11244">
        <ele>84.024728</ele>
        <time>2024-07-20T09:33:33.242Z</time>
      </trkpt>
      <trkpt lat="53.69278" lon="11.11253">
        <ele>84.41004</ele>
        <time>2024-07-20T09:33:35.233Z</time>
      </trkpt>
      <trkpt lat="53.69269" lon="11.11259">
        <ele>84.755729</ele>
        <time>2024-07-20T09:33:37.238Z</time>
      </trkpt>
      <trkpt lat="53.69259" lon="11.11269">
        <ele>85.181243</ele>
        <time>2024-07-20T09:33:40.228Z</time>
      </trkpt>
      <trkpt lat="53.6925" lon="11.11276">
        <ele>85.530471</ele>
        <time>2024-07-20T09:33:43.230Z</time>
      </trkpt>
      <trkpt lat="53.69239" lon="11.11275">
        <ele>85.932326</ele>
        <time>2024-07-20T09:33:47.239Z</time>
      </trkpt>
      <trkpt lat="53.69231" lon="11.1127">
        <ele>86.277684</ele>
        <time>2024-07-20T09:33:51.242Z</time>
      </trkpt>
      <trkpt lat="53.69221" lon="11.1126">
        <ele>86.691581</ele>
        <time>2024-07-20T09:33:56.253Z</time>
      </trkpt>
      <trkpt lat="53.69213" lon="11.11249">
        <ele>87.075236</ele>
        <time>2024-07-20T09:34:00.238Z</time>
      </trkpt>
      <trkpt lat="53.69207" lon="11.11237">
        <ele>87.410194</ele>
        <time>2024-07-20T09:34:04.239Z</time>
      </trkpt>
      <trkpt lat="53.69201" lon="11.11224">
        <ele>87.759984</ele>
        <time>2024-07-20T09:34:08.254Z</time>
      </trkpt>
      <trkpt lat="53.69195" lon="11.11209">
        <ele>88.146373</ele>
        <time>2024-07-20T09:34:12.253Z</time>
      </trkpt>
      <trkpt lat="53.69189" lon="11.11194">
        <ele>88.539212</ele>
        <time>2024-07-20T09:34:17.249Z</time>
      </trkpt>
      <trkpt lat="53.69191" lon="11.11177">
        <ele>88.91265</ele>
        <time>2024-07-20T09:34:23.233Z</time>
      </trkpt>
      <trkpt lat="53.69195" lon="11.11161">
        <ele>89.284801</ele>
        <time>2024-07-20T09:34:27.259Z</time>
      </trkpt>
      <trkpt lat="53.69203" lon="11.11147">
        <ele>89.695229</ele>
        <time>2024-07-20T09:34:30.244Z</time>
      </trkpt>
      <trkpt lat="53.6921" lon="11.11137">
        <ele>90.029024</ele>
        <time>2024-07-20T09:34:33.237Z</time>
      </trkpt>
      <trkpt lat="53.69219" lon="11.1114">
        <ele>90.370034</ele>
        <time>2024-07-20T09:34:36.237Z</time>
      </trkpt>
      <trkpt lat="53.69227" lon="11.1115">
        <ele>90.23847</ele>
        <time>2024-07-20T09:34:41.256Z</time>
      </trkpt>
      <trkpt lat="53.69237" lon="11.11145">
        <ele>90.07936</ele>
        <time>2024-07-20T09:34:47.243Z</time>
      </trkpt>
      <trkpt lat="53.69245" lon="11.11152">
        <ele>89.941295</ele>
        <time>2024-07-20T09:34:51.256Z</time>
      </trkpt>
      <trkpt lat="53.69254" lon="11.11159">
        <ele>89.798605</ele>
        <time>2024-07-20T09:34:54.242Z</time>
      </trkpt>
      <trkpt lat="53.69263" lon="11.11164">
        <ele>89.656236</ele>
        <time>2024-07-20T09:34:57.236Z</time>
      </trkpt>
      <trkpt lat="53.69273" lon="11.11168">
        <ele>89.500955</ele>
        <time>2024-07-20T09:35:00.223Z</time>
      </trkpt>
      <trkpt lat="53.69283" lon="11.11172">
        <ele>89.352091</ele>
        <time>2024-07-20T09:35:03.240Z</time>
      </trkpt>
      <trkpt lat="53.69292" lon="11.11176">
        <ele>89.202618</ele>
        <time>2024-07-20T09:35:06.255Z</time>
      </trkpt>
      <trkpt lat="53.69302" lon="11.1118">
        <ele>89.048596</ele>
        <time>2024-07-20T09:35:09.240Z</time>
      </trkpt>
      <trkpt lat="53.69312" lon="11.11184">
        <ele>88.892911</ele>
        <time>2024-07-20T09:35:12.239Z</time>
      </trkpt>
      <trkpt lat="53.69323" lon="11.11188">
        <ele>88.726378</ele>
        <time>2024-07-20T09:35:15.254Z</time>
      </trkpt>
      <trkpt lat="53.69334" lon="11.11193">
        <ele>88.549911</ele>
        <time>2024-07-20T09:35:18.254Z</time>
      </trkpt>
      <trkpt lat="53.69346" lon="11.11197">
        <ele>88.366769</ele>
        <time>2024-07-20T09:35:21.248Z</time>
      </trkpt>
      <trkpt lat="53.69357" lon="11.11198">
        <ele>88.205356</ele>
        <time>2024-07-20T09:35:24.252Z</time>
      </trkpt>
      <trkpt lat="53.69368" lon="11.11196">
        <ele>88.041552</ele>
        <time>2024-07-20T09:35:27.236Z</time>
      </trkpt>
      <trkpt lat="53.69379" lon="11.11192">
        <ele>87.872837</ele>
        <time>2024-07-20T09:35:30.258Z</time>
      </trkpt>
      <trkpt lat="53.6939" lon="11.11184">
        <ele>87.695628</ele>
        <time>2024-07-20T09:35:33.229Z</time>
      </trkpt>
      <trkpt lat="53.69402" lon="11.11176">
        <ele>87.587178</ele>
        <time>2024-07-20T09:35:36.256Z</time>
      </trkpt>
      <trkpt lat="53.6941" lon="11.1117">
        <ele>87.51606</ele>
        <time>2024-07-20T09:35:38.246Z</time>
      </trkpt>
      <trkpt lat="53.69421" lon="11.11161">
        <ele>87.42169</ele>
        <time>2024-07-20T09:35:41.254Z</time>
      </trkpt>
      <trkpt lat="53.69423" lon="11.11144">
        <ele>87.33776</ele>
        <time>2024-07-20T09:35:45.231Z</time>
      </trkpt>
      <trkpt lat="53.69428" lon="11.11157">
        <ele>87.263496</ele>
        <time>2024-07-20T09:35:51.240Z</time>
      </trkpt>
      <trkpt lat="53.69439" lon="11.11164">
        <ele>87.171625</ele>
        <time>2024-07-20T09:36:00.245Z</time>
      </trkpt>
      <trkpt lat="53.69448" lon="11.11159">
        <ele>87.100218</ele>
        <time>2024-07-20T09:36:03.236Z</time>
      </trkpt>
      <trkpt lat="53.69458" lon="11.11152">
        <ele>87.017098</ele>
        <time>2024-07-20T09:36:06.251Z</time>
      </trkpt>
      <trkpt lat="53.69467" lon="11.11147">
        <ele>86.938818</ele>
        <time>2024-07-20T09:36:09.253Z</time>
      </trkpt>
      <trkpt lat="53.69477" lon="11.11142">
        <ele>86.855153</ele>
        <time>2024-07-20T09:36:12.245Z</time>
      </trkpt>
      <trkpt lat="53.69489" lon="11.11138">
        <ele>86.765918</ele>
        <time>2024-07-20T09:36:15.236Z</time>
      </trkpt>
      <trkpt lat="53.695" lon="11.11137">
        <ele>86.674579</ele>
        <time>2024-07-20T09:36:18.244Z</time>
      </trkpt>
      <trkpt lat="53.69513" lon="11.11138">
        <ele>86.580222</ele>
        <time>2024-07-20T09:36:21.246Z</time>
      </trkpt>
      <trkpt lat="53.69525" lon="11.11136">
        <ele>86.483127</ele>
        <time>2024-07-20T09:36:24.240Z</time>
      </trkpt>
      <trkpt lat="53.69537" lon="11.11135">
        <ele>86.391033</ele>
        <time>2024-07-20T09:36:27.254Z</time>
      </trkpt>
      <trkpt lat="53.69548" lon="11.11135">
        <ele>86.301393</ele>
        <time>2024-07-20T09:36:30.242Z</time>
      </trkpt>
      <trkpt lat="53.69559" lon="11.11134">
        <ele>86.101408</ele>
        <time>2024-07-20T09:36:33.251Z</time>
      </trkpt>
      <trkpt lat="53.69569" lon="11.11134">
        <ele>85.860349</ele>
        <time>2024-07-20T09:36:36.245Z</time>
      </trkpt>
      <trkpt lat="53.69578" lon="11.11135">
        <ele>85.640221</ele>
        <time>2024-07-20T09:36:39.238Z</time>
      </trkpt>
      <trkpt lat="53.69582" lon="11.1115">
        <ele>85.411377</ele>
        <time>2024-07-20T09:36:43.242Z</time>
      </trkpt>
      <trkpt lat="53.6958" lon="11.11173">
        <ele>85.07897</ele>
        <time>2024-07-20T09:36:46.249Z</time>
      </trkpt>
      <trkpt lat="53.69579" lon="11.11191">
        <ele>84.826713</ele>
        <time>2024-07-20T09:36:48.254Z</time>
      </trkpt>
      <trkpt lat="53.69578" lon="11.11207">
        <ele>84.598808</ele>
        <time>2024-07-20T09:36:50.225Z</time>
      </trkpt>
      <trkpt lat="53.69578" lon="11.11222">
        <ele>84.380861</ele>
        <time>2024-07-20T09:36:52.237Z</time>
      </trkpt>
      <trkpt lat="53.69576" lon="11.11243">
        <ele>84.08166</ele>
        <time>2024-07-20T09:36:55.237Z</time>
      </trkpt>
      <trkpt lat="53.69574" lon="11.11264">
        <ele>83.782097</ele>
        <time>2024-07-20T09:36:58.241Z</time>
      </trkpt>
      <trkpt lat="53.6957" lon="11.11283">
        <ele>83.49408</ele>
        <time>2024-07-20T09:37:01.255Z</time>
      </trkpt>
      <trkpt lat="53.69566" lon="11.11303">
        <ele>83.202994</ele>
        <time>2024-07-20T09:37:04.245Z</time>
      </trkpt>
      <trkpt lat="53.69563" lon="11.11322">
        <ele>82.924494</ele>
        <time>2024-07-20T09:37:07.235Z</time>
      </trkpt>
      <trkpt lat="53.69559" lon="11.11341">
        <ele>82.637077</ele>
        <time>2024-07-20T09:37:10.249Z</time>
      </trkpt>
      <trkpt lat="53.69556" lon="11.11359">
        <ele>82.370738</ele>
        <time>2024-07-20T09:37:13.254Z</time>
      </trkpt>
      <trkpt lat="53.69556" lon="11.11381">
        <ele>82.067869</ele>
        <time>2024-07-20T09:37:16.224Z</time>
      </trkpt>
      <trkpt lat="53.69556" lon="11.11401">
        <ele>81.848885</ele>
        <time>2024-07-20T09:37:19.219Z</time>
      </trkpt>
      <trkpt lat="53.69556" lon="11.11416">
        <ele>81.701474</ele>
        <time>2024-07-20T09:37:21.260Z</time>
      </trkpt>
      <trkpt lat="53.69555" lon="11.11432">
        <ele>81.552144</ele>
        <time>2024-07-20T09:37:23.242Z</time>
      </trkpt>
      <trkpt lat="53.69554" lon="11.11449">
        <ele>81.38628</ele>
        <time>2024-07-20T09:37:25.241Z</time>
      </trkpt>
      <trkpt lat="53.69554" lon="11.11466">
        <ele>81.216955</ele>
        <time>2024-07-20T09:37:27.237Z</time>
      </trkpt>
      <trkpt lat="53.69554" lon="11.11484">
        <ele>81.051592</ele>
        <time>2024-07-20T09:37:29.258Z</time>
      </trkpt>
      <trkpt lat="53.69553" lon="11.11502">
        <ele>80.869778</ele>
        <time>2024-07-20T09:37:31.245Z</time>
      </trkpt>
      <trkpt lat="53.69553" lon="11.11521">
        <ele>80.688072</ele>
        <time>2024-07-20T09:37:33.250Z</time>
      </trkpt>
      <trkpt lat="53.69553" lon="11.1154">
        <ele>80.509074</ele>
        <time>2024-07-20T09:37:35.240Z</time>
      </trkpt>
      <trkpt lat="53.69552" lon="11.11557">
        <ele>80.341293</ele>
        <time>2024-07-20T09:37:37.235Z</time>
      </trkpt>
      <trkpt lat="53.69552" lon="11.11574">
        <ele>80.177861</ele>
        <time>2024-07-20T09:37:39.238Z</time>
      </trkpt>
      <trkpt lat="53.69556" lon="11.11595">
        <ele>79.964868</ele>
        <time>2024-07-20T09:37:42.242Z</time>
      </trkpt>
      <trkpt lat="53.69561" lon="11.11608">
        <ele>79.813919</ele>
        <time>2024-07-20T09:37:44.240Z</time>
      </trkpt>
      <trkpt lat="53.6957" lon="11.11625">
        <ele>79.60074</ele>
        <time>2024-07-20T09:37:47.231Z</time>
      </trkpt>
      <trkpt lat="53.69576" lon="11.11638">
        <ele>79.442595</ele>
        <time>2024-07-20T09:37:49.245Z</time>
      </trkpt>
      <trkpt lat="53.69583" lon="11.1165">
        <ele>79.275081</ele>
        <time>2024-07-20T09:37:51.252Z</time>
      </trkpt>
      <trkpt lat="53.6959" lon="11.11661">
        <ele>79.119834</ele>
        <time>2024-07-20T09:37:53.246Z</time>
      </trkpt>
      <trkpt lat="53.69599" lon="11.11676">
        <ele>79.206665</ele>
        <time>2024-07-20T09:37:56.271Z</time>
      </trkpt>
      <trkpt lat="53.69607" lon="11.11692">
        <ele>79.411961</ele>
        <time>2024-07-20T09:37:59.263Z</time>
      </trkpt>
      <trkpt lat="53.69615" lon="11.11707">
        <ele>79.613282</ele>
        <time>2024-07-20T09:38:02.246Z</time>
      </trkpt>
      <trkpt lat="53.69622" lon="11.11721">
        <ele>79.795955</ele>
        <time>2024-07-20T09:38:05.254Z</time>
      </trkpt>
      <trkpt lat="53.69629" lon="11.11736">
        <ele>79.976443</ele>
        <time>2024-07-20T09:38:08.240Z</time>
      </trkpt>
      <trkpt lat="53.69635" lon="11.11751">
        <ele>80.156138</ele>
        <time>2024-07-20T09:38:11.228Z</time>
      </trkpt>
      <trkpt lat="53.69641" lon="11.11762">
        <ele>80.308108</ele>
        <time>2024-07-20T09:38:14.243Z</time>
      </trkpt>
      <trkpt lat="53.69646" lon="11.11775">
        <ele>80.459577</ele>
        <time>2024-07-20T09:38:24.236Z</time>
      </trkpt>
      <trkpt lat="53.69654" lon="11.11789">
        <ele>80.641891</ele>
        <time>2024-07-20T09:38:29.253Z</time>
      </trkpt>
      <trkpt lat="53.69661" lon="11.11804">
        <ele>80.828618</ele>
        <time>2024-07-20T09:38:33.226Z</time>
      </trkpt>
      <trkpt lat="53.69667" lon="11.11818">
        <ele>80.995728</ele>
        <time>2024-07-20T09:38:37.267Z</time>
      </trkpt>
      <trkpt lat="53.69673" lon="11.11833">
        <ele>81.181327</ele>
        <time>2024-07-20T09:38:41.244Z</time>
      </trkpt>
      <trkpt lat="53.69681" lon="11.11849">
        <ele>81.377478</ele>
        <time>2024-07-20T09:38:45.236Z</time>
      </trkpt>
      <trkpt lat="53.69687" lon="11.11864">
        <ele>81.559101</ele>
        <time>2024-07-20T09:38:49.250Z</time>
      </trkpt>
      <trkpt lat="53.69692" lon="11.11877">
        <ele>81.709973</ele>
        <time>2024-07-20T09:38:52.243Z</time>
      </trkpt>
      <trkpt lat="53.69698" lon="11.11894">
        <ele>81.89669</ele>
        <time>2024-07-20T09:38:56.262Z</time>
      </trkpt>
      <trkpt lat="53.69697" lon="11.1191">
        <ele>82.06117</ele>
        <time>2024-07-20T09:39:00.224Z</time>
      </trkpt>
      <trkpt lat="53.69691" lon="11.11921">
        <ele>82.26674</ele>
        <time>2024-07-20T09:39:03.232Z</time>
      </trkpt>
      <trkpt lat="53.69684" lon="11.11933">
        <ele>82.490028</ele>
        <time>2024-07-20T09:39:06.250Z</time>
      </trkpt>
      <trkpt lat="53.69677" lon="11.11946">
        <ele>82.725807</ele>
        <time>2024-07-20T09:39:09.234Z</time>
      </trkpt>
      <trkpt lat="53.6967" lon="11.1196">
        <ele>82.973064</ele>
        <time>2024-07-20T09:39:12.230Z</time>
      </trkpt>
      <trkpt lat="53.69662" lon="11.11974">
        <ele>83.239492</ele>
        <time>2024-07-20T09:39:15.226Z</time>
      </trkpt>
      <trkpt lat="53.69654" lon="11.11988">
        <ele>83.505326</ele>
        <time>2024-07-20T09:39:18.232Z</time>
      </trkpt>
      <trkpt lat="53.69646" lon="11.12002">
        <ele>83.763138</ele>
        <time>2024-07-20T09:39:21.233Z</time>
      </trkpt>
      <trkpt lat="53.69639" lon="11.12017">
        <ele>84.016727</ele>
        <time>2024-07-20T09:39:24.241Z</time>
      </trkpt>
      <trkpt lat="53.69632" lon="11.12031">
        <ele>84.26854</ele>
        <time>2024-07-20T09:39:27.239Z</time>
      </trkpt>
      <trkpt lat="53.69625" lon="11.12043">
        <ele>84.489673</ele>
        <time>2024-07-20T09:39:30.238Z</time>
      </trkpt>
      <trkpt lat="53.69618" lon="11.12056">
        <ele>84.723369</ele>
        <time>2024-07-20T09:39:33.246Z</time>
      </trkpt>
      <trkpt lat="53.69612" lon="11.12069">
        <ele>84.954046</ele>
        <time>2024-07-20T09:39:36.241Z</time>
      </trkpt>
      <trkpt lat="53.69605" lon="11.12082">
        <ele>85.178235</ele>
        <time>2024-07-20T09:39:39.238Z</time>
      </trkpt>
      <trkpt lat="53.69599" lon="11.12096">
        <ele>85.414621</ele>
        <time>2024-07-20T09:39:42.231Z</time>
      </trkpt>
      <trkpt lat="53.69594" lon="11.12111">
        <ele>85.646022</ele>
        <time>2024-07-20T09:39:45.227Z</time>
      </trkpt>
      <trkpt lat="53.69588" lon="11.12125">
        <ele>85.886712</ele>
        <time>2024-07-20T09:39:48.236Z</time>
      </trkpt>
      <trkpt lat="53.69581" lon="11.12139">
        <ele>86.126548</ele>
        <time>2024-07-20T09:39:51.241Z</time>
      </trkpt>
      <trkpt lat="53.69575" lon="11.12151">
        <ele>86.447037</ele>
        <time>2024-07-20T09:39:54.232Z</time>
      </trkpt>
      <trkpt lat="53.69566" lon="11.12162">
        <ele>86.804763</ele>
        <time>2024-07-20T09:39:57.240Z</time>
      </trkpt>
      <trkpt lat="53.6956" lon="11.12176">
        <ele>87.148396</ele>
        <time>2024-07-20T09:40:00.238Z</time>
      </trkpt>
      <trkpt lat="53.69554" lon="11.1219">
        <ele>87.475486</ele>
        <time>2024-07-20T09:40:03.238Z</time>
      </trkpt>
      <trkpt lat="53.69548" lon="11.12203">
        <ele>87.799</ele>
        <time>2024-07-20T09:40:06.229Z</time>
      </trkpt>
      <trkpt lat="53.69542" lon="11.12217">
        <ele>88.131338</ele>
        <time>2024-07-20T09:40:09.228Z</time>
      </trkpt>
      <trkpt lat="53.69536" lon="11.12231">
        <ele>88.476548</ele>
        <time>2024-07-20T09:40:12.259Z</time>
      </trkpt>
      <trkpt lat="53.6953" lon="11.12245">
        <ele>88.824694</ele>
        <time>2024-07-20T09:40:15.250Z</time>
      </trkpt>
      <trkpt lat="53.69524" lon="11.12258">
        <ele>89.155729</ele>
        <time>2024-07-20T09:40:18.259Z</time>
      </trkpt>
      <trkpt lat="53.69518" lon="11.12271">
        <ele>89.476854</ele>
        <time>2024-07-20T09:40:21.260Z</time>
      </trkpt>
      <trkpt lat="53.69512" lon="11.12285">
        <ele>89.806293</ele>
        <time>2024-07-20T09:40:24.239Z</time>
      </trkpt>
      <trkpt lat="53.69506" lon="11.12298">
        <ele>90.13346</ele>
        <time>2024-07-20T09:40:27.243Z</time>
      </trkpt>
      <trkpt lat="53.69501" lon="11.12311">
        <ele>90.442384</ele>
        <time>2024-07-20T09:40:30.241Z</time>
      </trkpt>
      <trkpt lat="53.69495" lon="11.12323">
        <ele>90.75506</ele>
        <time>2024-07-20T09:40:33.227Z</time>
      </trkpt>
      <trkpt lat="53.69489" lon="11.12336">
        <ele>91.070714</ele>
        <time>2024-07-20T09:40:36.229Z</time>
      </trkpt>
      <trkpt lat="53.69484" lon="11.1235">
        <ele>91.39606</ele>
        <time>2024-07-20T09:40:39.238Z</time>
      </trkpt>
      <trkpt lat="53.69478" lon="11.12363">
        <ele>91.713354</ele>
        <time>2024-07-20T09:40:42.261Z</time>
      </trkpt>
      <trkpt lat="53.69472" lon="11.12375">
        <ele>92.021916</ele>
        <time>2024-07-20T09:40:45.242Z</time>
      </trkpt>
      <trkpt lat="53.69466" lon="11.12387">
        <ele>92.241448</ele>
        <time>2024-07-20T09:40:48.244Z</time>
      </trkpt>
      <trkpt lat="53.69462" lon="11.12403">
        <ele>92.458762</ele>
        <time>2024-07-20T09:40:52.242Z</time>
      </trkpt>
      <trkpt lat="53.69455" lon="11.12415">
        <ele>92.66638</ele>
        <time>2024-07-20T09:40:55.236Z</time>
      </trkpt>
      <trkpt lat="53.69448" lon="11.12428">
        <ele>92.880075</ele>
        <time>2024-07-20T09:40:58.253Z</time>
      </trkpt>
      <trkpt lat="53.69442" lon="11.12444">
        <ele>93.109567</ele>
        <time>2024-07-20T09:41:01.242Z</time>
      </trkpt>
      <trkpt lat="53.69436" lon="11.12456">
        <ele>93.313701</ele>
        <time>2024-07-20T09:41:04.255Z</time>
      </trkpt>
      <trkpt lat="53.6943" lon="11.1247">
        <ele>93.528557</ele>
        <time>2024-07-20T09:41:08.242Z</time>
      </trkpt>
      <trkpt lat="53.69433" lon="11.12487">
        <ele>93.750306</ele>
        <time>2024-07-20T09:41:20.238Z</time>
      </trkpt>
      <trkpt lat="53.69426" lon="11.12499">
        <ele>93.964446</ele>
        <time>2024-07-20T09:41:24.251Z</time>
      </trkpt>
      <trkpt lat="53.69418" lon="11.12515">
        <ele>94.223294</ele>
        <time>2024-07-20T09:41:28.248Z</time>
      </trkpt>
      <trkpt lat="53.69411" lon="11.12527">
        <ele>94.437951</ele>
        <time>2024-07-20T09:41:31.253Z</time>
      </trkpt>
      <trkpt lat="53.69403" lon="11.1254">
        <ele>94.665095</ele>
        <time>2024-07-20T09:41:34.237Z</time>
      </trkpt>
      <trkpt lat="53.69395" lon="11.12551">
        <ele>94.879204</ele>
        <time>2024-07-20T09:41:37.248Z</time>
      </trkpt>
      <trkpt lat="53.69387" lon="11.12562">
        <ele>95.091621</ele>
        <time>2024-07-20T09:41:40.244Z</time>
      </trkpt>
      <trkpt lat="53.69379" lon="11.12572">
        <ele>95.301944</ele>
        <time>2024-07-20T09:41:43.243Z</time>
      </trkpt>
      <trkpt lat="53.69372" lon="11.12584">
        <ele>95.512108</ele>
        <time>2024-07-20T09:41:46.252Z</time>
      </trkpt>
      <trkpt lat="53.69364" lon="11.12594">
        <ele>95.726036</ele>
        <time>2024-07-20T09:41:49.246Z</time>
      </trkpt>
      <trkpt lat="53.69355" lon="11.12604">
        <ele>95.948209</ele>
        <time>2024-07-20T09:41:52.242Z</time>
      </trkpt>
      <trkpt lat="53.69347" lon="11.12613">
        <ele>96.174391</ele>
        <time>2024-07-20T09:41:55.231Z</time>
      </trkpt>
      <trkpt lat="53.69339" lon="11.12622">
        <ele>96.391488</ele>
        <time>2024-07-20T09:41:58.238Z</time>
      </trkpt>
      <trkpt lat="53.69331" lon="11.12631">
        <ele>96.612442</ele>
        <time>2024-07-20T09:42:01.242Z</time>
      </trkpt>
      <trkpt lat="53.69322" lon="11.12641">
        <ele>96.846551</ele>
        <time>2024-07-20T09:42:04.242Z</time>
      </trkpt>
      <trkpt lat="53.69314" lon="11.12651">
        <ele>97.076198</ele>
        <time>2024-07-20T09:42:07.229Z</time>
      </trkpt>
      <trkpt lat="53.69305" lon="11.1266">
        <ele>97.304011</ele>
        <time>2024-07-20T09:42:10.230Z</time>
      </trkpt>
      <trkpt lat="53.69297" lon="11.12672">
        <ele>97.53895</ele>
        <time>2024-07-20T09:42:13.259Z</time>
      </trkpt>
      <trkpt lat="53.69289" lon="11.12683">
        <ele>97.771915</ele>
        <time>2024-07-20T09:42:16.240Z</time>
      </trkpt>
      <trkpt lat="53.69282" lon="11.12694">
        <ele>97.9988</ele>
        <time>2024-07-20T09:42:19.240Z</time>
      </trkpt>
      <trkpt lat="53.69274" lon="11.12706">
        <ele>98.243819</ele>
        <time>2024-07-20T09:42:22.261Z</time>
      </trkpt>
      <trkpt lat="53.69265" lon="11.12716">
        <ele>98.486147</ele>
        <time>2024-07-20T09:42:25.232Z</time>
      </trkpt>
      <trkpt lat="53.69256" lon="11.12725">
        <ele>98.715482</ele>
        <time>2024-07-20T09:42:28.261Z</time>
      </trkpt>
      <trkpt lat="53.69246" lon="11.12731">
        <ele>98.953454</ele>
        <time>2024-07-20T09:42:31.247Z</time>
      </trkpt>
      <trkpt lat="53.69237" lon="11.1274">
        <ele>99.188173</ele>
        <time>2024-07-20T09:42:34.240Z</time>
      </trkpt>
      <trkpt lat="53.69228" lon="11.12749">
        <ele>99.42994</ele>
        <time>2024-07-20T09:42:37.247Z</time>
      </trkpt>
      <trkpt lat="53.69219" lon="11.12759">
        <ele>99.652866</ele>
        <time>2024-07-20T09:42:40.256Z</time>
      </trkpt>
      <trkpt lat="53.69211" lon="11.12769">
        <ele>99.886978</ele>
        <time>2024-07-20T09:42:43.264Z</time>
      </trkpt>
      <trkpt lat="53.69202" lon="11.12777">
        <ele>100.034937</ele>
        <time>2024-07-20T09:42:46.248Z</time>
      </trkpt>
      <trkpt lat="53.69194" lon="11.12785">
        <ele>100.174099</ele>
        <time>2024-07-20T09:42:49.241Z</time>
      </trkpt>
      <trkpt lat="53.69185" lon="11.12794">
        <ele>100.313114</ele>
        <time>2024-07-20T09:42:52.260Z</time>
      </trkpt>
      <trkpt lat="53.69177" lon="11.12803">
        <ele>100.45543</ele>
        <time>2024-07-20T09:42:55.231Z</time>
      </trkpt>
      <trkpt lat="53.69168" lon="11.12813">
        <ele>100.606919</ele>
        <time>2024-07-20T09:42:58.251Z</time>
      </trkpt>
      <trkpt lat="53.69158" lon="11.12825">
        <ele>100.778719</ele>
        <time>2024-07-20T09:43:01.261Z</time>
      </trkpt>
      <trkpt lat="53.6915" lon="11.12836">
        <ele>100.930722</ele>
        <time>2024-07-20T09:43:04.243Z</time>
      </trkpt>
      <trkpt lat="53.6914" lon="11.12846">
        <ele>101.099313</ele>
        <time>2024-07-20T09:43:07.244Z</time>
      </trkpt>
      <trkpt lat="53.6913" lon="11.12855">
        <ele>101.258343</ele>
        <time>2024-07-20T09:43:10.262Z</time>
      </trkpt>
      <trkpt lat="53.69121" lon="11.12863">
        <ele>101.405437</ele>
        <time>2024-07-20T09:43:13.244Z</time>
      </trkpt>
      <trkpt lat="53.69112" lon="11.12873">
        <ele>101.546587</ele>
        <time>2024-07-20T09:43:16.232Z</time>
      </trkpt>
      <trkpt lat="53.69104" lon="11.12881">
        <ele>101.687438</ele>
        <time>2024-07-20T09:43:19.230Z</time>
      </trkpt>
      <trkpt lat="53.69096" lon="11.1289">
        <ele>101.822695</ele>
        <time>2024-07-20T09:43:22.239Z</time>
      </trkpt>
      <trkpt lat="53.69088" lon="11.12898">
        <ele>101.953298</ele>
        <time>2024-07-20T09:43:25.240Z</time>
      </trkpt>
      <trkpt lat="53.6908" lon="11.12908">
        <ele>102.095684</ele>
        <time>2024-07-20T09:43:29.242Z</time>
      </trkpt>
      <trkpt lat="53.69068" lon="11.12922">
        <ele>102.303945</ele>
        <time>2024-07-20T09:44:30.239Z</time>
      </trkpt>
      <trkpt lat="53.69059" lon="11.12932">
        <ele>102.460385</ele>
        <time>2024-07-20T09:44:34.249Z</time>
      </trkpt>
      <trkpt lat="53.69049" lon="11.12944">
        <ele>102.355381</ele>
        <time>2024-07-20T09:44:38.223Z</time>
      </trkpt>
      <trkpt lat="53.6904" lon="11.12954">
        <ele>102.256544</ele>
        <time>2024-07-20T09:44:41.240Z</time>
      </trkpt>
      <trkpt lat="53.69031" lon="11.12964">
        <ele>102.156294</ele>
        <time>2024-07-20T09:44:44.237Z</time>
      </trkpt>
      <trkpt lat="53.69022" lon="11.12974">
        <ele>102.05639</ele>
        <time>2024-07-20T09:44:47.246Z</time>
      </trkpt>
      <trkpt lat="53.69013" lon="11.12983">
        <ele>101.9615</ele>
        <time>2024-07-20T09:44:50.231Z</time>
      </trkpt>
      <trkpt lat="53.69004" lon="11.12989">
        <ele>101.871849</ele>
        <time>2024-07-20T09:44:53.232Z</time>
      </trkpt>
      <trkpt lat="53.68995" lon="11.12998">
        <ele>101.779529</ele>
        <time>2024-07-20T09:44:56.234Z</time>
      </trkpt>
      <trkpt lat="53.68986" lon="11.13008">
        <ele>101.677802</ele>
        <time>2024-07-20T09:44:59.237Z</time>
      </trkpt>
      <trkpt lat="53.68976" lon="11.1302">
        <ele>101.567476</ele>
        <time>2024-07-20T09:45:02.233Z</time>
      </trkpt>
      <trkpt lat="53.68967" lon="11.13032">
        <ele>101.455338</ele>
        <time>2024-07-20T09:45:05.241Z</time>
      </trkpt>
      <trkpt lat="53.68955" lon="11.13044">
        <ele>101.332989</ele>
        <time>2024-07-20T09:45:08.240Z</time>
      </trkpt>
      <trkpt lat="53.68948" lon="11.13053">
        <ele>101.247126</ele>
        <time>2024-07-20T09:45:10.236Z</time>
      </trkpt>
      <trkpt lat="53.6894" lon="11.13061">
        <ele>101.164427</ele>
        <time>2024-07-20T09:45:12.237Z</time>
      </trkpt>
      <trkpt lat="53.68929" lon="11.13073">
        <ele>101.041163</ele>
        <time>2024-07-20T09:45:15.242Z</time>
      </trkpt>
      <trkpt lat="53.68918" lon="11.13085">
        <ele>100.925705</ele>
        <time>2024-07-20T09:45:18.244Z</time>
      </trkpt>
      <trkpt lat="53.68909" lon="11.13093">
        <ele>100.835242</ele>
        <time>2024-07-20T09:45:22.244Z</time>
      </trkpt>
      <trkpt lat="53.68907" lon="11.13092">
        <ele>100.807642</ele>
        <time>2024-07-20T09:45:31.734Z</time>
      </trkpt>
      <trkpt lat="53.68899" lon="11.13104">
        <ele>100.636541</ele>
        <time>2024-07-20T09:46:48.225Z</time>
      </trkpt>
      <trkpt lat="53.6889" lon="11.13114">
        <ele>100.464096</ele>
        <time>2024-07-20T09:46:52.240Z</time>
      </trkpt>
      <trkpt lat="53.68882" lon="11.13122">
        <ele>100.31003</ele>
        <time>2024-07-20T09:46:55.254Z</time>
      </trkpt>
      <trkpt lat="53.68873" lon="11.13132">
        <ele>100.125502</ele>
        <time>2024-07-20T09:46:58.238Z</time>
      </trkpt>
      <trkpt lat="53.68863" lon="11.13142">
        <ele>99.943532</ele>
        <time>2024-07-20T09:47:01.258Z</time>
      </trkpt>
      <trkpt lat="53.68853" lon="11.13154">
        <ele>99.733731</ele>
        <time>2024-07-20T09:47:04.261Z</time>
      </trkpt>
      <trkpt lat="53.68842" lon="11.13166">
        <ele>99.521821</ele>
        <time>2024-07-20T09:47:07.247Z</time>
      </trkpt>
      <trkpt lat="53.68831" lon="11.13178">
        <ele>99.301228</ele>
        <time>2024-07-20T09:47:10.233Z</time>
      </trkpt>
      <trkpt lat="53.68822" lon="11.13187">
        <ele>99.13314</ele>
        <time>2024-07-20T09:47:12.241Z</time>
      </trkpt>
      <trkpt lat="53.68813" lon="11.13196">
        <ele>98.962789</ele>
        <time>2024-07-20T09:47:14.245Z</time>
      </trkpt>
      <trkpt lat="53.68804" lon="11.13206">
        <ele>98.787257</ele>
        <time>2024-07-20T09:47:16.249Z</time>
      </trkpt>
      <trkpt lat="53.68794" lon="11.13216">
        <ele>98.603052</ele>
        <time>2024-07-20T09:47:18.253Z</time>
      </trkpt>
      <trkpt lat="53.68785" lon="11.13227">
        <ele>98.413462</ele>
        <time>2024-07-20T09:47:20.234Z</time>
      </trkpt>
      <trkpt lat="53.68775" lon="11.13237">
        <ele>98.229002</ele>
        <time>2024-07-20T09:47:22.243Z</time>
      </trkpt>
      <trkpt lat="53.68765" lon="11.13247">
        <ele>98.038908</ele>
        <time>2024-07-20T09:47:24.257Z</time>
      </trkpt>
      <trkpt lat="53.68755" lon="11.13258">
        <ele>97.865979</ele>
        <time>2024-07-20T09:47:26.243Z</time>
      </trkpt>
      <trkpt lat="53.68745" lon="11.13269">
        <ele>97.915598</ele>
        <time>2024-07-20T09:47:28.244Z</time>
      </trkpt>
      <trkpt lat="53.68735" lon="11.13281">
        <ele>97.966156</ele>
        <time>2024-07-20T09:47:30.247Z</time>
      </trkpt>
      <trkpt lat="53.68724" lon="11.13292">
        <ele>98.016795</ele>
        <time>2024-07-20T09:47:32.239Z</time>
      </trkpt>
      <trkpt lat="53.68714" lon="11.13302">
        <ele>98.064881</ele>
        <time>2024-07-20T09:47:34.242Z</time>
      </trkpt>
      <trkpt lat="53.68705" lon="11.13312">
        <ele>98.111537</ele>
        <time>2024-07-20T09:47:36.265Z</time>
      </trkpt>
      <trkpt lat="53.68695" lon="11.13322">
        <ele>98.158797</ele>
        <time>2024-07-20T09:47:38.254Z</time>
      </trkpt>
      <trkpt lat="53.68686" lon="11.13331">
        <ele>98.201137</ele>
        <time>2024-07-20T09:47:40.257Z</time>
      </trkpt>
      <trkpt lat="53.68677" lon="11.13341">
        <ele>98.243193</ele>
        <time>2024-07-20T09:47:42.239Z</time>
      </trkpt>
      <trkpt lat="53.68669" lon="11.13351">
        <ele>98.286673</ele>
        <time>2024-07-20T09:47:44.243Z</time>
      </trkpt>
      <trkpt lat="53.6866" lon="11.13361">
        <ele>98.329265</ele>
        <time>2024-07-20T09:47:46.246Z</time>
      </trkpt>
      <trkpt lat="53.68651" lon="11.13369">
        <ele>98.372678</ele>
        <time>2024-07-20T09:47:48.255Z</time>
      </trkpt>
      <trkpt lat="53.68642" lon="11.13378">
        <ele>98.414472</ele>
        <time>2024-07-20T09:47:50.250Z</time>
      </trkpt>
      <trkpt lat="53.68634" lon="11.13387">
        <ele>98.453935</ele>
        <time>2024-07-20T09:47:52.242Z</time>
      </trkpt>
      <trkpt lat="53.68626" lon="11.13396">
        <ele>98.493692</ele>
        <time>2024-07-20T09:47:54.243Z</time>
      </trkpt>
      <trkpt lat="53.68618" lon="11.13404">
        <ele>98.531671</ele>
        <time>2024-07-20T09:47:56.238Z</time>
      </trkpt>
      <trkpt lat="53.6861" lon="11.13413">
        <ele>98.569778</ele>
        <time>2024-07-20T09:47:58.259Z</time>
      </trkpt>
      <trkpt lat="53.68602" lon="11.13422">
        <ele>98.63089</ele>
        <time>2024-07-20T09:48:00.240Z</time>
      </trkpt>
      <trkpt lat="53.68594" lon="11.13431">
        <ele>98.752152</ele>
        <time>2024-07-20T09:48:02.241Z</time>
      </trkpt>
      <trkpt lat="53.68586" lon="11.13438">
        <ele>98.873124</ele>
        <time>2024-07-20T09:48:04.255Z</time>
      </trkpt>
      <trkpt lat="53.68578" lon="11.13447">
        <ele>98.997398</ele>
        <time>2024-07-20T09:48:06.253Z</time>
      </trkpt>
      <trkpt lat="53.68571" lon="11.13455">
        <ele>99.114675</ele>
        <time>2024-07-20T09:48:08.227Z</time>
      </trkpt>
      <trkpt lat="53.68559" lon="11.13468">
        <ele>99.29318</ele>
        <time>2024-07-20T09:48:11.261Z</time>
      </trkpt>
      <trkpt lat="53.68551" lon="11.13478">
        <ele>99.41966</ele>
        <time>2024-07-20T09:48:13.255Z</time>
      </trkpt>
      <trkpt lat="53.68543" lon="11.13487">
        <ele>99.543934</ele>
        <time>2024-07-20T09:48:15.278Z</time>
      </trkpt>
      <trkpt lat="53.68536" lon="11.13496">
        <ele>99.665237</ele>
        <time>2024-07-20T09:48:17.246Z</time>
      </trkpt>
      <trkpt lat="53.68528" lon="11.13505">
        <ele>99.791229</ele>
        <time>2024-07-20T09:48:19.245Z</time>
      </trkpt>
      <trkpt lat="53.6852" lon="11.13513">
        <ele>99.911521</ele>
        <time>2024-07-20T09:48:21.249Z</time>
      </trkpt>
      <trkpt lat="53.68512" lon="11.13522">
        <ele>100.031529</ele>
        <time>2024-07-20T09:48:23.246Z</time>
      </trkpt>
      <trkpt lat="53.68504" lon="11.1353">
        <ele>100.151952</ele>
        <time>2024-07-20T09:48:25.246Z</time>
      </trkpt>
      <trkpt lat="53.68496" lon="11.13539">
        <ele>100.272375</ele>
        <time>2024-07-20T09:48:27.244Z</time>
      </trkpt>
      <trkpt lat="53.68485" lon="11.13549">
        <ele>100.439318</ele>
        <time>2024-07-20T09:48:30.245Z</time>
      </trkpt>
      <trkpt lat="53.68475" lon="11.13558">
        <ele>100.58782</ele>
        <time>2024-07-20T09:48:33.244Z</time>
      </trkpt>
      <trkpt lat="53.68464" lon="11.13568">
        <ele>100.746462</ele>
        <time>2024-07-20T09:48:36.242Z</time>
      </trkpt>
      <trkpt lat="53.68453" lon="11.13578">
        <ele>100.905507</ele>
        <time>2024-07-20T09:48:39.245Z</time>
      </trkpt>
      <trkpt lat="53.68446" lon="11.13588">
        <ele>100.978091</ele>
        <time>2024-07-20T09:48:42.243Z</time>
      </trkpt>
      <trkpt lat="53.68443" lon="11.13604">
        <ele>101.037607</ele>
        <time>2024-07-20T09:48:46.235Z</time>
      </trkpt>
      <trkpt lat="53.68433" lon="11.13609">
        <ele>101.099067</ele>
        <time>2024-07-20T09:48:49.252Z</time>
      </trkpt>
      <trkpt lat="53.68424" lon="11.13616">
        <ele>101.161249</ele>
        <time>2024-07-20T09:48:52.247Z</time>
      </trkpt>
      <trkpt lat="53.68414" lon="11.13626">
        <ele>101.227533</ele>
        <time>2024-07-20T09:48:55.246Z</time>
      </trkpt>
      <trkpt lat="53.68404" lon="11.13637">
        <ele>101.296897</ele>
        <time>2024-07-20T09:48:58.260Z</time>
      </trkpt>
      <trkpt lat="53.68395" lon="11.13647">
        <ele>101.365688</ele>
        <time>2024-07-20T09:49:01.242Z</time>
      </trkpt>
      <trkpt lat="53.68385" lon="11.13656">
        <ele>101.431963</ele>
        <time>2024-07-20T09:49:04.236Z</time>
      </trkpt>
      <trkpt lat="53.68375" lon="11.13667">
        <ele>101.50271</ele>
        <time>2024-07-20T09:49:07.244Z</time>
      </trkpt>
      <trkpt lat="53.68364" lon="11.13679">
        <ele>101.58285</ele>
        <time>2024-07-20T09:49:10.241Z</time>
      </trkpt>
      <trkpt lat="53.68353" lon="11.13691">
        <ele>101.658967</ele>
        <time>2024-07-20T09:49:13.252Z</time>
      </trkpt>
      <trkpt lat="53.68344" lon="11.13701">
        <ele>101.728267</ele>
        <time>2024-07-20T09:49:16.242Z</time>
      </trkpt>
      <trkpt lat="53.68335" lon="11.13711">
        <ele>101.790781</ele>
        <time>2024-07-20T09:49:19.252Z</time>
      </trkpt>
      <trkpt lat="53.68327" lon="11.13719">
        <ele>101.846761</ele>
        <time>2024-07-20T09:49:22.259Z</time>
      </trkpt>
      <trkpt lat="53.68317" lon="11.1372">
        <ele>101.905206</ele>
        <time>2024-07-20T09:49:25.231Z</time>
      </trkpt>
      <trkpt lat="53.68306" lon="11.13726">
        <ele>101.973919</ele>
        <time>2024-07-20T09:49:28.234Z</time>
      </trkpt>
      <trkpt lat="53.68298" lon="11.13736">
        <ele>102.100003</ele>
        <time>2024-07-20T09:49:31.242Z</time>
      </trkpt>
      <trkpt lat="53.68289" lon="11.13745">
        <ele>102.332769</ele>
        <time>2024-07-20T09:49:34.243Z</time>
      </trkpt>
      <trkpt lat="53.68281" lon="11.13753">
        <ele>102.563741</ele>
        <time>2024-07-20T09:49:37.255Z</time>
      </trkpt>
      <trkpt lat="53.68273" lon="11.13763">
        <ele>102.792619</ele>
        <time>2024-07-20T09:49:40.241Z</time>
      </trkpt>
      <trkpt lat="53.68264" lon="11.13771">
        <ele>103.030387</ele>
        <time>2024-07-20T09:49:43.241Z</time>
      </trkpt>
      <trkpt lat="53.68256" lon="11.1378">
        <ele>103.255054</ele>
        <time>2024-07-20T09:49:46.245Z</time>
      </trkpt>
      <trkpt lat="53.68247" lon="11.13789">
        <ele>103.491734</ele>
        <time>2024-07-20T09:49:49.228Z</time>
      </trkpt>
      <trkpt lat="53.68238" lon="11.13798">
        <ele>103.727424</ele>
        <time>2024-07-20T09:49:52.249Z</time>
      </trkpt>
      <trkpt lat="53.68229" lon="11.13807">
        <ele>103.974712</ele>
        <time>2024-07-20T09:49:55.259Z</time>
      </trkpt>
      <trkpt lat="53.68221" lon="11.13817">
        <ele>104.217466</ele>
        <time>2024-07-20T09:49:58.245Z</time>
      </trkpt>
      <trkpt lat="53.68212" lon="11.13827">
        <ele>104.457587</ele>
        <time>2024-07-20T09:50:01.248Z</time>
      </trkpt>
      <trkpt lat="53.68203" lon="11.13836">
        <ele>104.70237</ele>
        <time>2024-07-20T09:50:04.252Z</time>
      </trkpt>
      <trkpt lat="53.68194" lon="11.13845">
        <ele>104.941449</ele>
        <time>2024-07-20T09:50:07.248Z</time>
      </trkpt>
      <trkpt lat="53.68186" lon="11.13855">
        <ele>105.181508</ele>
        <time>2024-07-20T09:50:10.248Z</time>
      </trkpt>
      <trkpt lat="53.68177" lon="11.13864">
        <ele>105.42128</ele>
        <time>2024-07-20T09:50:13.242Z</time>
      </trkpt>
      <trkpt lat="53.68168" lon="11.13873">
        <ele>105.666583</ele>
        <time>2024-07-20T09:50:16.268Z</time>
      </trkpt>
      <trkpt lat="53.68159" lon="11.13882">
        <ele>105.901304</ele>
        <time>2024-07-20T09:50:19.250Z</time>
      </trkpt>
      <trkpt lat="53.6815" lon="11.13892">
        <ele>106.144871</ele>
        <time>2024-07-20T09:50:22.258Z</time>
      </trkpt>
      <trkpt lat="53.68142" lon="11.13901">
        <ele>106.280672</ele>
        <time>2024-07-20T09:50:25.243Z</time>
      </trkpt>
      <trkpt lat="53.68133" lon="11.1391">
        <ele>106.391914</ele>
        <time>2024-07-20T09:50:28.248Z</time>
      </trkpt>
      <trkpt lat="53.68125" lon="11.13919">
        <ele>106.497588</ele>
        <time>2024-07-20T09:50:31.238Z</time>
      </trkpt>
      <trkpt lat="53.68117" lon="11.13927">
        <ele>106.594181</ele>
        <time>2024-07-20T09:50:34.254Z</time>
      </trkpt>
      <trkpt lat="53.68109" lon="11.13935">
        <ele>106.694111</ele>
        <time>2024-07-20T09:50:37.241Z</time>
      </trkpt>
      <trkpt lat="53.68101" lon="11.13944">
        <ele>106.794451</ele>
        <time>2024-07-20T09:50:40.246Z</time>
      </trkpt>
      <trkpt lat="53.68092" lon="11.13953">
        <ele>106.906276</ele>
        <time>2024-07-20T09:50:43.240Z</time>
      </trkpt>
      <trkpt lat="53.68083" lon="11.13962">
        <ele>107.018102</ele>
        <time>2024-07-20T09:50:46.234Z</time>
      </trkpt>
      <trkpt lat="53.68075" lon="11.13972">
        <ele>107.13161</ele>
        <time>2024-07-20T09:50:49.240Z</time>
      </trkpt>
      <trkpt lat="53.68065" lon="11.13981">
        <ele>107.248065</ele>
        <time>2024-07-20T09:50:52.240Z</time>
      </trkpt>
      <trkpt lat="53.68056" lon="11.1399">
        <ele>107.364303</ele>
        <time>2024-07-20T09:50:55.235Z</time>
      </trkpt>
      <trkpt lat="53.68047" lon="11.14">
        <ele>107.482593</ele>
        <time>2024-07-20T09:50:58.237Z</time>
      </trkpt>
      <trkpt lat="53.68038" lon="11.14011">
        <ele>107.594828</ele>
        <time>2024-07-20T09:51:01.247Z</time>
      </trkpt>
      <trkpt lat="53.6803" lon="11.14021">
        <ele>107.706697</ele>
        <time>2024-07-20T09:51:04.227Z</time>
      </trkpt>
      <trkpt lat="53.68021" lon="11.14029">
        <ele>107.813478</ele>
        <time>2024-07-20T09:51:07.247Z</time>
      </trkpt>
      <trkpt lat="53.68013" lon="11.14038">
        <ele>107.920309</ele>
        <time>2024-07-20T09:51:10.259Z</time>
      </trkpt>
      <trkpt lat="53.68005" lon="11.14048">
        <ele>108.022556</ele>
        <time>2024-07-20T09:51:13.232Z</time>
      </trkpt>
      <trkpt lat="53.67993" lon="11.1406">
        <ele>108.122585</ele>
        <time>2024-07-20T09:51:33.232Z</time>
      </trkpt>
      <trkpt lat="53.67984" lon="11.1407">
        <ele>108.113637</ele>
        <time>2024-07-20T09:51:37.225Z</time>
      </trkpt>
      <trkpt lat="53.67977" lon="11.1408">
        <ele>108.105794</ele>
        <time>2024-07-20T09:51:40.249Z</time>
      </trkpt>
      <trkpt lat="53.6797" lon="11.14094">
        <ele>108.096162</ele>
        <time>2024-07-20T09:51:43.238Z</time>
      </trkpt>
      <trkpt lat="53.6796" lon="11.14108">
        <ele>108.085035</ele>
        <time>2024-07-20T09:51:46.244Z</time>
      </trkpt>
      <trkpt lat="53.67949" lon="11.14119">
        <ele>108.073339</ele>
        <time>2024-07-20T09:51:49.263Z</time>
      </trkpt>
      <trkpt lat="53.67937" lon="11.14131">
        <ele>108.061936</ele>
        <time>2024-07-20T09:51:52.247Z</time>
      </trkpt>
      <trkpt lat="53.67927" lon="11.14141">
        <ele>108.051153</ele>
        <time>2024-07-20T09:51:55.243Z</time>
      </trkpt>
      <trkpt lat="53.67917" lon="11.14152">
        <ele>108.040787</ele>
        <time>2024-07-20T09:51:58.240Z</time>
      </trkpt>
      <trkpt lat="53.67906" lon="11.14162">
        <ele>108.030054</ele>
        <time>2024-07-20T09:52:01.251Z</time>
      </trkpt>
      <trkpt lat="53.67896" lon="11.14173">
        <ele>108.019588</ele>
        <time>2024-07-20T09:52:04.243Z</time>
      </trkpt>
      <trkpt lat="53.67885" lon="11.14184">
        <ele>108.008796</ele>
        <time>2024-07-20T09:52:07.231Z</time>
      </trkpt>
      <trkpt lat="53.67875" lon="11.14195">
        <ele>107.998262</ele>
        <time>2024-07-20T09:52:10.234Z</time>
      </trkpt>
      <trkpt lat="53.67864" lon="11.14207">
        <ele>107.987022</ele>
        <time>2024-07-20T09:52:13.232Z</time>
      </trkpt>
      <trkpt lat="53.67853" lon="11.14219">
        <ele>107.975738</ele>
        <time>2024-07-20T09:52:16.232Z</time>
      </trkpt>
      <trkpt lat="53.67843" lon="11.14231">
        <ele>107.936799</ele>
        <time>2024-07-20T09:52:19.233Z</time>
      </trkpt>
      <trkpt lat="53.67833" lon="11.14242">
        <ele>107.872724</ele>
        <time>2024-07-20T09:52:22.242Z</time>
      </trkpt>
      <trkpt lat="53.67822" lon="11.14253">
        <ele>107.808432</ele>
        <time>2024-07-20T09:52:25.240Z</time>
      </trkpt>
      <trkpt lat="53.67813" lon="11.14263">
        <ele>107.751132</ele>
        <time>2024-07-20T09:52:28.243Z</time>
      </trkpt>
      <trkpt lat="53.67803" lon="11.14274">
        <ele>107.68976</ele>
        <time>2024-07-20T09:52:31.253Z</time>
      </trkpt>
      <trkpt lat="53.67793" lon="11.14285">
        <ele>107.622742</ele>
        <time>2024-07-20T09:52:34.253Z</time>
      </trkpt>
      <trkpt lat="53.67781" lon="11.14298">
        <ele>107.552398</ele>
        <time>2024-07-20T09:52:37.242Z</time>
      </trkpt>
      <trkpt lat="53.67774" lon="11.14306">
        <ele>107.503126</ele>
        <time>2024-07-20T09:52:39.247Z</time>
      </trkpt>
      <trkpt lat="53.67765" lon="11.14316">
        <ele>107.450977</ele>
        <time>2024-07-20T09:52:41.247Z</time>
      </trkpt>
      <trkpt lat="53.67757" lon="11.14324">
        <ele>107.399405</ele>
        <time>2024-07-20T09:52:43.264Z</time>
      </trkpt>
      <trkpt lat="53.67748" lon="11.14333">
        <ele>107.347595</ele>
        <time>2024-07-20T09:52:45.237Z</time>
      </trkpt>
      <trkpt lat="53.67741" lon="11.14343">
        <ele>107.295921</ele>
        <time>2024-07-20T09:52:47.229Z</time>
      </trkpt>
      <trkpt lat="53.67733" lon="11.14351">
        <ele>107.246382</ele>
        <time>2024-07-20T09:52:49.231Z</time>
      </trkpt>
      <trkpt lat="53.67725" lon="11.1436">
        <ele>107.19711</ele>
        <time>2024-07-20T09:52:51.241Z</time>
      </trkpt>
      <trkpt lat="53.67714" lon="11.14372">
        <ele>107.12683</ele>
        <time>2024-07-20T09:52:54.225Z</time>
      </trkpt>
      <trkpt lat="53.67702" lon="11.14384">
        <ele>107.056105</ele>
        <time>2024-07-20T09:52:57.245Z</time>
      </trkpt>
      <trkpt lat="53.67695" lon="11.14393">
        <ele>107.042467</ele>
        <time>2024-07-20T09:52:59.236Z</time>
      </trkpt>
      <trkpt lat="53.67684" lon="11.14405">
        <ele>107.110334</ele>
        <time>2024-07-20T09:53:02.237Z</time>
      </trkpt>
      <trkpt lat="53.67673" lon="11.14419">
        <ele>107.180372</ele>
        <time>2024-07-20T09:53:05.232Z</time>
      </trkpt>
      <trkpt lat="53.67662" lon="11.1443">
        <ele>107.246638</ele>
        <time>2024-07-20T09:53:08.232Z</time>
      </trkpt>
      <trkpt lat="53.67653" lon="11.14443">
        <ele>107.312005</ele>
        <time>2024-07-20T09:53:11.238Z</time>
      </trkpt>
      <trkpt lat="53.67643" lon="11.14457">
        <ele>107.376774</ele>
        <time>2024-07-20T09:53:14.226Z</time>
      </trkpt>
      <trkpt lat="53.67633" lon="11.1447">
        <ele>107.441808</ele>
        <time>2024-07-20T09:53:17.229Z</time>
      </trkpt>
      <trkpt lat="53.67624" lon="11.14481">
        <ele>107.499887</ele>
        <time>2024-07-20T09:53:20.243Z</time>
      </trkpt>
      <trkpt lat="53.67616" lon="11.14492">
        <ele>107.553092</ele>
        <time>2024-07-20T09:53:23.232Z</time>
      </trkpt>
      <trkpt lat="53.67608" lon="11.14504">
        <ele>107.608689</ele>
        <time>2024-07-20T09:53:26.236Z</time>
      </trkpt>
      <trkpt lat="53.67601" lon="11.14516">
        <ele>107.662794</ele>
        <time>2024-07-20T09:53:29.242Z</time>
      </trkpt>
      <trkpt lat="53.67594" lon="11.14526">
        <ele>107.712415</ele>
        <time>2024-07-20T09:53:32.234Z</time>
      </trkpt>
      <trkpt lat="53.67587" lon="11.14536">
        <ele>107.759442</ele>
        <time>2024-07-20T09:53:35.235Z</time>
      </trkpt>
      <trkpt lat="53.67579" lon="11.14547">
        <ele>107.810257</ele>
        <time>2024-07-20T09:53:38.239Z</time>
      </trkpt>
      <trkpt lat="53.67571" lon="11.14561">
        <ele>107.872996</ele>
        <time>2024-07-20T09:53:41.256Z</time>
      </trkpt>
      <trkpt lat="53.67561" lon="11.14576">
        <ele>107.940178</ele>
        <time>2024-07-20T09:53:44.231Z</time>
      </trkpt>
      <trkpt lat="53.67552" lon="11.1459">
        <ele>108.099968</ele>
        <time>2024-07-20T09:53:47.236Z</time>
      </trkpt>
      <trkpt lat="53.67546" lon="11.146">
        <ele>108.260151</ele>
        <time>2024-07-20T09:53:49.237Z</time>
      </trkpt>
      <trkpt lat="53.67538" lon="11.1461">
        <ele>108.423552</ele>
        <time>2024-07-20T09:53:51.241Z</time>
      </trkpt>
      <trkpt lat="53.67531" lon="11.14621">
        <ele>108.589046</ele>
        <time>2024-07-20T09:53:53.242Z</time>
      </trkpt>
      <trkpt lat="53.67522" lon="11.14635">
        <ele>108.806958</ele>
        <time>2024-07-20T09:53:56.232Z</time>
      </trkpt>
      <trkpt lat="53.67513" lon="11.14647">
        <ele>109.014879</ele>
        <time>2024-07-20T09:53:59.236Z</time>
      </trkpt>
      <trkpt lat="53.67504" lon="11.14661">
        <ele>109.224264</ele>
        <time>2024-07-20T09:54:02.241Z</time>
      </trkpt>
      <trkpt lat="53.67495" lon="11.14675">
        <ele>109.451665</ele>
        <time>2024-07-20T09:54:05.227Z</time>
      </trkpt>
      <trkpt lat="53.67485" lon="11.1469">
        <ele>109.677314</ele>
        <time>2024-07-20T09:54:08.239Z</time>
      </trkpt>
      <trkpt lat="53.67477" lon="11.14702">
        <ele>109.874342</ele>
        <time>2024-07-20T09:54:11.242Z</time>
      </trkpt>
      <trkpt lat="53.67469" lon="11.14714">
        <ele>110.058671</ele>
        <time>2024-07-20T09:54:14.237Z</time>
      </trkpt>
      <trkpt lat="53.67461" lon="11.14726">
        <ele>110.247948</ele>
        <time>2024-07-20T09:54:17.236Z</time>
      </trkpt>
      <trkpt lat="53.67453" lon="11.14738">
        <ele>110.438285</ele>
        <time>2024-07-20T09:54:20.232Z</time>
      </trkpt>
      <trkpt lat="53.67444" lon="11.1475">
        <ele>110.629274</ele>
        <time>2024-07-20T09:54:23.236Z</time>
      </trkpt>
      <trkpt lat="53.67434" lon="11.1476">
        <ele>110.834296</ele>
        <time>2024-07-20T09:54:26.235Z</time>
      </trkpt>
      <trkpt lat="53.67425" lon="11.1477">
        <ele>111.039133</ele>
        <time>2024-07-20T09:54:29.204Z</time>
      </trkpt>
      <trkpt lat="53.67416" lon="11.14783">
        <ele>111.22302</ele>
        <time>2024-07-20T09:54:32.246Z</time>
      </trkpt>
      <trkpt lat="53.67407" lon="11.14796">
        <ele>111.385752</ele>
        <time>2024-07-20T09:54:35.241Z</time>
      </trkpt>
      <trkpt lat="53.67399" lon="11.14808">
        <ele>111.549019</ele>
        <time>2024-07-20T09:54:38.253Z</time>
      </trkpt>
      <trkpt lat="53.67393" lon="11.14823">
        <ele>111.70097</ele>
        <time>2024-07-20T09:54:41.232Z</time>
      </trkpt>
      <trkpt lat="53.67387" lon="11.14838">
        <ele>111.856946</ele>
        <time>2024-07-20T09:54:44.226Z</time>
      </trkpt>
      <trkpt lat="53.67379" lon="11.14851">
        <ele>112.018561</ele>
        <time>2024-07-20T09:54:47.248Z</time>
      </trkpt>
      <trkpt lat="53.67371" lon="11.14862">
        <ele>112.168685</ele>
        <time>2024-07-20T09:54:50.246Z</time>
      </trkpt>
      <trkpt lat="53.67363" lon="11.14874">
        <ele>112.319965</ele>
        <time>2024-07-20T09:54:53.242Z</time>
      </trkpt>
      <trkpt lat="53.67355" lon="11.14887">
        <ele>112.47667</ele>
        <time>2024-07-20T09:54:56.227Z</time>
      </trkpt>
      <trkpt lat="53.67347" lon="11.14898">
        <ele>112.631661</ele>
        <time>2024-07-20T09:54:59.255Z</time>
      </trkpt>
      <trkpt lat="53.67338" lon="11.14911">
        <ele>112.793276</ele>
        <time>2024-07-20T09:55:02.230Z</time>
      </trkpt>
      <trkpt lat="53.6733" lon="11.14924">
        <ele>112.954029</ele>
        <time>2024-07-20T09:55:05.233Z</time>
      </trkpt>
      <trkpt lat="53.67322" lon="11.14936">
        <ele>113.111305</ele>
        <time>2024-07-20T09:55:08.234Z</time>
      </trkpt>
      <trkpt lat="53.67314" lon="11.14948">
        <ele>113.268011</ele>
        <time>2024-07-20T09:55:11.251Z</time>
      </trkpt>
      <trkpt lat="53.67306" lon="11.1496">
        <ele>113.418072</ele>
        <time>2024-07-20T09:55:14.229Z</time>
      </trkpt>
      <trkpt lat="53.67298" lon="11.14972">
        <ele>113.570916</ele>
        <time>2024-07-20T09:55:17.226Z</time>
      </trkpt>
      <trkpt lat="53.67291" lon="11.14985">
        <ele>113.722126</ele>
        <time>2024-07-20T09:55:20.236Z</time>
      </trkpt>
      <trkpt lat="53.67282" lon="11.14998">
        <ele>113.591461</ele>
        <time>2024-07-20T09:55:23.233Z</time>
      </trkpt>
      <trkpt lat="53.67272" lon="11.15012">
        <ele>113.450185</ele>
        <time>2024-07-20T09:55:26.240Z</time>
      </trkpt>
      <trkpt lat="53.67263" lon="11.15026">
        <ele>113.308043</ele>
        <time>2024-07-20T09:55:29.236Z</time>
      </trkpt>
      <trkpt lat="53.67256" lon="11.15037">
        <ele>113.205018</ele>
        <time>2024-07-20T09:55:31.232Z</time>
      </trkpt>
      <trkpt lat="53.67249" lon="11.15048">
        <ele>113.096154</ele>
        <time>2024-07-20T09:55:33.246Z</time>
      </trkpt>
      <trkpt lat="53.67241" lon="11.1506">
        <ele>112.974895</ele>
        <time>2024-07-20T09:55:35.234Z</time>
      </trkpt>
      <trkpt lat="53.67233" lon="11.15072">
        <ele>112.854847</ele>
        <time>2024-07-20T09:55:37.233Z</time>
      </trkpt>
      <trkpt lat="53.67224" lon="11.15085">
        <ele>112.725896</ele>
        <time>2024-07-20T09:55:39.233Z</time>
      </trkpt>
      <trkpt lat="53.67215" lon="11.15098">
        <ele>112.595708</ele>
        <time>2024-07-20T09:55:41.237Z</time>
      </trkpt>
      <trkpt lat="53.67207" lon="11.1511">
        <ele>112.471496</ele>
        <time>2024-07-20T09:55:43.239Z</time>
      </trkpt>
      <trkpt lat="53.67199" lon="11.15122">
        <ele>112.349426</ele>
        <time>2024-07-20T09:55:45.211Z</time>
      </trkpt>
      <trkpt lat="53.67191" lon="11.15134">
        <ele>112.234084</ele>
        <time>2024-07-20T09:55:47.239Z</time>
      </trkpt>
      <trkpt lat="53.67184" lon="11.15144">
        <ele>112.126526</ele>
        <time>2024-07-20T09:55:49.224Z</time>
      </trkpt>
      <trkpt lat="53.67176" lon="11.15155">
        <ele>112.019768</ele>
        <time>2024-07-20T09:55:51.240Z</time>
      </trkpt>
      <trkpt lat="53.6717" lon="11.15165">
        <ele>111.91644</ele>
        <time>2024-07-20T09:55:53.226Z</time>
      </trkpt>
      <trkpt lat="53.67163" lon="11.15177">
        <ele>111.80916</ele>
        <time>2024-07-20T09:55:55.229Z</time>
      </trkpt>
      <trkpt lat="53.67155" lon="11.15187">
        <ele>111.724459</ele>
        <time>2024-07-20T09:55:57.227Z</time>
      </trkpt>
      <trkpt lat="53.67148" lon="11.15199">
        <ele>111.773594</ele>
        <time>2024-07-20T09:55:59.243Z</time>
      </trkpt>
      <trkpt lat="53.6714" lon="11.1521">
        <ele>111.823165</ele>
        <time>2024-07-20T09:56:01.241Z</time>
      </trkpt>
      <trkpt lat="53.67132" lon="11.15222">
        <ele>111.873953</ele>
        <time>2024-07-20T09:56:03.229Z</time>
      </trkpt>
      <trkpt lat="53.67125" lon="11.15234">
        <ele>111.923</ele>
        <time>2024-07-20T09:56:05.233Z</time>
      </trkpt>
      <trkpt lat="53.67117" lon="11.15245">
        <ele>111.972376</ele>
        <time>2024-07-20T09:56:07.241Z</time>
      </trkpt>
      <trkpt lat="53.6711" lon="11.15255">
        <ele>112.019708</ele>
        <time>2024-07-20T09:56:09.234Z</time>
      </trkpt>
      <trkpt lat="53.67103" lon="11.15266">
        <ele>112.066676</ele>
        <time>2024-07-20T09:56:11.241Z</time>
      </trkpt>
      <trkpt lat="53.67096" lon="11.15277">
        <ele>112.112006</ele>
        <time>2024-07-20T09:56:13.238Z</time>
      </trkpt>
      <trkpt lat="53.67088" lon="11.15287">
        <ele>112.158048</ele>
        <time>2024-07-20T09:56:15.234Z</time>
      </trkpt>
      <trkpt lat="53.67081" lon="11.15297">
        <ele>112.205573</ele>
        <time>2024-07-20T09:56:17.244Z</time>
      </trkpt>
      <trkpt lat="53.67074" lon="11.15308">
        <ele>112.252177</ele>
        <time>2024-07-20T09:56:19.238Z</time>
      </trkpt>
      <trkpt lat="53.67066" lon="11.15319">
        <ele>112.29951</ele>
        <time>2024-07-20T09:56:21.262Z</time>
      </trkpt>
      <trkpt lat="53.67059" lon="11.15331">
        <ele>112.348298</ele>
        <time>2024-07-20T09:56:23.242Z</time>
      </trkpt>
      <trkpt lat="53.67052" lon="11.15342">
        <ele>112.39901</ele>
        <time>2024-07-20T09:56:25.256Z</time>
      </trkpt>
      <trkpt lat="53.67045" lon="11.15354">
        <ele>112.447045</ele>
        <time>2024-07-20T09:56:27.250Z</time>
      </trkpt>
      <trkpt lat="53.67037" lon="11.15365">
        <ele>112.495493</ele>
        <time>2024-07-20T09:56:29.242Z</time>
      </trkpt>
      <trkpt lat="53.6703" lon="11.15376">
        <ele>112.541772</ele>
        <time>2024-07-20T09:56:31.250Z</time>
      </trkpt>
      <trkpt lat="53.67023" lon="11.15387">
        <ele>112.5873</ele>
        <time>2024-07-20T09:56:33.237Z</time>
      </trkpt>
      <trkpt lat="53.67013" lon="11.15401">
        <ele>112.550196</ele>
        <time>2024-07-20T09:56:36.257Z</time>
      </trkpt>
      <trkpt lat="53.67004" lon="11.15415">
        <ele>112.506174</ele>
        <time>2024-07-20T09:56:39.262Z</time>
      </trkpt>
      <trkpt lat="53.66996" lon="11.15428">
        <ele>112.467971</ele>
        <time>2024-07-20T09:56:42.255Z</time>
      </trkpt>
      <trkpt lat="53.66989" lon="11.15439">
        <ele>112.433986</ele>
        <time>2024-07-20T09:56:45.244Z</time>
      </trkpt>
      <trkpt lat="53.66982" lon="11.15448">
        <ele>112.40125</ele>
        <time>2024-07-20T09:56:48.250Z</time>
      </trkpt>
      <trkpt lat="53.66975" lon="11.15458">
        <ele>112.368824</ele>
        <time>2024-07-20T09:56:51.253Z</time>
      </trkpt>
      <trkpt lat="53.66968" lon="11.15469">
        <ele>112.335803</ele>
        <time>2024-07-20T09:56:54.251Z</time>
      </trkpt>
      <trkpt lat="53.66961" lon="11.15479">
        <ele>112.301419</ele>
        <time>2024-07-20T09:56:57.255Z</time>
      </trkpt>
      <trkpt lat="53.66945" lon="11.15503">
        <ele>112.224835</ele>
        <time>2024-07-20T09:58:15.261Z</time>
      </trkpt>
      <trkpt lat="53.66935" lon="11.15519">
        <ele>112.177585</ele>
        <time>2024-07-20T09:58:18.244Z</time>
      </trkpt>
      <trkpt lat="53.66929" lon="11.1553">
        <ele>112.144462</ele>
        <time>2024-07-20T09:58:20.241Z</time>
      </trkpt>
      <trkpt lat="53.66921" lon="11.1554">
        <ele>112.109449</ele>
        <time>2024-07-20T09:58:22.229Z</time>
      </trkpt>
      <trkpt lat="53.66913" lon="11.15552">
        <ele>112.071939</ele>
        <time>2024-07-20T09:58:24.235Z</time>
      </trkpt>
      <trkpt lat="53.66905" lon="11.15566">
        <ele>112.030089</ele>
        <time>2024-07-20T09:58:26.239Z</time>
      </trkpt>
      <trkpt lat="53.66895" lon="11.1558">
        <ele>111.983768</ele>
        <time>2024-07-20T09:58:28.231Z</time>
      </trkpt>
      <trkpt lat="53.66884" lon="11.15595">
        <ele>111.865855</ele>
        <time>2024-07-20T09:58:30.236Z</time>
      </trkpt>
      <trkpt lat="53.66873" lon="11.1561">
        <ele>111.614</ele>
        <time>2024-07-20T09:58:32.231Z</time>
      </trkpt>
      <trkpt lat="53.66862" lon="11.15627">
        <ele>111.353182</ele>
        <time>2024-07-20T09:58:34.242Z</time>
      </trkpt>
      <trkpt lat="53.66851" lon="11.15644">
        <ele>111.093856</ele>
        <time>2024-07-20T09:58:36.244Z</time>
      </trkpt>
      <trkpt lat="53.6684" lon="11.15661">
        <ele>110.822456</ele>
        <time>2024-07-20T09:58:38.237Z</time>
      </trkpt>
      <trkpt lat="53.66828" lon="11.15678">
        <ele>110.55244</ele>
        <time>2024-07-20T09:58:40.251Z</time>
      </trkpt>
      <trkpt lat="53.66817" lon="11.15694">
        <ele>110.289713</ele>
        <time>2024-07-20T09:58:42.255Z</time>
      </trkpt>
      <trkpt lat="53.66806" lon="11.1571">
        <ele>110.033163</ele>
        <time>2024-07-20T09:58:44.231Z</time>
      </trkpt>
      <trkpt lat="53.66795" lon="11.15726">
        <ele>109.77998</ele>
        <time>2024-07-20T09:58:46.239Z</time>
      </trkpt>
      <trkpt lat="53.66784" lon="11.15742">
        <ele>109.529295</ele>
        <time>2024-07-20T09:58:48.229Z</time>
      </trkpt>
      <trkpt lat="53.66774" lon="11.15758">
        <ele>109.288038</ele>
        <time>2024-07-20T09:58:50.239Z</time>
      </trkpt>
      <trkpt lat="53.66764" lon="11.15772">
        <ele>109.059095</ele>
        <time>2024-07-20T09:58:52.218Z</time>
      </trkpt>
      <trkpt lat="53.66755" lon="11.15785">
        <ele>108.844953</ele>
        <time>2024-07-20T09:58:54.238Z</time>
      </trkpt>
      <trkpt lat="53.66746" lon="11.15799">
        <ele>108.718097</ele>
        <time>2024-07-20T09:58:56.243Z</time>
      </trkpt>
      <trkpt lat="53.66737" lon="11.15813">
        <ele>108.63152</ele>
        <time>2024-07-20T09:58:58.240Z</time>
      </trkpt>
      <trkpt lat="53.66728" lon="11.15826">
        <ele>108.54387</ele>
        <time>2024-07-20T09:59:00.232Z</time>
      </trkpt>
      <trkpt lat="53.6672" lon="11.15839">
        <ele>108.458907</ele>
        <time>2024-07-20T09:59:02.237Z</time>
      </trkpt>
      <trkpt lat="53.66711" lon="11.15852">
        <ele>108.372618</ele>
        <time>2024-07-20T09:59:04.228Z</time>
      </trkpt>
      <trkpt lat="53.66702" lon="11.15865">
        <ele>108.286086</ele>
        <time>2024-07-20T09:59:06.243Z</time>
      </trkpt>
      <trkpt lat="53.66693" lon="11.15878">
        <ele>108.202585</ele>
        <time>2024-07-20T09:59:08.243Z</time>
      </trkpt>
      <trkpt lat="53.66685" lon="11.15891">
        <ele>108.119111</ele>
        <time>2024-07-20T09:59:10.251Z</time>
      </trkpt>
      <trkpt lat="53.66676" lon="11.15905">
        <ele>108.031701</ele>
        <time>2024-07-20T09:59:12.240Z</time>
      </trkpt>
      <trkpt lat="53.66667" lon="11.15918">
        <ele>107.945168</ele>
        <time>2024-07-20T09:59:14.259Z</time>
      </trkpt>
      <trkpt lat="53.66658" lon="11.15931">
        <ele>107.858879</ele>
        <time>2024-07-20T09:59:16.246Z</time>
      </trkpt>
      <trkpt lat="53.66649" lon="11.15944">
        <ele>107.774833</ele>
        <time>2024-07-20T09:59:18.256Z</time>
      </trkpt>
      <trkpt lat="53.6664" lon="11.15956">
        <ele>107.691351</ele>
        <time>2024-07-20T09:59:20.266Z</time>
      </trkpt>
      <trkpt lat="53.66632" lon="11.15969">
        <ele>107.609998</ele>
        <time>2024-07-20T09:59:22.247Z</time>
      </trkpt>
      <trkpt lat="53.66625" lon="11.15981">
        <ele>107.533193</ele>
        <time>2024-07-20T09:59:24.231Z</time>
      </trkpt>
      <trkpt lat="53.66618" lon="11.15992">
        <ele>107.473662</ele>
        <time>2024-07-20T09:59:26.230Z</time>
      </trkpt>
      <trkpt lat="53.6661" lon="11.16003">
        <ele>107.536656</ele>
        <time>2024-07-20T09:59:28.246Z</time>
      </trkpt>
      <trkpt lat="53.66603" lon="11.16014">
        <ele>107.599447</ele>
        <time>2024-07-20T09:59:30.230Z</time>
      </trkpt>
      <trkpt lat="53.66596" lon="11.16024">
        <ele>107.660968</ele>
        <time>2024-07-20T09:59:32.235Z</time>
      </trkpt>
      <trkpt lat="53.66586" lon="11.1604">
        <ele>107.747849</ele>
        <time>2024-07-20T09:59:35.226Z</time>
      </trkpt>
      <trkpt lat="53.66576" lon="11.16053">
        <ele>107.828062</ele>
        <time>2024-07-20T09:59:38.209Z</time>
      </trkpt>
      <trkpt lat="53.66567" lon="11.16067">
        <ele>107.90877</ele>
        <time>2024-07-20T09:59:41.243Z</time>
      </trkpt>
      <trkpt lat="53.66557" lon="11.1608">
        <ele>107.987282</ele>
        <time>2024-07-20T09:59:44.231Z</time>
      </trkpt>
      <trkpt lat="53.66548" lon="11.16094">
        <ele>108.067504</ele>
        <time>2024-07-20T09:59:47.227Z</time>
      </trkpt>
      <trkpt lat="53.6654" lon="11.16107">
        <ele>108.139547</ele>
        <time>2024-07-20T09:59:50.227Z</time>
      </trkpt>
      <trkpt lat="53.66536" lon="11.16125">
        <ele>108.211826</ele>
        <time>2024-07-20T09:59:53.225Z</time>
      </trkpt>
      <trkpt lat="53.6653" lon="11.1614">
        <ele>108.282818</ele>
        <time>2024-07-20T10:00:07.236Z</time>
      </trkpt>
      <trkpt lat="53.66518" lon="11.16144">
        <ele>108.360733</ele>
        <time>2024-07-20T10:00:12.233Z</time>
      </trkpt>
      <trkpt lat="53.66509" lon="11.16153">
        <ele>108.429432</ele>
        <time>2024-07-20T10:00:15.233Z</time>
      </trkpt>
      <trkpt lat="53.665" lon="11.16166">
        <ele>108.501041</ele>
        <time>2024-07-20T10:00:18.239Z</time>
      </trkpt>
      <trkpt lat="53.66491" lon="11.16179">
        <ele>108.579308</ele>
        <time>2024-07-20T10:00:21.233Z</time>
      </trkpt>
      <trkpt lat="53.66482" lon="11.16194">
        <ele>108.621782</ele>
        <time>2024-07-20T10:00:24.240Z</time>
      </trkpt>
      <trkpt lat="53.66475" lon="11.16204">
        <ele>108.612287</ele>
        <time>2024-07-20T10:00:26.234Z</time>
      </trkpt>
      <trkpt lat="53.66467" lon="11.16215">
        <ele>108.602133</ele>
        <time>2024-07-20T10:00:28.231Z</time>
      </trkpt>
      <trkpt lat="53.66459" lon="11.16227">
        <ele>108.591042</ele>
        <time>2024-07-20T10:00:30.232Z</time>
      </trkpt>
      <trkpt lat="53.66451" lon="11.1624">
        <ele>108.579528</ele>
        <time>2024-07-20T10:00:32.221Z</time>
      </trkpt>
      <trkpt lat="53.66442" lon="11.16253">
        <ele>108.568094</ele>
        <time>2024-07-20T10:00:34.228Z</time>
      </trkpt>
      <trkpt lat="53.66435" lon="11.16264">
        <ele>108.557745</ele>
        <time>2024-07-20T10:00:36.237Z</time>
      </trkpt>
      <trkpt lat="53.66427" lon="11.16275">
        <ele>108.547513</ele>
        <time>2024-07-20T10:00:38.236Z</time>
      </trkpt>
      <trkpt lat="53.6642" lon="11.16285">
        <ele>108.538206</ele>
        <time>2024-07-20T10:00:40.234Z</time>
      </trkpt>
      <trkpt lat="53.66413" lon="11.16296">
        <ele>108.528823</ele>
        <time>2024-07-20T10:00:42.249Z</time>
      </trkpt>
      <trkpt lat="53.66406" lon="11.16307">
        <ele>108.518967</ele>
        <time>2024-07-20T10:00:44.237Z</time>
      </trkpt>
      <trkpt lat="53.66399" lon="11.16318">
        <ele>108.509197</ele>
        <time>2024-07-20T10:00:46.261Z</time>
      </trkpt>
      <trkpt lat="53.66391" lon="11.1633">
        <ele>108.498071</ele>
        <time>2024-07-20T10:00:48.248Z</time>
      </trkpt>
      <trkpt lat="53.66383" lon="11.16342">
        <ele>108.487176</ele>
        <time>2024-07-20T10:00:50.240Z</time>
      </trkpt>
      <trkpt lat="53.66375" lon="11.16353">
        <ele>108.47671</ele>
        <time>2024-07-20T10:00:52.249Z</time>
      </trkpt>
      <trkpt lat="53.66367" lon="11.16365">
        <ele>108.466385</ele>
        <time>2024-07-20T10:00:54.246Z</time>
      </trkpt>
      <trkpt lat="53.6636" lon="11.16376">
        <ele>108.456405</ele>
        <time>2024-07-20T10:00:56.265Z</time>
      </trkpt>
      <trkpt lat="53.66353" lon="11.16387">
        <ele>108.446912</ele>
        <time>2024-07-20T10:00:58.257Z</time>
      </trkpt>
      <trkpt lat="53.66345" lon="11.164">
        <ele>108.252676</ele>
        <time>2024-07-20T10:01:01.258Z</time>
      </trkpt>
      <trkpt lat="53.66331" lon="11.16422">
        <ele>107.87293</ele>
        <time>2024-07-20T10:01:20.259Z</time>
      </trkpt>
      <trkpt lat="53.66321" lon="11.16435">
        <ele>107.617136</ele>
        <time>2024-07-20T10:01:23.224Z</time>
      </trkpt>
      <trkpt lat="53.66314" lon="11.16446">
        <ele>107.423019</ele>
        <time>2024-07-20T10:01:25.225Z</time>
      </trkpt>
      <trkpt lat="53.66307" lon="11.16456">
        <ele>107.21967</ele>
        <time>2024-07-20T10:01:27.235Z</time>
      </trkpt>
      <trkpt lat="53.663" lon="11.16467">
        <ele>107.022513</ele>
        <time>2024-07-20T10:01:29.228Z</time>
      </trkpt>
      <trkpt lat="53.66292" lon="11.16479">
        <ele>106.803449</ele>
        <time>2024-07-20T10:01:31.229Z</time>
      </trkpt>
      <trkpt lat="53.66283" lon="11.16492">
        <ele>106.566421</ele>
        <time>2024-07-20T10:01:33.237Z</time>
      </trkpt>
      <trkpt lat="53.66274" lon="11.16506">
        <ele>106.317638</ele>
        <time>2024-07-20T10:01:35.233Z</time>
      </trkpt>
      <trkpt lat="53.66264" lon="11.1652">
        <ele>106.057672</ele>
        <time>2024-07-20T10:01:37.227Z</time>
      </trkpt>
      <trkpt lat="53.66254" lon="11.16534">
        <ele>105.783789</ele>
        <time>2024-07-20T10:01:39.244Z</time>
      </trkpt>
      <trkpt lat="53.66245" lon="11.16549">
        <ele>105.522164</ele>
        <time>2024-07-20T10:01:41.265Z</time>
      </trkpt>
      <trkpt lat="53.66235" lon="11.16563">
        <ele>105.26009</ele>
        <time>2024-07-20T10:01:43.242Z</time>
      </trkpt>
      <trkpt lat="53.66226" lon="11.16577">
        <ele>105.006681</ele>
        <time>2024-07-20T10:01:45.246Z</time>
      </trkpt>
      <trkpt lat="53.66216" lon="11.16591">
        <ele>104.771223</ele>
        <time>2024-07-20T10:01:47.247Z</time>
      </trkpt>
      <trkpt lat="53.66207" lon="11.16605">
        <ele>104.959561</ele>
        <time>2024-07-20T10:01:49.241Z</time>
      </trkpt>
      <trkpt lat="53.66202" lon="11.16624">
        <ele>105.140558</ele>
        <time>2024-07-20T10:01:51.237Z</time>
      </trkpt>
      <trkpt lat="53.66204" lon="11.16645">
        <ele>105.327506</ele>
        <time>2024-07-20T10:01:53.240Z</time>
      </trkpt>
      <trkpt lat="53.66206" lon="11.16665">
        <ele>105.506866</ele>
        <time>2024-07-20T10:01:55.258Z</time>
      </trkpt>
      <trkpt lat="53.662" lon="11.16678">
        <ele>105.654475</ele>
        <time>2024-07-20T10:01:57.238Z</time>
      </trkpt>
      <trkpt lat="53.66189" lon="11.16671">
        <ele>105.832659</ele>
        <time>2024-07-20T10:02:00.243Z</time>
      </trkpt>
      <trkpt lat="53.66179" lon="11.16661">
        <ele>106.017964</ele>
        <time>2024-07-20T10:02:03.244Z</time>
      </trkpt>
      <trkpt lat="53.66167" lon="11.16664">
        <ele>106.19489</ele>
        <time>2024-07-20T10:02:06.237Z</time>
      </trkpt>
      <trkpt lat="53.66159" lon="11.16678">
        <ele>106.365166</ele>
        <time>2024-07-20T10:02:09.239Z</time>
      </trkpt>
      <trkpt lat="53.66151" lon="11.1669">
        <ele>106.525852</ele>
        <time>2024-07-20T10:02:12.255Z</time>
      </trkpt>
      <trkpt lat="53.66143" lon="11.16702">
        <ele>106.68484</ele>
        <time>2024-07-20T10:02:15.251Z</time>
      </trkpt>
      <trkpt lat="53.66135" lon="11.16714">
        <ele>106.841034</ele>
        <time>2024-07-20T10:02:18.264Z</time>
      </trkpt>
      <trkpt lat="53.66128" lon="11.16724">
        <ele>106.983423</ele>
        <time>2024-07-20T10:02:21.262Z</time>
      </trkpt>
      <trkpt lat="53.6612" lon="11.16736">
        <ele>107.134955</ele>
        <time>2024-07-20T10:02:24.249Z</time>
      </trkpt>
      <trkpt lat="53.66112" lon="11.16748">
        <ele>107.292176</ele>
        <time>2024-07-20T10:02:27.243Z</time>
      </trkpt>
      <trkpt lat="53.66105" lon="11.16759">
        <ele>107.451941</ele>
        <time>2024-07-20T10:02:30.257Z</time>
      </trkpt>
      <trkpt lat="53.66096" lon="11.16772">
        <ele>107.720343</ele>
        <time>2024-07-20T10:02:33.242Z</time>
      </trkpt>
      <trkpt lat="53.66089" lon="11.16784">
        <ele>107.970943</ele>
        <time>2024-07-20T10:02:36.256Z</time>
      </trkpt>
      <trkpt lat="53.66081" lon="11.16795">
        <ele>108.218039</ele>
        <time>2024-07-20T10:02:39.241Z</time>
      </trkpt>
      <trkpt lat="53.66074" lon="11.16807">
        <ele>108.449026</ele>
        <time>2024-07-20T10:02:42.241Z</time>
      </trkpt>
      <trkpt lat="53.66067" lon="11.16818">
        <ele>108.68231</ele>
        <time>2024-07-20T10:02:45.229Z</time>
      </trkpt>
      <trkpt lat="53.66058" lon="11.16831">
        <ele>108.982059</ele>
        <time>2024-07-20T10:02:49.230Z</time>
      </trkpt>
      <trkpt lat="53.6605" lon="11.16843">
        <ele>109.234714</ele>
        <time>2024-07-20T10:02:52.243Z</time>
      </trkpt>
      <trkpt lat="53.66043" lon="11.16855">
        <ele>109.474141</ele>
        <time>2024-07-20T10:02:55.232Z</time>
      </trkpt>
      <trkpt lat="53.66035" lon="11.16867">
        <ele>109.737043</ele>
        <time>2024-07-20T10:02:58.233Z</time>
      </trkpt>
      <trkpt lat="53.66025" lon="11.16879">
        <ele>110.015848</ele>
        <time>2024-07-20T10:03:01.245Z</time>
      </trkpt>
      <trkpt lat="53.66017" lon="11.16892">
        <ele>110.291806</ele>
        <time>2024-07-20T10:03:04.253Z</time>
      </trkpt>
      <trkpt lat="53.66008" lon="11.16904">
        <ele>110.565641</ele>
        <time>2024-07-20T10:03:07.239Z</time>
      </trkpt>
      <trkpt lat="53.66" lon="11.16916">
        <ele>110.825794</ele>
        <time>2024-07-20T10:03:10.234Z</time>
      </trkpt>
      <trkpt lat="53.65992" lon="11.16928">
        <ele>111.087672</ele>
        <time>2024-07-20T10:03:13.243Z</time>
      </trkpt>
      <trkpt lat="53.65984" lon="11.1694">
        <ele>111.339461</ele>
        <time>2024-07-20T10:03:16.227Z</time>
      </trkpt>
      <trkpt lat="53.65976" lon="11.16951">
        <ele>111.587665</ele>
        <time>2024-07-20T10:03:19.225Z</time>
      </trkpt>
      <trkpt lat="53.65969" lon="11.16964">
        <ele>111.783567</ele>
        <time>2024-07-20T10:03:22.234Z</time>
      </trkpt>
      <trkpt lat="53.65961" lon="11.16975">
        <ele>111.784352</ele>
        <time>2024-07-20T10:03:25.233Z</time>
      </trkpt>
      <trkpt lat="53.65954" lon="11.16986">
        <ele>111.785117</ele>
        <time>2024-07-20T10:03:28.229Z</time>
      </trkpt>
      <trkpt lat="53.65946" lon="11.16999">
        <ele>111.785979</ele>
        <time>2024-07-20T10:03:32.235Z</time>
      </trkpt>
      <trkpt lat="53.65936" lon="11.17006">
        <ele>111.786758</ele>
        <time>2024-07-20T10:03:36.236Z</time>
      </trkpt>
      <trkpt lat="53.65929" lon="11.17014">
        <ele>111.787465</ele>
        <time>2024-07-20T10:03:39.238Z</time>
      </trkpt>
      <trkpt lat="53.65922" lon="11.17024">
        <ele>111.788162</ele>
        <time>2024-07-20T10:03:42.250Z</time>
      </trkpt>
      <trkpt lat="53.65914" lon="11.17035">
        <ele>111.788921</ele>
        <time>2024-07-20T10:03:46.234Z</time>
      </trkpt>
      <trkpt lat="53.65906" lon="11.1705">
        <ele>111.78988</ele>
        <time>2024-07-20T10:04:12.240Z</time>
      </trkpt>
      <trkpt lat="53.65896" lon="11.17074">
        <ele>111.791243</ele>
        <time>2024-07-20T10:04:46.237Z</time>
      </trkpt>
      <trkpt lat="53.65888" lon="11.17084">
        <ele>111.791949</ele>
        <time>2024-07-20T10:04:50.240Z</time>
      </trkpt>
      <trkpt lat="53.6588" lon="11.17091">
        <ele>111.792656</ele>
        <time>2024-07-20T10:04:54.237Z</time>
      </trkpt>
      <trkpt lat="53.65873" lon="11.17101">
        <ele>111.79338</ele>
        <time>2024-07-20T10:04:58.255Z</time>
      </trkpt>
      <trkpt lat="53.65866" lon="11.17111">
        <ele>111.79408</ele>
        <time>2024-07-20T10:05:02.232Z</time>
      </trkpt>
      <trkpt lat="53.65874" lon="11.17099">
        <ele>111.794878</ele>
        <time>2024-07-20T10:05:36.241Z</time>
      </trkpt>
      <trkpt lat="53.65881" lon="11.17088">
        <ele>111.795622</ele>
        <time>2024-07-20T10:05:40.242Z</time>
      </trkpt>
      <trkpt lat="53.6589" lon="11.17081">
        <ele>111.796408</ele>
        <time>2024-07-20T10:05:44.235Z</time>
      </trkpt>
      <trkpt lat="53.65899" lon="11.17086">
        <ele>111.797125</ele>
        <time>2024-07-20T10:05:47.243Z</time>
      </trkpt>
      <trkpt lat="53.65906" lon="11.17099">
        <ele>111.61975</ele>
        <time>2024-07-20T10:05:50.222Z</time>
      </trkpt>
      <trkpt lat="53.65912" lon="11.17113">
        <ele>111.397532</ele>
        <time>2024-07-20T10:05:53.233Z</time>
      </trkpt>
      <trkpt lat="53.6592" lon="11.17128">
        <ele>111.157126</ele>
        <time>2024-07-20T10:05:56.250Z</time>
      </trkpt>
      <trkpt lat="53.65926" lon="11.17139">
        <ele>110.967754</ele>
        <time>2024-07-20T10:05:59.240Z</time>
      </trkpt>
      <trkpt lat="53.65933" lon="11.17152">
        <ele>110.752768</ele>
        <time>2024-07-20T10:06:04.253Z</time>
      </trkpt>
      <trkpt lat="53.65931" lon="11.1716">
        <ele>110.650317</ele>
        <time>2024-07-20T10:06:20.500Z</time>
      </trkpt>
      <trkpt lat="53.65926" lon="11.1713">
        <ele>110.257372</ele>
        <time>2024-07-20T10:26:36.263Z</time>
      </trkpt>
      <trkpt lat="53.65917" lon="11.1712">
        <ele>110.030933</ele>
        <time>2024-07-20T10:26:41.245Z</time>
      </trkpt>
      <trkpt lat="53.65909" lon="11.17104">
        <ele>109.77083</ele>
        <time>2024-07-20T10:26:45.223Z</time>
      </trkpt>
      <trkpt lat="53.65901" lon="11.1709">
        <ele>109.528209</ele>
        <time>2024-07-20T10:26:49.241Z</time>
      </trkpt>
      <trkpt lat="53.65891" lon="11.17079">
        <ele>109.295846</ele>
        <time>2024-07-20T10:26:53.232Z</time>
      </trkpt>
      <trkpt lat="53.65881" lon="11.17086">
        <ele>109.062277</ele>
        <time>2024-07-20T10:26:57.224Z</time>
      </trkpt>
      <trkpt lat="53.65874" lon="11.17096">
        <ele>108.86431</ele>
        <time>2024-07-20T10:27:00.229Z</time>
      </trkpt>
      <trkpt lat="53.65866" lon="11.17107">
        <ele>108.657707</ele>
        <time>2024-07-20T10:27:03.243Z</time>
      </trkpt>
      <trkpt lat="53.65858" lon="11.17119">
        <ele>108.441526</ele>
        <time>2024-07-20T10:27:06.222Z</time>
      </trkpt>
      <trkpt lat="53.6585" lon="11.17129">
        <ele>108.228294</ele>
        <time>2024-07-20T10:27:09.230Z</time>
      </trkpt>
      <trkpt lat="53.65843" lon="11.1714">
        <ele>108.023509</ele>
        <time>2024-07-20T10:27:12.237Z</time>
      </trkpt>
      <trkpt lat="53.65835" lon="11.17151">
        <ele>107.918154</ele>
        <time>2024-07-20T10:27:15.231Z</time>
      </trkpt>
      <trkpt lat="53.65827" lon="11.17161">
        <ele>107.816909</ele>
        <time>2024-07-20T10:27:18.223Z</time>
      </trkpt>
      <trkpt lat="53.65819" lon="11.17172">
        <ele>107.715111</ele>
        <time>2024-07-20T10:27:21.252Z</time>
      </trkpt>
      <trkpt lat="53.65811" lon="11.17183">
        <ele>107.609769</ele>
        <time>2024-07-20T10:27:24.232Z</time>
      </trkpt>
      <trkpt lat="53.65803" lon="11.17196">
        <ele>107.499318</ele>
        <time>2024-07-20T10:27:27.231Z</time>
      </trkpt>
      <trkpt lat="53.65795" lon="11.17208">
        <ele>107.387298</ele>
        <time>2024-07-20T10:27:30.202Z</time>
      </trkpt>
      <trkpt lat="53.65787" lon="11.17221">
        <ele>107.274685</ele>
        <time>2024-07-20T10:27:33.216Z</time>
      </trkpt>
      <trkpt lat="53.6578" lon="11.17234">
        <ele>107.165048</ele>
        <time>2024-07-20T10:27:36.259Z</time>
      </trkpt>
      <trkpt lat="53.65771" lon="11.17247">
        <ele>107.04257</ele>
        <time>2024-07-20T10:27:39.218Z</time>
      </trkpt>
      <trkpt lat="53.65763" lon="11.17258">
        <ele>106.944287</ele>
        <time>2024-07-20T10:27:42.238Z</time>
      </trkpt>
      <trkpt lat="53.65755" lon="11.17271">
        <ele>106.82516</ele>
        <time>2024-07-20T10:27:46.239Z</time>
      </trkpt>
      <trkpt lat="53.65747" lon="11.17282">
        <ele>106.722198</ele>
        <time>2024-07-20T10:27:49.232Z</time>
      </trkpt>
      <trkpt lat="53.65739" lon="11.17295">
        <ele>106.608259</ele>
        <time>2024-07-20T10:27:52.242Z</time>
      </trkpt>
      <trkpt lat="53.6573" lon="11.17309">
        <ele>106.483889</ele>
        <time>2024-07-20T10:27:55.233Z</time>
      </trkpt>
      <trkpt lat="53.6572" lon="11.17323">
        <ele>106.35323</ele>
        <time>2024-07-20T10:27:58.231Z</time>
      </trkpt>
      <trkpt lat="53.65711" lon="11.17339">
        <ele>106.216108</ele>
        <time>2024-07-20T10:28:01.253Z</time>
      </trkpt>
      <trkpt lat="53.65702" lon="11.17353">
        <ele>106.067116</ele>
        <time>2024-07-20T10:28:04.225Z</time>
      </trkpt>
      <trkpt lat="53.65692" lon="11.17366">
        <ele>105.922867</ele>
        <time>2024-07-20T10:28:07.231Z</time>
      </trkpt>
      <trkpt lat="53.65684" lon="11.17379">
        <ele>105.783929</ele>
        <time>2024-07-20T10:28:10.235Z</time>
      </trkpt>
      <trkpt lat="53.65675" lon="11.17394">
        <ele>105.628172</ele>
        <time>2024-07-20T10:28:13.222Z</time>
      </trkpt>
      <trkpt lat="53.65666" lon="11.17408">
        <ele>105.474961</ele>
        <time>2024-07-20T10:28:16.242Z</time>
      </trkpt>
      <trkpt lat="53.65656" lon="11.17422">
        <ele>105.316505</ele>
        <time>2024-07-20T10:28:19.248Z</time>
      </trkpt>
      <trkpt lat="53.65647" lon="11.17436">
        <ele>105.159123</ele>
        <time>2024-07-20T10:28:22.236Z</time>
      </trkpt>
      <trkpt lat="53.65637" lon="11.1745">
        <ele>105.008227</ele>
        <time>2024-07-20T10:28:25.252Z</time>
      </trkpt>
      <trkpt lat="53.65629" lon="11.17466">
        <ele>104.852764</ele>
        <time>2024-07-20T10:28:28.244Z</time>
      </trkpt>
      <trkpt lat="53.6562" lon="11.17481">
        <ele>104.697253</ele>
        <time>2024-07-20T10:28:31.304Z</time>
      </trkpt>
      <trkpt lat="53.65611" lon="11.17496">
        <ele>104.537808</ele>
        <time>2024-07-20T10:28:34.239Z</time>
      </trkpt>
      <trkpt lat="53.65603" lon="11.17506">
        <ele>104.424032</ele>
        <time>2024-07-20T10:28:36.231Z</time>
      </trkpt>
      <trkpt lat="53.65594" lon="11.17522">
        <ele>104.255227</ele>
        <time>2024-07-20T10:28:39.244Z</time>
      </trkpt>
      <trkpt lat="53.65585" lon="11.1754">
        <ele>104.085558</ele>
        <time>2024-07-20T10:28:42.230Z</time>
      </trkpt>
      <trkpt lat="53.65579" lon="11.17552">
        <ele>103.966775</ele>
        <time>2024-07-20T10:28:44.253Z</time>
      </trkpt>
      <trkpt lat="53.65573" lon="11.17565">
        <ele>103.769532</ele>
        <time>2024-07-20T10:28:46.250Z</time>
      </trkpt>
      <trkpt lat="53.65566" lon="11.17578">
        <ele>103.565889</ele>
        <time>2024-07-20T10:28:48.243Z</time>
      </trkpt>
      <trkpt lat="53.6556" lon="11.17592">
        <ele>103.356216</ele>
        <time>2024-07-20T10:28:50.235Z</time>
      </trkpt>
      <trkpt lat="53.65554" lon="11.17607">
        <ele>103.139457</ele>
        <time>2024-07-20T10:28:52.235Z</time>
      </trkpt>
      <trkpt lat="53.65547" lon="11.17622">
        <ele>102.919315</ele>
        <time>2024-07-20T10:28:54.234Z</time>
      </trkpt>
      <trkpt lat="53.65541" lon="11.17638">
        <ele>102.691787</ele>
        <time>2024-07-20T10:28:56.239Z</time>
      </trkpt>
      <trkpt lat="53.65535" lon="11.17654">
        <ele>102.475158</ele>
        <time>2024-07-20T10:28:58.255Z</time>
      </trkpt>
      <trkpt lat="53.6553" lon="11.17668">
        <ele>102.274768</ele>
        <time>2024-07-20T10:29:00.244Z</time>
      </trkpt>
      <trkpt lat="53.65525" lon="11.17684">
        <ele>102.070013</ele>
        <time>2024-07-20T10:29:02.245Z</time>
      </trkpt>
      <trkpt lat="53.65521" lon="11.17699">
        <ele>101.86405</ele>
        <time>2024-07-20T10:29:04.247Z</time>
      </trkpt>
      <trkpt lat="53.65517" lon="11.17714">
        <ele>101.675605</ele>
        <time>2024-07-20T10:29:06.243Z</time>
      </trkpt>
      <trkpt lat="53.65515" lon="11.1773">
        <ele>101.478959</ele>
        <time>2024-07-20T10:29:08.229Z</time>
      </trkpt>
      <trkpt lat="53.65512" lon="11.17747">
        <ele>101.27262</ele>
        <time>2024-07-20T10:29:10.234Z</time>
      </trkpt>
      <trkpt lat="53.65508" lon="11.17763">
        <ele>101.077487</ele>
        <time>2024-07-20T10:29:12.252Z</time>
      </trkpt>
      <trkpt lat="53.65505" lon="11.17778">
        <ele>100.884337</ele>
        <time>2024-07-20T10:29:14.232Z</time>
      </trkpt>
      <trkpt lat="53.65502" lon="11.17793">
        <ele>100.692205</ele>
        <time>2024-07-20T10:29:16.251Z</time>
      </trkpt>
      <trkpt lat="53.65499" lon="11.17808">
        <ele>100.508201</ele>
        <time>2024-07-20T10:29:18.282Z</time>
      </trkpt>
      <trkpt lat="53.65495" lon="11.17828">
        <ele>100.277599</ele>
        <time>2024-07-20T10:29:21.257Z</time>
      </trkpt>
      <trkpt lat="53.65491" lon="11.17849">
        <ele>100.061518</ele>
        <time>2024-07-20T10:29:24.248Z</time>
      </trkpt>
      <trkpt lat="53.65489" lon="11.17867">
        <ele>99.87284</ele>
        <time>2024-07-20T10:29:27.241Z</time>
      </trkpt>
      <trkpt lat="53.65472" lon="11.17877">
        <ele>99.571472</ele>
        <time>2024-07-20T10:30:45.229Z</time>
      </trkpt>
      <trkpt lat="53.6547" lon="11.17895">
        <ele>99.385524</ele>
        <time>2024-07-20T10:30:50.234Z</time>
      </trkpt>
      <trkpt lat="53.65469" lon="11.17913">
        <ele>99.211605</ele>
        <time>2024-07-20T10:30:54.256Z</time>
      </trkpt>
      <trkpt lat="53.65469" lon="11.17933">
        <ele>99.00586</ele>
        <time>2024-07-20T10:30:58.246Z</time>
      </trkpt>
      <trkpt lat="53.65471" lon="11.17951">
        <ele>98.827789</ele>
        <time>2024-07-20T10:31:01.263Z</time>
      </trkpt>
      <trkpt lat="53.65475" lon="11.17969">
        <ele>98.635857</ele>
        <time>2024-07-20T10:31:04.243Z</time>
      </trkpt>
      <trkpt lat="53.6548" lon="11.17988">
        <ele>98.42445</ele>
        <time>2024-07-20T10:31:07.221Z</time>
      </trkpt>
      <trkpt lat="53.65485" lon="11.18007">
        <ele>98.217606</ele>
        <time>2024-07-20T10:31:10.229Z</time>
      </trkpt>
      <trkpt lat="53.6549" lon="11.18025">
        <ele>98.018113</ele>
        <time>2024-07-20T10:31:13.224Z</time>
      </trkpt>
      <trkpt lat="53.65494" lon="11.18042">
        <ele>97.833008</ele>
        <time>2024-07-20T10:31:16.245Z</time>
      </trkpt>
      <trkpt lat="53.65498" lon="11.1806">
        <ele>97.634853</ele>
        <time>2024-07-20T10:31:19.234Z</time>
      </trkpt>
      <trkpt lat="53.65502" lon="11.18079">
        <ele>97.439418</ele>
        <time>2024-07-20T10:31:22.220Z</time>
      </trkpt>
      <trkpt lat="53.65506" lon="11.18098">
        <ele>97.512519</ele>
        <time>2024-07-20T10:31:25.226Z</time>
      </trkpt>
      <trkpt lat="53.6551" lon="11.18115">
        <ele>97.77837</ele>
        <time>2024-07-20T10:31:28.243Z</time>
      </trkpt>
      <trkpt lat="53.65514" lon="11.18133">
        <ele>98.050287</ele>
        <time>2024-07-20T10:31:31.292Z</time>
      </trkpt>
      <trkpt lat="53.65518" lon="11.18152">
        <ele>98.323541</ele>
        <time>2024-07-20T10:31:34.255Z</time>
      </trkpt>
      <trkpt lat="53.65521" lon="11.18168">
        <ele>98.561278</ele>
        <time>2024-07-20T10:31:37.240Z</time>
      </trkpt>
      <trkpt lat="53.65525" lon="11.18183">
        <ele>98.791697</ele>
        <time>2024-07-20T10:31:40.237Z</time>
      </trkpt>
      <trkpt lat="53.65528" lon="11.18198">
        <ele>99.012065</ele>
        <time>2024-07-20T10:31:43.238Z</time>
      </trkpt>
      <trkpt lat="53.65532" lon="11.18212">
        <ele>99.224223</ele>
        <time>2024-07-20T10:31:46.240Z</time>
      </trkpt>
      <trkpt lat="53.65535" lon="11.18226">
        <ele>99.43853</ele>
        <time>2024-07-20T10:31:49.238Z</time>
      </trkpt>
      <trkpt lat="53.65538" lon="11.18243">
        <ele>99.687625</ele>
        <time>2024-07-20T10:31:52.230Z</time>
      </trkpt>
      <trkpt lat="53.65542" lon="11.1826">
        <ele>99.939225</ele>
        <time>2024-07-20T10:31:55.236Z</time>
      </trkpt>
      <trkpt lat="53.65546" lon="11.18278">
        <ele>100.20072</ele>
        <time>2024-07-20T10:31:58.220Z</time>
      </trkpt>
      <trkpt lat="53.65551" lon="11.18296">
        <ele>100.487216</ele>
        <time>2024-07-20T10:32:01.278Z</time>
      </trkpt>
      <trkpt lat="53.65555" lon="11.18314">
        <ele>100.750117</ele>
        <time>2024-07-20T10:32:04.233Z</time>
      </trkpt>
      <trkpt lat="53.65558" lon="11.18332">
        <ele>101.019389</ele>
        <time>2024-07-20T10:32:07.243Z</time>
      </trkpt>
      <trkpt lat="53.65563" lon="11.18351">
        <ele>101.306012</ele>
        <time>2024-07-20T10:32:10.253Z</time>
      </trkpt>
      <trkpt lat="53.65567" lon="11.1837">
        <ele>101.58137</ele>
        <time>2024-07-20T10:32:13.219Z</time>
      </trkpt>
      <trkpt lat="53.65571" lon="11.18389">
        <ele>101.684046</ele>
        <time>2024-07-20T10:32:16.233Z</time>
      </trkpt>
      <trkpt lat="53.65574" lon="11.18408">
        <ele>101.7749</ele>
        <time>2024-07-20T10:32:19.220Z</time>
      </trkpt>
      <trkpt lat="53.65578" lon="11.18427">
        <ele>101.866759</ele>
        <time>2024-07-20T10:32:22.247Z</time>
      </trkpt>
      <trkpt lat="53.65581" lon="11.18446">
        <ele>101.960187</ele>
        <time>2024-07-20T10:32:25.240Z</time>
      </trkpt>
      <trkpt lat="53.65585" lon="11.18466">
        <ele>102.056045</ele>
        <time>2024-07-20T10:32:28.237Z</time>
      </trkpt>
      <trkpt lat="53.65588" lon="11.18485">
        <ele>102.147121</ele>
        <time>2024-07-20T10:32:31.267Z</time>
      </trkpt>
      <trkpt lat="53.65592" lon="11.18504">
        <ele>102.238888</ele>
        <time>2024-07-20T10:32:34.243Z</time>
      </trkpt>
      <trkpt lat="53.65596" lon="11.18522">
        <ele>102.328223</ele>
        <time>2024-07-20T10:32:37.232Z</time>
      </trkpt>
      <trkpt lat="53.65601" lon="11.18541">
        <ele>102.421077</ele>
        <time>2024-07-20T10:32:40.239Z</time>
      </trkpt>
      <trkpt lat="53.65605" lon="11.18559">
        <ele>102.511343</ele>
        <time>2024-07-20T10:32:43.231Z</time>
      </trkpt>
      <trkpt lat="53.65609" lon="11.18578">
        <ele>102.603544</ele>
        <time>2024-07-20T10:32:46.240Z</time>
      </trkpt>
      <trkpt lat="53.65613" lon="11.18596">
        <ele>102.693548</ele>
        <time>2024-07-20T10:32:49.241Z</time>
      </trkpt>
      <trkpt lat="53.65617" lon="11.18613">
        <ele>102.779326</ele>
        <time>2024-07-20T10:32:52.237Z</time>
      </trkpt>
      <trkpt lat="53.6562" lon="11.18631">
        <ele>102.863474</ele>
        <time>2024-07-20T10:32:55.236Z</time>
      </trkpt>
      <trkpt lat="53.65624" lon="11.18648">
        <ele>102.948816</ele>
        <time>2024-07-20T10:32:58.248Z</time>
      </trkpt>
      <trkpt lat="53.65628" lon="11.18665">
        <ele>103.087722</ele>
        <time>2024-07-20T10:33:01.288Z</time>
      </trkpt>
      <trkpt lat="53.65631" lon="11.18683">
        <ele>103.309846</ele>
        <time>2024-07-20T10:33:04.230Z</time>
      </trkpt>
      <trkpt lat="53.65635" lon="11.18702">
        <ele>103.544072</ele>
        <time>2024-07-20T10:33:07.246Z</time>
      </trkpt>
      <trkpt lat="53.65639" lon="11.18722">
        <ele>103.786132</ele>
        <time>2024-07-20T10:33:10.225Z</time>
      </trkpt>
      <trkpt lat="53.65643" lon="11.1874">
        <ele>104.00716</ele>
        <time>2024-07-20T10:33:13.241Z</time>
      </trkpt>
      <trkpt lat="53.65646" lon="11.18758">
        <ele>104.230854</ele>
        <time>2024-07-20T10:33:16.250Z</time>
      </trkpt>
      <trkpt lat="53.65651" lon="11.18777">
        <ele>104.462854</ele>
        <time>2024-07-20T10:33:19.236Z</time>
      </trkpt>
      <trkpt lat="53.65654" lon="11.18795">
        <ele>104.686718</ele>
        <time>2024-07-20T10:33:22.243Z</time>
      </trkpt>
      <trkpt lat="53.65658" lon="11.18814">
        <ele>104.916533</ele>
        <time>2024-07-20T10:33:25.204Z</time>
      </trkpt>
      <trkpt lat="53.65662" lon="11.18831">
        <ele>105.13305</ele>
        <time>2024-07-20T10:33:28.210Z</time>
      </trkpt>
      <trkpt lat="53.65665" lon="11.1885">
        <ele>105.358855</ele>
        <time>2024-07-20T10:33:31.252Z</time>
      </trkpt>
      <trkpt lat="53.6567" lon="11.1887">
        <ele>105.603788</ele>
        <time>2024-07-20T10:33:34.222Z</time>
      </trkpt>
      <trkpt lat="53.65674" lon="11.18888">
        <ele>105.83313</ele>
        <time>2024-07-20T10:33:37.238Z</time>
      </trkpt>
      <trkpt lat="53.65678" lon="11.18906">
        <ele>106.053978</ele>
        <time>2024-07-20T10:33:40.243Z</time>
      </trkpt>
      <trkpt lat="53.65681" lon="11.18925">
        <ele>106.28871</ele>
        <time>2024-07-20T10:33:43.247Z</time>
      </trkpt>
      <trkpt lat="53.65685" lon="11.18945">
        <ele>106.519285</ele>
        <time>2024-07-20T10:33:46.233Z</time>
      </trkpt>
      <trkpt lat="53.65688" lon="11.18963">
        <ele>106.702867</ele>
        <time>2024-07-20T10:33:49.236Z</time>
      </trkpt>
      <trkpt lat="53.65692" lon="11.1898">
        <ele>106.879643</ele>
        <time>2024-07-20T10:33:52.230Z</time>
      </trkpt>
      <trkpt lat="53.65696" lon="11.18997">
        <ele>107.043911</ele>
        <time>2024-07-20T10:33:55.253Z</time>
      </trkpt>
      <trkpt lat="53.65699" lon="11.19012">
        <ele>107.196715</ele>
        <time>2024-07-20T10:33:58.222Z</time>
      </trkpt>
      <trkpt lat="53.65702" lon="11.19027">
        <ele>107.347923</ele>
        <time>2024-07-20T10:34:01.282Z</time>
      </trkpt>
      <trkpt lat="53.65705" lon="11.19042">
        <ele>107.498393</ele>
        <time>2024-07-20T10:34:04.240Z</time>
      </trkpt>
      <trkpt lat="53.65708" lon="11.19057">
        <ele>107.6491</ele>
        <time>2024-07-20T10:34:07.228Z</time>
      </trkpt>
      <trkpt lat="53.65712" lon="11.19075">
        <ele>107.834845</ele>
        <time>2024-07-20T10:34:11.261Z</time>
      </trkpt>
      <trkpt lat="53.65715" lon="11.1909">
        <ele>107.982457</ele>
        <time>2024-07-20T10:34:14.225Z</time>
      </trkpt>
      <trkpt lat="53.65719" lon="11.19104">
        <ele>108.132034</ele>
        <time>2024-07-20T10:34:17.238Z</time>
      </trkpt>
      <trkpt lat="53.65722" lon="11.19119">
        <ele>108.276603</ele>
        <time>2024-07-20T10:34:20.224Z</time>
      </trkpt>
      <trkpt lat="53.65724" lon="11.19134">
        <ele>108.425011</ele>
        <time>2024-07-20T10:34:23.231Z</time>
      </trkpt>
      <trkpt lat="53.65727" lon="11.19149">
        <ele>108.573419</ele>
        <time>2024-07-20T10:34:26.243Z</time>
      </trkpt>
      <trkpt lat="53.65731" lon="11.19164">
        <ele>108.73337</ele>
        <time>2024-07-20T10:34:29.243Z</time>
      </trkpt>
      <trkpt lat="53.65734" lon="11.19181">
        <ele>108.895902</ele>
        <time>2024-07-20T10:34:32.211Z</time>
      </trkpt>
      <trkpt lat="53.65737" lon="11.19196">
        <ele>109.049912</ele>
        <time>2024-07-20T10:34:35.227Z</time>
      </trkpt>
      <trkpt lat="53.65741" lon="11.19211">
        <ele>109.202533</ele>
        <time>2024-07-20T10:34:38.226Z</time>
      </trkpt>
      <trkpt lat="53.65743" lon="11.19227">
        <ele>109.357799</ele>
        <time>2024-07-20T10:34:41.272Z</time>
      </trkpt>
      <trkpt lat="53.65746" lon="11.19241">
        <ele>109.427101</ele>
        <time>2024-07-20T10:34:44.242Z</time>
      </trkpt>
      <trkpt lat="53.6575" lon="11.19256">
        <ele>109.470786</ele>
        <time>2024-07-20T10:34:47.231Z</time>
      </trkpt>
      <trkpt lat="53.65753" lon="11.19271">
        <ele>109.517064</ele>
        <time>2024-07-20T10:34:50.223Z</time>
      </trkpt>
      <trkpt lat="53.65756" lon="11.19287">
        <ele>109.563469</ele>
        <time>2024-07-20T10:34:53.243Z</time>
      </trkpt>
      <trkpt lat="53.6576" lon="11.19303">
        <ele>109.611517</ele>
        <time>2024-07-20T10:34:56.232Z</time>
      </trkpt>
      <trkpt lat="53.65764" lon="11.19319">
        <ele>109.659482</ele>
        <time>2024-07-20T10:34:59.247Z</time>
      </trkpt>
      <trkpt lat="53.65767" lon="11.19335">
        <ele>109.706927</ele>
        <time>2024-07-20T10:35:02.251Z</time>
      </trkpt>
      <trkpt lat="53.65771" lon="11.19352">
        <ele>109.757773</ele>
        <time>2024-07-20T10:35:05.235Z</time>
      </trkpt>
      <trkpt lat="53.65775" lon="11.1937">
        <ele>109.809888</ele>
        <time>2024-07-20T10:35:08.233Z</time>
      </trkpt>
      <trkpt lat="53.65779" lon="11.19387">
        <ele>109.86383</ele>
        <time>2024-07-20T10:35:11.280Z</time>
      </trkpt>
      <trkpt lat="53.65784" lon="11.19405">
        <ele>109.917448</ele>
        <time>2024-07-20T10:35:14.250Z</time>
      </trkpt>
      <trkpt lat="53.65788" lon="11.1942">
        <ele>109.963075</ele>
        <time>2024-07-20T10:35:17.243Z</time>
      </trkpt>
      <trkpt lat="53.65791" lon="11.19439">
        <ele>110.017351</ele>
        <time>2024-07-20T10:35:21.274Z</time>
      </trkpt>
      <trkpt lat="53.65793" lon="11.19455">
        <ele>110.063678</ele>
        <time>2024-07-20T10:35:25.255Z</time>
      </trkpt>
      <trkpt lat="53.65795" lon="11.19468">
        <ele>110.101875</ele>
        <time>2024-07-20T10:35:49.700Z</time>
      </trkpt>
      <trkpt lat="53.65803" lon="11.195">
        <ele>110.196598</ele>
        <time>2024-07-20T10:52:21.276Z</time>
      </trkpt>
      <trkpt lat="53.65806" lon="11.19517">
        <ele>110.23917</ele>
        <time>2024-07-20T10:52:25.242Z</time>
      </trkpt>
      <trkpt lat="53.6581" lon="11.19535">
        <ele>110.219262</ele>
        <time>2024-07-20T10:52:29.229Z</time>
      </trkpt>
      <trkpt lat="53.65813" lon="11.1955">
        <ele>110.203176</ele>
        <time>2024-07-20T10:52:32.225Z</time>
      </trkpt>
      <trkpt lat="53.65815" lon="11.19565">
        <ele>110.187304</ele>
        <time>2024-07-20T10:52:35.225Z</time>
      </trkpt>
      <trkpt lat="53.65819" lon="11.19581">
        <ele>110.170911</ele>
        <time>2024-07-20T10:52:38.231Z</time>
      </trkpt>
      <trkpt lat="53.65822" lon="11.19595">
        <ele>110.154832</ele>
        <time>2024-07-20T10:52:41.241Z</time>
      </trkpt>
      <trkpt lat="53.65826" lon="11.19612">
        <ele>110.137126</ele>
        <time>2024-07-20T10:52:44.235Z</time>
      </trkpt>
      <trkpt lat="53.65829" lon="11.19628">
        <ele>110.119796</ele>
        <time>2024-07-20T10:52:47.229Z</time>
      </trkpt>
      <trkpt lat="53.65833" lon="11.19643">
        <ele>110.103272</ele>
        <time>2024-07-20T10:52:50.224Z</time>
      </trkpt>
      <trkpt lat="53.65836" lon="11.19658">
        <ele>110.086724</ele>
        <time>2024-07-20T10:52:53.225Z</time>
      </trkpt>
      <trkpt lat="53.65839" lon="11.19674">
        <ele>110.070258</ele>
        <time>2024-07-20T10:52:56.228Z</time>
      </trkpt>
      <trkpt lat="53.65843" lon="11.19689">
        <ele>110.053678</ele>
        <time>2024-07-20T10:52:59.224Z</time>
      </trkpt>
      <trkpt lat="53.65846" lon="11.19703">
        <ele>110.038193</ele>
        <time>2024-07-20T10:53:02.238Z</time>
      </trkpt>
      <trkpt lat="53.6585" lon="11.19718">
        <ele>110.021872</ele>
        <time>2024-07-20T10:53:05.236Z</time>
      </trkpt>
      <trkpt lat="53.65855" lon="11.19733">
        <ele>110.004929</ele>
        <time>2024-07-20T10:53:08.234Z</time>
      </trkpt>
      <trkpt lat="53.65857" lon="11.19749">
        <ele>109.988483</ele>
        <time>2024-07-20T10:53:11.249Z</time>
      </trkpt>
      <trkpt lat="53.65863" lon="11.19767">
        <ele>109.968096</ele>
        <time>2024-07-20T10:53:15.216Z</time>
      </trkpt>
      <trkpt lat="53.65867" lon="11.19786">
        <ele>109.948261</ele>
        <time>2024-07-20T10:53:19.223Z</time>
      </trkpt>
      <trkpt lat="53.6587" lon="11.19801">
        <ele>109.953948</ele>
        <time>2024-07-20T10:53:22.225Z</time>
      </trkpt>
      <trkpt lat="53.65873" lon="11.19818">
        <ele>110.068574</ele>
        <time>2024-07-20T10:53:25.222Z</time>
      </trkpt>
      <trkpt lat="53.65876" lon="11.19834">
        <ele>110.181659</ele>
        <time>2024-07-20T10:53:28.232Z</time>
      </trkpt>
      <trkpt lat="53.65878" lon="11.19851">
        <ele>110.293464</ele>
        <time>2024-07-20T10:53:31.264Z</time>
      </trkpt>
      <trkpt lat="53.65881" lon="11.19866">
        <ele>110.402034</ele>
        <time>2024-07-20T10:53:34.217Z</time>
      </trkpt>
      <trkpt lat="53.65884" lon="11.19882">
        <ele>110.510932</ele>
        <time>2024-07-20T10:53:37.230Z</time>
      </trkpt>
      <trkpt lat="53.65888" lon="11.19897">
        <ele>110.620235</ele>
        <time>2024-07-20T10:53:40.232Z</time>
      </trkpt>
      <trkpt lat="53.65891" lon="11.19912">
        <ele>110.726474</ele>
        <time>2024-07-20T10:53:43.236Z</time>
      </trkpt>
      <trkpt lat="53.65894" lon="11.19927">
        <ele>110.826889</ele>
        <time>2024-07-20T10:53:46.224Z</time>
      </trkpt>
      <trkpt lat="53.65898" lon="11.19941">
        <ele>110.929232</ele>
        <time>2024-07-20T10:53:49.228Z</time>
      </trkpt>
      <trkpt lat="53.65901" lon="11.1996">
        <ele>111.060651</ele>
        <time>2024-07-20T10:53:53.251Z</time>
      </trkpt>
      <trkpt lat="53.65905" lon="11.19975">
        <ele>111.164291</ele>
        <time>2024-07-20T10:53:56.223Z</time>
      </trkpt>
      <trkpt lat="53.65908" lon="11.1999">
        <ele>111.270793</ele>
        <time>2024-07-20T10:53:59.236Z</time>
      </trkpt>
      <trkpt lat="53.65911" lon="11.20006">
        <ele>111.380334</ele>
        <time>2024-07-20T10:54:02.235Z</time>
      </trkpt>
      <trkpt lat="53.65914" lon="11.20021">
        <ele>111.488911</ele>
        <time>2024-07-20T10:54:05.231Z</time>
      </trkpt>
      <trkpt lat="53.65918" lon="11.20038">
        <ele>111.607649</ele>
        <time>2024-07-20T10:54:08.251Z</time>
      </trkpt>
      <trkpt lat="53.65921" lon="11.20054">
        <ele>111.722</ele>
        <time>2024-07-20T10:54:11.298Z</time>
      </trkpt>
      <trkpt lat="53.65924" lon="11.2007">
        <ele>111.8328</ele>
        <time>2024-07-20T10:54:14.224Z</time>
      </trkpt>
      <trkpt lat="53.65927" lon="11.20086">
        <ele>111.944769</ele>
        <time>2024-07-20T10:54:17.228Z</time>
      </trkpt>
      <trkpt lat="53.65931" lon="11.20101">
        <ele>112.148384</ele>
        <time>2024-07-20T10:54:20.259Z</time>
      </trkpt>
      <trkpt lat="53.65933" lon="11.20117">
        <ele>112.358854</ele>
        <time>2024-07-20T10:54:23.247Z</time>
      </trkpt>
      <trkpt lat="53.65936" lon="11.20133">
        <ele>112.569971</ele>
        <time>2024-07-20T10:54:26.221Z</time>
      </trkpt>
      <trkpt lat="53.65939" lon="11.20149">
        <ele>112.784811</ele>
        <time>2024-07-20T10:54:29.215Z</time>
      </trkpt>
      <trkpt lat="53.65943" lon="11.20166">
        <ele>113.015043</ele>
        <time>2024-07-20T10:54:32.214Z</time>
      </trkpt>
      <trkpt lat="53.65948" lon="11.20184">
        <ele>113.262738</ele>
        <time>2024-07-20T10:54:35.230Z</time>
      </trkpt>
      <trkpt lat="53.65953" lon="11.20203">
        <ele>113.535555</ele>
        <time>2024-07-20T10:54:38.234Z</time>
      </trkpt>
      <trkpt lat="53.65958" lon="11.20221">
        <ele>113.775985</ele>
        <time>2024-07-20T10:54:41.264Z</time>
      </trkpt>
      <trkpt lat="53.65962" lon="11.20239">
        <ele>114.024312</ele>
        <time>2024-07-20T10:54:44.229Z</time>
      </trkpt>
      <trkpt lat="53.65967" lon="11.20258">
        <ele>114.285215</ele>
        <time>2024-07-20T10:54:47.248Z</time>
      </trkpt>
      <trkpt lat="53.65972" lon="11.20277">
        <ele>114.552354</ele>
        <time>2024-07-20T10:54:50.234Z</time>
      </trkpt>
      <trkpt lat="53.65976" lon="11.20298">
        <ele>114.824068</ele>
        <time>2024-07-20T10:54:53.231Z</time>
      </trkpt>
      <trkpt lat="53.65979" lon="11.20319">
        <ele>115.097618</ele>
        <time>2024-07-20T10:54:56.227Z</time>
      </trkpt>
      <trkpt lat="53.65983" lon="11.20339">
        <ele>115.366314</ele>
        <time>2024-07-20T10:54:59.252Z</time>
      </trkpt>
      <trkpt lat="53.65986" lon="11.20356">
        <ele>115.592548</ele>
        <time>2024-07-20T10:55:02.234Z</time>
      </trkpt>
      <trkpt lat="53.65989" lon="11.20374">
        <ele>115.733417</ele>
        <time>2024-07-20T10:55:06.237Z</time>
      </trkpt>
      <trkpt lat="53.65994" lon="11.20392">
        <ele>115.525105</ele>
        <time>2024-07-20T10:55:10.245Z</time>
      </trkpt>
      <trkpt lat="53.65997" lon="11.20408">
        <ele>115.341433</ele>
        <time>2024-07-20T10:55:13.216Z</time>
      </trkpt>
      <trkpt lat="53.66001" lon="11.20425">
        <ele>115.140376</ele>
        <time>2024-07-20T10:55:16.241Z</time>
      </trkpt>
      <trkpt lat="53.66005" lon="11.20441">
        <ele>114.953513</ele>
        <time>2024-07-20T10:55:19.245Z</time>
      </trkpt>
      <trkpt lat="53.66009" lon="11.20457">
        <ele>114.770189</ele>
        <time>2024-07-20T10:55:22.225Z</time>
      </trkpt>
      <trkpt lat="53.66013" lon="11.20474">
        <ele>114.570011</ele>
        <time>2024-07-20T10:55:25.231Z</time>
      </trkpt>
      <trkpt lat="53.66018" lon="11.20489">
        <ele>114.384554</ele>
        <time>2024-07-20T10:55:28.252Z</time>
      </trkpt>
      <trkpt lat="53.66021" lon="11.20506">
        <ele>114.191374</ele>
        <time>2024-07-20T10:55:31.274Z</time>
      </trkpt>
      <trkpt lat="53.66024" lon="11.20524">
        <ele>113.995027</ele>
        <time>2024-07-20T10:55:34.241Z</time>
      </trkpt>
      <trkpt lat="53.66027" lon="11.20542">
        <ele>113.794801</ele>
        <time>2024-07-20T10:55:37.232Z</time>
      </trkpt>
      <trkpt lat="53.6603" lon="11.20559">
        <ele>113.604382</ele>
        <time>2024-07-20T10:55:40.217Z</time>
      </trkpt>
      <trkpt lat="53.66035" lon="11.20575">
        <ele>113.405438</ele>
        <time>2024-07-20T10:55:43.239Z</time>
      </trkpt>
      <trkpt lat="53.66039" lon="11.20593">
        <ele>113.194411</ele>
        <time>2024-07-20T10:55:46.244Z</time>
      </trkpt>
      <trkpt lat="53.66042" lon="11.20609">
        <ele>113.018524</ele>
        <time>2024-07-20T10:55:48.241Z</time>
      </trkpt>
      <trkpt lat="53.66047" lon="11.20628">
        <ele>112.792358</ele>
        <time>2024-07-20T10:55:51.270Z</time>
      </trkpt>
      <trkpt lat="53.66052" lon="11.20649">
        <ele>112.551712</ele>
        <time>2024-07-20T10:55:54.220Z</time>
      </trkpt>
      <trkpt lat="53.66057" lon="11.20669">
        <ele>112.600634</ele>
        <time>2024-07-20T10:55:57.237Z</time>
      </trkpt>
      <trkpt lat="53.66061" lon="11.20683">
        <ele>112.686942</ele>
        <time>2024-07-20T10:55:59.230Z</time>
      </trkpt>
      <trkpt lat="53.66066" lon="11.20696">
        <ele>112.773381</ele>
        <time>2024-07-20T10:56:01.254Z</time>
      </trkpt>
      <trkpt lat="53.6607" lon="11.20711">
        <ele>112.863476</ele>
        <time>2024-07-20T10:56:03.233Z</time>
      </trkpt>
      <trkpt lat="53.66075" lon="11.20731">
        <ele>112.986595</ele>
        <time>2024-07-20T10:56:06.265Z</time>
      </trkpt>
      <trkpt lat="53.66081" lon="11.20751">
        <ele>113.11147</ele>
        <time>2024-07-20T10:56:09.244Z</time>
      </trkpt>
      <trkpt lat="53.66087" lon="11.2077">
        <ele>113.231283</ele>
        <time>2024-07-20T10:56:12.237Z</time>
      </trkpt>
      <trkpt lat="53.66093" lon="11.20788">
        <ele>113.347715</ele>
        <time>2024-07-20T10:56:15.213Z</time>
      </trkpt>
      <trkpt lat="53.661" lon="11.20808">
        <ele>113.47084</ele>
        <time>2024-07-20T10:56:18.235Z</time>
      </trkpt>
      <trkpt lat="53.66105" lon="11.20827">
        <ele>113.593082</ele>
        <time>2024-07-20T10:56:21.251Z</time>
      </trkpt>
      <trkpt lat="53.66111" lon="11.20846">
        <ele>113.70889</ele>
        <time>2024-07-20T10:56:24.240Z</time>
      </trkpt>
      <trkpt lat="53.66116" lon="11.20864">
        <ele>113.818796</ele>
        <time>2024-07-20T10:56:27.258Z</time>
      </trkpt>
      <trkpt lat="53.66118" lon="11.20881">
        <ele>113.918587</ele>
        <time>2024-07-20T10:56:31.272Z</time>
      </trkpt>
      <trkpt lat="53.66118" lon="11.20896">
        <ele>114.000001</ele>
        <time>2024-07-20T10:56:49.665Z</time>
      </trkpt>
      <trkpt lat="53.66126" lon="11.20904">
        <ele>114.09145</ele>
        <time>2024-07-20T11:01:04.211Z</time>
      </trkpt>
      <trkpt lat="53.66127" lon="11.20921">
        <ele>114.184893</ele>
        <time>2024-07-20T11:01:12.213Z</time>
      </trkpt>
      <trkpt lat="53.66133" lon="11.20937">
        <ele>114.272131</ele>
        <time>2024-07-20T11:01:16.228Z</time>
      </trkpt>
      <trkpt lat="53.66137" lon="11.20951">
        <ele>114.350825</ele>
        <time>2024-07-20T11:01:19.230Z</time>
      </trkpt>
      <trkpt lat="53.66143" lon="11.20968">
        <ele>114.43769</ele>
        <time>2024-07-20T11:01:22.209Z</time>
      </trkpt>
      <trkpt lat="53.66149" lon="11.20986">
        <ele>114.537412</ele>
        <time>2024-07-20T11:01:25.221Z</time>
      </trkpt>
      <trkpt lat="53.66155" lon="11.21002">
        <ele>114.625775</ele>
        <time>2024-07-20T11:01:28.248Z</time>
      </trkpt>
      <trkpt lat="53.6616" lon="11.21019">
        <ele>114.714722</ele>
        <time>2024-07-20T11:01:31.253Z</time>
      </trkpt>
      <trkpt lat="53.66165" lon="11.21036">
        <ele>114.806186</ele>
        <time>2024-07-20T11:01:34.236Z</time>
      </trkpt>
      <trkpt lat="53.66169" lon="11.21054">
        <ele>114.894213</ele>
        <time>2024-07-20T11:01:37.231Z</time>
      </trkpt>
      <trkpt lat="53.66173" lon="11.2107">
        <ele>114.975666</ele>
        <time>2024-07-20T11:01:40.248Z</time>
      </trkpt>
      <trkpt lat="53.66179" lon="11.21082">
        <ele>115.04756</ele>
        <time>2024-07-20T11:01:43.252Z</time>
      </trkpt>
      <trkpt lat="53.66185" lon="11.21095">
        <ele>115.123784</ele>
        <time>2024-07-20T11:01:46.251Z</time>
      </trkpt>
      <trkpt lat="53.66189" lon="11.2111">
        <ele>115.202122</ele>
        <time>2024-07-20T11:01:49.245Z</time>
      </trkpt>
      <trkpt lat="53.66194" lon="11.21124">
        <ele>115.280001</ele>
        <time>2024-07-20T11:01:52.246Z</time>
      </trkpt>
      <trkpt lat="53.66198" lon="11.21141">
        <ele>115.363611</ele>
        <time>2024-07-20T11:01:55.246Z</time>
      </trkpt>
      <trkpt lat="53.66202" lon="11.21157">
        <ele>115.448264</ele>
        <time>2024-07-20T11:01:58.239Z</time>
      </trkpt>
      <trkpt lat="53.66208" lon="11.21175">
        <ele>115.544396</ele>
        <time>2024-07-20T11:02:01.259Z</time>
      </trkpt>
      <trkpt lat="53.66212" lon="11.2119">
        <ele>115.62048</ele>
        <time>2024-07-20T11:02:03.227Z</time>
      </trkpt>
      <trkpt lat="53.66216" lon="11.21204">
        <ele>115.79415</ele>
        <time>2024-07-20T11:02:05.245Z</time>
      </trkpt>
      <trkpt lat="53.66221" lon="11.21224">
        <ele>116.046006</ele>
        <time>2024-07-20T11:02:08.236Z</time>
      </trkpt>
      <trkpt lat="53.66227" lon="11.21243">
        <ele>116.279226</ele>
        <time>2024-07-20T11:02:11.255Z</time>
      </trkpt>
      <trkpt lat="53.66232" lon="11.21259">
        <ele>116.487981</ele>
        <time>2024-07-20T11:02:14.233Z</time>
      </trkpt>
      <trkpt lat="53.66236" lon="11.21277">
        <ele>116.705068</ele>
        <time>2024-07-20T11:02:17.228Z</time>
      </trkpt>
      <trkpt lat="53.66241" lon="11.21295">
        <ele>116.924537</ele>
        <time>2024-07-20T11:02:20.201Z</time>
      </trkpt>
      <trkpt lat="53.66246" lon="11.21312">
        <ele>117.136991</ele>
        <time>2024-07-20T11:02:23.236Z</time>
      </trkpt>
      <trkpt lat="53.66252" lon="11.2133">
        <ele>117.361002</ele>
        <time>2024-07-20T11:02:26.239Z</time>
      </trkpt>
      <trkpt lat="53.66256" lon="11.21349">
        <ele>117.587308</ele>
        <time>2024-07-20T11:02:29.242Z</time>
      </trkpt>
      <trkpt lat="53.66259" lon="11.21366">
        <ele>117.792088</ele>
        <time>2024-07-20T11:02:32.240Z</time>
      </trkpt>
      <trkpt lat="53.66263" lon="11.21383">
        <ele>117.996822</ele>
        <time>2024-07-20T11:02:35.239Z</time>
      </trkpt>
      <trkpt lat="53.6627" lon="11.214">
        <ele>118.227516</ele>
        <time>2024-07-20T11:02:38.244Z</time>
      </trkpt>
      <trkpt lat="53.66275" lon="11.21413">
        <ele>118.401366</ele>
        <time>2024-07-20T11:02:40.224Z</time>
      </trkpt>
      <trkpt lat="53.66279" lon="11.21429">
        <ele>118.594135</ele>
        <time>2024-07-20T11:02:42.237Z</time>
      </trkpt>
      <trkpt lat="53.66283" lon="11.21446">
        <ele>118.806725</ele>
        <time>2024-07-20T11:02:44.228Z</time>
      </trkpt>
      <trkpt lat="53.66287" lon="11.21462">
        <ele>118.992536</ele>
        <time>2024-07-20T11:02:46.240Z</time>
      </trkpt>
      <trkpt lat="53.6629" lon="11.21476">
        <ele>119.100767</ele>
        <time>2024-07-20T11:02:48.237Z</time>
      </trkpt>
      <trkpt lat="53.66295" lon="11.21495">
        <ele>119.228954</ele>
        <time>2024-07-20T11:02:51.284Z</time>
      </trkpt>
      <trkpt lat="53.66299" lon="11.21511">
        <ele>119.345774</ele>
        <time>2024-07-20T11:02:54.234Z</time>
      </trkpt>
      <trkpt lat="53.66304" lon="11.21529">
        <ele>119.471314</ele>
        <time>2024-07-20T11:02:57.238Z</time>
      </trkpt>
      <trkpt lat="53.66308" lon="11.21545">
        <ele>119.583194</ele>
        <time>2024-07-20T11:03:00.238Z</time>
      </trkpt>
      <trkpt lat="53.66313" lon="11.21561">
        <ele>119.691357</ele>
        <time>2024-07-20T11:03:03.233Z</time>
      </trkpt>
      <trkpt lat="53.66317" lon="11.21575">
        <ele>119.792709</ele>
        <time>2024-07-20T11:03:06.235Z</time>
      </trkpt>
      <trkpt lat="53.66321" lon="11.21589">
        <ele>119.892828</ele>
        <time>2024-07-20T11:03:09.260Z</time>
      </trkpt>
      <trkpt lat="53.66325" lon="11.21605">
        <ele>120.003861</ele>
        <time>2024-07-20T11:03:12.228Z</time>
      </trkpt>
      <trkpt lat="53.66329" lon="11.21621">
        <ele>120.113721</ele>
        <time>2024-07-20T11:03:15.227Z</time>
      </trkpt>
      <trkpt lat="53.66333" lon="11.21637">
        <ele>120.226901</ele>
        <time>2024-07-20T11:03:18.246Z</time>
      </trkpt>
      <trkpt lat="53.66337" lon="11.21654">
        <ele>120.340473</ele>
        <time>2024-07-20T11:03:21.260Z</time>
      </trkpt>
      <trkpt lat="53.66341" lon="11.21668">
        <ele>120.439568</ele>
        <time>2024-07-20T11:03:24.243Z</time>
      </trkpt>
      <trkpt lat="53.66344" lon="11.21684">
        <ele>120.543359</ele>
        <time>2024-07-20T11:03:27.240Z</time>
      </trkpt>
      <trkpt lat="53.66347" lon="11.21699">
        <ele>120.64715</ele>
        <time>2024-07-20T11:03:30.223Z</time>
      </trkpt>
      <trkpt lat="53.66351" lon="11.21716">
        <ele>120.759947</ele>
        <time>2024-07-20T11:03:33.251Z</time>
      </trkpt>
      <trkpt lat="53.66355" lon="11.21732">
        <ele>120.872992</ele>
        <time>2024-07-20T11:03:36.219Z</time>
      </trkpt>
      <trkpt lat="53.66358" lon="11.21748">
        <ele>121.020477</ele>
        <time>2024-07-20T11:03:39.244Z</time>
      </trkpt>
      <trkpt lat="53.66362" lon="11.21763">
        <ele>121.250223</ele>
        <time>2024-07-20T11:03:42.231Z</time>
      </trkpt>
      <trkpt lat="53.66365" lon="11.21778">
        <ele>121.480434</ele>
        <time>2024-07-20T11:03:45.239Z</time>
      </trkpt>
      <trkpt lat="53.66368" lon="11.21796">
        <ele>121.740016</ele>
        <time>2024-07-20T11:03:48.225Z</time>
      </trkpt>
      <trkpt lat="53.66371" lon="11.21812">
        <ele>121.980636</ele>
        <time>2024-07-20T11:03:51.271Z</time>
      </trkpt>
      <trkpt lat="53.66375" lon="11.21831">
        <ele>122.261833</ele>
        <time>2024-07-20T11:03:55.228Z</time>
      </trkpt>
      <trkpt lat="53.66379" lon="11.21848">
        <ele>122.522327</ele>
        <time>2024-07-20T11:03:59.240Z</time>
      </trkpt>
      <trkpt lat="53.66383" lon="11.21865">
        <ele>122.775995</ele>
        <time>2024-07-20T11:04:03.247Z</time>
      </trkpt>
      <trkpt lat="53.66385" lon="11.21881">
        <ele>123.009583</ele>
        <time>2024-07-20T11:04:07.262Z</time>
      </trkpt>
      <trkpt lat="53.66382" lon="11.21897">
        <ele>123.254848</ele>
        <time>2024-07-20T11:04:11.278Z</time>
      </trkpt>
      <trkpt lat="53.66379" lon="11.21913">
        <ele>123.483105</ele>
        <time>2024-07-20T11:04:15.220Z</time>
      </trkpt>
      <trkpt lat="53.66384" lon="11.21929">
        <ele>123.736723</ele>
        <time>2024-07-20T11:04:19.242Z</time>
      </trkpt>
      <trkpt lat="53.66394" lon="11.21939">
        <ele>124.022649</ele>
        <time>2024-07-20T11:04:23.234Z</time>
      </trkpt>
      <trkpt lat="53.664" lon="11.21953">
        <ele>124.249931</ele>
        <time>2024-07-20T11:04:26.234Z</time>
      </trkpt>
      <trkpt lat="53.66403" lon="11.21968">
        <ele>124.478283</ele>
        <time>2024-07-20T11:04:29.230Z</time>
      </trkpt>
      <trkpt lat="53.66406" lon="11.21983">
        <ele>124.708596</ele>
        <time>2024-07-20T11:04:32.224Z</time>
      </trkpt>
      <trkpt lat="53.66409" lon="11.22">
        <ele>124.956563</ele>
        <time>2024-07-20T11:04:35.237Z</time>
      </trkpt>
      <trkpt lat="53.66412" lon="11.2202">
        <ele>125.250207</ele>
        <time>2024-07-20T11:04:38.239Z</time>
      </trkpt>
      <trkpt lat="53.66416" lon="11.22034">
        <ele>125.306861</ele>
        <time>2024-07-20T11:04:40.251Z</time>
      </trkpt>
      <trkpt lat="53.66419" lon="11.2205">
        <ele>125.368082</ele>
        <time>2024-07-20T11:04:42.226Z</time>
      </trkpt>
      <trkpt lat="53.66421" lon="11.22067">
        <ele>125.433286</ele>
        <time>2024-07-20T11:04:44.252Z</time>
      </trkpt>
      <trkpt lat="53.66424" lon="11.22085">
        <ele>125.501243</ele>
        <time>2024-07-20T11:04:46.250Z</time>
      </trkpt>
      <trkpt lat="53.66426" lon="11.22104">
        <ele>125.571232</ele>
        <time>2024-07-20T11:04:48.253Z</time>
      </trkpt>
      <trkpt lat="53.66428" lon="11.22123">
        <ele>125.642067</ele>
        <time>2024-07-20T11:04:50.238Z</time>
      </trkpt>
      <trkpt lat="53.6643" lon="11.22142">
        <ele>125.713162</ele>
        <time>2024-07-20T11:04:52.234Z</time>
      </trkpt>
      <trkpt lat="53.66431" lon="11.2216">
        <ele>125.781785</ele>
        <time>2024-07-20T11:04:54.219Z</time>
      </trkpt>
      <trkpt lat="53.66432" lon="11.22178">
        <ele>125.848864</ele>
        <time>2024-07-20T11:04:56.241Z</time>
      </trkpt>
      <trkpt lat="53.66433" lon="11.22195">
        <ele>125.911535</ele>
        <time>2024-07-20T11:04:58.237Z</time>
      </trkpt>
      <trkpt lat="53.66434" lon="11.22212">
        <ele>125.973105</ele>
        <time>2024-07-20T11:05:00.260Z</time>
      </trkpt>
      <trkpt lat="53.66435" lon="11.22227">
        <ele>126.030384</ele>
        <time>2024-07-20T11:05:02.237Z</time>
      </trkpt>
      <trkpt lat="53.66435" lon="11.22243">
        <ele>126.087241</ele>
        <time>2024-07-20T11:05:04.246Z</time>
      </trkpt>
      <trkpt lat="53.66435" lon="11.22258">
        <ele>126.144439</ele>
        <time>2024-07-20T11:05:06.244Z</time>
      </trkpt>
      <trkpt lat="53.66435" lon="11.22274">
        <ele>126.203852</ele>
        <time>2024-07-20T11:05:08.248Z</time>
      </trkpt>
      <trkpt lat="53.66435" lon="11.2229">
        <ele>126.263633</ele>
        <time>2024-07-20T11:05:10.247Z</time>
      </trkpt>
      <trkpt lat="53.66436" lon="11.22306">
        <ele>126.322686</ele>
        <time>2024-07-20T11:05:12.241Z</time>
      </trkpt>
      <trkpt lat="53.66436" lon="11.22324">
        <ele>126.317512</ele>
        <time>2024-07-20T11:05:14.243Z</time>
      </trkpt>
      <trkpt lat="53.66436" lon="11.2234">
        <ele>126.133885</ele>
        <time>2024-07-20T11:05:16.250Z</time>
      </trkpt>
      <trkpt lat="53.66436" lon="11.22358">
        <ele>125.941857</ele>
        <time>2024-07-20T11:05:18.235Z</time>
      </trkpt>
      <trkpt lat="53.66436" lon="11.22375">
        <ele>125.749856</ele>
        <time>2024-07-20T11:05:20.239Z</time>
      </trkpt>
      <trkpt lat="53.66436" lon="11.22392">
        <ele>125.566682</ele>
        <time>2024-07-20T11:05:22.236Z</time>
      </trkpt>
      <trkpt lat="53.66436" lon="11.22408">
        <ele>125.388684</ele>
        <time>2024-07-20T11:05:24.236Z</time>
      </trkpt>
      <trkpt lat="53.66436" lon="11.22424">
        <ele>125.213155</ele>
        <time>2024-07-20T11:05:26.238Z</time>
      </trkpt>
      <trkpt lat="53.66436" lon="11.2244">
        <ele>125.029952</ele>
        <time>2024-07-20T11:05:28.244Z</time>
      </trkpt>
      <trkpt lat="53.66436" lon="11.22456">
        <ele>124.853398</ele>
        <time>2024-07-20T11:05:30.239Z</time>
      </trkpt>
      <trkpt lat="53.66436" lon="11.22472">
        <ele>124.677948</ele>
        <time>2024-07-20T11:05:32.229Z</time>
      </trkpt>
      <trkpt lat="53.66437" lon="11.22487">
        <ele>124.508964</ele>
        <time>2024-07-20T11:05:34.236Z</time>
      </trkpt>
      <trkpt lat="53.66437" lon="11.22503">
        <ele>124.334378</ele>
        <time>2024-07-20T11:05:36.243Z</time>
      </trkpt>
      <trkpt lat="53.66437" lon="11.22519">
        <ele>124.161996</ele>
        <time>2024-07-20T11:05:38.221Z</time>
      </trkpt>
      <trkpt lat="53.66437" lon="11.22536">
        <ele>123.975484</ele>
        <time>2024-07-20T11:05:40.246Z</time>
      </trkpt>
      <trkpt lat="53.66437" lon="11.22554">
        <ele>123.768012</ele>
        <time>2024-07-20T11:05:42.226Z</time>
      </trkpt>
      <trkpt lat="53.66437" lon="11.22574">
        <ele>123.549538</ele>
        <time>2024-07-20T11:05:44.236Z</time>
      </trkpt>
      <trkpt lat="53.66436" lon="11.22594">
        <ele>123.328827</ele>
        <time>2024-07-20T11:05:46.230Z</time>
      </trkpt>
      <trkpt lat="53.66436" lon="11.22615">
        <ele>123.097106</ele>
        <time>2024-07-20T11:05:48.234Z</time>
      </trkpt>
      <trkpt lat="53.66436" lon="11.22636">
        <ele>122.99788</ele>
        <time>2024-07-20T11:05:50.234Z</time>
      </trkpt>
      <trkpt lat="53.66437" lon="11.22657">
        <ele>122.963221</ele>
        <time>2024-07-20T11:05:52.234Z</time>
      </trkpt>
      <trkpt lat="53.66437" lon="11.22677">
        <ele>122.930842</ele>
        <time>2024-07-20T11:05:54.221Z</time>
      </trkpt>
      <trkpt lat="53.66438" lon="11.22697">
        <ele>122.897579</ele>
        <time>2024-07-20T11:05:56.240Z</time>
      </trkpt>
      <trkpt lat="53.66438" lon="11.22717">
        <ele>122.864982</ele>
        <time>2024-07-20T11:05:58.235Z</time>
      </trkpt>
      <trkpt lat="53.66437" lon="11.22738">
        <ele>122.831029</ele>
        <time>2024-07-20T11:06:00.236Z</time>
      </trkpt>
      <trkpt lat="53.66436" lon="11.22759">
        <ele>122.796773</ele>
        <time>2024-07-20T11:06:02.237Z</time>
      </trkpt>
      <trkpt lat="53.66436" lon="11.22779">
        <ele>122.764395</ele>
        <time>2024-07-20T11:06:04.236Z</time>
      </trkpt>
      <trkpt lat="53.66437" lon="11.22798">
        <ele>122.733966</ele>
        <time>2024-07-20T11:06:06.228Z</time>
      </trkpt>
      <trkpt lat="53.66437" lon="11.22815">
        <ele>122.705005</ele>
        <time>2024-07-20T11:06:08.204Z</time>
      </trkpt>
      <trkpt lat="53.66437" lon="11.22832">
        <ele>122.677324</ele>
        <time>2024-07-20T11:06:10.233Z</time>
      </trkpt>
      <trkpt lat="53.66437" lon="11.22848">
        <ele>122.651292</ele>
        <time>2024-07-20T11:06:12.224Z</time>
      </trkpt>
      <trkpt lat="53.66437" lon="11.22864">
        <ele>122.625724</ele>
        <time>2024-07-20T11:06:14.216Z</time>
      </trkpt>
      <trkpt lat="53.66436" lon="11.2288">
        <ele>122.600157</ele>
        <time>2024-07-20T11:06:16.228Z</time>
      </trkpt>
      <trkpt lat="53.66436" lon="11.22902">
        <ele>122.56354</ele>
        <time>2024-07-20T11:06:19.223Z</time>
      </trkpt>
      <trkpt lat="53.66436" lon="11.22918">
        <ele>122.538478</ele>
        <time>2024-07-20T11:06:21.246Z</time>
      </trkpt>
      <trkpt lat="53.66437" lon="11.22933">
        <ele>122.506559</ele>
        <time>2024-07-20T11:06:23.227Z</time>
      </trkpt>
      <trkpt lat="53.66437" lon="11.22949">
        <ele>122.46917</ele>
        <time>2024-07-20T11:06:25.229Z</time>
      </trkpt>
      <trkpt lat="53.66436" lon="11.22964">
        <ele>122.431529</ele>
        <time>2024-07-20T11:06:27.206Z</time>
      </trkpt>
      <trkpt lat="53.66436" lon="11.22986">
        <ele>122.377937</ele>
        <time>2024-07-20T11:06:30.233Z</time>
      </trkpt>
      <trkpt lat="53.66436" lon="11.23008">
        <ele>122.322931</ele>
        <time>2024-07-20T11:06:33.224Z</time>
      </trkpt>
      <trkpt lat="53.66436" lon="11.23025">
        <ele>122.281382</ele>
        <time>2024-07-20T11:06:35.230Z</time>
      </trkpt>
      <trkpt lat="53.66436" lon="11.23044">
        <ele>122.236662</ele>
        <time>2024-07-20T11:06:37.236Z</time>
      </trkpt>
      <trkpt lat="53.66436" lon="11.23063">
        <ele>122.1895</ele>
        <time>2024-07-20T11:06:39.223Z</time>
      </trkpt>
      <trkpt lat="53.66437" lon="11.23083">
        <ele>122.140698</ele>
        <time>2024-07-20T11:06:41.260Z</time>
      </trkpt>
      <trkpt lat="53.66437" lon="11.23102">
        <ele>122.094485</ele>
        <time>2024-07-20T11:06:43.227Z</time>
      </trkpt>
      <trkpt lat="53.66437" lon="11.23121">
        <ele>122.048723</ele>
        <time>2024-07-20T11:06:45.228Z</time>
      </trkpt>
      <trkpt lat="53.66437" lon="11.23138">
        <ele>122.006154</ele>
        <time>2024-07-20T11:06:47.238Z</time>
      </trkpt>
      <trkpt lat="53.66437" lon="11.23155">
        <ele>121.965327</ele>
        <time>2024-07-20T11:06:49.232Z</time>
      </trkpt>
      <trkpt lat="53.66438" lon="11.23177">
        <ele>121.911023</ele>
        <time>2024-07-20T11:06:52.235Z</time>
      </trkpt>
      <trkpt lat="53.66438" lon="11.23198">
        <ele>121.858704</ele>
        <time>2024-07-20T11:06:55.227Z</time>
      </trkpt>
      <trkpt lat="53.66438" lon="11.23214">
        <ele>121.821296</ele>
        <time>2024-07-20T11:06:57.215Z</time>
      </trkpt>
      <trkpt lat="53.66438" lon="11.2323">
        <ele>121.787439</ele>
        <time>2024-07-20T11:06:59.236Z</time>
      </trkpt>
      <trkpt lat="53.66439" lon="11.23246">
        <ele>121.857032</ele>
        <time>2024-07-20T11:07:01.250Z</time>
      </trkpt>
      <trkpt lat="53.66438" lon="11.23263">
        <ele>121.926507</ele>
        <time>2024-07-20T11:07:03.227Z</time>
      </trkpt>
      <trkpt lat="53.66437" lon="11.2328">
        <ele>121.998863</ele>
        <time>2024-07-20T11:07:05.229Z</time>
      </trkpt>
      <trkpt lat="53.66437" lon="11.23295">
        <ele>122.063728</ele>
        <time>2024-07-20T11:07:07.222Z</time>
      </trkpt>
      <trkpt lat="53.66436" lon="11.23315">
        <ele>122.151082</ele>
        <time>2024-07-20T11:07:10.239Z</time>
      </trkpt>
      <trkpt lat="53.66437" lon="11.23337">
        <ele>122.242793</ele>
        <time>2024-07-20T11:07:13.222Z</time>
      </trkpt>
      <trkpt lat="53.66437" lon="11.23358">
        <ele>122.330469</ele>
        <time>2024-07-20T11:07:16.226Z</time>
      </trkpt>
      <trkpt lat="53.66437" lon="11.23379">
        <ele>122.420709</ele>
        <time>2024-07-20T11:07:19.228Z</time>
      </trkpt>
      <trkpt lat="53.66437" lon="11.23399">
        <ele>122.507137</ele>
        <time>2024-07-20T11:07:22.223Z</time>
      </trkpt>
      <trkpt lat="53.66438" lon="11.23418">
        <ele>122.587215</ele>
        <time>2024-07-20T11:07:25.232Z</time>
      </trkpt>
      <trkpt lat="53.66438" lon="11.23435">
        <ele>122.657961</ele>
        <time>2024-07-20T11:07:28.230Z</time>
      </trkpt>
      <trkpt lat="53.66438" lon="11.2345">
        <ele>122.722339</ele>
        <time>2024-07-20T11:07:31.289Z</time>
      </trkpt>
      <trkpt lat="53.66437" lon="11.23466">
        <ele>122.79029</ele>
        <time>2024-07-20T11:07:34.238Z</time>
      </trkpt>
      <trkpt lat="53.66438" lon="11.23483">
        <ele>122.860233</ele>
        <time>2024-07-20T11:07:37.230Z</time>
      </trkpt>
      <trkpt lat="53.66436" lon="11.23499">
        <ele>122.927896</ele>
        <time>2024-07-20T11:07:40.235Z</time>
      </trkpt>
      <trkpt lat="53.66436" lon="11.23519">
        <ele>123.013878</ele>
        <time>2024-07-20T11:07:44.228Z</time>
      </trkpt>
      <trkpt lat="53.66436" lon="11.23535">
        <ele>123.079209</ele>
        <time>2024-07-20T11:07:47.226Z</time>
      </trkpt>
      <trkpt lat="53.66436" lon="11.23553">
        <ele>123.133467</ele>
        <time>2024-07-20T11:07:50.228Z</time>
      </trkpt>
      <trkpt lat="53.66437" lon="11.23572">
        <ele>123.192291</ele>
        <time>2024-07-20T11:07:53.229Z</time>
      </trkpt>
      <trkpt lat="53.66438" lon="11.2359">
        <ele>123.24625</ele>
        <time>2024-07-20T11:07:56.231Z</time>
      </trkpt>
      <trkpt lat="53.66437" lon="11.23607">
        <ele>123.30097</ele>
        <time>2024-07-20T11:07:59.221Z</time>
      </trkpt>
      <trkpt lat="53.66436" lon="11.23626">
        <ele>123.357431</ele>
        <time>2024-07-20T11:08:02.227Z</time>
      </trkpt>
      <trkpt lat="53.66437" lon="11.23644">
        <ele>123.412003</ele>
        <time>2024-07-20T11:08:05.229Z</time>
      </trkpt>
      <trkpt lat="53.66436" lon="11.23662">
        <ele>123.468714</ele>
        <time>2024-07-20T11:08:08.239Z</time>
      </trkpt>
      <trkpt lat="53.66437" lon="11.23681">
        <ele>123.525844</ele>
        <time>2024-07-20T11:08:11.289Z</time>
      </trkpt>
      <trkpt lat="53.66437" lon="11.23701">
        <ele>123.588376</ele>
        <time>2024-07-20T11:08:14.236Z</time>
      </trkpt>
      <trkpt lat="53.66437" lon="11.23721">
        <ele>123.650621</ele>
        <time>2024-07-20T11:08:17.252Z</time>
      </trkpt>
      <trkpt lat="53.66437" lon="11.23742">
        <ele>123.713154</ele>
        <time>2024-07-20T11:08:20.244Z</time>
      </trkpt>
      <trkpt lat="53.66438" lon="11.23762">
        <ele>123.774469</ele>
        <time>2024-07-20T11:08:23.237Z</time>
      </trkpt>
      <trkpt lat="53.66438" lon="11.23783">
        <ele>123.838859</ele>
        <time>2024-07-20T11:08:26.237Z</time>
      </trkpt>
      <trkpt lat="53.66437" lon="11.23805">
        <ele>123.905755</ele>
        <time>2024-07-20T11:08:29.243Z</time>
      </trkpt>
      <trkpt lat="53.66438" lon="11.23826">
        <ele>123.970791</ele>
        <time>2024-07-20T11:08:32.260Z</time>
      </trkpt>
      <trkpt lat="53.66437" lon="11.23849">
        <ele>123.991225</ele>
        <time>2024-07-20T11:08:35.228Z</time>
      </trkpt>
      <trkpt lat="53.66438" lon="11.23871">
        <ele>123.976218</ele>
        <time>2024-07-20T11:08:38.243Z</time>
      </trkpt>
      <trkpt lat="53.66438" lon="11.23893">
        <ele>123.961672</ele>
        <time>2024-07-20T11:08:41.274Z</time>
      </trkpt>
      <trkpt lat="53.66438" lon="11.23914">
        <ele>123.947776</ele>
        <time>2024-07-20T11:08:44.248Z</time>
      </trkpt>
      <trkpt lat="53.66438" lon="11.23935">
        <ele>123.933967</ele>
        <time>2024-07-20T11:08:47.236Z</time>
      </trkpt>
      <trkpt lat="53.66438" lon="11.23956">
        <ele>123.920091</ele>
        <time>2024-07-20T11:08:50.245Z</time>
      </trkpt>
      <trkpt lat="53.66438" lon="11.23979">
        <ele>123.905093</ele>
        <time>2024-07-20T11:08:53.258Z</time>
      </trkpt>
      <trkpt lat="53.66439" lon="11.24002">
        <ele>123.889953</ele>
        <time>2024-07-20T11:08:56.212Z</time>
      </trkpt>
      <trkpt lat="53.66438" lon="11.24017">
        <ele>123.879575</ele>
        <time>2024-07-20T11:08:58.236Z</time>
      </trkpt>
      <trkpt lat="53.66439" lon="11.24033">
        <ele>123.869268</ele>
        <time>2024-07-20T11:09:00.252Z</time>
      </trkpt>
      <trkpt lat="53.66439" lon="11.24049">
        <ele>123.858758</ele>
        <time>2024-07-20T11:09:02.217Z</time>
      </trkpt>
      <trkpt lat="53.66439" lon="11.24065">
        <ele>123.848383</ele>
        <time>2024-07-20T11:09:04.242Z</time>
      </trkpt>
      <trkpt lat="53.66439" lon="11.2408">
        <ele>123.83801</ele>
        <time>2024-07-20T11:09:06.238Z</time>
      </trkpt>
      <trkpt lat="53.66439" lon="11.24096">
        <ele>123.827505</ele>
        <time>2024-07-20T11:09:08.240Z</time>
      </trkpt>
      <trkpt lat="53.66439" lon="11.24112">
        <ele>123.816934</ele>
        <time>2024-07-20T11:09:10.252Z</time>
      </trkpt>
      <trkpt lat="53.66439" lon="11.24135">
        <ele>123.802068</ele>
        <time>2024-07-20T11:09:13.255Z</time>
      </trkpt>
      <trkpt lat="53.66439" lon="11.24157">
        <ele>123.693242</ele>
        <time>2024-07-20T11:09:16.227Z</time>
      </trkpt>
      <trkpt lat="53.66439" lon="11.24173">
        <ele>123.605555</ele>
        <time>2024-07-20T11:09:18.259Z</time>
      </trkpt>
      <trkpt lat="53.66439" lon="11.24188">
        <ele>123.515528</ele>
        <time>2024-07-20T11:09:20.235Z</time>
      </trkpt>
      <trkpt lat="53.66439" lon="11.24204">
        <ele>123.423256</ele>
        <time>2024-07-20T11:09:22.248Z</time>
      </trkpt>
      <trkpt lat="53.66439" lon="11.24221">
        <ele>123.327539</ele>
        <time>2024-07-20T11:09:24.240Z</time>
      </trkpt>
      <trkpt lat="53.66439" lon="11.24238">
        <ele>123.229417</ele>
        <time>2024-07-20T11:09:26.242Z</time>
      </trkpt>
      <trkpt lat="53.66439" lon="11.24255">
        <ele>123.130224</ele>
        <time>2024-07-20T11:09:28.263Z</time>
      </trkpt>
      <trkpt lat="53.66439" lon="11.24274">
        <ele>123.024765</ele>
        <time>2024-07-20T11:09:30.236Z</time>
      </trkpt>
      <trkpt lat="53.6644" lon="11.24292">
        <ele>122.920918</ele>
        <time>2024-07-20T11:09:32.241Z</time>
      </trkpt>
      <trkpt lat="53.6644" lon="11.2431">
        <ele>122.819471</ele>
        <time>2024-07-20T11:09:34.221Z</time>
      </trkpt>
      <trkpt lat="53.6644" lon="11.24327">
        <ele>122.718527</ele>
        <time>2024-07-20T11:09:36.227Z</time>
      </trkpt>
      <trkpt lat="53.66439" lon="11.24344">
        <ele>122.622577</ele>
        <time>2024-07-20T11:09:38.224Z</time>
      </trkpt>
      <trkpt lat="53.66439" lon="11.24367">
        <ele>122.492994</ele>
        <time>2024-07-20T11:09:41.262Z</time>
      </trkpt>
      <trkpt lat="53.66439" lon="11.24389">
        <ele>122.362322</ele>
        <time>2024-07-20T11:09:44.231Z</time>
      </trkpt>
      <trkpt lat="53.66439" lon="11.24411">
        <ele>122.237322</ele>
        <time>2024-07-20T11:09:47.219Z</time>
      </trkpt>
      <trkpt lat="53.66439" lon="11.24433">
        <ele>122.112348</ele>
        <time>2024-07-20T11:09:50.226Z</time>
      </trkpt>
      <trkpt lat="53.66439" lon="11.24454">
        <ele>121.932401</ele>
        <time>2024-07-20T11:09:53.234Z</time>
      </trkpt>
      <trkpt lat="53.66441" lon="11.24474">
        <ele>121.718365</ele>
        <time>2024-07-20T11:09:56.225Z</time>
      </trkpt>
      <trkpt lat="53.66443" lon="11.24493">
        <ele>121.502323</ele>
        <time>2024-07-20T11:09:59.217Z</time>
      </trkpt>
      <trkpt lat="53.66442" lon="11.24514">
        <ele>121.275891</ele>
        <time>2024-07-20T11:10:02.227Z</time>
      </trkpt>
      <trkpt lat="53.66442" lon="11.24536">
        <ele>121.036582</ele>
        <time>2024-07-20T11:10:05.227Z</time>
      </trkpt>
      <trkpt lat="53.66443" lon="11.24558">
        <ele>120.804529</ele>
        <time>2024-07-20T11:10:08.232Z</time>
      </trkpt>
      <trkpt lat="53.66443" lon="11.24581">
        <ele>120.560964</ele>
        <time>2024-07-20T11:10:11.260Z</time>
      </trkpt>
      <trkpt lat="53.66443" lon="11.24601">
        <ele>120.337409</ele>
        <time>2024-07-20T11:10:14.256Z</time>
      </trkpt>
      <trkpt lat="53.66441" lon="11.2462">
        <ele>120.12838</ele>
        <time>2024-07-20T11:10:17.231Z</time>
      </trkpt>
      <trkpt lat="53.66439" lon="11.24639">
        <ele>119.923611</ele>
        <time>2024-07-20T11:10:20.245Z</time>
      </trkpt>
      <trkpt lat="53.6644" lon="11.24658">
        <ele>119.713336</ele>
        <time>2024-07-20T11:10:24.256Z</time>
      </trkpt>
      <trkpt lat="53.66439" lon="11.24676">
        <ele>119.521292</ele>
        <time>2024-07-20T11:10:27.236Z</time>
      </trkpt>
      <trkpt lat="53.66439" lon="11.24692">
        <ele>119.349852</ele>
        <time>2024-07-20T11:10:30.245Z</time>
      </trkpt>
      <trkpt lat="53.66451" lon="11.24697">
        <ele>119.121756</ele>
        <time>2024-07-20T11:10:55.242Z</time>
      </trkpt>
      <trkpt lat="53.66461" lon="11.247">
        <ele>118.932488</ele>
        <time>2024-07-20T11:10:59.235Z</time>
      </trkpt>
      <trkpt lat="53.66461" lon="11.24719">
        <ele>118.793272</ele>
        <time>2024-07-20T11:11:03.234Z</time>
      </trkpt>
      <trkpt lat="53.66458" lon="11.24734">
        <ele>118.805529</ele>
        <time>2024-07-20T11:11:06.243Z</time>
      </trkpt>
      <trkpt lat="53.66457" lon="11.2475">
        <ele>118.81835</ele>
        <time>2024-07-20T11:11:09.240Z</time>
      </trkpt>
      <trkpt lat="53.66457" lon="11.24769">
        <ele>118.833299</ele>
        <time>2024-07-20T11:11:13.243Z</time>
      </trkpt>
      <trkpt lat="53.66456" lon="11.24785">
        <ele>118.845763</ele>
        <time>2024-07-20T11:11:16.237Z</time>
      </trkpt>
      <trkpt lat="53.66456" lon="11.24803">
        <ele>118.859533</ele>
        <time>2024-07-20T11:11:19.235Z</time>
      </trkpt>
      <trkpt lat="53.66456" lon="11.24821">
        <ele>118.873889</ele>
        <time>2024-07-20T11:11:22.211Z</time>
      </trkpt>
      <trkpt lat="53.66457" lon="11.24838">
        <ele>118.887421</ele>
        <time>2024-07-20T11:11:25.261Z</time>
      </trkpt>
      <trkpt lat="53.66458" lon="11.24857">
        <ele>118.902247</ele>
        <time>2024-07-20T11:11:28.246Z</time>
      </trkpt>
      <trkpt lat="53.6646" lon="11.24875">
        <ele>118.916685</ele>
        <time>2024-07-20T11:11:31.266Z</time>
      </trkpt>
      <trkpt lat="53.66462" lon="11.24893">
        <ele>118.931429</ele>
        <time>2024-07-20T11:11:34.248Z</time>
      </trkpt>
      <trkpt lat="53.66462" lon="11.24914">
        <ele>118.947635</ele>
        <time>2024-07-20T11:11:37.253Z</time>
      </trkpt>
      <trkpt lat="53.66463" lon="11.24933">
        <ele>118.962984</ele>
        <time>2024-07-20T11:11:40.245Z</time>
      </trkpt>
      <trkpt lat="53.66463" lon="11.24952">
        <ele>118.977852</ele>
        <time>2024-07-20T11:11:43.237Z</time>
      </trkpt>
      <trkpt lat="53.66462" lon="11.24971">
        <ele>118.992878</ele>
        <time>2024-07-20T11:11:46.244Z</time>
      </trkpt>
      <trkpt lat="53.66462" lon="11.2499">
        <ele>119.007516</ele>
        <time>2024-07-20T11:11:49.258Z</time>
      </trkpt>
      <trkpt lat="53.66463" lon="11.2501">
        <ele>119.023415</ele>
        <time>2024-07-20T11:11:52.234Z</time>
      </trkpt>
      <trkpt lat="53.66463" lon="11.25029">
        <ele>119.066079</ele>
        <time>2024-07-20T11:11:55.245Z</time>
      </trkpt>
      <trkpt lat="53.66463" lon="11.25048">
        <ele>119.119446</ele>
        <time>2024-07-20T11:11:58.258Z</time>
      </trkpt>
      <trkpt lat="53.66462" lon="11.25067">
        <ele>119.171737</ele>
        <time>2024-07-20T11:12:01.265Z</time>
      </trkpt>
      <trkpt lat="53.66462" lon="11.25087">
        <ele>119.225104</ele>
        <time>2024-07-20T11:12:04.252Z</time>
      </trkpt>
      <trkpt lat="53.66462" lon="11.25106">
        <ele>119.279252</ele>
        <time>2024-07-20T11:12:07.239Z</time>
      </trkpt>
      <trkpt lat="53.66462" lon="11.25126">
        <ele>119.3337</ele>
        <time>2024-07-20T11:12:10.242Z</time>
      </trkpt>
      <trkpt lat="53.66462" lon="11.25146">
        <ele>119.388957</ele>
        <time>2024-07-20T11:12:13.226Z</time>
      </trkpt>
      <trkpt lat="53.66462" lon="11.25166">
        <ele>119.44449</ele>
        <time>2024-07-20T11:12:16.244Z</time>
      </trkpt>
      <trkpt lat="53.66462" lon="11.25187">
        <ele>119.501684</ele>
        <time>2024-07-20T11:12:19.256Z</time>
      </trkpt>
      <trkpt lat="53.66462" lon="11.25207">
        <ele>119.557199</ele>
        <time>2024-07-20T11:12:22.257Z</time>
      </trkpt>
      <trkpt lat="53.66461" lon="11.25228">
        <ele>119.61247</ele>
        <time>2024-07-20T11:12:25.238Z</time>
      </trkpt>
      <trkpt lat="53.66461" lon="11.25248">
        <ele>119.667437</ele>
        <time>2024-07-20T11:12:28.252Z</time>
      </trkpt>
      <trkpt lat="53.66461" lon="11.25268">
        <ele>119.724082</ele>
        <time>2024-07-20T11:12:31.284Z</time>
      </trkpt>
      <trkpt lat="53.66461" lon="11.25288">
        <ele>119.779889</ele>
        <time>2024-07-20T11:12:34.242Z</time>
      </trkpt>
      <trkpt lat="53.66462" lon="11.25309">
        <ele>119.83762</ele>
        <time>2024-07-20T11:12:37.239Z</time>
      </trkpt>
      <trkpt lat="53.66462" lon="11.2533">
        <ele>119.742904</ele>
        <time>2024-07-20T11:12:40.253Z</time>
      </trkpt>
      <trkpt lat="53.66462" lon="11.25351">
        <ele>119.537438</ele>
        <time>2024-07-20T11:12:43.258Z</time>
      </trkpt>
      <trkpt lat="53.66462" lon="11.25371">
        <ele>119.340888</ele>
        <time>2024-07-20T11:12:46.247Z</time>
      </trkpt>
      <trkpt lat="53.66461" lon="11.2539">
        <ele>119.153161</ele>
        <time>2024-07-20T11:12:49.242Z</time>
      </trkpt>
      <trkpt lat="53.66462" lon="11.25409">
        <ele>118.963341</ele>
        <time>2024-07-20T11:12:52.243Z</time>
      </trkpt>
      <trkpt lat="53.66462" lon="11.25429">
        <ele>118.762841</ele>
        <time>2024-07-20T11:12:55.249Z</time>
      </trkpt>
      <trkpt lat="53.66462" lon="11.2545">
        <ele>118.561104</ele>
        <time>2024-07-20T11:12:58.225Z</time>
      </trkpt>
      <trkpt lat="53.66462" lon="11.25471">
        <ele>118.345788</ele>
        <time>2024-07-20T11:13:01.280Z</time>
      </trkpt>
      <trkpt lat="53.66463" lon="11.25493">
        <ele>118.133017</ele>
        <time>2024-07-20T11:13:04.240Z</time>
      </trkpt>
      <trkpt lat="53.66462" lon="11.25514">
        <ele>117.922217</ele>
        <time>2024-07-20T11:13:07.249Z</time>
      </trkpt>
      <trkpt lat="53.66462" lon="11.25529">
        <ele>117.771636</ele>
        <time>2024-07-20T11:13:09.244Z</time>
      </trkpt>
      <trkpt lat="53.66462" lon="11.25545">
        <ele>117.61752</ele>
        <time>2024-07-20T11:13:11.284Z</time>
      </trkpt>
      <trkpt lat="53.66463" lon="11.25561">
        <ele>117.460392</ele>
        <time>2024-07-20T11:13:13.247Z</time>
      </trkpt>
      <trkpt lat="53.66464" lon="11.25578">
        <ele>117.294251</ele>
        <time>2024-07-20T11:13:15.236Z</time>
      </trkpt>
      <trkpt lat="53.66463" lon="11.25596">
        <ele>117.117447</ele>
        <time>2024-07-20T11:13:17.238Z</time>
      </trkpt>
      <trkpt lat="53.66464" lon="11.25613">
        <ele>116.947164</ele>
        <time>2024-07-20T11:13:19.233Z</time>
      </trkpt>
      <trkpt lat="53.66465" lon="11.2563">
        <ele>116.742979</ele>
        <time>2024-07-20T11:13:21.281Z</time>
      </trkpt>
      <trkpt lat="53.66463" lon="11.25649">
        <ele>116.492074</ele>
        <time>2024-07-20T11:13:23.229Z</time>
      </trkpt>
      <trkpt lat="53.66463" lon="11.25668">
        <ele>116.243427</ele>
        <time>2024-07-20T11:13:25.236Z</time>
      </trkpt>
      <trkpt lat="53.66462" lon="11.25688">
        <ele>115.98579</ele>
        <time>2024-07-20T11:13:27.233Z</time>
      </trkpt>
      <trkpt lat="53.66462" lon="11.25708">
        <ele>115.716504</ele>
        <time>2024-07-20T11:13:29.234Z</time>
      </trkpt>
      <trkpt lat="53.66462" lon="11.25729">
        <ele>115.437845</ele>
        <time>2024-07-20T11:13:31.276Z</time>
      </trkpt>
      <trkpt lat="53.66462" lon="11.25751">
        <ele>115.153909</ele>
        <time>2024-07-20T11:13:33.232Z</time>
      </trkpt>
      <trkpt lat="53.66462" lon="11.25771">
        <ele>114.879316</ele>
        <time>2024-07-20T11:13:35.248Z</time>
      </trkpt>
      <trkpt lat="53.66462" lon="11.25793">
        <ele>114.587592</ele>
        <time>2024-07-20T11:13:37.237Z</time>
      </trkpt>
      <trkpt lat="53.66462" lon="11.25816">
        <ele>114.286561</ele>
        <time>2024-07-20T11:13:39.236Z</time>
      </trkpt>
      <trkpt lat="53.66462" lon="11.25838">
        <ele>113.996088</ele>
        <time>2024-07-20T11:13:41.279Z</time>
      </trkpt>
      <trkpt lat="53.66462" lon="11.2586">
        <ele>113.709643</ele>
        <time>2024-07-20T11:13:43.242Z</time>
      </trkpt>
      <trkpt lat="53.66463" lon="11.25881">
        <ele>113.432223</ele>
        <time>2024-07-20T11:13:45.252Z</time>
      </trkpt>
      <trkpt lat="53.66463" lon="11.25903">
        <ele>113.145752</ele>
        <time>2024-07-20T11:13:47.235Z</time>
      </trkpt>
      <trkpt lat="53.66464" lon="11.25925">
        <ele>112.855539</ele>
        <time>2024-07-20T11:13:49.241Z</time>
      </trkpt>
      <trkpt lat="53.66463" lon="11.25947">
        <ele>112.812775</ele>
        <time>2024-07-20T11:13:51.270Z</time>
      </trkpt>
      <trkpt lat="53.66463" lon="11.25972">
        <ele>112.766798</ele>
        <time>2024-07-20T11:13:53.239Z</time>
      </trkpt>
      <trkpt lat="53.66464" lon="11.25996">
        <ele>112.720629</ele>
        <time>2024-07-20T11:13:55.239Z</time>
      </trkpt>
      <trkpt lat="53.66464" lon="11.26021">
        <ele>112.674084</ele>
        <time>2024-07-20T11:13:57.236Z</time>
      </trkpt>
      <trkpt lat="53.66464" lon="11.26045">
        <ele>112.629037</ele>
        <time>2024-07-20T11:13:59.238Z</time>
      </trkpt>
      <trkpt lat="53.66464" lon="11.26067">
        <ele>112.587015</ele>
        <time>2024-07-20T11:14:01.272Z</time>
      </trkpt>
      <trkpt lat="53.66464" lon="11.26088">
        <ele>112.547092</ele>
        <time>2024-07-20T11:14:03.244Z</time>
      </trkpt>
      <trkpt lat="53.66464" lon="11.26109">
        <ele>112.507486</ele>
        <time>2024-07-20T11:14:05.237Z</time>
      </trkpt>
      <trkpt lat="53.66464" lon="11.2613">
        <ele>112.467749</ele>
        <time>2024-07-20T11:14:07.234Z</time>
      </trkpt>
      <trkpt lat="53.66464" lon="11.2615">
        <ele>112.428961</ele>
        <time>2024-07-20T11:14:09.246Z</time>
      </trkpt>
      <trkpt lat="53.66464" lon="11.2617">
        <ele>112.390742</ele>
        <time>2024-07-20T11:14:11.275Z</time>
      </trkpt>
      <trkpt lat="53.66464" lon="11.2619">
        <ele>112.353279</ele>
        <time>2024-07-20T11:14:13.264Z</time>
      </trkpt>
      <trkpt lat="53.66464" lon="11.2621">
        <ele>112.315437</ele>
        <time>2024-07-20T11:14:15.252Z</time>
      </trkpt>
      <trkpt lat="53.66464" lon="11.26229">
        <ele>112.274763</ele>
        <time>2024-07-20T11:14:17.237Z</time>
      </trkpt>
      <trkpt lat="53.66464" lon="11.26247">
        <ele>112.178837</ele>
        <time>2024-07-20T11:14:19.235Z</time>
      </trkpt>
      <trkpt lat="53.66464" lon="11.26264">
        <ele>112.088843</ele>
        <time>2024-07-20T11:14:21.266Z</time>
      </trkpt>
      <trkpt lat="53.66464" lon="11.26279">
        <ele>112.004757</ele>
        <time>2024-07-20T11:14:23.256Z</time>
      </trkpt>
      <trkpt lat="53.66463" lon="11.26302">
        <ele>111.883991</ele>
        <time>2024-07-20T11:14:26.245Z</time>
      </trkpt>
      <trkpt lat="53.66463" lon="11.26317">
        <ele>111.802075</ele>
        <time>2024-07-20T11:14:28.245Z</time>
      </trkpt>
      <trkpt lat="53.66463" lon="11.26333">
        <ele>111.715848</ele>
        <time>2024-07-20T11:14:30.251Z</time>
      </trkpt>
      <trkpt lat="53.66463" lon="11.26349">
        <ele>111.630121</ele>
        <time>2024-07-20T11:14:32.256Z</time>
      </trkpt>
      <trkpt lat="53.66463" lon="11.26366">
        <ele>111.538493</ele>
        <time>2024-07-20T11:14:34.241Z</time>
      </trkpt>
      <trkpt lat="53.66463" lon="11.26383">
        <ele>111.447845</ele>
        <time>2024-07-20T11:14:36.264Z</time>
      </trkpt>
      <trkpt lat="53.66463" lon="11.264">
        <ele>111.355695</ele>
        <time>2024-07-20T11:14:38.243Z</time>
      </trkpt>
      <trkpt lat="53.66463" lon="11.26418">
        <ele>111.260273</ele>
        <time>2024-07-20T11:14:40.249Z</time>
      </trkpt>
      <trkpt lat="53.66463" lon="11.26436">
        <ele>111.159497</ele>
        <time>2024-07-20T11:14:42.256Z</time>
      </trkpt>
      <trkpt lat="53.66463" lon="11.26456">
        <ele>111.055476</ele>
        <time>2024-07-20T11:14:44.253Z</time>
      </trkpt>
      <trkpt lat="53.66463" lon="11.26475">
        <ele>110.950389</ele>
        <time>2024-07-20T11:14:46.248Z</time>
      </trkpt>
      <trkpt lat="53.66463" lon="11.26495">
        <ele>110.844131</ele>
        <time>2024-07-20T11:14:48.250Z</time>
      </trkpt>
      <trkpt lat="53.66464" lon="11.26515">
        <ele>110.737369</ele>
        <time>2024-07-20T11:14:50.245Z</time>
      </trkpt>
      <trkpt lat="53.66464" lon="11.26534">
        <ele>110.645637</ele>
        <time>2024-07-20T11:14:52.254Z</time>
      </trkpt>
      <trkpt lat="53.66464" lon="11.26553">
        <ele>110.643539</ele>
        <time>2024-07-20T11:14:54.249Z</time>
      </trkpt>
      <trkpt lat="53.66464" lon="11.26572">
        <ele>110.641428</ele>
        <time>2024-07-20T11:14:56.247Z</time>
      </trkpt>
      <trkpt lat="53.66464" lon="11.26592">
        <ele>110.639309</ele>
        <time>2024-07-20T11:14:58.247Z</time>
      </trkpt>
      <trkpt lat="53.66464" lon="11.26611">
        <ele>110.637264</ele>
        <time>2024-07-20T11:15:00.222Z</time>
      </trkpt>
      <trkpt lat="53.66464" lon="11.2663">
        <ele>110.635252</ele>
        <time>2024-07-20T11:15:02.236Z</time>
      </trkpt>
      <trkpt lat="53.66464" lon="11.26647">
        <ele>110.633316</ele>
        <time>2024-07-20T11:15:04.238Z</time>
      </trkpt>
      <trkpt lat="53.66464" lon="11.26665">
        <ele>110.631413</ele>
        <time>2024-07-20T11:15:06.246Z</time>
      </trkpt>
      <trkpt lat="53.66464" lon="11.26682">
        <ele>110.629596</ele>
        <time>2024-07-20T11:15:08.249Z</time>
      </trkpt>
      <trkpt lat="53.66464" lon="11.26698">
        <ele>110.627832</ele>
        <time>2024-07-20T11:15:10.242Z</time>
      </trkpt>
      <trkpt lat="53.66464" lon="11.26714">
        <ele>110.62607</ele>
        <time>2024-07-20T11:15:12.239Z</time>
      </trkpt>
      <trkpt lat="53.66464" lon="11.2673">
        <ele>110.624384</ele>
        <time>2024-07-20T11:15:14.252Z</time>
      </trkpt>
      <trkpt lat="53.66463" lon="11.26746">
        <ele>110.622695</ele>
        <time>2024-07-20T11:15:16.249Z</time>
      </trkpt>
      <trkpt lat="53.66464" lon="11.26768">
        <ele>110.620316</ele>
        <time>2024-07-20T11:15:19.236Z</time>
      </trkpt>
      <trkpt lat="53.66464" lon="11.2679">
        <ele>110.617916</ele>
        <time>2024-07-20T11:15:22.240Z</time>
      </trkpt>
      <trkpt lat="53.66464" lon="11.26812">
        <ele>110.615535</ele>
        <time>2024-07-20T11:15:25.252Z</time>
      </trkpt>
      <trkpt lat="53.66464" lon="11.26834">
        <ele>110.613185</ele>
        <time>2024-07-20T11:15:28.240Z</time>
      </trkpt>
      <trkpt lat="53.66464" lon="11.26855">
        <ele>110.399963</ele>
        <time>2024-07-20T11:15:31.290Z</time>
      </trkpt>
      <trkpt lat="53.66464" lon="11.26877">
        <ele>110.172618</ele>
        <time>2024-07-20T11:15:34.243Z</time>
      </trkpt>
      <trkpt lat="53.66465" lon="11.26899">
        <ele>109.943335</ele>
        <time>2024-07-20T11:15:37.237Z</time>
      </trkpt>
      <trkpt lat="53.66465" lon="11.26915">
        <ele>109.778443</ele>
        <time>2024-07-20T11:15:39.247Z</time>
      </trkpt>
      <trkpt lat="53.66465" lon="11.26932">
        <ele>109.60733</ele>
        <time>2024-07-20T11:15:41.281Z</time>
      </trkpt>
      <trkpt lat="53.66465" lon="11.26949">
        <ele>109.432077</ele>
        <time>2024-07-20T11:15:43.243Z</time>
      </trkpt>
      <trkpt lat="53.66465" lon="11.26967">
        <ele>109.246447</ele>
        <time>2024-07-20T11:15:45.251Z</time>
      </trkpt>
      <trkpt lat="53.66464" lon="11.26986">
        <ele>109.048102</ele>
        <time>2024-07-20T11:15:47.239Z</time>
      </trkpt>
      <trkpt lat="53.66464" lon="11.27005">
        <ele>108.853139</ele>
        <time>2024-07-20T11:15:49.261Z</time>
      </trkpt>
      <trkpt lat="53.66465" lon="11.27024">
        <ele>108.649519</ele>
        <time>2024-07-20T11:15:51.265Z</time>
      </trkpt>
      <trkpt lat="53.66465" lon="11.27044">
        <ele>108.44209</ele>
        <time>2024-07-20T11:15:53.250Z</time>
      </trkpt>
      <trkpt lat="53.66464" lon="11.27065">
        <ele>108.225329</ele>
        <time>2024-07-20T11:15:55.256Z</time>
      </trkpt>
      <trkpt lat="53.66465" lon="11.27086">
        <ele>108.011679</ele>
        <time>2024-07-20T11:15:57.238Z</time>
      </trkpt>
      <trkpt lat="53.66465" lon="11.27107">
        <ele>107.791808</ele>
        <time>2024-07-20T11:15:59.248Z</time>
      </trkpt>
      <trkpt lat="53.66465" lon="11.27128">
        <ele>107.56779</ele>
        <time>2024-07-20T11:16:01.257Z</time>
      </trkpt>
      <trkpt lat="53.66465" lon="11.27151">
        <ele>107.422851</ele>
        <time>2024-07-20T11:16:03.236Z</time>
      </trkpt>
      <trkpt lat="53.66465" lon="11.27173">
        <ele>107.349148</ele>
        <time>2024-07-20T11:16:05.239Z</time>
      </trkpt>
      <trkpt lat="53.66465" lon="11.27196">
        <ele>107.270722</ele>
        <time>2024-07-20T11:16:07.253Z</time>
      </trkpt>
      <trkpt lat="53.66465" lon="11.27219">
        <ele>107.193983</ele>
        <time>2024-07-20T11:16:09.245Z</time>
      </trkpt>
      <trkpt lat="53.66466" lon="11.27241">
        <ele>107.116569</ele>
        <time>2024-07-20T11:16:11.295Z</time>
      </trkpt>
      <trkpt lat="53.66466" lon="11.27264">
        <ele>107.041521</ele>
        <time>2024-07-20T11:16:13.236Z</time>
      </trkpt>
      <trkpt lat="53.66465" lon="11.27286">
        <ele>106.966102</ele>
        <time>2024-07-20T11:16:15.232Z</time>
      </trkpt>
      <trkpt lat="53.66465" lon="11.27307">
        <ele>106.895731</ele>
        <time>2024-07-20T11:16:17.252Z</time>
      </trkpt>
      <trkpt lat="53.66465" lon="11.27327">
        <ele>106.826768</ele>
        <time>2024-07-20T11:16:19.238Z</time>
      </trkpt>
      <trkpt lat="53.66464" lon="11.27347">
        <ele>106.760391</ele>
        <time>2024-07-20T11:16:21.287Z</time>
      </trkpt>
      <trkpt lat="53.66463" lon="11.27366">
        <ele>106.69479</ele>
        <time>2024-07-20T11:16:23.237Z</time>
      </trkpt>
      <trkpt lat="53.66461" lon="11.27384">
        <ele>106.633755</ele>
        <time>2024-07-20T11:16:25.237Z</time>
      </trkpt>
      <trkpt lat="53.66459" lon="11.27402">
        <ele>106.570079</ele>
        <time>2024-07-20T11:16:27.244Z</time>
      </trkpt>
      <trkpt lat="53.66457" lon="11.27422">
        <ele>106.503275</ele>
        <time>2024-07-20T11:16:29.249Z</time>
      </trkpt>
      <trkpt lat="53.66456" lon="11.2744">
        <ele>106.440323</ele>
        <time>2024-07-20T11:16:31.271Z</time>
      </trkpt>
      <trkpt lat="53.66452" lon="11.27459">
        <ele>106.374038</ele>
        <time>2024-07-20T11:16:33.248Z</time>
      </trkpt>
      <trkpt lat="53.6645" lon="11.27478">
        <ele>106.306264</ele>
        <time>2024-07-20T11:16:35.237Z</time>
      </trkpt>
      <trkpt lat="53.66447" lon="11.27498">
        <ele>106.232903</ele>
        <time>2024-07-20T11:16:37.251Z</time>
      </trkpt>
      <trkpt lat="53.66444" lon="11.27519">
        <ele>106.158462</ele>
        <time>2024-07-20T11:16:39.229Z</time>
      </trkpt>
      <trkpt lat="53.66441" lon="11.2754">
        <ele>106.084946</ele>
        <time>2024-07-20T11:16:41.264Z</time>
      </trkpt>
      <trkpt lat="53.66438" lon="11.27561">
        <ele>106.012448</ele>
        <time>2024-07-20T11:16:43.233Z</time>
      </trkpt>
      <trkpt lat="53.66435" lon="11.27579">
        <ele>105.94493</ele>
        <time>2024-07-20T11:16:45.236Z</time>
      </trkpt>
      <trkpt lat="53.66433" lon="11.27598">
        <ele>105.880911</ele>
        <time>2024-07-20T11:16:47.239Z</time>
      </trkpt>
      <trkpt lat="53.6643" lon="11.27615">
        <ele>105.818565</ele>
        <time>2024-07-20T11:16:49.254Z</time>
      </trkpt>
      <trkpt lat="53.66427" lon="11.27631">
        <ele>105.757497</ele>
        <time>2024-07-20T11:16:51.278Z</time>
      </trkpt>
      <trkpt lat="53.66424" lon="11.27649">
        <ele>105.69581</ele>
        <time>2024-07-20T11:16:53.232Z</time>
      </trkpt>
      <trkpt lat="53.66424" lon="11.27665">
        <ele>105.639066</ele>
        <time>2024-07-20T11:16:55.235Z</time>
      </trkpt>
      <trkpt lat="53.66426" lon="11.27681">
        <ele>105.583424</ele>
        <time>2024-07-20T11:16:57.231Z</time>
      </trkpt>
      <trkpt lat="53.66424" lon="11.27702">
        <ele>105.509274</ele>
        <time>2024-07-20T11:17:00.229Z</time>
      </trkpt>
      <trkpt lat="53.66417" lon="11.2772">
        <ele>105.434259</ele>
        <time>2024-07-20T11:17:03.227Z</time>
      </trkpt>
      <trkpt lat="53.66412" lon="11.2774">
        <ele>105.418183</ele>
        <time>2024-07-20T11:17:06.248Z</time>
      </trkpt>
      <trkpt lat="53.66409" lon="11.2776">
        <ele>105.487419</ele>
        <time>2024-07-20T11:17:09.242Z</time>
      </trkpt>
      <trkpt lat="53.66406" lon="11.27779">
        <ele>105.556559</ele>
        <time>2024-07-20T11:17:12.239Z</time>
      </trkpt>
      <trkpt lat="53.66399" lon="11.27796">
        <ele>105.623765</ele>
        <time>2024-07-20T11:17:15.232Z</time>
      </trkpt>
      <trkpt lat="53.66395" lon="11.27815">
        <ele>105.691999</ele>
        <time>2024-07-20T11:17:18.236Z</time>
      </trkpt>
      <trkpt lat="53.66392" lon="11.27835">
        <ele>105.762993</ele>
        <time>2024-07-20T11:17:21.266Z</time>
      </trkpt>
      <trkpt lat="53.66389" lon="11.27856">
        <ele>105.836642</ele>
        <time>2024-07-20T11:17:24.243Z</time>
      </trkpt>
      <trkpt lat="53.66386" lon="11.27877">
        <ele>105.911083</ele>
        <time>2024-07-20T11:17:27.233Z</time>
      </trkpt>
      <trkpt lat="53.66384" lon="11.27892">
        <ele>105.962663</ele>
        <time>2024-07-20T11:17:29.239Z</time>
      </trkpt>
      <trkpt lat="53.66381" lon="11.27912">
        <ele>106.033266</ele>
        <time>2024-07-20T11:17:32.215Z</time>
      </trkpt>
      <trkpt lat="53.66379" lon="11.27927">
        <ele>106.085052</ele>
        <time>2024-07-20T11:17:34.256Z</time>
      </trkpt>
      <trkpt lat="53.66377" lon="11.27941">
        <ele>106.13722</ele>
        <time>2024-07-20T11:17:36.251Z</time>
      </trkpt>
      <trkpt lat="53.66374" lon="11.27964">
        <ele>106.214319</ele>
        <time>2024-07-20T11:17:39.245Z</time>
      </trkpt>
      <trkpt lat="53.66371" lon="11.27979">
        <ele>106.267946</ele>
        <time>2024-07-20T11:17:41.276Z</time>
      </trkpt>
      <trkpt lat="53.66369" lon="11.27994">
        <ele>106.320113</ele>
        <time>2024-07-20T11:17:43.235Z</time>
      </trkpt>
      <trkpt lat="53.66367" lon="11.28009">
        <ele>106.372229</ele>
        <time>2024-07-20T11:17:45.242Z</time>
      </trkpt>
      <trkpt lat="53.66365" lon="11.28024">
        <ele>106.412959</ele>
        <time>2024-07-20T11:17:47.236Z</time>
      </trkpt>
      <trkpt lat="53.66362" lon="11.2804">
        <ele>106.29745</ele>
        <time>2024-07-20T11:17:49.235Z</time>
      </trkpt>
      <trkpt lat="53.6636" lon="11.28056">
        <ele>106.184579</ele>
        <time>2024-07-20T11:17:51.296Z</time>
      </trkpt>
      <trkpt lat="53.66358" lon="11.28072">
        <ele>106.066699</ele>
        <time>2024-07-20T11:17:53.256Z</time>
      </trkpt>
      <trkpt lat="53.66356" lon="11.28088">
        <ele>105.952719</ele>
        <time>2024-07-20T11:17:55.238Z</time>
      </trkpt>
      <trkpt lat="53.66353" lon="11.2811">
        <ele>105.791983</ele>
        <time>2024-07-20T11:17:58.253Z</time>
      </trkpt>
      <trkpt lat="53.66351" lon="11.28125">
        <ele>105.67814</ele>
        <time>2024-07-20T11:18:00.248Z</time>
      </trkpt>
      <trkpt lat="53.66348" lon="11.28141">
        <ele>105.563013</ele>
        <time>2024-07-20T11:18:02.257Z</time>
      </trkpt>
      <trkpt lat="53.66344" lon="11.28163">
        <ele>105.402076</ele>
        <time>2024-07-20T11:18:05.244Z</time>
      </trkpt>
      <trkpt lat="53.66342" lon="11.28178">
        <ele>105.288343</ele>
        <time>2024-07-20T11:18:07.231Z</time>
      </trkpt>
      <trkpt lat="53.6634" lon="11.28193">
        <ele>105.180152</ele>
        <time>2024-07-20T11:18:09.236Z</time>
      </trkpt>
      <trkpt lat="53.66338" lon="11.28208">
        <ele>105.070834</ele>
        <time>2024-07-20T11:18:11.285Z</time>
      </trkpt>
      <trkpt lat="53.66335" lon="11.28223">
        <ele>104.960486</ele>
        <time>2024-07-20T11:18:13.236Z</time>
      </trkpt>
      <trkpt lat="53.66333" lon="11.28238">
        <ele>104.850716</ele>
        <time>2024-07-20T11:18:15.240Z</time>
      </trkpt>
      <trkpt lat="53.6633" lon="11.28259">
        <ele>104.698704</ele>
        <time>2024-07-20T11:18:18.240Z</time>
      </trkpt>
      <trkpt lat="53.66326" lon="11.2828">
        <ele>104.540963</ele>
        <time>2024-07-20T11:18:21.259Z</time>
      </trkpt>
      <trkpt lat="53.66323" lon="11.28295">
        <ele>104.432289</ele>
        <time>2024-07-20T11:18:23.234Z</time>
      </trkpt>
      <trkpt lat="53.66318" lon="11.28315">
        <ele>104.279868</ele>
        <time>2024-07-20T11:18:26.233Z</time>
      </trkpt>
      <trkpt lat="53.66315" lon="11.28329">
        <ele>104.014375</ele>
        <time>2024-07-20T11:18:28.239Z</time>
      </trkpt>
      <trkpt lat="53.6631" lon="11.28349">
        <ele>103.619906</ele>
        <time>2024-07-20T11:18:31.285Z</time>
      </trkpt>
      <trkpt lat="53.66304" lon="11.28368">
        <ele>103.228819</ele>
        <time>2024-07-20T11:18:34.256Z</time>
      </trkpt>
      <trkpt lat="53.66298" lon="11.28386">
        <ele>102.863688</ele>
        <time>2024-07-20T11:18:37.248Z</time>
      </trkpt>
      <trkpt lat="53.66294" lon="11.284">
        <ele>102.58862</ele>
        <time>2024-07-20T11:18:39.236Z</time>
      </trkpt>
      <trkpt lat="53.6629" lon="11.28414">
        <ele>102.295172</ele>
        <time>2024-07-20T11:18:41.292Z</time>
      </trkpt>
      <trkpt lat="53.66285" lon="11.28429">
        <ele>101.991414</ele>
        <time>2024-07-20T11:18:43.248Z</time>
      </trkpt>
      <trkpt lat="53.6628" lon="11.28443">
        <ele>101.679691</ele>
        <time>2024-07-20T11:18:45.252Z</time>
      </trkpt>
      <trkpt lat="53.66273" lon="11.2846">
        <ele>101.327622</ele>
        <time>2024-07-20T11:18:47.259Z</time>
      </trkpt>
      <trkpt lat="53.66267" lon="11.28477">
        <ele>100.953941</ele>
        <time>2024-07-20T11:18:49.264Z</time>
      </trkpt>
      <trkpt lat="53.66261" lon="11.28495">
        <ele>100.570924</ele>
        <time>2024-07-20T11:18:51.265Z</time>
      </trkpt>
      <trkpt lat="53.66255" lon="11.28516">
        <ele>100.160819</ele>
        <time>2024-07-20T11:18:53.243Z</time>
      </trkpt>
      <trkpt lat="53.66248" lon="11.28537">
        <ele>99.723488</ele>
        <time>2024-07-20T11:18:55.240Z</time>
      </trkpt>
      <trkpt lat="53.66244" lon="11.28561">
        <ele>99.274807</ele>
        <time>2024-07-20T11:18:57.237Z</time>
      </trkpt>
      <trkpt lat="53.66239" lon="11.28584">
        <ele>98.830075</ele>
        <time>2024-07-20T11:18:59.227Z</time>
      </trkpt>
      <trkpt lat="53.66235" lon="11.28607">
        <ele>98.759915</ele>
        <time>2024-07-20T11:19:01.273Z</time>
      </trkpt>
      <trkpt lat="53.66233" lon="11.28631">
        <ele>98.737751</ele>
        <time>2024-07-20T11:19:03.224Z</time>
      </trkpt>
      <trkpt lat="53.66231" lon="11.28654">
        <ele>98.715897</ele>
        <time>2024-07-20T11:19:05.248Z</time>
      </trkpt>
      <trkpt lat="53.6623" lon="11.28678">
        <ele>98.694338</ele>
        <time>2024-07-20T11:19:07.243Z</time>
      </trkpt>
      <trkpt lat="53.66229" lon="11.28699">
        <ele>98.674409</ele>
        <time>2024-07-20T11:19:09.252Z</time>
      </trkpt>
      <trkpt lat="53.66229" lon="11.28719">
        <ele>98.655387</ele>
        <time>2024-07-20T11:19:11.282Z</time>
      </trkpt>
      <trkpt lat="53.66231" lon="11.28739">
        <ele>98.637491</ele>
        <time>2024-07-20T11:19:13.232Z</time>
      </trkpt>
      <trkpt lat="53.66233" lon="11.28756">
        <ele>98.620985</ele>
        <time>2024-07-20T11:19:15.235Z</time>
      </trkpt>
      <trkpt lat="53.66234" lon="11.28774">
        <ele>98.604074</ele>
        <time>2024-07-20T11:19:17.246Z</time>
      </trkpt>
      <trkpt lat="53.66236" lon="11.28793">
        <ele>98.586681</ele>
        <time>2024-07-20T11:19:19.255Z</time>
      </trkpt>
      <trkpt lat="53.66237" lon="11.28812">
        <ele>98.568549</ele>
        <time>2024-07-20T11:19:21.290Z</time>
      </trkpt>
      <trkpt lat="53.66237" lon="11.28832">
        <ele>98.550163</ele>
        <time>2024-07-20T11:19:23.248Z</time>
      </trkpt>
      <trkpt lat="53.66235" lon="11.28852">
        <ele>98.531551</ele>
        <time>2024-07-20T11:19:25.237Z</time>
      </trkpt>
      <trkpt lat="53.66235" lon="11.28871">
        <ele>98.51359</ele>
        <time>2024-07-20T11:19:27.243Z</time>
      </trkpt>
      <trkpt lat="53.66234" lon="11.28888">
        <ele>98.498751</ele>
        <time>2024-07-20T11:19:29.229Z</time>
      </trkpt>
      <trkpt lat="53.66232" lon="11.28908">
        <ele>98.718899</ele>
        <time>2024-07-20T11:19:32.247Z</time>
      </trkpt>
      <trkpt lat="53.66228" lon="11.28927">
        <ele>98.923271</ele>
        <time>2024-07-20T11:19:35.233Z</time>
      </trkpt>
      <trkpt lat="53.66226" lon="11.28945">
        <ele>99.11333</ele>
        <time>2024-07-20T11:19:38.229Z</time>
      </trkpt>
      <trkpt lat="53.66224" lon="11.28961">
        <ele>99.280253</ele>
        <time>2024-07-20T11:19:41.271Z</time>
      </trkpt>
      <trkpt lat="53.66222" lon="11.28977">
        <ele>99.448187</ele>
        <time>2024-07-20T11:19:44.248Z</time>
      </trkpt>
      <trkpt lat="53.6622" lon="11.28993">
        <ele>99.617791</ele>
        <time>2024-07-20T11:19:47.237Z</time>
      </trkpt>
      <trkpt lat="53.66217" lon="11.29008">
        <ele>99.78394</ele>
        <time>2024-07-20T11:19:50.254Z</time>
      </trkpt>
      <trkpt lat="53.66216" lon="11.29024">
        <ele>99.944811</ele>
        <time>2024-07-20T11:19:53.235Z</time>
      </trkpt>
      <trkpt lat="53.66213" lon="11.29043">
        <ele>100.154756</ele>
        <time>2024-07-20T11:19:57.256Z</time>
      </trkpt>
      <trkpt lat="53.66209" lon="11.29062">
        <ele>100.360357</ele>
        <time>2024-07-20T11:20:01.269Z</time>
      </trkpt>
      <trkpt lat="53.66206" lon="11.29079">
        <ele>100.544474</ele>
        <time>2024-07-20T11:20:05.252Z</time>
      </trkpt>
      <trkpt lat="53.66202" lon="11.29096">
        <ele>100.738978</ele>
        <time>2024-07-20T11:20:09.258Z</time>
      </trkpt>
      <trkpt lat="53.66199" lon="11.29113">
        <ele>100.919586</ele>
        <time>2024-07-20T11:20:13.238Z</time>
      </trkpt>
      <trkpt lat="53.66196" lon="11.29128">
        <ele>101.083679</ele>
        <time>2024-07-20T11:20:17.230Z</time>
      </trkpt>
      <trkpt lat="53.66192" lon="11.29142">
        <ele>101.244119</ele>
        <time>2024-07-20T11:20:22.244Z</time>
      </trkpt>
      <trkpt lat="53.66189" lon="11.29158">
        <ele>101.42453</ele>
        <time>2024-07-20T11:20:27.241Z</time>
      </trkpt>
      <trkpt lat="53.66186" lon="11.29173">
        <ele>101.583151</ele>
        <time>2024-07-20T11:20:32.238Z</time>
      </trkpt>
      <trkpt lat="53.66183" lon="11.2919">
        <ele>101.72458</ele>
        <time>2024-07-20T11:20:38.249Z</time>
      </trkpt>
      <trkpt lat="53.66179" lon="11.29209">
        <ele>101.850888</ele>
        <time>2024-07-20T11:20:43.235Z</time>
      </trkpt>
      <trkpt lat="53.66175" lon="11.29227">
        <ele>101.973633</ele>
        <time>2024-07-20T11:20:47.243Z</time>
      </trkpt>
      <trkpt lat="53.66172" lon="11.29242">
        <ele>102.071346</ele>
        <time>2024-07-20T11:20:50.262Z</time>
      </trkpt>
      <trkpt lat="53.66169" lon="11.29258">
        <ele>102.172923</ele>
        <time>2024-07-20T11:20:53.254Z</time>
      </trkpt>
      <trkpt lat="53.66166" lon="11.29272">
        <ele>102.270238</ele>
        <time>2024-07-20T11:20:56.245Z</time>
      </trkpt>
      <trkpt lat="53.66164" lon="11.29288">
        <ele>102.37399</ele>
        <time>2024-07-20T11:20:59.245Z</time>
      </trkpt>
      <trkpt lat="53.66161" lon="11.29303">
        <ele>102.474963</ele>
        <time>2024-07-20T11:21:02.244Z</time>
      </trkpt>
      <trkpt lat="53.66158" lon="11.29318">
        <ele>102.574223</ele>
        <time>2024-07-20T11:21:05.235Z</time>
      </trkpt>
      <trkpt lat="53.66155" lon="11.29333">
        <ele>102.673843</ele>
        <time>2024-07-20T11:21:08.252Z</time>
      </trkpt>
      <trkpt lat="53.66152" lon="11.29349">
        <ele>102.782372</ele>
        <time>2024-07-20T11:21:11.290Z</time>
      </trkpt>
      <trkpt lat="53.6615" lon="11.2937">
        <ele>102.91279</ele>
        <time>2024-07-20T11:21:15.244Z</time>
      </trkpt>
      <trkpt lat="53.66148" lon="11.29386">
        <ele>103.014735</ele>
        <time>2024-07-20T11:21:18.236Z</time>
      </trkpt>
      <trkpt lat="53.66146" lon="11.29402">
        <ele>103.119372</ele>
        <time>2024-07-20T11:21:21.283Z</time>
      </trkpt>
      <trkpt lat="53.66144" lon="11.29418">
        <ele>103.22546</ele>
        <time>2024-07-20T11:21:24.252Z</time>
      </trkpt>
      <trkpt lat="53.66143" lon="11.29434">
        <ele>103.3248</ele>
        <time>2024-07-20T11:21:27.243Z</time>
      </trkpt>
      <trkpt lat="53.66143" lon="11.2945">
        <ele>103.424987</ele>
        <time>2024-07-20T11:21:30.232Z</time>
      </trkpt>
      <trkpt lat="53.66142" lon="11.29468">
        <ele>103.543469</ele>
        <time>2024-07-20T11:21:34.265Z</time>
      </trkpt>
      <trkpt lat="53.66141" lon="11.29485">
        <ele>103.421361</ele>
        <time>2024-07-20T11:21:37.246Z</time>
      </trkpt>
      <trkpt lat="53.6614" lon="11.29503">
        <ele>103.216985</ele>
        <time>2024-07-20T11:21:40.248Z</time>
      </trkpt>
      <trkpt lat="53.66141" lon="11.29523">
        <ele>102.987758</ele>
        <time>2024-07-20T11:21:43.240Z</time>
      </trkpt>
      <trkpt lat="53.66141" lon="11.29543">
        <ele>102.757421</ele>
        <time>2024-07-20T11:21:46.240Z</time>
      </trkpt>
      <trkpt lat="53.6614" lon="11.29565">
        <ele>102.504284</ele>
        <time>2024-07-20T11:21:49.238Z</time>
      </trkpt>
      <trkpt lat="53.66141" lon="11.29583">
        <ele>102.298836</ele>
        <time>2024-07-20T11:21:51.277Z</time>
      </trkpt>
      <trkpt lat="53.66141" lon="11.29602">
        <ele>102.088503</ele>
        <time>2024-07-20T11:21:53.246Z</time>
      </trkpt>
      <trkpt lat="53.66142" lon="11.29623">
        <ele>101.843651</ele>
        <time>2024-07-20T11:21:55.228Z</time>
      </trkpt>
      <trkpt lat="53.66143" lon="11.29648">
        <ele>101.564871</ele>
        <time>2024-07-20T11:21:57.238Z</time>
      </trkpt>
      <trkpt lat="53.66145" lon="11.29673">
        <ele>101.275971</ele>
        <time>2024-07-20T11:21:59.236Z</time>
      </trkpt>
      <trkpt lat="53.66147" lon="11.297">
        <ele>100.967864</ele>
        <time>2024-07-20T11:22:01.273Z</time>
      </trkpt>
      <trkpt lat="53.66149" lon="11.29728">
        <ele>100.646613</ele>
        <time>2024-07-20T11:22:03.231Z</time>
      </trkpt>
      <trkpt lat="53.66151" lon="11.29755">
        <ele>100.340203</ele>
        <time>2024-07-20T11:22:05.225Z</time>
      </trkpt>
      <trkpt lat="53.66154" lon="11.29781">
        <ele>100.056428</ele>
        <time>2024-07-20T11:22:07.241Z</time>
      </trkpt>
      <trkpt lat="53.66157" lon="11.29806">
        <ele>99.838581</ele>
        <time>2024-07-20T11:22:09.237Z</time>
      </trkpt>
      <trkpt lat="53.66161" lon="11.2983">
        <ele>99.622166</ele>
        <time>2024-07-20T11:22:11.277Z</time>
      </trkpt>
      <trkpt lat="53.66165" lon="11.29852">
        <ele>99.421025</ele>
        <time>2024-07-20T11:22:13.255Z</time>
      </trkpt>
      <trkpt lat="53.66169" lon="11.29871">
        <ele>99.246575</ele>
        <time>2024-07-20T11:22:15.237Z</time>
      </trkpt>
      <trkpt lat="53.66172" lon="11.29892">
        <ele>99.062593</ele>
        <time>2024-07-20T11:22:17.252Z</time>
      </trkpt>
      <trkpt lat="53.66176" lon="11.29911">
        <ele>98.884772</ele>
        <time>2024-07-20T11:22:19.229Z</time>
      </trkpt>
      <trkpt lat="53.66179" lon="11.29931">
        <ele>98.713317</ele>
        <time>2024-07-20T11:22:21.280Z</time>
      </trkpt>
      <trkpt lat="53.66181" lon="11.29949">
        <ele>98.548722</ele>
        <time>2024-07-20T11:22:23.226Z</time>
      </trkpt>
      <trkpt lat="53.66184" lon="11.29968">
        <ele>98.382607</ele>
        <time>2024-07-20T11:22:25.231Z</time>
      </trkpt>
      <trkpt lat="53.66187" lon="11.29987">
        <ele>98.212275</ele>
        <time>2024-07-20T11:22:27.234Z</time>
      </trkpt>
      <trkpt lat="53.6619" lon="11.30004">
        <ele>98.055251</ele>
        <time>2024-07-20T11:22:29.245Z</time>
      </trkpt>
      <trkpt lat="53.66193" lon="11.30021">
        <ele>97.896538</ele>
        <time>2024-07-20T11:22:31.274Z</time>
      </trkpt>
      <trkpt lat="53.66197" lon="11.30039">
        <ele>97.736626</ele>
        <time>2024-07-20T11:22:33.229Z</time>
      </trkpt>
      <trkpt lat="53.662" lon="11.30057">
        <ele>97.572583</ele>
        <time>2024-07-20T11:22:35.233Z</time>
      </trkpt>
      <trkpt lat="53.66203" lon="11.30074">
        <ele>97.420879</ele>
        <time>2024-07-20T11:22:37.243Z</time>
      </trkpt>
      <trkpt lat="53.66207" lon="11.3009">
        <ele>97.269127</ele>
        <time>2024-07-20T11:22:39.238Z</time>
      </trkpt>
      <trkpt lat="53.66211" lon="11.30105">
        <ele>97.123907</ele>
        <time>2024-07-20T11:22:41.276Z</time>
      </trkpt>
      <trkpt lat="53.66216" lon="11.3012">
        <ele>96.97564</ele>
        <time>2024-07-20T11:22:43.225Z</time>
      </trkpt>
      <trkpt lat="53.6622" lon="11.30134">
        <ele>96.831213</ele>
        <time>2024-07-20T11:22:45.235Z</time>
      </trkpt>
      <trkpt lat="53.66223" lon="11.3015">
        <ele>96.688804</ele>
        <time>2024-07-20T11:22:47.239Z</time>
      </trkpt>
      <trkpt lat="53.66225" lon="11.30165">
        <ele>96.550569</ele>
        <time>2024-07-20T11:22:49.235Z</time>
      </trkpt>
      <trkpt lat="53.66228" lon="11.3018">
        <ele>96.415757</ele>
        <time>2024-07-20T11:22:51.295Z</time>
      </trkpt>
      <trkpt lat="53.66231" lon="11.30201">
        <ele>96.216809</ele>
        <time>2024-07-20T11:22:54.241Z</time>
      </trkpt>
      <trkpt lat="53.66234" lon="11.30217">
        <ele>96.069774</ele>
        <time>2024-07-20T11:22:56.231Z</time>
      </trkpt>
      <trkpt lat="53.66236" lon="11.30237">
        <ele>95.894377</ele>
        <time>2024-07-20T11:22:59.237Z</time>
      </trkpt>
      <trkpt lat="53.66226" lon="11.30245">
        <ele>95.723574</ele>
        <time>2024-07-20T11:23:03.210Z</time>
      </trkpt>
      <trkpt lat="53.66222" lon="11.3026">
        <ele>95.5808</ele>
        <time>2024-07-20T11:23:09.236Z</time>
      </trkpt>
      <trkpt lat="53.66226" lon="11.30276">
        <ele>95.43232</ele>
        <time>2024-07-20T11:23:12.229Z</time>
      </trkpt>
      <trkpt lat="53.66229" lon="11.30295">
        <ele>95.253939</ele>
        <time>2024-07-20T11:23:15.244Z</time>
      </trkpt>
      <trkpt lat="53.66232" lon="11.3031">
        <ele>95.116084</ele>
        <time>2024-07-20T11:23:17.232Z</time>
      </trkpt>
      <trkpt lat="53.66235" lon="11.30326">
        <ele>94.971524</ele>
        <time>2024-07-20T11:23:19.224Z</time>
      </trkpt>
      <trkpt lat="53.66237" lon="11.30342">
        <ele>94.829402</ele>
        <time>2024-07-20T11:23:21.297Z</time>
      </trkpt>
      <trkpt lat="53.66239" lon="11.30357">
        <ele>94.846532</ele>
        <time>2024-07-20T11:23:23.236Z</time>
      </trkpt>
      <trkpt lat="53.66242" lon="11.30373">
        <ele>94.8693</ele>
        <time>2024-07-20T11:23:25.237Z</time>
      </trkpt>
      <trkpt lat="53.66244" lon="11.30389">
        <ele>94.891969</ele>
        <time>2024-07-20T11:23:27.229Z</time>
      </trkpt>
      <trkpt lat="53.66244" lon="11.30406">
        <ele>94.91494</ele>
        <time>2024-07-20T11:23:29.225Z</time>
      </trkpt>
      <trkpt lat="53.66244" lon="11.30421">
        <ele>94.936743</ele>
        <time>2024-07-20T11:23:31.290Z</time>
      </trkpt>
      <trkpt lat="53.66244" lon="11.30438">
        <ele>94.959408</ele>
        <time>2024-07-20T11:23:33.228Z</time>
      </trkpt>
      <trkpt lat="53.66242" lon="11.30454">
        <ele>94.981697</ele>
        <time>2024-07-20T11:23:35.231Z</time>
      </trkpt>
      <trkpt lat="53.66239" lon="11.30475">
        <ele>95.012659</ele>
        <time>2024-07-20T11:23:38.231Z</time>
      </trkpt>
      <trkpt lat="53.66233" lon="11.30489">
        <ele>95.036216</ele>
        <time>2024-07-20T11:23:41.260Z</time>
      </trkpt>
      <trkpt lat="53.66227" lon="11.30504">
        <ele>95.060871</ele>
        <time>2024-07-20T11:23:45.251Z</time>
      </trkpt>
      <trkpt lat="53.66225" lon="11.30521">
        <ele>95.085577</ele>
        <time>2024-07-20T11:23:48.245Z</time>
      </trkpt>
      <trkpt lat="53.6622" lon="11.30539">
        <ele>95.112607</ele>
        <time>2024-07-20T11:23:51.250Z</time>
      </trkpt>
      <trkpt lat="53.66214" lon="11.30557">
        <ele>95.141294</ele>
        <time>2024-07-20T11:23:54.205Z</time>
      </trkpt>
      <trkpt lat="53.66208" lon="11.30573">
        <ele>95.16747</ele>
        <time>2024-07-20T11:23:57.228Z</time>
      </trkpt>
      <trkpt lat="53.66201" lon="11.30588">
        <ele>95.19384</ele>
        <time>2024-07-20T11:24:00.239Z</time>
      </trkpt>
      <trkpt lat="53.66194" lon="11.30606">
        <ele>95.224087</ele>
        <time>2024-07-20T11:24:03.237Z</time>
      </trkpt>
      <trkpt lat="53.66187" lon="11.30623">
        <ele>95.251082</ele>
        <time>2024-07-20T11:24:06.241Z</time>
      </trkpt>
      <trkpt lat="53.66179" lon="11.3064">
        <ele>95.272237</ele>
        <time>2024-07-20T11:24:09.242Z</time>
      </trkpt>
      <trkpt lat="53.66171" lon="11.30657">
        <ele>95.294321</ele>
        <time>2024-07-20T11:24:12.230Z</time>
      </trkpt>
      <trkpt lat="53.66163" lon="11.30675">
        <ele>95.315465</ele>
        <time>2024-07-20T11:24:15.230Z</time>
      </trkpt>
      <trkpt lat="53.66157" lon="11.3069">
        <ele>95.333795</ele>
        <time>2024-07-20T11:24:18.225Z</time>
      </trkpt>
      <trkpt lat="53.66152" lon="11.30705">
        <ele>95.351211</ele>
        <time>2024-07-20T11:24:21.253Z</time>
      </trkpt>
      <trkpt lat="53.66147" lon="11.30722">
        <ele>95.370063</ele>
        <time>2024-07-20T11:24:24.222Z</time>
      </trkpt>
      <trkpt lat="53.6614" lon="11.30737">
        <ele>95.387684</ele>
        <time>2024-07-20T11:24:27.231Z</time>
      </trkpt>
      <trkpt lat="53.66134" lon="11.30748">
        <ele>95.403265</ele>
        <time>2024-07-20T11:24:29.239Z</time>
      </trkpt>
      <trkpt lat="53.66127" lon="11.3076">
        <ele>95.419714</ele>
        <time>2024-07-20T11:24:31.286Z</time>
      </trkpt>
      <trkpt lat="53.6612" lon="11.30771">
        <ele>95.435412</ele>
        <time>2024-07-20T11:24:33.238Z</time>
      </trkpt>
      <trkpt lat="53.66114" lon="11.30783">
        <ele>95.451418</ele>
        <time>2024-07-20T11:24:35.238Z</time>
      </trkpt>
      <trkpt lat="53.66106" lon="11.30801">
        <ele>95.473502</ele>
        <time>2024-07-20T11:24:38.232Z</time>
      </trkpt>
      <trkpt lat="53.66099" lon="11.30813">
        <ele>95.489764</ele>
        <time>2024-07-20T11:24:40.244Z</time>
      </trkpt>
      <trkpt lat="53.66093" lon="11.30825">
        <ele>95.505102</ele>
        <time>2024-07-20T11:24:42.246Z</time>
      </trkpt>
      <trkpt lat="53.66087" lon="11.30837">
        <ele>95.520514</ele>
        <time>2024-07-20T11:24:44.234Z</time>
      </trkpt>
      <trkpt lat="53.66079" lon="11.30855">
        <ele>95.542193</ele>
        <time>2024-07-20T11:24:47.237Z</time>
      </trkpt>
      <trkpt lat="53.66073" lon="11.30866">
        <ele>95.443901</ele>
        <time>2024-07-20T11:24:49.235Z</time>
      </trkpt>
      <trkpt lat="53.66065" lon="11.30884">
        <ele>95.25165</ele>
        <time>2024-07-20T11:24:52.255Z</time>
      </trkpt>
      <trkpt lat="53.6606" lon="11.30897">
        <ele>95.119685</ele>
        <time>2024-07-20T11:24:54.227Z</time>
      </trkpt>
      <trkpt lat="53.66054" lon="11.3091">
        <ele>94.979133</ele>
        <time>2024-07-20T11:24:56.239Z</time>
      </trkpt>
      <trkpt lat="53.66045" lon="11.30928">
        <ele>94.7838</ele>
        <time>2024-07-20T11:24:59.245Z</time>
      </trkpt>
      <trkpt lat="53.66039" lon="11.3094">
        <ele>94.652344</ele>
        <time>2024-07-20T11:25:01.263Z</time>
      </trkpt>
      <trkpt lat="53.66033" lon="11.30951">
        <ele>94.521833</ele>
        <time>2024-07-20T11:25:03.228Z</time>
      </trkpt>
      <trkpt lat="53.66027" lon="11.30963">
        <ele>94.383402</ele>
        <time>2024-07-20T11:25:05.231Z</time>
      </trkpt>
      <trkpt lat="53.6602" lon="11.30976">
        <ele>94.236732</ele>
        <time>2024-07-20T11:25:07.231Z</time>
      </trkpt>
      <trkpt lat="53.66013" lon="11.3099">
        <ele>94.083538</ele>
        <time>2024-07-20T11:25:09.237Z</time>
      </trkpt>
      <trkpt lat="53.66007" lon="11.31006">
        <ele>93.921757</ele>
        <time>2024-07-20T11:25:11.284Z</time>
      </trkpt>
      <trkpt lat="53.66001" lon="11.3102">
        <ele>93.771157</ele>
        <time>2024-07-20T11:25:13.232Z</time>
      </trkpt>
      <trkpt lat="53.65994" lon="11.31035">
        <ele>93.614625</ele>
        <time>2024-07-20T11:25:15.244Z</time>
      </trkpt>
      <trkpt lat="53.65989" lon="11.3105">
        <ele>93.466596</ele>
        <time>2024-07-20T11:25:17.239Z</time>
      </trkpt>
      <trkpt lat="53.65983" lon="11.31064">
        <ele>93.318452</ele>
        <time>2024-07-20T11:25:19.227Z</time>
      </trkpt>
      <trkpt lat="53.65976" lon="11.31079">
        <ele>93.165016</ele>
        <time>2024-07-20T11:25:21.274Z</time>
      </trkpt>
      <trkpt lat="53.65969" lon="11.31093">
        <ele>93.006487</ele>
        <time>2024-07-20T11:25:23.234Z</time>
      </trkpt>
      <trkpt lat="53.65963" lon="11.31107">
        <ele>92.955225</ele>
        <time>2024-07-20T11:25:25.236Z</time>
      </trkpt>
      <trkpt lat="53.65956" lon="11.3112">
        <ele>92.932103</ele>
        <time>2024-07-20T11:25:27.245Z</time>
      </trkpt>
      <trkpt lat="53.6595" lon="11.31133">
        <ele>92.909436</ele>
        <time>2024-07-20T11:25:29.234Z</time>
      </trkpt>
      <trkpt lat="53.65944" lon="11.31147">
        <ele>92.88605</ele>
        <time>2024-07-20T11:25:31.281Z</time>
      </trkpt>
      <trkpt lat="53.65938" lon="11.31161">
        <ele>92.862574</ele>
        <time>2024-07-20T11:25:33.235Z</time>
      </trkpt>
      <trkpt lat="53.65932" lon="11.31176">
        <ele>92.83773</ele>
        <time>2024-07-20T11:25:35.238Z</time>
      </trkpt>
      <trkpt lat="53.65927" lon="11.31191">
        <ele>92.81408</ele>
        <time>2024-07-20T11:25:37.238Z</time>
      </trkpt>
      <trkpt lat="53.6592" lon="11.31207">
        <ele>92.788717</ele>
        <time>2024-07-20T11:25:39.239Z</time>
      </trkpt>
      <trkpt lat="53.65914" lon="11.31223">
        <ele>92.762597</ele>
        <time>2024-07-20T11:25:41.294Z</time>
      </trkpt>
      <trkpt lat="53.65907" lon="11.31238">
        <ele>92.736555</ele>
        <time>2024-07-20T11:25:43.237Z</time>
      </trkpt>
      <trkpt lat="53.659" lon="11.31253">
        <ele>92.712088</ele>
        <time>2024-07-20T11:25:45.233Z</time>
      </trkpt>
      <trkpt lat="53.65893" lon="11.31266">
        <ele>92.687512</ele>
        <time>2024-07-20T11:25:47.251Z</time>
      </trkpt>
      <trkpt lat="53.65886" lon="11.3128">
        <ele>92.663647</ele>
        <time>2024-07-20T11:25:49.235Z</time>
      </trkpt>
      <trkpt lat="53.6588" lon="11.31292">
        <ele>92.641039</ele>
        <time>2024-07-20T11:25:51.293Z</time>
      </trkpt>
      <trkpt lat="53.65873" lon="11.31304">
        <ele>92.619432</ele>
        <time>2024-07-20T11:25:53.245Z</time>
      </trkpt>
      <trkpt lat="53.65864" lon="11.31321">
        <ele>92.589067</ele>
        <time>2024-07-20T11:25:56.231Z</time>
      </trkpt>
      <trkpt lat="53.65858" lon="11.31334">
        <ele>92.566761</ele>
        <time>2024-07-20T11:25:58.237Z</time>
      </trkpt>
      <trkpt lat="53.65852" lon="11.31348">
        <ele>92.476578</ele>
        <time>2024-07-20T11:26:00.240Z</time>
      </trkpt>
      <trkpt lat="53.65846" lon="11.31361">
        <ele>92.377965</ele>
        <time>2024-07-20T11:26:02.250Z</time>
      </trkpt>
      <trkpt lat="53.65839" lon="11.31375">
        <ele>92.272025</ele>
        <time>2024-07-20T11:26:04.240Z</time>
      </trkpt>
      <trkpt lat="53.65833" lon="11.31389">
        <ele>92.169408</ele>
        <time>2024-07-20T11:26:06.245Z</time>
      </trkpt>
      <trkpt lat="53.65826" lon="11.31403">
        <ele>92.06709</ele>
        <time>2024-07-20T11:26:08.242Z</time>
      </trkpt>
      <trkpt lat="53.65819" lon="11.31416">
        <ele>91.961903</ele>
        <time>2024-07-20T11:26:10.239Z</time>
      </trkpt>
      <trkpt lat="53.65813" lon="11.3143">
        <ele>91.857938</ele>
        <time>2024-07-20T11:26:12.238Z</time>
      </trkpt>
      <trkpt lat="53.65807" lon="11.31444">
        <ele>91.755358</ele>
        <time>2024-07-20T11:26:14.250Z</time>
      </trkpt>
      <trkpt lat="53.658" lon="11.31458">
        <ele>91.652318</ele>
        <time>2024-07-20T11:26:16.242Z</time>
      </trkpt>
      <trkpt lat="53.65794" lon="11.31472">
        <ele>91.556086</ele>
        <time>2024-07-20T11:26:18.244Z</time>
      </trkpt>
      <trkpt lat="53.65789" lon="11.31484">
        <ele>91.464303</ele>
        <time>2024-07-20T11:26:20.236Z</time>
      </trkpt>
      <trkpt lat="53.65783" lon="11.31497">
        <ele>91.374258</ele>
        <time>2024-07-20T11:26:22.242Z</time>
      </trkpt>
      <trkpt lat="53.65778" lon="11.3151">
        <ele>91.279653</ele>
        <time>2024-07-20T11:26:24.246Z</time>
      </trkpt>
      <trkpt lat="53.65773" lon="11.31523">
        <ele>91.189868</ele>
        <time>2024-07-20T11:26:26.225Z</time>
      </trkpt>
      <trkpt lat="53.65766" lon="11.3154">
        <ele>91.068889</ele>
        <time>2024-07-20T11:26:29.218Z</time>
      </trkpt>
      <trkpt lat="53.65759" lon="11.31557">
        <ele>90.951579</ele>
        <time>2024-07-20T11:26:32.274Z</time>
      </trkpt>
      <trkpt lat="53.65753" lon="11.3157">
        <ele>90.851249</ele>
        <time>2024-07-20T11:26:35.223Z</time>
      </trkpt>
      <trkpt lat="53.65747" lon="11.31584">
        <ele>90.792224</ele>
        <time>2024-07-20T11:26:38.222Z</time>
      </trkpt>
      <trkpt lat="53.6574" lon="11.31597">
        <ele>90.786132</ele>
        <time>2024-07-20T11:26:41.287Z</time>
      </trkpt>
      <trkpt lat="53.65735" lon="11.31611">
        <ele>90.780213</ele>
        <time>2024-07-20T11:26:44.236Z</time>
      </trkpt>
      <trkpt lat="53.65729" lon="11.31626">
        <ele>90.77353</ele>
        <time>2024-07-20T11:26:47.234Z</time>
      </trkpt>
      <trkpt lat="53.65723" lon="11.3164">
        <ele>90.767126</ele>
        <time>2024-07-20T11:26:50.239Z</time>
      </trkpt>
      <trkpt lat="53.65717" lon="11.31656">
        <ele>90.760678</ele>
        <time>2024-07-20T11:26:53.231Z</time>
      </trkpt>
      <trkpt lat="53.65711" lon="11.31672">
        <ele>90.75369</ele>
        <time>2024-07-20T11:26:56.239Z</time>
      </trkpt>
      <trkpt lat="53.65704" lon="11.31688">
        <ele>90.74633</ele>
        <time>2024-07-20T11:26:59.219Z</time>
      </trkpt>
      <trkpt lat="53.65698" lon="11.317">
        <ele>90.740697</ele>
        <time>2024-07-20T11:27:01.248Z</time>
      </trkpt>
      <trkpt lat="53.65691" lon="11.31711">
        <ele>90.734566</ele>
        <time>2024-07-20T11:27:03.232Z</time>
      </trkpt>
      <trkpt lat="53.65684" lon="11.31722">
        <ele>90.728795</ele>
        <time>2024-07-20T11:27:05.252Z</time>
      </trkpt>
      <trkpt lat="53.65678" lon="11.31733">
        <ele>90.723178</ele>
        <time>2024-07-20T11:27:07.220Z</time>
      </trkpt>
      <trkpt lat="53.65671" lon="11.31745">
        <ele>90.717412</ele>
        <time>2024-07-20T11:27:09.224Z</time>
      </trkpt>
      <trkpt lat="53.65663" lon="11.31761">
        <ele>90.709458</ele>
        <time>2024-07-20T11:27:12.223Z</time>
      </trkpt>
      <trkpt lat="53.65655" lon="11.31779">
        <ele>90.701719</ele>
        <time>2024-07-20T11:27:15.233Z</time>
      </trkpt>
      <trkpt lat="53.6565" lon="11.31791">
        <ele>90.696127</ele>
        <time>2024-07-20T11:27:17.246Z</time>
      </trkpt>
      <trkpt lat="53.65645" lon="11.31805">
        <ele>90.690132</ele>
        <time>2024-07-20T11:27:19.236Z</time>
      </trkpt>
      <trkpt lat="53.65639" lon="11.31817">
        <ele>90.689214</ele>
        <time>2024-07-20T11:27:21.291Z</time>
      </trkpt>
      <trkpt lat="53.65633" lon="11.31829">
        <ele>90.803689</ele>
        <time>2024-07-20T11:27:23.214Z</time>
      </trkpt>
      <trkpt lat="53.65627" lon="11.31843">
        <ele>90.926455</ele>
        <time>2024-07-20T11:27:25.208Z</time>
      </trkpt>
      <trkpt lat="53.65621" lon="11.31856">
        <ele>91.050247</ele>
        <time>2024-07-20T11:27:27.225Z</time>
      </trkpt>
      <trkpt lat="53.65613" lon="11.3187">
        <ele>91.182942</ele>
        <time>2024-07-20T11:27:29.237Z</time>
      </trkpt>
      <trkpt lat="53.65607" lon="11.31883">
        <ele>91.310987</ele>
        <time>2024-07-20T11:27:31.272Z</time>
      </trkpt>
      <trkpt lat="53.65601" lon="11.31896">
        <ele>91.429768</ele>
        <time>2024-07-20T11:27:33.249Z</time>
      </trkpt>
      <trkpt lat="53.65595" lon="11.31909">
        <ele>91.549332</ele>
        <time>2024-07-20T11:27:35.229Z</time>
      </trkpt>
      <trkpt lat="53.65589" lon="11.31923">
        <ele>91.667443</ele>
        <time>2024-07-20T11:27:37.237Z</time>
      </trkpt>
      <trkpt lat="53.65583" lon="11.31935">
        <ele>91.785464</ele>
        <time>2024-07-20T11:27:39.236Z</time>
      </trkpt>
      <trkpt lat="53.65578" lon="11.31948">
        <ele>91.898633</ele>
        <time>2024-07-20T11:27:41.268Z</time>
      </trkpt>
      <trkpt lat="53.65572" lon="11.31961">
        <ele>92.017466</ele>
        <time>2024-07-20T11:27:43.229Z</time>
      </trkpt>
      <trkpt lat="53.65566" lon="11.31975">
        <ele>92.137133</ele>
        <time>2024-07-20T11:27:45.229Z</time>
      </trkpt>
      <trkpt lat="53.65561" lon="11.31989">
        <ele>92.256894</ele>
        <time>2024-07-20T11:27:47.217Z</time>
      </trkpt>
      <trkpt lat="53.65555" lon="11.32001">
        <ele>92.369223</ele>
        <time>2024-07-20T11:27:49.229Z</time>
      </trkpt>
      <trkpt lat="53.6555" lon="11.32015">
        <ele>92.488097</ele>
        <time>2024-07-20T11:27:51.279Z</time>
      </trkpt>
      <trkpt lat="53.65544" lon="11.32029">
        <ele>92.610444</ele>
        <time>2024-07-20T11:27:53.239Z</time>
      </trkpt>
      <trkpt lat="53.65537" lon="11.32042">
        <ele>92.738003</ele>
        <time>2024-07-20T11:27:55.248Z</time>
      </trkpt>
      <trkpt lat="53.65531" lon="11.32055">
        <ele>92.855458</ele>
        <time>2024-07-20T11:27:57.239Z</time>
      </trkpt>
      <trkpt lat="53.65523" lon="11.32072">
        <ele>93.013232</ele>
        <time>2024-07-20T11:28:00.245Z</time>
      </trkpt>
      <trkpt lat="53.65518" lon="11.32085">
        <ele>93.127262</ele>
        <time>2024-07-20T11:28:02.227Z</time>
      </trkpt>
      <trkpt lat="53.6551" lon="11.32104">
        <ele>93.289103</ele>
        <time>2024-07-20T11:28:05.227Z</time>
      </trkpt>
      <trkpt lat="53.65502" lon="11.32122">
        <ele>93.444927</ele>
        <time>2024-07-20T11:28:08.242Z</time>
      </trkpt>
      <trkpt lat="53.65495" lon="11.3214">
        <ele>93.604229</ele>
        <time>2024-07-20T11:28:11.277Z</time>
      </trkpt>
      <trkpt lat="53.65487" lon="11.32158">
        <ele>93.759936</ele>
        <time>2024-07-20T11:28:14.235Z</time>
      </trkpt>
      <trkpt lat="53.65481" lon="11.32175">
        <ele>93.905428</ele>
        <time>2024-07-20T11:28:17.232Z</time>
      </trkpt>
      <trkpt lat="53.65474" lon="11.3219">
        <ele>94.033845</ele>
        <time>2024-07-20T11:28:20.237Z</time>
      </trkpt>
      <trkpt lat="53.65466" lon="11.32206">
        <ele>94.184872</ele>
        <time>2024-07-20T11:28:23.226Z</time>
      </trkpt>
      <trkpt lat="53.65458" lon="11.32223">
        <ele>94.337278</ele>
        <time>2024-07-20T11:28:26.229Z</time>
      </trkpt>
      <trkpt lat="53.6545" lon="11.32238">
        <ele>94.479812</ele>
        <time>2024-07-20T11:28:29.231Z</time>
      </trkpt>
      <trkpt lat="53.65443" lon="11.32255">
        <ele>94.635768</ele>
        <time>2024-07-20T11:28:32.236Z</time>
      </trkpt>
      <trkpt lat="53.65435" lon="11.32272">
        <ele>94.786434</ele>
        <time>2024-07-20T11:28:35.235Z</time>
      </trkpt>
      <trkpt lat="53.65427" lon="11.32289">
        <ele>94.940065</ele>
        <time>2024-07-20T11:28:38.223Z</time>
      </trkpt>
      <trkpt lat="53.6542" lon="11.32304">
        <ele>95.013318</ele>
        <time>2024-07-20T11:28:41.239Z</time>
      </trkpt>
      <trkpt lat="53.65413" lon="11.32319">
        <ele>94.937033</ele>
        <time>2024-07-20T11:28:44.252Z</time>
      </trkpt>
      <trkpt lat="53.65405" lon="11.32337">
        <ele>94.853567</ele>
        <time>2024-07-20T11:28:47.224Z</time>
      </trkpt>
      <trkpt lat="53.65398" lon="11.32354">
        <ele>94.768602</ele>
        <time>2024-07-20T11:28:50.227Z</time>
      </trkpt>
      <trkpt lat="53.65391" lon="11.32371">
        <ele>94.689854</ele>
        <time>2024-07-20T11:28:53.224Z</time>
      </trkpt>
      <trkpt lat="53.65383" lon="11.32389">
        <ele>94.601171</ele>
        <time>2024-07-20T11:28:56.263Z</time>
      </trkpt>
      <trkpt lat="53.65376" lon="11.32406">
        <ele>94.519271</ele>
        <time>2024-07-20T11:28:59.223Z</time>
      </trkpt>
      <trkpt lat="53.65368" lon="11.32422">
        <ele>94.436247</ele>
        <time>2024-07-20T11:29:02.232Z</time>
      </trkpt>
      <trkpt lat="53.6536" lon="11.32438">
        <ele>94.354293</ele>
        <time>2024-07-20T11:29:05.224Z</time>
      </trkpt>
      <trkpt lat="53.65352" lon="11.32456">
        <ele>94.270965</ele>
        <time>2024-07-20T11:29:08.227Z</time>
      </trkpt>
      <trkpt lat="53.65345" lon="11.32472">
        <ele>94.188054</ele>
        <time>2024-07-20T11:29:11.277Z</time>
      </trkpt>
      <trkpt lat="53.65336" lon="11.32489">
        <ele>94.103585</ele>
        <time>2024-07-20T11:29:14.243Z</time>
      </trkpt>
      <trkpt lat="53.65329" lon="11.32506">
        <ele>94.022474</ele>
        <time>2024-07-20T11:29:17.257Z</time>
      </trkpt>
      <trkpt lat="53.65322" lon="11.32523">
        <ele>93.940222</ele>
        <time>2024-07-20T11:29:20.241Z</time>
      </trkpt>
      <trkpt lat="53.65316" lon="11.32538">
        <ele>93.868792</ele>
        <time>2024-07-20T11:29:23.237Z</time>
      </trkpt>
      <trkpt lat="53.65309" lon="11.32555">
        <ele>93.789518</ele>
        <time>2024-07-20T11:29:26.243Z</time>
      </trkpt>
      <trkpt lat="53.65305" lon="11.32569">
        <ele>93.730416</ele>
        <time>2024-07-20T11:29:28.224Z</time>
      </trkpt>
      <trkpt lat="53.65298" lon="11.32586">
        <ele>93.647691</ele>
        <time>2024-07-20T11:29:31.256Z</time>
      </trkpt>
      <trkpt lat="53.6529" lon="11.32603">
        <ele>93.567541</ele>
        <time>2024-07-20T11:29:34.239Z</time>
      </trkpt>
      <trkpt lat="53.65284" lon="11.32621">
        <ele>93.487358</ele>
        <time>2024-07-20T11:29:37.234Z</time>
      </trkpt>
      <trkpt lat="53.65281" lon="11.32636">
        <ele>93.428791</ele>
        <time>2024-07-20T11:29:39.228Z</time>
      </trkpt>
      <trkpt lat="53.65278" lon="11.32657">
        <ele>93.342024</ele>
        <time>2024-07-20T11:29:42.236Z</time>
      </trkpt>
      <trkpt lat="53.65274" lon="11.32672">
        <ele>93.282569</ele>
        <time>2024-07-20T11:29:44.244Z</time>
      </trkpt>
      <trkpt lat="53.65271" lon="11.32691">
        <ele>93.204088</ele>
        <time>2024-07-20T11:29:47.236Z</time>
      </trkpt>
      <trkpt lat="53.65267" lon="11.32708">
        <ele>93.134569</ele>
        <time>2024-07-20T11:29:50.242Z</time>
      </trkpt>
      <trkpt lat="53.65265" lon="11.32727">
        <ele>93.060395</ele>
        <time>2024-07-20T11:29:53.236Z</time>
      </trkpt>
      <trkpt lat="53.65263" lon="11.32745">
        <ele>92.98987</ele>
        <time>2024-07-20T11:29:56.234Z</time>
      </trkpt>
      <trkpt lat="53.65263" lon="11.32764">
        <ele>92.915162</ele>
        <time>2024-07-20T11:29:59.230Z</time>
      </trkpt>
      <trkpt lat="53.65262" lon="11.32781">
        <ele>92.851183</ele>
        <time>2024-07-20T11:30:03.225Z</time>
      </trkpt>
      <trkpt lat="53.65264" lon="11.328">
        <ele>92.7785</ele>
        <time>2024-07-20T11:30:15.229Z</time>
      </trkpt>
      <trkpt lat="53.65264" lon="11.32818">
        <ele>92.708364</ele>
        <time>2024-07-20T11:30:18.228Z</time>
      </trkpt>
      <trkpt lat="53.65265" lon="11.32833">
        <ele>92.669423</ele>
        <time>2024-07-20T11:30:20.225Z</time>
      </trkpt>
      <trkpt lat="53.65266" lon="11.32849">
        <ele>92.648785</ele>
        <time>2024-07-20T11:30:22.243Z</time>
      </trkpt>
      <trkpt lat="53.65267" lon="11.32871">
        <ele>92.619228</ele>
        <time>2024-07-20T11:30:25.238Z</time>
      </trkpt>
      <trkpt lat="53.65269" lon="11.32886">
        <ele>92.598395</ele>
        <time>2024-07-20T11:30:27.235Z</time>
      </trkpt>
      <trkpt lat="53.6527" lon="11.32902">
        <ele>92.576945</ele>
        <time>2024-07-20T11:30:29.228Z</time>
      </trkpt>
      <trkpt lat="53.6527" lon="11.32919">
        <ele>92.554622</ele>
        <time>2024-07-20T11:30:31.288Z</time>
      </trkpt>
      <trkpt lat="53.6527" lon="11.32935">
        <ele>92.533834</ele>
        <time>2024-07-20T11:30:33.244Z</time>
      </trkpt>
      <trkpt lat="53.65271" lon="11.32952">
        <ele>92.510564</ele>
        <time>2024-07-20T11:30:35.231Z</time>
      </trkpt>
      <trkpt lat="53.6527" lon="11.32969">
        <ele>92.488214</ele>
        <time>2024-07-20T11:30:37.253Z</time>
      </trkpt>
      <trkpt lat="53.65269" lon="11.32985">
        <ele>92.466615</ele>
        <time>2024-07-20T11:30:39.239Z</time>
      </trkpt>
      <trkpt lat="53.65267" lon="11.33001">
        <ele>92.445317</ele>
        <time>2024-07-20T11:30:41.272Z</time>
      </trkpt>
      <trkpt lat="53.65264" lon="11.33023">
        <ele>92.415365</ele>
        <time>2024-07-20T11:30:44.241Z</time>
      </trkpt>
      <trkpt lat="53.65262" lon="11.33038">
        <ele>92.394854</ele>
        <time>2024-07-20T11:30:46.252Z</time>
      </trkpt>
      <trkpt lat="53.65255" lon="11.33057">
        <ele>92.365461</ele>
        <time>2024-07-20T11:30:49.242Z</time>
      </trkpt>
      <trkpt lat="53.65247" lon="11.33075">
        <ele>92.335325</ele>
        <time>2024-07-20T11:30:52.246Z</time>
      </trkpt>
      <trkpt lat="53.65241" lon="11.33095">
        <ele>92.305688</ele>
        <time>2024-07-20T11:30:55.232Z</time>
      </trkpt>
      <trkpt lat="53.65237" lon="11.33109">
        <ele>92.285013</ele>
        <time>2024-07-20T11:30:57.243Z</time>
      </trkpt>
      <trkpt lat="53.65231" lon="11.3313">
        <ele>92.499417</ele>
        <time>2024-07-20T11:31:00.237Z</time>
      </trkpt>
      <trkpt lat="53.65225" lon="11.33148">
        <ele>92.785401</ele>
        <time>2024-07-20T11:31:03.245Z</time>
      </trkpt>
      <trkpt lat="53.6522" lon="11.33166">
        <ele>93.049192</ele>
        <time>2024-07-20T11:31:06.245Z</time>
      </trkpt>
      <trkpt lat="53.65215" lon="11.33184">
        <ele>93.314396</ele>
        <time>2024-07-20T11:31:09.230Z</time>
      </trkpt>
      <trkpt lat="53.6521" lon="11.332">
        <ele>93.550404</ele>
        <time>2024-07-20T11:31:12.238Z</time>
      </trkpt>
      <trkpt lat="53.65206" lon="11.33215">
        <ele>93.77864</ele>
        <time>2024-07-20T11:31:15.226Z</time>
      </trkpt>
      <trkpt lat="53.65201" lon="11.3323">
        <ele>94.001115</ele>
        <time>2024-07-20T11:31:18.225Z</time>
      </trkpt>
      <trkpt lat="53.65196" lon="11.33246">
        <ele>94.236684</ele>
        <time>2024-07-20T11:31:21.273Z</time>
      </trkpt>
      <trkpt lat="53.65191" lon="11.33263">
        <ele>94.489801</ele>
        <time>2024-07-20T11:31:24.234Z</time>
      </trkpt>
      <trkpt lat="53.65186" lon="11.33281">
        <ele>94.7625</ele>
        <time>2024-07-20T11:31:27.247Z</time>
      </trkpt>
      <trkpt lat="53.65181" lon="11.333">
        <ele>95.029552</ele>
        <time>2024-07-20T11:31:30.233Z</time>
      </trkpt>
      <trkpt lat="53.65176" lon="11.33318">
        <ele>95.303181</ele>
        <time>2024-07-20T11:31:33.231Z</time>
      </trkpt>
      <trkpt lat="53.6517" lon="11.33336">
        <ele>95.576112</ele>
        <time>2024-07-20T11:31:36.238Z</time>
      </trkpt>
      <trkpt lat="53.65165" lon="11.33355">
        <ele>95.848284</ele>
        <time>2024-07-20T11:31:39.256Z</time>
      </trkpt>
      <trkpt lat="53.6516" lon="11.33373">
        <ele>96.107725</ele>
        <time>2024-07-20T11:31:42.251Z</time>
      </trkpt>
      <trkpt lat="53.65155" lon="11.33389">
        <ele>96.358817</ele>
        <time>2024-07-20T11:31:45.232Z</time>
      </trkpt>
      <trkpt lat="53.65149" lon="11.33408">
        <ele>96.607718</ele>
        <time>2024-07-20T11:31:48.239Z</time>
      </trkpt>
      <trkpt lat="53.65144" lon="11.33425">
        <ele>96.838146</ele>
        <time>2024-07-20T11:31:51.286Z</time>
      </trkpt>
      <trkpt lat="53.65139" lon="11.33441">
        <ele>97.063696</ele>
        <time>2024-07-20T11:31:54.241Z</time>
      </trkpt>
      <trkpt lat="53.65134" lon="11.33459">
        <ele>97.304113</ele>
        <time>2024-07-20T11:31:57.232Z</time>
      </trkpt>
      <trkpt lat="53.65129" lon="11.33477">
        <ele>97.550062</ele>
        <time>2024-07-20T11:32:00.237Z</time>
      </trkpt>
      <trkpt lat="53.65124" lon="11.33493">
        <ele>97.766392</ele>
        <time>2024-07-20T11:32:03.222Z</time>
      </trkpt>
      <trkpt lat="53.65119" lon="11.33511">
        <ele>98.017475</ele>
        <time>2024-07-20T11:32:06.240Z</time>
      </trkpt>
      <trkpt lat="53.65113" lon="11.33531">
        <ele>98.285058</ele>
        <time>2024-07-20T11:32:09.223Z</time>
      </trkpt>
      <trkpt lat="53.65108" lon="11.33549">
        <ele>98.532742</ele>
        <time>2024-07-20T11:32:12.235Z</time>
      </trkpt>
      <trkpt lat="53.65104" lon="11.33568">
        <ele>98.783186</ele>
        <time>2024-07-20T11:32:15.247Z</time>
      </trkpt>
      <trkpt lat="53.65097" lon="11.33586">
        <ele>99.040047</ele>
        <time>2024-07-20T11:32:18.240Z</time>
      </trkpt>
      <trkpt lat="53.6509" lon="11.33605">
        <ele>99.318521</ele>
        <time>2024-07-20T11:32:21.268Z</time>
      </trkpt>
      <trkpt lat="53.65084" lon="11.33623">
        <ele>99.577878</ele>
        <time>2024-07-20T11:32:24.245Z</time>
      </trkpt>
      <trkpt lat="53.65078" lon="11.33641">
        <ele>99.826535</ele>
        <time>2024-07-20T11:32:27.249Z</time>
      </trkpt>
      <trkpt lat="53.65073" lon="11.33659">
        <ele>100.009284</ele>
        <time>2024-07-20T11:32:30.246Z</time>
      </trkpt>
      <trkpt lat="53.65068" lon="11.33677">
        <ele>99.906275</ele>
        <time>2024-07-20T11:32:33.255Z</time>
      </trkpt>
      <trkpt lat="53.65064" lon="11.33693">
        <ele>99.821681</ele>
        <time>2024-07-20T11:32:36.257Z</time>
      </trkpt>
      <trkpt lat="53.6506" lon="11.3371">
        <ele>99.727196</ele>
        <time>2024-07-20T11:32:40.232Z</time>
      </trkpt>
      <trkpt lat="53.65056" lon="11.33725">
        <ele>99.649736</ele>
        <time>2024-07-20T11:32:44.246Z</time>
      </trkpt>
      <trkpt lat="53.65051" lon="11.33742">
        <ele>99.55535</ele>
        <time>2024-07-20T11:32:49.228Z</time>
      </trkpt>
      <trkpt lat="53.65047" lon="11.33756">
        <ele>99.476811</ele>
        <time>2024-07-20T11:32:52.251Z</time>
      </trkpt>
      <trkpt lat="53.65042" lon="11.33771">
        <ele>99.389381</ele>
        <time>2024-07-20T11:32:55.223Z</time>
      </trkpt>
      <trkpt lat="53.65036" lon="11.33787">
        <ele>99.299861</ele>
        <time>2024-07-20T11:32:58.238Z</time>
      </trkpt>
      <trkpt lat="53.65032" lon="11.33803">
        <ele>99.210367</ele>
        <time>2024-07-20T11:33:01.264Z</time>
      </trkpt>
      <trkpt lat="53.65026" lon="11.33822">
        <ele>99.102729</ele>
        <time>2024-07-20T11:33:04.243Z</time>
      </trkpt>
      <trkpt lat="53.65021" lon="11.33835">
        <ele>99.025599</ele>
        <time>2024-07-20T11:33:06.236Z</time>
      </trkpt>
      <trkpt lat="53.65014" lon="11.3385">
        <ele>98.932469</ele>
        <time>2024-07-20T11:33:08.211Z</time>
      </trkpt>
      <trkpt lat="53.65011" lon="11.33866">
        <ele>98.850823</ele>
        <time>2024-07-20T11:33:10.245Z</time>
      </trkpt>
      <trkpt lat="53.65007" lon="11.33881">
        <ele>98.767015</ele>
        <time>2024-07-20T11:33:12.254Z</time>
      </trkpt>
      <trkpt lat="53.65003" lon="11.33897">
        <ele>98.678099</ele>
        <time>2024-07-20T11:33:14.242Z</time>
      </trkpt>
      <trkpt lat="53.64999" lon="11.33915">
        <ele>98.58806</ele>
        <time>2024-07-20T11:33:16.251Z</time>
      </trkpt>
      <trkpt lat="53.64994" lon="11.33933">
        <ele>98.47598</ele>
        <time>2024-07-20T11:33:18.249Z</time>
      </trkpt>
      <trkpt lat="53.64987" lon="11.33951">
        <ele>98.320689</ele>
        <time>2024-07-20T11:33:20.236Z</time>
      </trkpt>
      <trkpt lat="53.6498" lon="11.33969">
        <ele>98.166509</ele>
        <time>2024-07-20T11:33:22.243Z</time>
      </trkpt>
      <trkpt lat="53.64973" lon="11.33989">
        <ele>98.005223</ele>
        <time>2024-07-20T11:33:24.248Z</time>
      </trkpt>
      <trkpt lat="53.64967" lon="11.34009">
        <ele>97.84586</ele>
        <time>2024-07-20T11:33:26.238Z</time>
      </trkpt>
      <trkpt lat="53.64961" lon="11.3403">
        <ele>97.683418</ele>
        <time>2024-07-20T11:33:28.235Z</time>
      </trkpt>
      <trkpt lat="53.64956" lon="11.34051">
        <ele>97.52041</ele>
        <time>2024-07-20T11:33:30.232Z</time>
      </trkpt>
      <trkpt lat="53.6495" lon="11.34071">
        <ele>97.365661</ele>
        <time>2024-07-20T11:33:32.238Z</time>
      </trkpt>
      <trkpt lat="53.64946" lon="11.3409">
        <ele>97.218543</ele>
        <time>2024-07-20T11:33:34.239Z</time>
      </trkpt>
      <trkpt lat="53.6494" lon="11.34108">
        <ele>97.071886</ele>
        <time>2024-07-20T11:33:36.244Z</time>
      </trkpt>
      <trkpt lat="53.64935" lon="11.34126">
        <ele>96.927911</ele>
        <time>2024-07-20T11:33:38.263Z</time>
      </trkpt>
      <trkpt lat="53.64929" lon="11.34145">
        <ele>96.782315</ele>
        <time>2024-07-20T11:33:40.241Z</time>
      </trkpt>
      <trkpt lat="53.64924" lon="11.34163">
        <ele>96.641175</ele>
        <time>2024-07-20T11:33:42.239Z</time>
      </trkpt>
      <trkpt lat="53.64919" lon="11.34181">
        <ele>96.500677</ele>
        <time>2024-07-20T11:33:44.232Z</time>
      </trkpt>
      <trkpt lat="53.64914" lon="11.34199">
        <ele>96.364391</ele>
        <time>2024-07-20T11:33:46.221Z</time>
      </trkpt>
      <trkpt lat="53.64908" lon="11.34218">
        <ele>96.432488</ele>
        <time>2024-07-20T11:33:48.235Z</time>
      </trkpt>
      <trkpt lat="53.64903" lon="11.34235">
        <ele>96.49884</ele>
        <time>2024-07-20T11:33:50.250Z</time>
      </trkpt>
      <trkpt lat="53.64898" lon="11.34252">
        <ele>96.561688</ele>
        <time>2024-07-20T11:33:52.243Z</time>
      </trkpt>
      <trkpt lat="53.64893" lon="11.3427">
        <ele>96.627504</ele>
        <time>2024-07-20T11:33:54.247Z</time>
      </trkpt>
      <trkpt lat="53.64888" lon="11.34286">
        <ele>96.68755</ele>
        <time>2024-07-20T11:33:56.236Z</time>
      </trkpt>
      <trkpt lat="53.64883" lon="11.34302">
        <ele>96.748706</ele>
        <time>2024-07-20T11:33:58.249Z</time>
      </trkpt>
      <trkpt lat="53.64875" lon="11.34315">
        <ele>96.80767</ele>
        <time>2024-07-20T11:34:00.223Z</time>
      </trkpt>
      <trkpt lat="53.64865" lon="11.34323">
        <ele>96.872821</ele>
        <time>2024-07-20T11:34:02.228Z</time>
      </trkpt>
      <trkpt lat="53.64853" lon="11.34329">
        <ele>96.941219</ele>
        <time>2024-07-20T11:34:04.231Z</time>
      </trkpt>
      <trkpt lat="53.64842" lon="11.34331">
        <ele>97.005792</ele>
        <time>2024-07-20T11:34:06.227Z</time>
      </trkpt>
      <trkpt lat="53.64831" lon="11.3433">
        <ele>97.06784</ele>
        <time>2024-07-20T11:34:08.236Z</time>
      </trkpt>
      <trkpt lat="53.64821" lon="11.34328">
        <ele>97.123509</ele>
        <time>2024-07-20T11:34:10.239Z</time>
      </trkpt>
      <trkpt lat="53.64812" lon="11.34326">
        <ele>97.176435</ele>
        <time>2024-07-20T11:34:12.246Z</time>
      </trkpt>
      <trkpt lat="53.64799" lon="11.34321">
        <ele>97.248956</ele>
        <time>2024-07-20T11:34:15.230Z</time>
      </trkpt>
      <trkpt lat="53.6479" lon="11.34319">
        <ele>97.301984</ele>
        <time>2024-07-20T11:34:17.238Z</time>
      </trkpt>
      <trkpt lat="53.64781" lon="11.34317">
        <ele>97.354774</ele>
        <time>2024-07-20T11:34:19.259Z</time>
      </trkpt>
      <trkpt lat="53.64771" lon="11.34314">
        <ele>97.421416</ele>
        <time>2024-07-20T11:34:21.274Z</time>
      </trkpt>
      <trkpt lat="53.64762" lon="11.34312">
        <ele>97.492113</ele>
        <time>2024-07-20T11:34:23.231Z</time>
      </trkpt>
      <trkpt lat="53.64751" lon="11.3431">
        <ele>97.574059</ele>
        <time>2024-07-20T11:34:25.243Z</time>
      </trkpt>
      <trkpt lat="53.64739" lon="11.34309">
        <ele>97.663296</ele>
        <time>2024-07-20T11:34:27.242Z</time>
      </trkpt>
      <trkpt lat="53.64725" lon="11.34308">
        <ele>97.767319</ele>
        <time>2024-07-20T11:34:29.253Z</time>
      </trkpt>
      <trkpt lat="53.6471" lon="11.34309">
        <ele>97.88182</ele>
        <time>2024-07-20T11:34:31.284Z</time>
      </trkpt>
      <trkpt lat="53.64695" lon="11.3431">
        <ele>97.993529</ele>
        <time>2024-07-20T11:34:33.228Z</time>
      </trkpt>
      <trkpt lat="53.64681" lon="11.34313">
        <ele>98.096097</ele>
        <time>2024-07-20T11:34:35.234Z</time>
      </trkpt>
      <trkpt lat="53.6467" lon="11.34316">
        <ele>98.182925</ele>
        <time>2024-07-20T11:34:37.226Z</time>
      </trkpt>
      <trkpt lat="53.64659" lon="11.3432">
        <ele>98.26884</ele>
        <time>2024-07-20T11:34:39.221Z</time>
      </trkpt>
      <trkpt lat="53.64647" lon="11.34325">
        <ele>98.357883</ele>
        <time>2024-07-20T11:34:41.256Z</time>
      </trkpt>
      <trkpt lat="53.64637" lon="11.34334">
        <ele>98.445273</ele>
        <time>2024-07-20T11:34:43.218Z</time>
      </trkpt>
      <trkpt lat="53.64627" lon="11.34344">
        <ele>98.529011</ele>
        <time>2024-07-20T11:34:45.233Z</time>
      </trkpt>
      <trkpt lat="53.64619" lon="11.34356">
        <ele>98.611705</ele>
        <time>2024-07-20T11:34:47.225Z</time>
      </trkpt>
      <trkpt lat="53.64612" lon="11.3437">
        <ele>98.688116</ele>
        <time>2024-07-20T11:34:49.229Z</time>
      </trkpt>
      <trkpt lat="53.64608" lon="11.34384">
        <ele>98.73075</ele>
        <time>2024-07-20T11:34:51.251Z</time>
      </trkpt>
      <trkpt lat="53.64604" lon="11.34398">
        <ele>98.751339</ele>
        <time>2024-07-20T11:34:53.218Z</time>
      </trkpt>
      <trkpt lat="53.64602" lon="11.34419">
        <ele>98.779623</ele>
        <time>2024-07-20T11:34:56.233Z</time>
      </trkpt>
      <trkpt lat="53.64599" lon="11.34438">
        <ele>98.80659</ele>
        <time>2024-07-20T11:34:59.224Z</time>
      </trkpt>
      <trkpt lat="53.64595" lon="11.34458">
        <ele>98.834709</ele>
        <time>2024-07-20T11:35:02.233Z</time>
      </trkpt>
      <trkpt lat="53.64589" lon="11.34477">
        <ele>98.862773</ele>
        <time>2024-07-20T11:35:05.403Z</time>
      </trkpt>
      <trkpt lat="53.64583" lon="11.34487">
        <ele>98.883312</ele>
        <time>2024-07-20T11:35:07.218Z</time>
      </trkpt>
      <trkpt lat="53.64576" lon="11.34497">
        <ele>98.904235</ele>
        <time>2024-07-20T11:35:09.220Z</time>
      </trkpt>
      <trkpt lat="53.64568" lon="11.34505">
        <ele>98.925033</ele>
        <time>2024-07-20T11:35:11.279Z</time>
      </trkpt>
      <trkpt lat="53.64556" lon="11.34513">
        <ele>98.95468</ele>
        <time>2024-07-20T11:35:14.225Z</time>
      </trkpt>
      <trkpt lat="53.64544" lon="11.3452">
        <ele>98.984143</ele>
        <time>2024-07-20T11:35:17.229Z</time>
      </trkpt>
      <trkpt lat="53.64532" lon="11.34524">
        <ele>99.010791</ele>
        <time>2024-07-20T11:35:20.235Z</time>
      </trkpt>
      <trkpt lat="53.64521" lon="11.34528">
        <ele>99.037589</ele>
        <time>2024-07-20T11:35:23.234Z</time>
      </trkpt>
      <trkpt lat="53.64509" lon="11.34533">
        <ele>99.064433</ele>
        <time>2024-07-20T11:35:26.233Z</time>
      </trkpt>
      <trkpt lat="53.64498" lon="11.34539">
        <ele>99.091046</ele>
        <time>2024-07-20T11:35:29.237Z</time>
      </trkpt>
      <trkpt lat="53.64487" lon="11.34545">
        <ele>99.117317</ele>
        <time>2024-07-20T11:35:32.244Z</time>
      </trkpt>
      <trkpt lat="53.64476" lon="11.34551">
        <ele>99.071435</ele>
        <time>2024-07-20T11:35:35.228Z</time>
      </trkpt>
      <trkpt lat="53.64465" lon="11.34556">
        <ele>98.985534</ele>
        <time>2024-07-20T11:35:38.241Z</time>
      </trkpt>
      <trkpt lat="53.64454" lon="11.34562">
        <ele>98.893133</ele>
        <time>2024-07-20T11:35:41.268Z</time>
      </trkpt>
      <trkpt lat="53.64443" lon="11.3457">
        <ele>98.799715</ele>
        <time>2024-07-20T11:35:44.229Z</time>
      </trkpt>
      <trkpt lat="53.64432" lon="11.34578">
        <ele>98.709582</ele>
        <time>2024-07-20T11:35:47.236Z</time>
      </trkpt>
      <trkpt lat="53.64421" lon="11.34587">
        <ele>98.614339</ele>
        <time>2024-07-20T11:35:50.237Z</time>
      </trkpt>
      <trkpt lat="53.64409" lon="11.34596">
        <ele>98.519475</ele>
        <time>2024-07-20T11:35:53.223Z</time>
      </trkpt>
      <trkpt lat="53.64397" lon="11.34605">
        <ele>98.420243</ele>
        <time>2024-07-20T11:35:56.221Z</time>
      </trkpt>
      <trkpt lat="53.64386" lon="11.34614">
        <ele>98.321271</ele>
        <time>2024-07-20T11:35:59.222Z</time>
      </trkpt>
      <trkpt lat="53.64374" lon="11.34625">
        <ele>98.220082</ele>
        <time>2024-07-20T11:36:02.230Z</time>
      </trkpt>
      <trkpt lat="53.64362" lon="11.34635">
        <ele>98.117727</ele>
        <time>2024-07-20T11:36:05.220Z</time>
      </trkpt>
      <trkpt lat="53.64354" lon="11.34643">
        <ele>98.04294</ele>
        <time>2024-07-20T11:36:07.222Z</time>
      </trkpt>
      <trkpt lat="53.64344" lon="11.34651">
        <ele>97.965983</ele>
        <time>2024-07-20T11:36:09.241Z</time>
      </trkpt>
      <trkpt lat="53.64335" lon="11.34658">
        <ele>97.888022</ele>
        <time>2024-07-20T11:36:11.260Z</time>
      </trkpt>
      <trkpt lat="53.64326" lon="11.34666">
        <ele>97.808973</ele>
        <time>2024-07-20T11:36:13.230Z</time>
      </trkpt>
      <trkpt lat="53.64318" lon="11.34675">
        <ele>97.748041</ele>
        <time>2024-07-20T11:36:15.229Z</time>
      </trkpt>
      <trkpt lat="53.64309" lon="11.34684">
        <ele>97.729235</ele>
        <time>2024-07-20T11:36:17.229Z</time>
      </trkpt>
      <trkpt lat="53.64301" lon="11.34691">
        <ele>97.711785</ele>
        <time>2024-07-20T11:36:19.236Z</time>
      </trkpt>
      <trkpt lat="53.64293" lon="11.34698">
        <ele>97.695091</ele>
        <time>2024-07-20T11:36:21.279Z</time>
      </trkpt>
      <trkpt lat="53.64283" lon="11.34707">
        <ele>97.673787</ele>
        <time>2024-07-20T11:36:24.238Z</time>
      </trkpt>
      <trkpt lat="53.64273" lon="11.34718">
        <ele>97.651834</ele>
        <time>2024-07-20T11:36:27.235Z</time>
      </trkpt>
      <trkpt lat="53.64263" lon="11.3473">
        <ele>97.629911</ele>
        <time>2024-07-20T11:36:30.240Z</time>
      </trkpt>
      <trkpt lat="53.64253" lon="11.34741">
        <ele>97.607185</ele>
        <time>2024-07-20T11:36:33.218Z</time>
      </trkpt>
      <trkpt lat="53.64243" lon="11.34752">
        <ele>97.585433</ele>
        <time>2024-07-20T11:36:36.239Z</time>
      </trkpt>
      <trkpt lat="53.64234" lon="11.34763">
        <ele>97.56397</ele>
        <time>2024-07-20T11:36:39.236Z</time>
      </trkpt>
      <trkpt lat="53.64224" lon="11.34775">
        <ele>97.541499</ele>
        <time>2024-07-20T11:36:42.249Z</time>
      </trkpt>
      <trkpt lat="53.64214" lon="11.34788">
        <ele>97.517639</ele>
        <time>2024-07-20T11:36:45.239Z</time>
      </trkpt>
      <trkpt lat="53.64204" lon="11.34802">
        <ele>97.493107</ele>
        <time>2024-07-20T11:36:48.241Z</time>
      </trkpt>
      <trkpt lat="53.64196" lon="11.34812">
        <ele>97.474427</ele>
        <time>2024-07-20T11:36:50.245Z</time>
      </trkpt>
      <trkpt lat="53.64187" lon="11.34824">
        <ele>97.454526</ele>
        <time>2024-07-20T11:36:52.235Z</time>
      </trkpt>
      <trkpt lat="53.64178" lon="11.34835">
        <ele>97.433401</ele>
        <time>2024-07-20T11:36:54.239Z</time>
      </trkpt>
      <trkpt lat="53.6417" lon="11.34849">
        <ele>97.387008</ele>
        <time>2024-07-20T11:36:56.212Z</time>
      </trkpt>
      <trkpt lat="53.64162" lon="11.34861">
        <ele>97.292502</ele>
        <time>2024-07-20T11:36:58.240Z</time>
      </trkpt>
      <trkpt lat="53.64155" lon="11.34873">
        <ele>97.205574</ele>
        <time>2024-07-20T11:37:00.241Z</time>
      </trkpt>
      <trkpt lat="53.64147" lon="11.34884">
        <ele>97.113469</ele>
        <time>2024-07-20T11:37:02.235Z</time>
      </trkpt>
      <trkpt lat="53.64138" lon="11.34895">
        <ele>97.023003</ele>
        <time>2024-07-20T11:37:04.236Z</time>
      </trkpt>
      <trkpt lat="53.6413" lon="11.34908">
        <ele>96.926099</ele>
        <time>2024-07-20T11:37:06.230Z</time>
      </trkpt>
      <trkpt lat="53.64121" lon="11.3492">
        <ele>96.825617</ele>
        <time>2024-07-20T11:37:08.236Z</time>
      </trkpt>
      <trkpt lat="53.64112" lon="11.34932">
        <ele>96.725245</ele>
        <time>2024-07-20T11:37:10.227Z</time>
      </trkpt>
      <trkpt lat="53.64101" lon="11.34942">
        <ele>96.617127</ele>
        <time>2024-07-20T11:37:12.238Z</time>
      </trkpt>
      <trkpt lat="53.6409" lon="11.34953">
        <ele>96.506778</ele>
        <time>2024-07-20T11:37:14.250Z</time>
      </trkpt>
      <trkpt lat="53.64081" lon="11.34965">
        <ele>96.400579</ele>
        <time>2024-07-20T11:37:16.252Z</time>
      </trkpt>
      <trkpt lat="53.64073" lon="11.34979">
        <ele>96.301656</ele>
        <time>2024-07-20T11:37:18.245Z</time>
      </trkpt>
      <trkpt lat="53.64067" lon="11.34993">
        <ele>96.213323</ele>
        <time>2024-07-20T11:37:20.232Z</time>
      </trkpt>
      <trkpt lat="53.64063" lon="11.35008">
        <ele>96.126234</ele>
        <time>2024-07-20T11:37:22.249Z</time>
      </trkpt>
      <trkpt lat="53.64058" lon="11.35023">
        <ele>96.042842</ele>
        <time>2024-07-20T11:37:24.243Z</time>
      </trkpt>
      <trkpt lat="53.64052" lon="11.35035">
        <ele>95.960795</ele>
        <time>2024-07-20T11:37:26.221Z</time>
      </trkpt>
      <trkpt lat="53.64044" lon="11.35042">
        <ele>95.87883</ele>
        <time>2024-07-20T11:37:28.239Z</time>
      </trkpt>
      <trkpt lat="53.64035" lon="11.35048">
        <ele>95.963305</ele>
        <time>2024-07-20T11:37:30.228Z</time>
      </trkpt>
      <trkpt lat="53.64028" lon="11.35058">
        <ele>96.143309</ele>
        <time>2024-07-20T11:37:32.230Z</time>
      </trkpt>
      <trkpt lat="53.64023" lon="11.35073">
        <ele>96.340167</ele>
        <time>2024-07-20T11:37:34.233Z</time>
      </trkpt>
      <trkpt lat="53.64019" lon="11.35089">
        <ele>96.543692</ele>
        <time>2024-07-20T11:37:36.225Z</time>
      </trkpt>
      <trkpt lat="53.64012" lon="11.35103">
        <ele>96.74314</ele>
        <time>2024-07-20T11:37:38.238Z</time>
      </trkpt>
      <trkpt lat="53.64006" lon="11.35113">
        <ele>96.919434</ele>
        <time>2024-07-20T11:37:40.241Z</time>
      </trkpt>
      <trkpt lat="53.63997" lon="11.35127">
        <ele>97.153628</ele>
        <time>2024-07-20T11:37:43.223Z</time>
      </trkpt>
      <trkpt lat="53.63987" lon="11.35141">
        <ele>97.401565</ele>
        <time>2024-07-20T11:37:46.240Z</time>
      </trkpt>
      <trkpt lat="53.63978" lon="11.35152">
        <ele>97.605116</ele>
        <time>2024-07-20T11:37:49.253Z</time>
      </trkpt>
      <trkpt lat="53.63969" lon="11.35161">
        <ele>97.812031</ele>
        <time>2024-07-20T11:37:52.245Z</time>
      </trkpt>
      <trkpt lat="53.63962" lon="11.35173">
        <ele>98.002527</ele>
        <time>2024-07-20T11:37:55.220Z</time>
      </trkpt>
      <trkpt lat="53.63954" lon="11.35182">
        <ele>98.183257</ele>
        <time>2024-07-20T11:37:58.231Z</time>
      </trkpt>
      <trkpt lat="53.63945" lon="11.35194">
        <ele>98.396738</ele>
        <time>2024-07-20T11:38:02.219Z</time>
      </trkpt>
      <trkpt lat="53.63938" lon="11.35205">
        <ele>98.584083</ele>
        <time>2024-07-20T11:38:05.244Z</time>
      </trkpt>
      <trkpt lat="53.6393" lon="11.35217">
        <ele>98.79392</ele>
        <time>2024-07-20T11:38:08.237Z</time>
      </trkpt>
      <trkpt lat="53.63921" lon="11.35231">
        <ele>99.033566</ele>
        <time>2024-07-20T11:38:11.287Z</time>
      </trkpt>
      <trkpt lat="53.63912" lon="11.35245">
        <ele>99.256239</ele>
        <time>2024-07-20T11:38:14.232Z</time>
      </trkpt>
      <trkpt lat="53.63904" lon="11.35257">
        <ele>99.473749</ele>
        <time>2024-07-20T11:38:17.229Z</time>
      </trkpt>
      <trkpt lat="53.63895" lon="11.35268">
        <ele>99.701364</ele>
        <time>2024-07-20T11:38:20.238Z</time>
      </trkpt>
      <trkpt lat="53.63885" lon="11.35279">
        <ele>99.924796</ele>
        <time>2024-07-20T11:38:23.256Z</time>
      </trkpt>
      <trkpt lat="53.63877" lon="11.35289">
        <ele>100.125574</ele>
        <time>2024-07-20T11:38:26.240Z</time>
      </trkpt>
      <trkpt lat="53.63868" lon="11.35298">
        <ele>100.323908</ele>
        <time>2024-07-20T11:38:29.254Z</time>
      </trkpt>
      <trkpt lat="53.6386" lon="11.35307">
        <ele>100.519961</ele>
        <time>2024-07-20T11:38:32.244Z</time>
      </trkpt>
      <trkpt lat="53.63851" lon="11.35316">
        <ele>100.720996</ele>
        <time>2024-07-20T11:38:35.232Z</time>
      </trkpt>
      <trkpt lat="53.63843" lon="11.35326">
        <ele>100.922243</ele>
        <time>2024-07-20T11:38:38.241Z</time>
      </trkpt>
      <trkpt lat="53.63834" lon="11.35335">
        <ele>101.120863</ele>
        <time>2024-07-20T11:38:41.284Z</time>
      </trkpt>
      <trkpt lat="53.63826" lon="11.35344">
        <ele>101.316221</ele>
        <time>2024-07-20T11:38:44.224Z</time>
      </trkpt>
      <trkpt lat="53.63817" lon="11.35352">
        <ele>101.506306</ele>
        <time>2024-07-20T11:38:47.239Z</time>
      </trkpt>
      <trkpt lat="53.6381" lon="11.35362">
        <ele>101.68964</ele>
        <time>2024-07-20T11:38:50.253Z</time>
      </trkpt>
      <trkpt lat="53.63801" lon="11.35371">
        <ele>101.885977</ele>
        <time>2024-07-20T11:38:53.253Z</time>
      </trkpt>
      <trkpt lat="53.63794" lon="11.35379">
        <ele>102.06525</ele>
        <time>2024-07-20T11:38:56.238Z</time>
      </trkpt>
      <trkpt lat="53.63786" lon="11.35389">
        <ele>102.256805</ele>
        <time>2024-07-20T11:38:59.239Z</time>
      </trkpt>
      <trkpt lat="53.63778" lon="11.354">
        <ele>102.46338</ele>
        <time>2024-07-20T11:39:02.250Z</time>
      </trkpt>
      <trkpt lat="53.6377" lon="11.3541">
        <ele>102.658924</ele>
        <time>2024-07-20T11:39:05.237Z</time>
      </trkpt>
      <trkpt lat="53.63762" lon="11.35419">
        <ele>102.841933</ele>
        <time>2024-07-20T11:39:08.244Z</time>
      </trkpt>
      <trkpt lat="53.63755" lon="11.35428">
        <ele>103.015917</ele>
        <time>2024-07-20T11:39:11.279Z</time>
      </trkpt>
      <trkpt lat="53.63747" lon="11.35437">
        <ele>103.197571</ele>
        <time>2024-07-20T11:39:14.238Z</time>
      </trkpt>
      <trkpt lat="53.63738" lon="11.3545">
        <ele>103.409834</ele>
        <time>2024-07-20T11:39:17.233Z</time>
      </trkpt>
      <trkpt lat="53.63729" lon="11.3546">
        <ele>103.604902</ele>
        <time>2024-07-20T11:39:20.243Z</time>
      </trkpt>
      <trkpt lat="53.63721" lon="11.3547">
        <ele>103.793447</ele>
        <time>2024-07-20T11:39:23.240Z</time>
      </trkpt>
      <trkpt lat="53.63713" lon="11.35479">
        <ele>103.979818</ele>
        <time>2024-07-20T11:39:26.250Z</time>
      </trkpt>
      <trkpt lat="53.63704" lon="11.35489">
        <ele>104.186559</ele>
        <time>2024-07-20T11:39:29.242Z</time>
      </trkpt>
      <trkpt lat="53.63695" lon="11.355">
        <ele>104.386617</ele>
        <time>2024-07-20T11:39:32.235Z</time>
      </trkpt>
      <trkpt lat="53.63687" lon="11.35511">
        <ele>104.586816</ele>
        <time>2024-07-20T11:39:35.252Z</time>
      </trkpt>
      <trkpt lat="53.63678" lon="11.35522">
        <ele>104.786235</ele>
        <time>2024-07-20T11:39:38.243Z</time>
      </trkpt>
      <trkpt lat="53.6367" lon="11.35532">
        <ele>104.97722</ele>
        <time>2024-07-20T11:39:41.280Z</time>
      </trkpt>
      <trkpt lat="53.63662" lon="11.35543">
        <ele>105.168685</ele>
        <time>2024-07-20T11:39:44.250Z</time>
      </trkpt>
      <trkpt lat="53.63655" lon="11.35555">
        <ele>105.364618</ele>
        <time>2024-07-20T11:39:47.243Z</time>
      </trkpt>
      <trkpt lat="53.63647" lon="11.35567">
        <ele>105.566123</ele>
        <time>2024-07-20T11:39:50.253Z</time>
      </trkpt>
      <trkpt lat="53.63638" lon="11.35577">
        <ele>105.756843</ele>
        <time>2024-07-20T11:39:53.231Z</time>
      </trkpt>
      <trkpt lat="53.63631" lon="11.35587">
        <ele>105.93258</ele>
        <time>2024-07-20T11:39:56.231Z</time>
      </trkpt>
      <trkpt lat="53.63623" lon="11.35597">
        <ele>106.116563</ele>
        <time>2024-07-20T11:39:59.242Z</time>
      </trkpt>
      <trkpt lat="53.63616" lon="11.35608">
        <ele>106.288306</ele>
        <time>2024-07-20T11:40:02.222Z</time>
      </trkpt>
      <trkpt lat="53.63608" lon="11.35618">
        <ele>106.443776</ele>
        <time>2024-07-20T11:40:05.241Z</time>
      </trkpt>
      <trkpt lat="53.636" lon="11.35628">
        <ele>106.602593</ele>
        <time>2024-07-20T11:40:08.255Z</time>
      </trkpt>
      <trkpt lat="53.63593" lon="11.35641">
        <ele>106.780012</ele>
        <time>2024-07-20T11:40:11.271Z</time>
      </trkpt>
      <trkpt lat="53.63585" lon="11.35654">
        <ele>106.957451</ele>
        <time>2024-07-20T11:40:14.245Z</time>
      </trkpt>
      <trkpt lat="53.63577" lon="11.35666">
        <ele>107.133267</ele>
        <time>2024-07-20T11:40:17.256Z</time>
      </trkpt>
      <trkpt lat="53.63569" lon="11.35678">
        <ele>107.301796</ele>
        <time>2024-07-20T11:40:20.249Z</time>
      </trkpt>
      <trkpt lat="53.63561" lon="11.3569">
        <ele>107.478244</ele>
        <time>2024-07-20T11:40:23.252Z</time>
      </trkpt>
      <trkpt lat="53.63553" lon="11.35702">
        <ele>107.650335</ele>
        <time>2024-07-20T11:40:26.243Z</time>
      </trkpt>
      <trkpt lat="53.63545" lon="11.35714">
        <ele>107.817029</ele>
        <time>2024-07-20T11:40:29.238Z</time>
      </trkpt>
      <trkpt lat="53.63537" lon="11.35726">
        <ele>107.987511</ele>
        <time>2024-07-20T11:40:32.253Z</time>
      </trkpt>
      <trkpt lat="53.63529" lon="11.35738">
        <ele>108.159009</ele>
        <time>2024-07-20T11:40:35.243Z</time>
      </trkpt>
      <trkpt lat="53.63521" lon="11.35749">
        <ele>108.326163</ele>
        <time>2024-07-20T11:40:38.259Z</time>
      </trkpt>
      <trkpt lat="53.63513" lon="11.35761">
        <ele>108.49645</ele>
        <time>2024-07-20T11:40:41.271Z</time>
      </trkpt>
      <trkpt lat="53.63505" lon="11.35773">
        <ele>108.674113</ele>
        <time>2024-07-20T11:40:44.235Z</time>
      </trkpt>
      <trkpt lat="53.63497" lon="11.35785">
        <ele>108.846962</ele>
        <time>2024-07-20T11:40:47.233Z</time>
      </trkpt>
      <trkpt lat="53.6349" lon="11.35799">
        <ele>109.023196</ele>
        <time>2024-07-20T11:40:50.231Z</time>
      </trkpt>
      <trkpt lat="53.63481" lon="11.35812">
        <ele>109.100103</ele>
        <time>2024-07-20T11:40:53.242Z</time>
      </trkpt>
      <trkpt lat="53.63472" lon="11.35824">
        <ele>109.085013</ele>
        <time>2024-07-20T11:40:56.245Z</time>
      </trkpt>
      <trkpt lat="53.63464" lon="11.35839">
        <ele>109.069123</ele>
        <time>2024-07-20T11:40:59.233Z</time>
      </trkpt>
      <trkpt lat="53.63454" lon="11.35851">
        <ele>109.05271</ele>
        <time>2024-07-20T11:41:02.229Z</time>
      </trkpt>
      <trkpt lat="53.63445" lon="11.35866">
        <ele>109.036002</ele>
        <time>2024-07-20T11:41:05.234Z</time>
      </trkpt>
      <trkpt lat="53.63436" lon="11.3588">
        <ele>109.019827</ele>
        <time>2024-07-20T11:41:08.240Z</time>
      </trkpt>
      <trkpt lat="53.63427" lon="11.35893">
        <ele>109.003979</ele>
        <time>2024-07-20T11:41:11.300Z</time>
      </trkpt>
      <trkpt lat="53.63419" lon="11.35906">
        <ele>108.988944</ele>
        <time>2024-07-20T11:41:14.248Z</time>
      </trkpt>
      <trkpt lat="53.6341" lon="11.35919">
        <ele>108.973652</ele>
        <time>2024-07-20T11:41:17.243Z</time>
      </trkpt>
      <trkpt lat="53.63401" lon="11.35932">
        <ele>108.957743</ele>
        <time>2024-07-20T11:41:20.241Z</time>
      </trkpt>
      <trkpt lat="53.63392" lon="11.35945">
        <ele>108.941895</ele>
        <time>2024-07-20T11:41:23.244Z</time>
      </trkpt>
      <trkpt lat="53.63383" lon="11.35959">
        <ele>108.925977</ele>
        <time>2024-07-20T11:41:26.233Z</time>
      </trkpt>
      <trkpt lat="53.63373" lon="11.35973">
        <ele>108.909474</ele>
        <time>2024-07-20T11:41:29.233Z</time>
      </trkpt>
      <trkpt lat="53.63364" lon="11.35986">
        <ele>108.893273</ele>
        <time>2024-07-20T11:41:32.248Z</time>
      </trkpt>
      <trkpt lat="53.63355" lon="11.35999">
        <ele>108.877477</ele>
        <time>2024-07-20T11:41:35.236Z</time>
      </trkpt>
      <trkpt lat="53.63346" lon="11.3601">
        <ele>108.863061</ele>
        <time>2024-07-20T11:41:38.251Z</time>
      </trkpt>
      <trkpt lat="53.63336" lon="11.3602">
        <ele>108.847599</ele>
        <time>2024-07-20T11:41:42.246Z</time>
      </trkpt>
      <trkpt lat="53.63322" lon="11.3603">
        <ele>108.826717</ele>
        <time>2024-07-20T11:43:24.231Z</time>
      </trkpt>
      <trkpt lat="53.63312" lon="11.36031">
        <ele>108.812822</ele>
        <time>2024-07-20T11:43:28.214Z</time>
      </trkpt>
      <trkpt lat="53.63301" lon="11.36031">
        <ele>108.797193</ele>
        <time>2024-07-20T11:43:31.254Z</time>
      </trkpt>
      <trkpt lat="53.63287" lon="11.3603">
        <ele>108.779214</ele>
        <time>2024-07-20T11:43:34.237Z</time>
      </trkpt>
      <trkpt lat="53.63278" lon="11.36031">
        <ele>108.766518</ele>
        <time>2024-07-20T11:43:36.228Z</time>
      </trkpt>
      <trkpt lat="53.63265" lon="11.36034">
        <ele>108.748417</ele>
        <time>2024-07-20T11:43:39.244Z</time>
      </trkpt>
      <trkpt lat="53.63256" lon="11.36038">
        <ele>108.735747</ele>
        <time>2024-07-20T11:43:41.256Z</time>
      </trkpt>
      <trkpt lat="53.63243" lon="11.36041">
        <ele>108.718245</ele>
        <time>2024-07-20T11:43:44.248Z</time>
      </trkpt>
      <trkpt lat="53.63233" lon="11.36039">
        <ele>108.704839</ele>
        <time>2024-07-20T11:43:46.239Z</time>
      </trkpt>
      <trkpt lat="53.63224" lon="11.36036">
        <ele>108.691747</ele>
        <time>2024-07-20T11:43:48.211Z</time>
      </trkpt>
      <trkpt lat="53.63214" lon="11.36034">
        <ele>108.678899</ele>
        <time>2024-07-20T11:43:50.235Z</time>
      </trkpt>
      <trkpt lat="53.63205" lon="11.36032">
        <ele>108.665754</ele>
        <time>2024-07-20T11:43:52.243Z</time>
      </trkpt>
      <trkpt lat="53.63195" lon="11.3603">
        <ele>108.652203</ele>
        <time>2024-07-20T11:43:54.235Z</time>
      </trkpt>
      <trkpt lat="53.63185" lon="11.36029">
        <ele>108.639347</ele>
        <time>2024-07-20T11:43:56.232Z</time>
      </trkpt>
      <trkpt lat="53.63176" lon="11.36028">
        <ele>108.623932</ele>
        <time>2024-07-20T11:43:58.242Z</time>
      </trkpt>
      <trkpt lat="53.63166" lon="11.36026">
        <ele>108.413414</ele>
        <time>2024-07-20T11:44:00.242Z</time>
      </trkpt>
      <trkpt lat="53.63156" lon="11.36026">
        <ele>108.198942</ele>
        <time>2024-07-20T11:44:02.238Z</time>
      </trkpt>
      <trkpt lat="53.63146" lon="11.36024">
        <ele>107.983184</ele>
        <time>2024-07-20T11:44:04.237Z</time>
      </trkpt>
      <trkpt lat="53.63136" lon="11.36023">
        <ele>107.765899</ele>
        <time>2024-07-20T11:44:06.236Z</time>
      </trkpt>
      <trkpt lat="53.63126" lon="11.36021">
        <ele>107.544397</ele>
        <time>2024-07-20T11:44:08.229Z</time>
      </trkpt>
      <trkpt lat="53.63116" lon="11.3602">
        <ele>107.318479</ele>
        <time>2024-07-20T11:44:10.239Z</time>
      </trkpt>
      <trkpt lat="53.63105" lon="11.36019">
        <ele>107.092751</ele>
        <time>2024-07-20T11:44:12.237Z</time>
      </trkpt>
      <trkpt lat="53.63095" lon="11.36017">
        <ele>106.86379</ele>
        <time>2024-07-20T11:44:14.236Z</time>
      </trkpt>
      <trkpt lat="53.63084" lon="11.36015">
        <ele>106.634829</ele>
        <time>2024-07-20T11:44:16.222Z</time>
      </trkpt>
      <trkpt lat="53.63074" lon="11.36012">
        <ele>106.402693</ele>
        <time>2024-07-20T11:44:18.236Z</time>
      </trkpt>
      <trkpt lat="53.63063" lon="11.3601">
        <ele>106.159299</ele>
        <time>2024-07-20T11:44:20.246Z</time>
      </trkpt>
      <trkpt lat="53.63051" lon="11.36009">
        <ele>105.916108</ele>
        <time>2024-07-20T11:44:22.254Z</time>
      </trkpt>
      <trkpt lat="53.6304" lon="11.36007">
        <ele>105.665342</ele>
        <time>2024-07-20T11:44:24.240Z</time>
      </trkpt>
      <trkpt lat="53.63028" lon="11.36005">
        <ele>105.415474</ele>
        <time>2024-07-20T11:44:26.246Z</time>
      </trkpt>
      <trkpt lat="53.63017" lon="11.36003">
        <ele>105.16107</ele>
        <time>2024-07-20T11:44:28.242Z</time>
      </trkpt>
      <trkpt lat="53.63004" lon="11.36002">
        <ele>104.887984</ele>
        <time>2024-07-20T11:44:30.241Z</time>
      </trkpt>
      <trkpt lat="53.62991" lon="11.36001">
        <ele>104.453251</ele>
        <time>2024-07-20T11:44:32.244Z</time>
      </trkpt>
      <trkpt lat="53.62979" lon="11.35999">
        <ele>103.829192</ele>
        <time>2024-07-20T11:44:34.235Z</time>
      </trkpt>
      <trkpt lat="53.62966" lon="11.35998">
        <ele>103.196615</ele>
        <time>2024-07-20T11:44:36.243Z</time>
      </trkpt>
      <trkpt lat="53.62953" lon="11.35998">
        <ele>102.544733</ele>
        <time>2024-07-20T11:44:38.248Z</time>
      </trkpt>
      <trkpt lat="53.62939" lon="11.35997">
        <ele>101.832903</ele>
        <time>2024-07-20T11:44:40.233Z</time>
      </trkpt>
      <trkpt lat="53.62924" lon="11.35997">
        <ele>101.091722</ele>
        <time>2024-07-20T11:44:42.235Z</time>
      </trkpt>
      <trkpt lat="53.62909" lon="11.35999">
        <ele>100.332581</ele>
        <time>2024-07-20T11:44:44.235Z</time>
      </trkpt>
      <trkpt lat="53.62894" lon="11.36001">
        <ele>99.583348</ele>
        <time>2024-07-20T11:44:46.239Z</time>
      </trkpt>
      <trkpt lat="53.62879" lon="11.36003">
        <ele>98.834626</ele>
        <time>2024-07-20T11:44:48.227Z</time>
      </trkpt>
      <trkpt lat="53.62864" lon="11.36007">
        <ele>98.090799</ele>
        <time>2024-07-20T11:44:50.232Z</time>
      </trkpt>
      <trkpt lat="53.62849" lon="11.36009">
        <ele>97.351197</ele>
        <time>2024-07-20T11:44:52.236Z</time>
      </trkpt>
      <trkpt lat="53.62833" lon="11.36008">
        <ele>96.574635</ele>
        <time>2024-07-20T11:44:54.219Z</time>
      </trkpt>
      <trkpt lat="53.62818" lon="11.36">
        <ele>95.758933</ele>
        <time>2024-07-20T11:44:56.216Z</time>
      </trkpt>
      <trkpt lat="53.62804" lon="11.35992">
        <ele>95.056414</ele>
        <time>2024-07-20T11:44:58.237Z</time>
      </trkpt>
      <trkpt lat="53.62791" lon="11.35983">
        <ele>94.35706</ele>
        <time>2024-07-20T11:45:00.228Z</time>
      </trkpt>
      <trkpt lat="53.62778" lon="11.35976">
        <ele>93.726084</ele>
        <time>2024-07-20T11:45:02.251Z</time>
      </trkpt>
      <trkpt lat="53.62764" lon="11.3597">
        <ele>93.038164</ele>
        <time>2024-07-20T11:45:04.257Z</time>
      </trkpt>
      <trkpt lat="53.62749" lon="11.3597">
        <ele>92.302605</ele>
        <time>2024-07-20T11:45:06.227Z</time>
      </trkpt>
      <trkpt lat="53.62735" lon="11.35977">
        <ele>91.598957</ele>
        <time>2024-07-20T11:45:08.223Z</time>
      </trkpt>
      <trkpt lat="53.62721" lon="11.35989">
        <ele>90.834672</ele>
        <time>2024-07-20T11:45:10.223Z</time>
      </trkpt>
      <trkpt lat="53.62708" lon="11.36">
        <ele>90.120339</ele>
        <time>2024-07-20T11:45:12.232Z</time>
      </trkpt>
      <trkpt lat="53.62696" lon="11.3601">
        <ele>89.476037</ele>
        <time>2024-07-20T11:45:14.235Z</time>
      </trkpt>
      <trkpt lat="53.62685" lon="11.36021">
        <ele>88.844682</ele>
        <time>2024-07-20T11:45:16.248Z</time>
      </trkpt>
      <trkpt lat="53.62673" lon="11.36031">
        <ele>88.217551</ele>
        <time>2024-07-20T11:45:18.236Z</time>
      </trkpt>
      <trkpt lat="53.62664" lon="11.36045">
        <ele>87.59781</ele>
        <time>2024-07-20T11:45:20.231Z</time>
      </trkpt>
      <trkpt lat="53.62655" lon="11.3606">
        <ele>87.069093</ele>
        <time>2024-07-20T11:45:22.230Z</time>
      </trkpt>
      <trkpt lat="53.62647" lon="11.36075">
        <ele>86.952407</ele>
        <time>2024-07-20T11:45:24.247Z</time>
      </trkpt>
      <trkpt lat="53.6264" lon="11.36091">
        <ele>86.835902</ele>
        <time>2024-07-20T11:45:26.236Z</time>
      </trkpt>
      <trkpt lat="53.62633" lon="11.36105">
        <ele>86.733657</ele>
        <time>2024-07-20T11:45:28.239Z</time>
      </trkpt>
      <trkpt lat="53.62627" lon="11.3612">
        <ele>86.632695</ele>
        <time>2024-07-20T11:45:30.242Z</time>
      </trkpt>
      <trkpt lat="53.62621" lon="11.36134">
        <ele>86.534127</ele>
        <time>2024-07-20T11:45:32.244Z</time>
      </trkpt>
      <trkpt lat="53.62613" lon="11.36143">
        <ele>86.442056</ele>
        <time>2024-07-20T11:45:34.236Z</time>
      </trkpt>
      <trkpt lat="53.62603" lon="11.36142">
        <ele>86.343431</ele>
        <time>2024-07-20T11:45:36.219Z</time>
      </trkpt>
      <trkpt lat="53.62593" lon="11.36139">
        <ele>86.246165</ele>
        <time>2024-07-20T11:45:38.234Z</time>
      </trkpt>
      <trkpt lat="53.6258" lon="11.36137">
        <ele>86.120469</ele>
        <time>2024-07-20T11:45:41.245Z</time>
      </trkpt>
      <trkpt lat="53.62569" lon="11.36141">
        <ele>86.010701</ele>
        <time>2024-07-20T11:45:44.228Z</time>
      </trkpt>
      <trkpt lat="53.62558" lon="11.36145">
        <ele>85.90889</ele>
        <time>2024-07-20T11:45:47.236Z</time>
      </trkpt>
      <trkpt lat="53.62548" lon="11.36146">
        <ele>85.810422</ele>
        <time>2024-07-20T11:45:50.234Z</time>
      </trkpt>
      <trkpt lat="53.62537" lon="11.36142">
        <ele>85.70581</ele>
        <time>2024-07-20T11:45:53.214Z</time>
      </trkpt>
      <trkpt lat="53.62528" lon="11.36134">
        <ele>85.604704</ele>
        <time>2024-07-20T11:45:56.230Z</time>
      </trkpt>
      <trkpt lat="53.62518" lon="11.36131">
        <ele>85.507678</ele>
        <time>2024-07-20T11:45:59.231Z</time>
      </trkpt>
      <trkpt lat="53.62508" lon="11.36126">
        <ele>85.414604</ele>
        <time>2024-07-20T11:46:08.231Z</time>
      </trkpt>
      <trkpt lat="53.62499" lon="11.36121">
        <ele>85.331365</ele>
        <time>2024-07-20T11:46:14.233Z</time>
      </trkpt>
      <trkpt lat="53.6249" lon="11.36132">
        <ele>85.248469</ele>
        <time>2024-07-20T11:47:06.239Z</time>
      </trkpt>
      <trkpt lat="53.62493" lon="11.36148">
        <ele>85.174641</ele>
        <time>2024-07-20T11:47:11.211Z</time>
      </trkpt>
      <trkpt lat="53.62502" lon="11.36156">
        <ele>85.098459</ele>
        <time>2024-07-20T11:47:15.206Z</time>
      </trkpt>
      <trkpt lat="53.62511" lon="11.36162">
        <ele>85.030785</ele>
        <time>2024-07-20T11:47:18.230Z</time>
      </trkpt>
      <trkpt lat="53.62521" lon="11.36169">
        <ele>84.953048</ele>
        <time>2024-07-20T11:47:21.243Z</time>
      </trkpt>
      <trkpt lat="53.62531" lon="11.36178">
        <ele>84.86677</ele>
        <time>2024-07-20T11:47:24.237Z</time>
      </trkpt>
      <trkpt lat="53.62541" lon="11.36187">
        <ele>84.783663</ele>
        <time>2024-07-20T11:47:27.246Z</time>
      </trkpt>
      <trkpt lat="53.62551" lon="11.36199">
        <ele>84.694385</ele>
        <time>2024-07-20T11:47:30.228Z</time>
      </trkpt>
      <trkpt lat="53.62561" lon="11.36213">
        <ele>84.602322</ele>
        <time>2024-07-20T11:47:33.232Z</time>
      </trkpt>
      <trkpt lat="53.62565" lon="11.36229">
        <ele>84.526842</ele>
        <time>2024-07-20T11:47:36.218Z</time>
      </trkpt>
      <trkpt lat="53.62569" lon="11.36244">
        <ele>84.454963</ele>
        <time>2024-07-20T11:47:39.223Z</time>
      </trkpt>
      <trkpt lat="53.62573" lon="11.36262">
        <ele>84.371616</ele>
        <time>2024-07-20T11:47:42.224Z</time>
      </trkpt>
      <trkpt lat="53.62576" lon="11.36278">
        <ele>84.301456</ele>
        <time>2024-07-20T11:47:45.231Z</time>
      </trkpt>
      <trkpt lat="53.62577" lon="11.36294">
        <ele>84.230458</ele>
        <time>2024-07-20T11:47:48.238Z</time>
      </trkpt>
      <trkpt lat="53.62578" lon="11.3631">
        <ele>84.160635</ele>
        <time>2024-07-20T11:47:51.255Z</time>
      </trkpt>
      <trkpt lat="53.62576" lon="11.36327">
        <ele>84.087328</ele>
        <time>2024-07-20T11:47:54.246Z</time>
      </trkpt>
      <trkpt lat="53.62577" lon="11.36344">
        <ele>84.289106</ele>
        <time>2024-07-20T11:47:57.238Z</time>
      </trkpt>
      <trkpt lat="53.62577" lon="11.36361">
        <ele>84.691522</ele>
        <time>2024-07-20T11:48:00.231Z</time>
      </trkpt>
      <trkpt lat="53.62577" lon="11.36378">
        <ele>85.082267</ele>
        <time>2024-07-20T11:48:03.252Z</time>
      </trkpt>
      <trkpt lat="53.62578" lon="11.36394">
        <ele>85.474862</ele>
        <time>2024-07-20T11:48:06.237Z</time>
      </trkpt>
      <trkpt lat="53.6258" lon="11.3641">
        <ele>85.863604</ele>
        <time>2024-07-20T11:48:09.234Z</time>
      </trkpt>
      <trkpt lat="53.62581" lon="11.36426">
        <ele>86.230306</ele>
        <time>2024-07-20T11:48:14.228Z</time>
      </trkpt>
      <trkpt lat="53.62584" lon="11.36447">
        <ele>86.760946</ele>
        <time>2024-07-20T11:49:00.240Z</time>
      </trkpt>
      <trkpt lat="53.62585" lon="11.36462">
        <ele>87.119772</ele>
        <time>2024-07-20T11:49:03.257Z</time>
      </trkpt>
      <trkpt lat="53.62592" lon="11.36481">
        <ele>87.622756</ele>
        <time>2024-07-20T11:49:07.232Z</time>
      </trkpt>
      <trkpt lat="53.62596" lon="11.36497">
        <ele>88.025662</ele>
        <time>2024-07-20T11:49:10.224Z</time>
      </trkpt>
      <trkpt lat="53.62599" lon="11.36512">
        <ele>88.408019</ele>
        <time>2024-07-20T11:49:13.236Z</time>
      </trkpt>
      <trkpt lat="53.62603" lon="11.36527">
        <ele>88.794763</ele>
        <time>2024-07-20T11:49:16.233Z</time>
      </trkpt>
      <trkpt lat="53.62606" lon="11.36542">
        <ele>89.171241</ele>
        <time>2024-07-20T11:49:19.235Z</time>
      </trkpt>
      <trkpt lat="53.62609" lon="11.36559">
        <ele>89.60365</ele>
        <time>2024-07-20T11:49:23.261Z</time>
      </trkpt>
      <trkpt lat="53.62613" lon="11.36574">
        <ele>89.97729</ele>
        <time>2024-07-20T11:49:27.228Z</time>
      </trkpt>
      <trkpt lat="53.62613" lon="11.3659">
        <ele>90.375029</ele>
        <time>2024-07-20T11:49:31.237Z</time>
      </trkpt>
      <trkpt lat="53.62617" lon="11.36607">
        <ele>90.786739</ele>
        <time>2024-07-20T11:49:35.219Z</time>
      </trkpt>
      <trkpt lat="53.62625" lon="11.36616">
        <ele>91.191156</ele>
        <time>2024-07-20T11:49:39.226Z</time>
      </trkpt>
      <trkpt lat="53.62631" lon="11.36629">
        <ele>91.885274</ele>
        <time>2024-07-20T11:49:43.226Z</time>
      </trkpt>
      <trkpt lat="53.62638" lon="11.36644">
        <ele>92.788596</ele>
        <time>2024-07-20T11:49:48.225Z</time>
      </trkpt>
      <trkpt lat="53.62642" lon="11.36659">
        <ele>93.582563</ele>
        <time>2024-07-20T11:49:52.248Z</time>
      </trkpt>
      <trkpt lat="53.62648" lon="11.36674">
        <ele>94.392298</ele>
        <time>2024-07-20T11:49:56.237Z</time>
      </trkpt>
      <trkpt lat="53.62652" lon="11.36688">
        <ele>95.173905</ele>
        <time>2024-07-20T11:50:00.238Z</time>
      </trkpt>
      <trkpt lat="53.62657" lon="11.36703">
        <ele>95.961562</ele>
        <time>2024-07-20T11:50:04.237Z</time>
      </trkpt>
      <trkpt lat="53.62661" lon="11.36718">
        <ele>96.71687</ele>
        <time>2024-07-20T11:50:08.249Z</time>
      </trkpt>
      <trkpt lat="53.62665" lon="11.36732">
        <ele>97.481462</ele>
        <time>2024-07-20T11:50:12.232Z</time>
      </trkpt>
      <trkpt lat="53.6267" lon="11.36748">
        <ele>98.296152</ele>
        <time>2024-07-20T11:50:16.231Z</time>
      </trkpt>
      <trkpt lat="53.62674" lon="11.36763">
        <ele>99.076899</ele>
        <time>2024-07-20T11:50:20.233Z</time>
      </trkpt>
      <trkpt lat="53.62678" lon="11.36777">
        <ele>99.812572</ele>
        <time>2024-07-20T11:50:24.241Z</time>
      </trkpt>
      <trkpt lat="53.62682" lon="11.36792">
        <ele>100.60098</ele>
        <time>2024-07-20T11:50:28.232Z</time>
      </trkpt>
      <trkpt lat="53.62688" lon="11.36805">
        <ele>101.364139</ele>
        <time>2024-07-20T11:50:32.235Z</time>
      </trkpt>
      <trkpt lat="53.62696" lon="11.36815">
        <ele>102.148136</ele>
        <time>2024-07-20T11:50:36.236Z</time>
      </trkpt>
      <trkpt lat="53.62702" lon="11.36828">
        <ele>102.905041</ele>
        <time>2024-07-20T11:50:40.238Z</time>
      </trkpt>
      <trkpt lat="53.62699" lon="11.36845">
        <ele>103.758167</ele>
        <time>2024-07-20T11:50:44.235Z</time>
      </trkpt>
      <trkpt lat="53.62696" lon="11.36861">
        <ele>104.559142</ele>
        <time>2024-07-20T11:50:48.222Z</time>
      </trkpt>
      <trkpt lat="53.62697" lon="11.36878">
        <ele>105.337909</ele>
        <time>2024-07-20T11:50:52.234Z</time>
      </trkpt>
      <trkpt lat="53.62705" lon="11.36889">
        <ele>105.760617</ele>
        <time>2024-07-20T11:50:57.233Z</time>
      </trkpt>
      <trkpt lat="53.62716" lon="11.36894">
        <ele>106.094264</ele>
        <time>2024-07-20T11:51:02.238Z</time>
      </trkpt>
      <trkpt lat="53.62723" lon="11.36905">
        <ele>106.394287</ele>
        <time>2024-07-20T11:51:06.237Z</time>
      </trkpt>
      <trkpt lat="53.62728" lon="11.3692">
        <ele>106.72092</ele>
        <time>2024-07-20T11:51:10.250Z</time>
      </trkpt>
      <trkpt lat="53.62733" lon="11.36937">
        <ele>107.054729</ele>
        <time>2024-07-20T11:51:14.229Z</time>
      </trkpt>
      <trkpt lat="53.62739" lon="11.36954">
        <ele>107.405118</ele>
        <time>2024-07-20T11:51:18.248Z</time>
      </trkpt>
      <trkpt lat="53.62744" lon="11.36971">
        <ele>107.75101</ele>
        <time>2024-07-20T11:51:22.244Z</time>
      </trkpt>
      <trkpt lat="53.62749" lon="11.36988">
        <ele>108.110504</ele>
        <time>2024-07-20T11:51:26.236Z</time>
      </trkpt>
      <trkpt lat="53.62754" lon="11.37004">
        <ele>108.443659</ele>
        <time>2024-07-20T11:51:30.236Z</time>
      </trkpt>
      <trkpt lat="53.62758" lon="11.37022">
        <ele>108.780386</ele>
        <time>2024-07-20T11:51:34.222Z</time>
      </trkpt>
      <trkpt lat="53.62761" lon="11.37038">
        <ele>109.08717</ele>
        <time>2024-07-20T11:51:38.226Z</time>
      </trkpt>
      <trkpt lat="53.62766" lon="11.37054">
        <ele>109.425615</ele>
        <time>2024-07-20T11:51:42.231Z</time>
      </trkpt>
      <trkpt lat="53.62771" lon="11.3707">
        <ele>109.74524</ele>
        <time>2024-07-20T11:51:46.243Z</time>
      </trkpt>
      <trkpt lat="53.62775" lon="11.37085">
        <ele>110.056709</ele>
        <time>2024-07-20T11:51:50.237Z</time>
      </trkpt>
      <trkpt lat="53.6278" lon="11.37102">
        <ele>110.388582</ele>
        <time>2024-07-20T11:51:54.241Z</time>
      </trkpt>
      <trkpt lat="53.62784" lon="11.37116">
        <ele>110.68859</ele>
        <time>2024-07-20T11:51:58.239Z</time>
      </trkpt>
      <trkpt lat="53.62786" lon="11.37121">
        <ele>110.787662</ele>
        <time>2024-07-20T11:52:04.073Z</time>
      </trkpt>
      <trkpt lat="53.62793" lon="11.37146">
        <ele>111.134858</ele>
        <time>2024-07-20T11:53:16.236Z</time>
      </trkpt>
      <trkpt lat="53.62798" lon="11.37162">
        <ele>111.247851</ele>
        <time>2024-07-20T11:53:20.218Z</time>
      </trkpt>
      <trkpt lat="53.62803" lon="11.3718">
        <ele>111.373145</ele>
        <time>2024-07-20T11:53:24.225Z</time>
      </trkpt>
      <trkpt lat="53.62807" lon="11.37197">
        <ele>111.48678</ele>
        <time>2024-07-20T11:53:28.230Z</time>
      </trkpt>
      <trkpt lat="53.6281" lon="11.37212">
        <ele>111.585997</ele>
        <time>2024-07-20T11:53:31.259Z</time>
      </trkpt>
      <trkpt lat="53.62814" lon="11.3723">
        <ele>111.708832</ele>
        <time>2024-07-20T11:53:34.239Z</time>
      </trkpt>
      <trkpt lat="53.62819" lon="11.37249">
        <ele>111.843024</ele>
        <time>2024-07-20T11:53:37.229Z</time>
      </trkpt>
      <trkpt lat="53.62824" lon="11.37267">
        <ele>111.964112</ele>
        <time>2024-07-20T11:53:40.250Z</time>
      </trkpt>
      <trkpt lat="53.62828" lon="11.37285">
        <ele>112.087719</ele>
        <time>2024-07-20T11:53:43.244Z</time>
      </trkpt>
      <trkpt lat="53.62832" lon="11.37303">
        <ele>112.213085</ele>
        <time>2024-07-20T11:53:46.246Z</time>
      </trkpt>
      <trkpt lat="53.62836" lon="11.37325">
        <ele>112.351646</ele>
        <time>2024-07-20T11:53:49.239Z</time>
      </trkpt>
      <trkpt lat="53.6284" lon="11.37344">
        <ele>112.485052</ele>
        <time>2024-07-20T11:53:52.264Z</time>
      </trkpt>
      <trkpt lat="53.62845" lon="11.37364">
        <ele>112.61909</ele>
        <time>2024-07-20T11:53:55.228Z</time>
      </trkpt>
      <trkpt lat="53.6285" lon="11.37384">
        <ele>112.756388</ele>
        <time>2024-07-20T11:53:58.236Z</time>
      </trkpt>
      <trkpt lat="53.62854" lon="11.37406">
        <ele>112.900483</ele>
        <time>2024-07-20T11:54:01.289Z</time>
      </trkpt>
      <trkpt lat="53.62859" lon="11.37426">
        <ele>112.831848</ele>
        <time>2024-07-20T11:54:04.228Z</time>
      </trkpt>
      <trkpt lat="53.62864" lon="11.37445">
        <ele>112.612608</ele>
        <time>2024-07-20T11:54:07.223Z</time>
      </trkpt>
      <trkpt lat="53.62868" lon="11.37464">
        <ele>112.392823</ele>
        <time>2024-07-20T11:54:10.230Z</time>
      </trkpt>
      <trkpt lat="53.62873" lon="11.37484">
        <ele>112.168089</ele>
        <time>2024-07-20T11:54:13.239Z</time>
      </trkpt>
      <trkpt lat="53.62878" lon="11.37505">
        <ele>111.935492</ele>
        <time>2024-07-20T11:54:16.241Z</time>
      </trkpt>
      <trkpt lat="53.62879" lon="11.3752">
        <ele>111.765883</ele>
        <time>2024-07-20T11:54:18.235Z</time>
      </trkpt>
      <trkpt lat="53.62881" lon="11.37536">
        <ele>111.599699</ele>
        <time>2024-07-20T11:54:20.253Z</time>
      </trkpt>
      <trkpt lat="53.62882" lon="11.37558">
        <ele>111.362412</ele>
        <time>2024-07-20T11:54:23.231Z</time>
      </trkpt>
      <trkpt lat="53.62884" lon="11.37574">
        <ele>111.197697</ele>
        <time>2024-07-20T11:54:25.234Z</time>
      </trkpt>
      <trkpt lat="53.62886" lon="11.37589">
        <ele>111.030879</ele>
        <time>2024-07-20T11:54:27.222Z</time>
      </trkpt>
      <trkpt lat="53.62887" lon="11.37604">
        <ele>110.868111</ele>
        <time>2024-07-20T11:54:29.248Z</time>
      </trkpt>
      <trkpt lat="53.62888" lon="11.37621">
        <ele>110.693659</ele>
        <time>2024-07-20T11:54:31.279Z</time>
      </trkpt>
      <trkpt lat="53.62889" lon="11.37637">
        <ele>110.517101</ele>
        <time>2024-07-20T11:54:33.237Z</time>
      </trkpt>
      <trkpt lat="53.62891" lon="11.37654">
        <ele>110.334441</ele>
        <time>2024-07-20T11:54:35.242Z</time>
      </trkpt>
      <trkpt lat="53.62893" lon="11.37671">
        <ele>110.151585</ele>
        <time>2024-07-20T11:54:37.238Z</time>
      </trkpt>
      <trkpt lat="53.62894" lon="11.37687">
        <ele>109.978832</ele>
        <time>2024-07-20T11:54:39.238Z</time>
      </trkpt>
      <trkpt lat="53.62896" lon="11.37703">
        <ele>109.810267</ele>
        <time>2024-07-20T11:54:41.298Z</time>
      </trkpt>
      <trkpt lat="53.62898" lon="11.37719">
        <ele>109.492352</ele>
        <time>2024-07-20T11:54:43.233Z</time>
      </trkpt>
      <trkpt lat="53.629" lon="11.37735">
        <ele>109.074396</ele>
        <time>2024-07-20T11:54:45.244Z</time>
      </trkpt>
      <trkpt lat="53.62901" lon="11.37757">
        <ele>108.524294</ele>
        <time>2024-07-20T11:54:48.238Z</time>
      </trkpt>
      <trkpt lat="53.62903" lon="11.37778">
        <ele>107.985977</ele>
        <time>2024-07-20T11:54:51.286Z</time>
      </trkpt>
      <trkpt lat="53.62906" lon="11.37798">
        <ele>107.466803</ele>
        <time>2024-07-20T11:54:54.231Z</time>
      </trkpt>
      <trkpt lat="53.62909" lon="11.37819">
        <ele>106.932364</ele>
        <time>2024-07-20T11:54:57.239Z</time>
      </trkpt>
      <trkpt lat="53.62911" lon="11.37841">
        <ele>106.382263</ele>
        <time>2024-07-20T11:55:00.242Z</time>
      </trkpt>
      <trkpt lat="53.62911" lon="11.37857">
        <ele>105.978486</ele>
        <time>2024-07-20T11:55:02.232Z</time>
      </trkpt>
      <trkpt lat="53.62911" lon="11.37875">
        <ele>105.518184</ele>
        <time>2024-07-20T11:55:04.235Z</time>
      </trkpt>
      <trkpt lat="53.62911" lon="11.37895">
        <ele>105.015422</ele>
        <time>2024-07-20T11:55:06.239Z</time>
      </trkpt>
      <trkpt lat="53.62912" lon="11.37915">
        <ele>104.53002</ele>
        <time>2024-07-20T11:55:08.255Z</time>
      </trkpt>
      <trkpt lat="53.62912" lon="11.37935">
        <ele>104.009493</ele>
        <time>2024-07-20T11:55:10.240Z</time>
      </trkpt>
      <trkpt lat="53.62912" lon="11.37956">
        <ele>103.501676</ele>
        <time>2024-07-20T11:55:12.261Z</time>
      </trkpt>
      <trkpt lat="53.62912" lon="11.37976">
        <ele>102.986425</ele>
        <time>2024-07-20T11:55:14.241Z</time>
      </trkpt>
      <trkpt lat="53.62912" lon="11.37997">
        <ele>102.461152</ele>
        <time>2024-07-20T11:55:16.234Z</time>
      </trkpt>
      <trkpt lat="53.62912" lon="11.3802">
        <ele>101.787754</ele>
        <time>2024-07-20T11:55:18.235Z</time>
      </trkpt>
      <trkpt lat="53.62912" lon="11.38043">
        <ele>101.013553</ele>
        <time>2024-07-20T11:55:20.232Z</time>
      </trkpt>
      <trkpt lat="53.62912" lon="11.38068">
        <ele>100.188642</ele>
        <time>2024-07-20T11:55:22.232Z</time>
      </trkpt>
      <trkpt lat="53.62912" lon="11.38094">
        <ele>99.30966</ele>
        <time>2024-07-20T11:55:24.240Z</time>
      </trkpt>
      <trkpt lat="53.62909" lon="11.38119">
        <ele>98.423988</ele>
        <time>2024-07-20T11:55:26.229Z</time>
      </trkpt>
      <trkpt lat="53.62904" lon="11.38144">
        <ele>97.530633</ele>
        <time>2024-07-20T11:55:28.246Z</time>
      </trkpt>
      <trkpt lat="53.62898" lon="11.38169">
        <ele>96.623872</ele>
        <time>2024-07-20T11:55:30.244Z</time>
      </trkpt>
      <trkpt lat="53.62891" lon="11.38196">
        <ele>95.656535</ele>
        <time>2024-07-20T11:55:32.237Z</time>
      </trkpt>
      <trkpt lat="53.62886" lon="11.38223">
        <ele>94.682518</ele>
        <time>2024-07-20T11:55:34.234Z</time>
      </trkpt>
      <trkpt lat="53.62881" lon="11.38251">
        <ele>93.677436</ele>
        <time>2024-07-20T11:55:36.259Z</time>
      </trkpt>
      <trkpt lat="53.62878" lon="11.38281">
        <ele>92.652564</ele>
        <time>2024-07-20T11:55:38.240Z</time>
      </trkpt>
      <trkpt lat="53.62875" lon="11.38312">
        <ele>91.817509</ele>
        <time>2024-07-20T11:55:40.252Z</time>
      </trkpt>
      <trkpt lat="53.62872" lon="11.3834">
        <ele>91.522987</ele>
        <time>2024-07-20T11:55:42.235Z</time>
      </trkpt>
      <trkpt lat="53.6287" lon="11.38365">
        <ele>91.25812</ele>
        <time>2024-07-20T11:55:44.251Z</time>
      </trkpt>
      <trkpt lat="53.62869" lon="11.38388">
        <ele>91.015729</ele>
        <time>2024-07-20T11:55:46.236Z</time>
      </trkpt>
      <trkpt lat="53.62867" lon="11.38409">
        <ele>90.791639</ele>
        <time>2024-07-20T11:55:48.241Z</time>
      </trkpt>
      <trkpt lat="53.62866" lon="11.38428">
        <ele>90.593499</ele>
        <time>2024-07-20T11:55:50.247Z</time>
      </trkpt>
      <trkpt lat="53.62865" lon="11.38446">
        <ele>90.411766</ele>
        <time>2024-07-20T11:55:52.224Z</time>
      </trkpt>
      <trkpt lat="53.62857" lon="11.38459">
        <ele>90.208641</ele>
        <time>2024-07-20T11:55:55.224Z</time>
      </trkpt>
      <trkpt lat="53.62847" lon="11.3846">
        <ele>90.041784</ele>
        <time>2024-07-20T11:55:57.230Z</time>
      </trkpt>
      <trkpt lat="53.62837" lon="11.38455">
        <ele>89.863787</ele>
        <time>2024-07-20T11:55:59.233Z</time>
      </trkpt>
      <trkpt lat="53.62828" lon="11.38449">
        <ele>89.685072</ele>
        <time>2024-07-20T11:56:01.310Z</time>
      </trkpt>
      <trkpt lat="53.62819" lon="11.38443">
        <ele>89.512436</ele>
        <time>2024-07-20T11:56:03.225Z</time>
      </trkpt>
      <trkpt lat="53.62808" lon="11.38431">
        <ele>89.287185</ele>
        <time>2024-07-20T11:56:06.226Z</time>
      </trkpt>
      <trkpt lat="53.62799" lon="11.3842">
        <ele>89.083471</ele>
        <time>2024-07-20T11:56:09.234Z</time>
      </trkpt>
      <trkpt lat="53.62789" lon="11.38412">
        <ele>88.896262</ele>
        <time>2024-07-20T11:56:12.251Z</time>
      </trkpt>
      <trkpt lat="53.62781" lon="11.38403">
        <ele>88.729303</ele>
        <time>2024-07-20T11:56:15.236Z</time>
      </trkpt>
      <trkpt lat="53.62773" lon="11.38392">
        <ele>88.555802</ele>
        <time>2024-07-20T11:56:18.247Z</time>
      </trkpt>
      <trkpt lat="53.62765" lon="11.38384">
        <ele>88.397422</ele>
        <time>2024-07-20T11:56:21.265Z</time>
      </trkpt>
      <trkpt lat="53.62755" lon="11.38374">
        <ele>88.201563</ele>
        <time>2024-07-20T11:56:25.237Z</time>
      </trkpt>
      <trkpt lat="53.62747" lon="11.38366">
        <ele>88.044556</ele>
        <time>2024-07-20T11:56:28.243Z</time>
      </trkpt>
      <trkpt lat="53.62738" lon="11.38358">
        <ele>87.872798</ele>
        <time>2024-07-20T11:56:31.269Z</time>
      </trkpt>
      <trkpt lat="53.62728" lon="11.3835">
        <ele>87.68731</ele>
        <time>2024-07-20T11:56:34.238Z</time>
      </trkpt>
      <trkpt lat="53.62718" lon="11.38344">
        <ele>87.499229</ele>
        <time>2024-07-20T11:56:37.223Z</time>
      </trkpt>
      <trkpt lat="53.62708" lon="11.38336">
        <ele>87.314395</ele>
        <time>2024-07-20T11:56:40.248Z</time>
      </trkpt>
      <trkpt lat="53.62698" lon="11.38331">
        <ele>87.135842</ele>
        <time>2024-07-20T11:56:43.217Z</time>
      </trkpt>
      <trkpt lat="53.62688" lon="11.38325">
        <ele>86.950329</ele>
        <time>2024-07-20T11:56:46.241Z</time>
      </trkpt>
      <trkpt lat="53.62677" lon="11.38316">
        <ele>86.752932</ele>
        <time>2024-07-20T11:56:49.229Z</time>
      </trkpt>
      <trkpt lat="53.62668" lon="11.38309">
        <ele>86.579308</ele>
        <time>2024-07-20T11:56:52.236Z</time>
      </trkpt>
      <trkpt lat="53.6266" lon="11.38319">
        <ele>86.414219</ele>
        <time>2024-07-20T11:56:56.240Z</time>
      </trkpt>
      <trkpt lat="53.62656" lon="11.38333">
        <ele>86.260313</ele>
        <time>2024-07-20T11:56:59.228Z</time>
      </trkpt>
      <trkpt lat="53.62651" lon="11.38347">
        <ele>86.091858</ele>
        <time>2024-07-20T11:57:02.236Z</time>
      </trkpt>
      <trkpt lat="53.62646" lon="11.38361">
        <ele>85.937222</ele>
        <time>2024-07-20T11:57:05.224Z</time>
      </trkpt>
      <trkpt lat="53.62641" lon="11.38374">
        <ele>85.775452</ele>
        <time>2024-07-20T11:57:08.240Z</time>
      </trkpt>
      <trkpt lat="53.62634" lon="11.38391">
        <ele>85.623323</ele>
        <time>2024-07-20T11:57:12.259Z</time>
      </trkpt>
      <trkpt lat="53.62628" lon="11.38405">
        <ele>85.521686</ele>
        <time>2024-07-20T11:57:14.250Z</time>
      </trkpt>
      <trkpt lat="53.62621" lon="11.3842">
        <ele>85.404742</ele>
        <time>2024-07-20T11:57:16.243Z</time>
      </trkpt>
      <trkpt lat="53.62613" lon="11.38431">
        <ele>85.305615</ele>
        <time>2024-07-20T11:57:18.236Z</time>
      </trkpt>
      <trkpt lat="53.62604" lon="11.38425">
        <ele>85.204467</ele>
        <time>2024-07-20T11:57:21.274Z</time>
      </trkpt>
      <trkpt lat="53.62596" lon="11.38417">
        <ele>85.114621</ele>
        <time>2024-07-20T11:57:24.242Z</time>
      </trkpt>
      <trkpt lat="53.62589" lon="11.38407">
        <ele>85.021622</ele>
        <time>2024-07-20T11:57:28.247Z</time>
      </trkpt>
      <trkpt lat="53.6258" lon="11.38397">
        <ele>84.914674</ele>
        <time>2024-07-20T11:57:31.290Z</time>
      </trkpt>
      <trkpt lat="53.62572" lon="11.38388">
        <ele>84.810683</ele>
        <time>2024-07-20T11:57:34.248Z</time>
      </trkpt>
      <trkpt lat="53.62561" lon="11.38377">
        <ele>84.68761</ele>
        <time>2024-07-20T11:57:37.234Z</time>
      </trkpt>
      <trkpt lat="53.62551" lon="11.38366">
        <ele>84.565597</ele>
        <time>2024-07-20T11:57:40.239Z</time>
      </trkpt>
      <trkpt lat="53.62541" lon="11.38355">
        <ele>84.443058</ele>
        <time>2024-07-20T11:57:43.226Z</time>
      </trkpt>
      <trkpt lat="53.62531" lon="11.38344">
        <ele>84.325569</ele>
        <time>2024-07-20T11:57:46.246Z</time>
      </trkpt>
      <trkpt lat="53.62522" lon="11.38333">
        <ele>84.211245</ele>
        <time>2024-07-20T11:57:49.234Z</time>
      </trkpt>
      <trkpt lat="53.62512" lon="11.38322">
        <ele>84.092409</ele>
        <time>2024-07-20T11:57:52.250Z</time>
      </trkpt>
      <trkpt lat="53.62501" lon="11.38312">
        <ele>83.972354</ele>
        <time>2024-07-20T11:57:55.234Z</time>
      </trkpt>
      <trkpt lat="53.62491" lon="11.383">
        <ele>83.899385</ele>
        <time>2024-07-20T11:57:58.221Z</time>
      </trkpt>
      <trkpt lat="53.62481" lon="11.38288">
        <ele>83.897255</ele>
        <time>2024-07-20T11:58:01.296Z</time>
      </trkpt>
      <trkpt lat="53.62471" lon="11.38277">
        <ele>83.895139</ele>
        <time>2024-07-20T11:58:04.235Z</time>
      </trkpt>
      <trkpt lat="53.62461" lon="11.38266">
        <ele>83.893135</ele>
        <time>2024-07-20T11:58:07.242Z</time>
      </trkpt>
      <trkpt lat="53.62451" lon="11.38256">
        <ele>83.891164</ele>
        <time>2024-07-20T11:58:10.249Z</time>
      </trkpt>
      <trkpt lat="53.62442" lon="11.38244">
        <ele>83.889232</ele>
        <time>2024-07-20T11:58:13.247Z</time>
      </trkpt>
      <trkpt lat="53.62432" lon="11.38248">
        <ele>83.887493</ele>
        <time>2024-07-20T11:58:18.214Z</time>
      </trkpt>
      <trkpt lat="53.62426" lon="11.38263">
        <ele>83.885586</ele>
        <time>2024-07-20T11:58:24.228Z</time>
      </trkpt>
      <trkpt lat="53.62417" lon="11.38273">
        <ele>83.8838</ele>
        <time>2024-07-20T11:58:28.238Z</time>
      </trkpt>
      <trkpt lat="53.62407" lon="11.3828">
        <ele>83.881907</ele>
        <time>2024-07-20T11:58:32.232Z</time>
      </trkpt>
      <trkpt lat="53.62398" lon="11.38291">
        <ele>83.879988</ele>
        <time>2024-07-20T11:58:36.240Z</time>
      </trkpt>
      <trkpt lat="53.62387" lon="11.38296">
        <ele>83.878097</ele>
        <time>2024-07-20T11:58:40.208Z</time>
      </trkpt>
      <trkpt lat="53.62378" lon="11.38306">
        <ele>83.876262</ele>
        <time>2024-07-20T11:58:44.228Z</time>
      </trkpt>
      <trkpt lat="53.62375" lon="11.38321">
        <ele>83.874617</ele>
        <time>2024-07-20T11:58:49.231Z</time>
      </trkpt>
      <trkpt lat="53.62373" lon="11.38336">
        <ele>83.873057</ele>
        <time>2024-07-20T11:58:58.225Z</time>
      </trkpt>
      <trkpt lat="53.62371" lon="11.38352">
        <ele>83.87145</ele>
        <time>2024-07-20T11:59:04.230Z</time>
      </trkpt>
      <trkpt lat="53.6237" lon="11.38353">
        <ele>83.871259</ele>
        <time>2024-07-20T11:59:09.589Z</time>
      </trkpt>
      <trkpt lat="53.6237" lon="11.38374">
        <ele>83.879991</ele>
        <time>2024-07-20T11:59:52.240Z</time>
      </trkpt>
      <trkpt lat="53.62369" lon="11.38391">
        <ele>83.95495</ele>
        <time>2024-07-20T11:59:55.248Z</time>
      </trkpt>
      <trkpt lat="53.62367" lon="11.38411">
        <ele>84.039923</ele>
        <time>2024-07-20T11:59:58.237Z</time>
      </trkpt>
      <trkpt lat="53.62366" lon="11.3843">
        <ele>84.121474</ele>
        <time>2024-07-20T12:00:01.241Z</time>
      </trkpt>
      <trkpt lat="53.62365" lon="11.38451">
        <ele>84.210607</ele>
        <time>2024-07-20T12:00:04.236Z</time>
      </trkpt>
      <trkpt lat="53.62366" lon="11.38471">
        <ele>84.294801</ele>
        <time>2024-07-20T12:00:07.259Z</time>
      </trkpt>
      <trkpt lat="53.62362" lon="11.3849">
        <ele>84.38083</ele>
        <time>2024-07-20T12:00:10.220Z</time>
      </trkpt>
      <trkpt lat="53.62353" lon="11.38508">
        <ele>84.477211</ele>
        <time>2024-07-20T12:00:13.238Z</time>
      </trkpt>
      <trkpt lat="53.62347" lon="11.38519">
        <ele>84.541173</ele>
        <time>2024-07-20T12:00:15.238Z</time>
      </trkpt>
      <trkpt lat="53.62338" lon="11.38536">
        <ele>84.635514</ele>
        <time>2024-07-20T12:00:18.235Z</time>
      </trkpt>
      <trkpt lat="53.62332" lon="11.38548">
        <ele>84.701658</ele>
        <time>2024-07-20T12:00:20.220Z</time>
      </trkpt>
      <trkpt lat="53.62323" lon="11.38563">
        <ele>84.793724</ele>
        <time>2024-07-20T12:00:23.229Z</time>
      </trkpt>
      <trkpt lat="53.62311" lon="11.38575">
        <ele>84.888203</ele>
        <time>2024-07-20T12:00:26.230Z</time>
      </trkpt>
      <trkpt lat="53.62303" lon="11.38582">
        <ele>84.957026</ele>
        <time>2024-07-20T12:00:28.242Z</time>
      </trkpt>
      <trkpt lat="53.62294" lon="11.38593">
        <ele>85.033756</ele>
        <time>2024-07-20T12:00:30.259Z</time>
      </trkpt>
      <trkpt lat="53.62284" lon="11.38604">
        <ele>85.116154</ele>
        <time>2024-07-20T12:00:32.213Z</time>
      </trkpt>
      <trkpt lat="53.62275" lon="11.38615">
        <ele>85.222048</ele>
        <time>2024-07-20T12:00:34.248Z</time>
      </trkpt>
      <trkpt lat="53.62267" lon="11.38626">
        <ele>85.336628</ele>
        <time>2024-07-20T12:00:36.234Z</time>
      </trkpt>
      <trkpt lat="53.62259" lon="11.38639">
        <ele>85.450505</ele>
        <time>2024-07-20T12:00:38.236Z</time>
      </trkpt>
      <trkpt lat="53.62252" lon="11.38651">
        <ele>85.560644</ele>
        <time>2024-07-20T12:00:40.214Z</time>
      </trkpt>
      <trkpt lat="53.62246" lon="11.38665">
        <ele>85.666695</ele>
        <time>2024-07-20T12:00:42.240Z</time>
      </trkpt>
      <trkpt lat="53.62241" lon="11.38677">
        <ele>85.764927</ele>
        <time>2024-07-20T12:00:44.232Z</time>
      </trkpt>
      <trkpt lat="53.62236" lon="11.38691">
        <ele>85.864692</ele>
        <time>2024-07-20T12:00:46.252Z</time>
      </trkpt>
      <trkpt lat="53.62229" lon="11.38708">
        <ele>86.001359</ele>
        <time>2024-07-20T12:00:49.244Z</time>
      </trkpt>
      <trkpt lat="53.62221" lon="11.38726">
        <ele>86.141016</ele>
        <time>2024-07-20T12:00:52.232Z</time>
      </trkpt>
      <trkpt lat="53.62216" lon="11.38746">
        <ele>86.281735</ele>
        <time>2024-07-20T12:00:55.240Z</time>
      </trkpt>
      <trkpt lat="53.62213" lon="11.3876">
        <ele>86.377887</ele>
        <time>2024-07-20T12:00:57.227Z</time>
      </trkpt>
      <trkpt lat="53.62211" lon="11.38777">
        <ele>86.486264</ele>
        <time>2024-07-20T12:00:59.235Z</time>
      </trkpt>
      <trkpt lat="53.62207" lon="11.38793">
        <ele>86.600357</ele>
        <time>2024-07-20T12:01:01.254Z</time>
      </trkpt>
      <trkpt lat="53.62204" lon="11.3881">
        <ele>86.711772</ele>
        <time>2024-07-20T12:01:03.229Z</time>
      </trkpt>
      <trkpt lat="53.62204" lon="11.38827">
        <ele>86.816843</ele>
        <time>2024-07-20T12:01:05.232Z</time>
      </trkpt>
      <trkpt lat="53.62209" lon="11.38847">
        <ele>86.957351</ele>
        <time>2024-07-20T12:01:08.238Z</time>
      </trkpt>
      <trkpt lat="53.62216" lon="11.3886">
        <ele>87.066799</ele>
        <time>2024-07-20T12:01:11.223Z</time>
      </trkpt>
      <trkpt lat="53.62225" lon="11.38872">
        <ele>87.174965</ele>
        <time>2024-07-20T12:01:15.249Z</time>
      </trkpt>
      <trkpt lat="53.62233" lon="11.3888">
        <ele>87.263417</ele>
        <time>2024-07-20T12:01:19.222Z</time>
      </trkpt>
      <trkpt lat="53.62241" lon="11.38889">
        <ele>87.350292</ele>
        <time>2024-07-20T12:01:23.228Z</time>
      </trkpt>
      <trkpt lat="53.62249" lon="11.389">
        <ele>87.449914</ele>
        <time>2024-07-20T12:01:28.249Z</time>
      </trkpt>
      <trkpt lat="53.62255" lon="11.38913">
        <ele>87.53647</ele>
        <time>2024-07-20T12:01:32.237Z</time>
      </trkpt>
      <trkpt lat="53.62259" lon="11.38927">
        <ele>87.625777</ele>
        <time>2024-07-20T12:01:36.242Z</time>
      </trkpt>
      <trkpt lat="53.62264" lon="11.38941">
        <ele>87.712616</ele>
        <time>2024-07-20T12:01:40.242Z</time>
      </trkpt>
      <trkpt lat="53.6227" lon="11.38955">
        <ele>87.807297</ele>
        <time>2024-07-20T12:01:45.228Z</time>
      </trkpt>
      <trkpt lat="53.62272" lon="11.38973">
        <ele>87.909936</ele>
        <time>2024-07-20T12:01:51.227Z</time>
      </trkpt>
      <trkpt lat="53.62275" lon="11.38988">
        <ele>87.996792</ele>
        <time>2024-07-20T12:01:55.226Z</time>
      </trkpt>
      <trkpt lat="53.62279" lon="11.39004">
        <ele>88.090414</ele>
        <time>2024-07-20T12:01:59.235Z</time>
      </trkpt>
      <trkpt lat="53.62283" lon="11.39018">
        <ele>88.177895</ele>
        <time>2024-07-20T12:02:03.230Z</time>
      </trkpt>
      <trkpt lat="53.62286" lon="11.39035">
        <ele>88.27548</ele>
        <time>2024-07-20T12:02:08.241Z</time>
      </trkpt>
      <trkpt lat="53.62286" lon="11.3905">
        <ele>88.35951</ele>
        <time>2024-07-20T12:02:12.241Z</time>
      </trkpt>
      <trkpt lat="53.62286" lon="11.39069">
        <ele>88.461669</ele>
        <time>2024-07-20T12:02:39.228Z</time>
      </trkpt>
      <trkpt lat="53.62285" lon="11.39089">
        <ele>88.569988</ele>
        <time>2024-07-20T12:02:44.240Z</time>
      </trkpt>
      <trkpt lat="53.62282" lon="11.39107">
        <ele>88.676809</ele>
        <time>2024-07-20T12:02:47.239Z</time>
      </trkpt>
      <trkpt lat="53.62281" lon="11.39129">
        <ele>88.697878</ele>
        <time>2024-07-20T12:02:50.237Z</time>
      </trkpt>
      <trkpt lat="53.62279" lon="11.39147">
        <ele>88.616959</ele>
        <time>2024-07-20T12:02:52.242Z</time>
      </trkpt>
      <trkpt lat="53.62277" lon="11.39163">
        <ele>88.544725</ele>
        <time>2024-07-20T12:02:54.259Z</time>
      </trkpt>
      <trkpt lat="53.62276" lon="11.3918">
        <ele>88.472577</ele>
        <time>2024-07-20T12:02:56.232Z</time>
      </trkpt>
      <trkpt lat="53.62275" lon="11.39203">
        <ele>88.36851</ele>
        <time>2024-07-20T12:02:59.230Z</time>
      </trkpt>
      <trkpt lat="53.62271" lon="11.39219">
        <ele>88.290748</ele>
        <time>2024-07-20T12:03:01.255Z</time>
      </trkpt>
      <trkpt lat="53.62267" lon="11.39234">
        <ele>88.217445</ele>
        <time>2024-07-20T12:03:03.207Z</time>
      </trkpt>
      <trkpt lat="53.62263" lon="11.3925">
        <ele>88.139245</ele>
        <time>2024-07-20T12:03:05.247Z</time>
      </trkpt>
      <trkpt lat="53.62257" lon="11.39266">
        <ele>88.056524</ele>
        <time>2024-07-20T12:03:07.245Z</time>
      </trkpt>
      <trkpt lat="53.62252" lon="11.39283">
        <ele>87.972162</ele>
        <time>2024-07-20T12:03:09.230Z</time>
      </trkpt>
      <trkpt lat="53.62248" lon="11.39301">
        <ele>87.886684</ele>
        <time>2024-07-20T12:03:11.219Z</time>
      </trkpt>
      <trkpt lat="53.62245" lon="11.3932">
        <ele>87.797588</ele>
        <time>2024-07-20T12:03:13.235Z</time>
      </trkpt>
      <trkpt lat="53.62244" lon="11.39341">
        <ele>87.706462</ele>
        <time>2024-07-20T12:03:15.222Z</time>
      </trkpt>
      <trkpt lat="53.62244" lon="11.39361">
        <ele>87.616901</ele>
        <time>2024-07-20T12:03:17.237Z</time>
      </trkpt>
      <trkpt lat="53.62243" lon="11.3938">
        <ele>87.532598</ele>
        <time>2024-07-20T12:03:19.233Z</time>
      </trkpt>
      <trkpt lat="53.62242" lon="11.39397">
        <ele>87.453001</ele>
        <time>2024-07-20T12:03:21.254Z</time>
      </trkpt>
      <trkpt lat="53.62241" lon="11.39415">
        <ele>87.368781</ele>
        <time>2024-07-20T12:03:23.247Z</time>
      </trkpt>
      <trkpt lat="53.6224" lon="11.39432">
        <ele>87.252124</ele>
        <time>2024-07-20T12:03:25.231Z</time>
      </trkpt>
      <trkpt lat="53.6224" lon="11.39449">
        <ele>87.140388</ele>
        <time>2024-07-20T12:03:27.232Z</time>
      </trkpt>
      <trkpt lat="53.62239" lon="11.39466">
        <ele>87.031989</ele>
        <time>2024-07-20T12:03:29.249Z</time>
      </trkpt>
      <trkpt lat="53.62238" lon="11.39482">
        <ele>86.922621</ele>
        <time>2024-07-20T12:03:31.253Z</time>
      </trkpt>
      <trkpt lat="53.62238" lon="11.39499">
        <ele>86.812911</ele>
        <time>2024-07-20T12:03:33.231Z</time>
      </trkpt>
      <trkpt lat="53.62237" lon="11.39516">
        <ele>86.704292</ele>
        <time>2024-07-20T12:03:35.231Z</time>
      </trkpt>
      <trkpt lat="53.62233" lon="11.39534">
        <ele>86.574235</ele>
        <time>2024-07-20T12:03:38.220Z</time>
      </trkpt>
      <trkpt lat="53.62227" lon="11.3955">
        <ele>86.454034</ele>
        <time>2024-07-20T12:03:40.214Z</time>
      </trkpt>
      <trkpt lat="53.62222" lon="11.39564">
        <ele>86.346575</ele>
        <time>2024-07-20T12:03:42.233Z</time>
      </trkpt>
      <trkpt lat="53.62216" lon="11.39576">
        <ele>86.242273</ele>
        <time>2024-07-20T12:03:44.212Z</time>
      </trkpt>
      <trkpt lat="53.6221" lon="11.39588">
        <ele>86.136139</ele>
        <time>2024-07-20T12:03:46.236Z</time>
      </trkpt>
      <trkpt lat="53.62202" lon="11.396">
        <ele>86.019601</ele>
        <time>2024-07-20T12:03:48.233Z</time>
      </trkpt>
      <trkpt lat="53.62194" lon="11.39611">
        <ele>85.901366</ele>
        <time>2024-07-20T12:03:50.231Z</time>
      </trkpt>
      <trkpt lat="53.62185" lon="11.39623">
        <ele>85.776984</ele>
        <time>2024-07-20T12:03:52.242Z</time>
      </trkpt>
      <trkpt lat="53.62175" lon="11.39635">
        <ele>85.644665</ele>
        <time>2024-07-20T12:03:54.239Z</time>
      </trkpt>
      <trkpt lat="53.62165" lon="11.39646">
        <ele>85.513505</ele>
        <time>2024-07-20T12:03:56.234Z</time>
      </trkpt>
      <trkpt lat="53.62156" lon="11.39658">
        <ele>85.380008</ele>
        <time>2024-07-20T12:03:58.235Z</time>
      </trkpt>
      <trkpt lat="53.62147" lon="11.39669">
        <ele>85.200297</ele>
        <time>2024-07-20T12:04:00.237Z</time>
      </trkpt>
      <trkpt lat="53.62139" lon="11.39679">
        <ele>85.029369</ele>
        <time>2024-07-20T12:04:02.250Z</time>
      </trkpt>
      <trkpt lat="53.62131" lon="11.3969">
        <ele>84.869587</ele>
        <time>2024-07-20T12:04:04.238Z</time>
      </trkpt>
      <trkpt lat="53.62124" lon="11.397">
        <ele>84.71047</ele>
        <time>2024-07-20T12:04:06.234Z</time>
      </trkpt>
      <trkpt lat="53.62117" lon="11.39711">
        <ele>84.552261</ele>
        <time>2024-07-20T12:04:08.237Z</time>
      </trkpt>
      <trkpt lat="53.62109" lon="11.39721">
        <ele>84.397516</ele>
        <time>2024-07-20T12:04:10.251Z</time>
      </trkpt>
      <trkpt lat="53.621" lon="11.39728">
        <ele>84.239224</ele>
        <time>2024-07-20T12:04:12.225Z</time>
      </trkpt>
      <trkpt lat="53.62092" lon="11.39737">
        <ele>84.076187</ele>
        <time>2024-07-20T12:04:14.224Z</time>
      </trkpt>
      <trkpt lat="53.62081" lon="11.39747">
        <ele>83.874931</ele>
        <time>2024-07-20T12:04:17.219Z</time>
      </trkpt>
      <trkpt lat="53.62075" lon="11.39759">
        <ele>83.727609</ele>
        <time>2024-07-20T12:04:21.224Z</time>
      </trkpt>
      <trkpt lat="53.62067" lon="11.3977">
        <ele>83.559195</ele>
        <time>2024-07-20T12:04:32.215Z</time>
      </trkpt>
      <trkpt lat="53.62055" lon="11.39771">
        <ele>83.368648</ele>
        <time>2024-07-20T12:04:36.236Z</time>
      </trkpt>
      <trkpt lat="53.62047" lon="11.39784">
        <ele>83.180238</ele>
        <time>2024-07-20T12:04:39.237Z</time>
      </trkpt>
      <trkpt lat="53.6204" lon="11.39801">
        <ele>82.986029</ele>
        <time>2024-07-20T12:04:42.239Z</time>
      </trkpt>
      <trkpt lat="53.62034" lon="11.39812">
        <ele>82.836316</ele>
        <time>2024-07-20T12:04:44.235Z</time>
      </trkpt>
      <trkpt lat="53.62026" lon="11.39826">
        <ele>82.654785</ele>
        <time>2024-07-20T12:04:47.225Z</time>
      </trkpt>
      <trkpt lat="53.62017" lon="11.39831">
        <ele>82.505574</ele>
        <time>2024-07-20T12:04:51.229Z</time>
      </trkpt>
      <trkpt lat="53.62011" lon="11.39847">
        <ele>82.329269</ele>
        <time>2024-07-20T12:05:09.237Z</time>
      </trkpt>
      <trkpt lat="53.62011" lon="11.39862">
        <ele>82.188872</ele>
        <time>2024-07-20T12:05:13.232Z</time>
      </trkpt>
      <trkpt lat="53.62006" lon="11.39881">
        <ele>82.002922</ele>
        <time>2024-07-20T12:05:17.231Z</time>
      </trkpt>
      <trkpt lat="53.62001" lon="11.39898">
        <ele>81.834299</ele>
        <time>2024-07-20T12:05:20.244Z</time>
      </trkpt>
      <trkpt lat="53.61996" lon="11.39912">
        <ele>81.682305</ele>
        <time>2024-07-20T12:05:23.232Z</time>
      </trkpt>
      <trkpt lat="53.61992" lon="11.39929">
        <ele>81.523941</ele>
        <time>2024-07-20T12:05:26.236Z</time>
      </trkpt>
      <trkpt lat="53.6199" lon="11.39944">
        <ele>81.374996</ele>
        <time>2024-07-20T12:05:28.240Z</time>
      </trkpt>
      <trkpt lat="53.61986" lon="11.3996">
        <ele>81.224768</ele>
        <time>2024-07-20T12:05:30.232Z</time>
      </trkpt>
      <trkpt lat="53.61982" lon="11.39974">
        <ele>81.078044</ele>
        <time>2024-07-20T12:05:32.230Z</time>
      </trkpt>
      <trkpt lat="53.61978" lon="11.39989">
        <ele>80.933006</ele>
        <time>2024-07-20T12:05:34.235Z</time>
      </trkpt>
      <trkpt lat="53.61973" lon="11.40003">
        <ele>80.78962</ele>
        <time>2024-07-20T12:05:36.255Z</time>
      </trkpt>
      <trkpt lat="53.61967" lon="11.40022">
        <ele>80.592949</ele>
        <time>2024-07-20T12:05:39.238Z</time>
      </trkpt>
      <trkpt lat="53.61961" lon="11.4004">
        <ele>80.408307</ele>
        <time>2024-07-20T12:05:42.231Z</time>
      </trkpt>
      <trkpt lat="53.61956" lon="11.40059">
        <ele>80.215646</ele>
        <time>2024-07-20T12:05:45.230Z</time>
      </trkpt>
      <trkpt lat="53.6195" lon="11.40079">
        <ele>80.014247</ele>
        <time>2024-07-20T12:05:48.236Z</time>
      </trkpt>
      <trkpt lat="53.61943" lon="11.40096">
        <ele>79.819245</ele>
        <time>2024-07-20T12:05:51.231Z</time>
      </trkpt>
      <trkpt lat="53.61936" lon="11.40115">
        <ele>79.685296</ele>
        <time>2024-07-20T12:05:54.232Z</time>
      </trkpt>
      <trkpt lat="53.61931" lon="11.4013">
        <ele>79.623325</ele>
        <time>2024-07-20T12:05:56.234Z</time>
      </trkpt>
      <trkpt lat="53.61927" lon="11.40144">
        <ele>79.561335</ele>
        <time>2024-07-20T12:05:58.244Z</time>
      </trkpt>
      <trkpt lat="53.61923" lon="11.40159">
        <ele>79.499126</ele>
        <time>2024-07-20T12:06:00.215Z</time>
      </trkpt>
      <trkpt lat="53.61918" lon="11.40174">
        <ele>79.435888</ele>
        <time>2024-07-20T12:06:02.256Z</time>
      </trkpt>
      <trkpt lat="53.61913" lon="11.40188">
        <ele>79.371641</ele>
        <time>2024-07-20T12:06:04.250Z</time>
      </trkpt>
      <trkpt lat="53.61908" lon="11.40203">
        <ele>79.305754</ele>
        <time>2024-07-20T12:06:06.259Z</time>
      </trkpt>
      <trkpt lat="53.61903" lon="11.40217">
        <ele>79.244424</ele>
        <time>2024-07-20T12:06:08.236Z</time>
      </trkpt>
      <trkpt lat="53.61898" lon="11.4023">
        <ele>79.186361</ele>
        <time>2024-07-20T12:06:10.249Z</time>
      </trkpt>
      <trkpt lat="53.61893" lon="11.40244">
        <ele>79.124306</ele>
        <time>2024-07-20T12:06:12.243Z</time>
      </trkpt>
      <trkpt lat="53.61889" lon="11.40258">
        <ele>79.065726</ele>
        <time>2024-07-20T12:06:14.240Z</time>
      </trkpt>
      <trkpt lat="53.61884" lon="11.40271">
        <ele>79.007021</ele>
        <time>2024-07-20T12:06:16.243Z</time>
      </trkpt>
      <trkpt lat="53.61878" lon="11.40289">
        <ele>78.928068</ele>
        <time>2024-07-20T12:06:19.235Z</time>
      </trkpt>
      <trkpt lat="53.61874" lon="11.40306">
        <ele>78.859552</ele>
        <time>2024-07-20T12:06:22.243Z</time>
      </trkpt>
      <trkpt lat="53.61871" lon="11.40321">
        <ele>78.800838</ele>
        <time>2024-07-20T12:06:25.227Z</time>
      </trkpt>
      <trkpt lat="53.61868" lon="11.4034">
        <ele>78.723024</ele>
        <time>2024-07-20T12:06:29.241Z</time>
      </trkpt>
      <trkpt lat="53.61866" lon="11.40358">
        <ele>78.656067</ele>
        <time>2024-07-20T12:06:32.231Z</time>
      </trkpt>
      <trkpt lat="53.61863" lon="11.40378">
        <ele>78.577096</ele>
        <time>2024-07-20T12:06:35.229Z</time>
      </trkpt>
      <trkpt lat="53.6186" lon="11.40399">
        <ele>78.488544</ele>
        <time>2024-07-20T12:06:38.233Z</time>
      </trkpt>
      <trkpt lat="53.61857" lon="11.4042">
        <ele>78.399198</ele>
        <time>2024-07-20T12:06:41.257Z</time>
      </trkpt>
      <trkpt lat="53.61855" lon="11.40435">
        <ele>78.334524</ele>
        <time>2024-07-20T12:06:43.239Z</time>
      </trkpt>
      <trkpt lat="53.61853" lon="11.40451">
        <ele>78.269691</ele>
        <time>2024-07-20T12:06:45.232Z</time>
      </trkpt>
      <trkpt lat="53.61853" lon="11.40466">
        <ele>78.207318</ele>
        <time>2024-07-20T12:06:47.231Z</time>
      </trkpt>
      <trkpt lat="53.61855" lon="11.40481">
        <ele>78.144723</ele>
        <time>2024-07-20T12:06:49.230Z</time>
      </trkpt>
      <trkpt lat="53.61857" lon="11.40501">
        <ele>78.059524</ele>
        <time>2024-07-20T12:06:52.223Z</time>
      </trkpt>
      <trkpt lat="53.6186" lon="11.4052">
        <ele>77.981366</ele>
        <time>2024-07-20T12:06:55.234Z</time>
      </trkpt>
      <trkpt lat="53.61865" lon="11.4054">
        <ele>77.894511</ele>
        <time>2024-07-20T12:06:58.251Z</time>
      </trkpt>
      <trkpt lat="53.61869" lon="11.40553">
        <ele>77.832291</ele>
        <time>2024-07-20T12:07:00.228Z</time>
      </trkpt>
      <trkpt lat="53.61873" lon="11.40566">
        <ele>77.769816</ele>
        <time>2024-07-20T12:07:02.237Z</time>
      </trkpt>
      <trkpt lat="53.6188" lon="11.40586">
        <ele>77.676641</ele>
        <time>2024-07-20T12:07:05.231Z</time>
      </trkpt>
      <trkpt lat="53.61886" lon="11.40604">
        <ele>77.591221</ele>
        <time>2024-07-20T12:07:08.231Z</time>
      </trkpt>
      <trkpt lat="53.61891" lon="11.40618">
        <ele>77.526594</ele>
        <time>2024-07-20T12:07:10.238Z</time>
      </trkpt>
      <trkpt lat="53.61898" lon="11.40636">
        <ele>77.43872</ele>
        <time>2024-07-20T12:07:13.230Z</time>
      </trkpt>
      <trkpt lat="53.61903" lon="11.40649">
        <ele>77.371193</ele>
        <time>2024-07-20T12:07:15.217Z</time>
      </trkpt>
      <trkpt lat="53.61908" lon="11.40662">
        <ele>77.444513</ele>
        <time>2024-07-20T12:07:17.226Z</time>
      </trkpt>
      <trkpt lat="53.61915" lon="11.40681">
        <ele>77.734727</ele>
        <time>2024-07-20T12:07:20.240Z</time>
      </trkpt>
      <trkpt lat="53.6192" lon="11.40696">
        <ele>77.971711</ele>
        <time>2024-07-20T12:07:23.225Z</time>
      </trkpt>
      <trkpt lat="53.61925" lon="11.40712">
        <ele>78.212131</ele>
        <time>2024-07-20T12:07:27.232Z</time>
      </trkpt>
      <trkpt lat="53.61921" lon="11.40728">
        <ele>78.433967</ele>
        <time>2024-07-20T12:07:32.224Z</time>
      </trkpt>
      <trkpt lat="53.61929" lon="11.40747">
        <ele>78.736976</ele>
        <time>2024-07-20T12:09:28.251Z</time>
      </trkpt>
      <trkpt lat="53.61933" lon="11.40764">
        <ele>78.984114</ele>
        <time>2024-07-20T12:09:32.239Z</time>
      </trkpt>
      <trkpt lat="53.61939" lon="11.40775">
        <ele>79.194391</ele>
        <time>2024-07-20T12:09:37.229Z</time>
      </trkpt>
      <trkpt lat="53.6195" lon="11.4077">
        <ele>79.453236</ele>
        <time>2024-07-20T12:09:41.232Z</time>
      </trkpt>
      <trkpt lat="53.61961" lon="11.40777">
        <ele>79.717513</ele>
        <time>2024-07-20T12:09:45.219Z</time>
      </trkpt>
      <trkpt lat="53.61969" lon="11.40788">
        <ele>79.946312</ele>
        <time>2024-07-20T12:09:48.219Z</time>
      </trkpt>
      <trkpt lat="53.61979" lon="11.40801">
        <ele>80.234412</ele>
        <time>2024-07-20T12:09:51.240Z</time>
      </trkpt>
      <trkpt lat="53.61988" lon="11.40814">
        <ele>80.508993</ele>
        <time>2024-07-20T12:09:54.259Z</time>
      </trkpt>
      <trkpt lat="53.61998" lon="11.40828">
        <ele>80.801775</ele>
        <time>2024-07-20T12:09:57.238Z</time>
      </trkpt>
      <trkpt lat="53.62008" lon="11.40843">
        <ele>81.098876</ele>
        <time>2024-07-20T12:10:00.230Z</time>
      </trkpt>
      <trkpt lat="53.62018" lon="11.40855">
        <ele>81.384355</ele>
        <time>2024-07-20T12:10:03.236Z</time>
      </trkpt>
      <trkpt lat="53.62028" lon="11.40869">
        <ele>81.541956</ele>
        <time>2024-07-20T12:10:06.238Z</time>
      </trkpt>
      <trkpt lat="53.62037" lon="11.40883">
        <ele>81.683598</ele>
        <time>2024-07-20T12:10:09.227Z</time>
      </trkpt>
      <trkpt lat="53.62045" lon="11.40898">
        <ele>81.821183</ele>
        <time>2024-07-20T12:10:12.217Z</time>
      </trkpt>
      <trkpt lat="53.62053" lon="11.40913">
        <ele>81.963253</ele>
        <time>2024-07-20T12:10:15.237Z</time>
      </trkpt>
      <trkpt lat="53.62059" lon="11.40931">
        <ele>82.104202</ele>
        <time>2024-07-20T12:10:18.225Z</time>
      </trkpt>
      <trkpt lat="53.62067" lon="11.40947">
        <ele>82.248575</ele>
        <time>2024-07-20T12:10:21.229Z</time>
      </trkpt>
      <trkpt lat="53.62075" lon="11.40963">
        <ele>82.386243</ele>
        <time>2024-07-20T12:10:24.238Z</time>
      </trkpt>
      <trkpt lat="53.6208" lon="11.4098">
        <ele>82.519011</ele>
        <time>2024-07-20T12:10:27.229Z</time>
      </trkpt>
      <trkpt lat="53.62086" lon="11.40995">
        <ele>82.638419</ele>
        <time>2024-07-20T12:10:30.235Z</time>
      </trkpt>
      <trkpt lat="53.62092" lon="11.41009">
        <ele>82.758807</ele>
        <time>2024-07-20T12:10:33.219Z</time>
      </trkpt>
      <trkpt lat="53.62099" lon="11.41019">
        <ele>82.866206</ele>
        <time>2024-07-20T12:10:36.230Z</time>
      </trkpt>
      <trkpt lat="53.62108" lon="11.41029">
        <ele>82.983815</ele>
        <time>2024-07-20T12:10:40.232Z</time>
      </trkpt>
      <trkpt lat="53.62116" lon="11.41036">
        <ele>83.088854</ele>
        <time>2024-07-20T12:10:44.249Z</time>
      </trkpt>
      <trkpt lat="53.62113" lon="11.41052">
        <ele>83.199805</ele>
        <time>2024-07-20T12:10:50.222Z</time>
      </trkpt>
      <trkpt lat="53.62116" lon="11.41067">
        <ele>83.309778</ele>
        <time>2024-07-20T12:10:55.231Z</time>
      </trkpt>
      <trkpt lat="53.62122" lon="11.41084">
        <ele>83.443702</ele>
        <time>2024-07-20T12:10:59.224Z</time>
      </trkpt>
      <trkpt lat="53.62125" lon="11.4108">
        <ele>83.47742</ele>
        <time>2024-07-20T12:11:07.170Z</time>
      </trkpt>
      <trkpt lat="53.62125" lon="11.41065">
        <ele>83.373258</ele>
        <time>2024-07-20T12:14:08.223Z</time>
      </trkpt>
      <trkpt lat="53.6213" lon="11.41049">
        <ele>83.253648</ele>
        <time>2024-07-20T12:14:14.209Z</time>
      </trkpt>
      <trkpt lat="53.62139" lon="11.41041">
        <ele>83.137829</ele>
        <time>2024-07-20T12:14:20.223Z</time>
      </trkpt>
      <trkpt lat="53.62149" lon="11.41043">
        <ele>83.020972</ele>
        <time>2024-07-20T12:14:24.229Z</time>
      </trkpt>
      <trkpt lat="53.62159" lon="11.41047">
        <ele>82.90897</ele>
        <time>2024-07-20T12:14:27.220Z</time>
      </trkpt>
      <trkpt lat="53.62169" lon="11.41051">
        <ele>82.791624</ele>
        <time>2024-07-20T12:14:30.238Z</time>
      </trkpt>
      <trkpt lat="53.62181" lon="11.41053">
        <ele>82.660336</ele>
        <time>2024-07-20T12:14:33.217Z</time>
      </trkpt>
      <trkpt lat="53.62193" lon="11.41059">
        <ele>82.509469</ele>
        <time>2024-07-20T12:14:36.221Z</time>
      </trkpt>
      <trkpt lat="53.62203" lon="11.41061">
        <ele>82.405052</ele>
        <time>2024-07-20T12:14:38.213Z</time>
      </trkpt>
      <trkpt lat="53.62212" lon="11.41064">
        <ele>82.297062</ele>
        <time>2024-07-20T12:14:40.233Z</time>
      </trkpt>
      <trkpt lat="53.62222" lon="11.41067">
        <ele>82.187706</ele>
        <time>2024-07-20T12:14:42.215Z</time>
      </trkpt>
      <trkpt lat="53.62231" lon="11.41071">
        <ele>82.074608</ele>
        <time>2024-07-20T12:14:44.247Z</time>
      </trkpt>
      <trkpt lat="53.62241" lon="11.41075">
        <ele>81.959461</ele>
        <time>2024-07-20T12:14:46.236Z</time>
      </trkpt>
      <trkpt lat="53.62252" lon="11.41079">
        <ele>81.841794</ele>
        <time>2024-07-20T12:14:48.239Z</time>
      </trkpt>
      <trkpt lat="53.62262" lon="11.41085">
        <ele>81.720725</ele>
        <time>2024-07-20T12:14:50.245Z</time>
      </trkpt>
      <trkpt lat="53.62271" lon="11.41093">
        <ele>81.598982</ele>
        <time>2024-07-20T12:14:52.231Z</time>
      </trkpt>
      <trkpt lat="53.62281" lon="11.41101">
        <ele>81.478642</ele>
        <time>2024-07-20T12:14:54.236Z</time>
      </trkpt>
      <trkpt lat="53.6229" lon="11.4111">
        <ele>81.465375</ele>
        <time>2024-07-20T12:14:56.223Z</time>
      </trkpt>
      <trkpt lat="53.62298" lon="11.41119">
        <ele>81.469729</ele>
        <time>2024-07-20T12:14:58.209Z</time>
      </trkpt>
      <trkpt lat="53.62306" lon="11.41127">
        <ele>81.47406</ele>
        <time>2024-07-20T12:15:00.232Z</time>
      </trkpt>
      <trkpt lat="53.62314" lon="11.41136">
        <ele>81.478073</ele>
        <time>2024-07-20T12:15:02.241Z</time>
      </trkpt>
      <trkpt lat="53.62325" lon="11.41148">
        <ele>81.483972</ele>
        <time>2024-07-20T12:15:05.230Z</time>
      </trkpt>
      <trkpt lat="53.62336" lon="11.4116">
        <ele>81.489834</ele>
        <time>2024-07-20T12:15:08.224Z</time>
      </trkpt>
      <trkpt lat="53.62347" lon="11.41171">
        <ele>81.495629</ele>
        <time>2024-07-20T12:15:11.263Z</time>
      </trkpt>
      <trkpt lat="53.62358" lon="11.41183">
        <ele>81.501357</ele>
        <time>2024-07-20T12:15:14.239Z</time>
      </trkpt>
      <trkpt lat="53.62366" lon="11.41192">
        <ele>81.505768</ele>
        <time>2024-07-20T12:15:17.230Z</time>
      </trkpt>
      <trkpt lat="53.62376" lon="11.41202">
        <ele>81.511052</ele>
        <time>2024-07-20T12:15:21.284Z</time>
      </trkpt>
      <trkpt lat="53.62384" lon="11.41211">
        <ele>81.515542</ele>
        <time>2024-07-20T12:15:24.239Z</time>
      </trkpt>
      <trkpt lat="53.62393" lon="11.41221">
        <ele>81.520307</ele>
        <time>2024-07-20T12:15:27.212Z</time>
      </trkpt>
      <trkpt lat="53.62402" lon="11.41233">
        <ele>81.52549</ele>
        <time>2024-07-20T12:15:30.227Z</time>
      </trkpt>
      <trkpt lat="53.62413" lon="11.41243">
        <ele>81.530924</ele>
        <time>2024-07-20T12:15:33.239Z</time>
      </trkpt>
      <trkpt lat="53.62423" lon="11.41251">
        <ele>81.535984</ele>
        <time>2024-07-20T12:15:36.222Z</time>
      </trkpt>
      <trkpt lat="53.62435" lon="11.41256">
        <ele>81.541253</ele>
        <time>2024-07-20T12:15:39.233Z</time>
      </trkpt>
      <trkpt lat="53.62445" lon="11.41262">
        <ele>81.547757</ele>
        <time>2024-07-20T12:15:42.237Z</time>
      </trkpt>
      <trkpt lat="53.62455" lon="11.41269">
        <ele>81.554912</ele>
        <time>2024-07-20T12:15:45.225Z</time>
      </trkpt>
      <trkpt lat="53.62466" lon="11.41275">
        <ele>81.562504</ele>
        <time>2024-07-20T12:15:48.248Z</time>
      </trkpt>
      <trkpt lat="53.62478" lon="11.41281">
        <ele>81.570212</ele>
        <time>2024-07-20T12:15:51.273Z</time>
      </trkpt>
      <trkpt lat="53.62489" lon="11.41289">
        <ele>81.577796</ele>
        <time>2024-07-20T12:15:54.229Z</time>
      </trkpt>
      <trkpt lat="53.625" lon="11.41295">
        <ele>81.585802</ele>
        <time>2024-07-20T12:15:57.214Z</time>
      </trkpt>
      <trkpt lat="53.62512" lon="11.41302">
        <ele>81.593785</ele>
        <time>2024-07-20T12:16:00.242Z</time>
      </trkpt>
      <trkpt lat="53.62524" lon="11.41309">
        <ele>81.601905</ele>
        <time>2024-07-20T12:16:03.232Z</time>
      </trkpt>
      <trkpt lat="53.62536" lon="11.41317">
        <ele>81.609905</ele>
        <time>2024-07-20T12:16:06.233Z</time>
      </trkpt>
      <trkpt lat="53.62548" lon="11.41323">
        <ele>81.618021</ele>
        <time>2024-07-20T12:16:09.226Z</time>
      </trkpt>
      <trkpt lat="53.62558" lon="11.41329">
        <ele>81.625126</ele>
        <time>2024-07-20T12:16:12.233Z</time>
      </trkpt>
      <trkpt lat="53.62568" lon="11.41336">
        <ele>81.631837</ele>
        <time>2024-07-20T12:16:15.235Z</time>
      </trkpt>
      <trkpt lat="53.62576" lon="11.41346">
        <ele>81.638116</ele>
        <time>2024-07-20T12:16:18.219Z</time>
      </trkpt>
      <trkpt lat="53.62584" lon="11.41355">
        <ele>81.644371</ele>
        <time>2024-07-20T12:16:23.243Z</time>
      </trkpt>
      <trkpt lat="53.6259" lon="11.41343">
        <ele>81.650485</ele>
        <time>2024-07-20T12:16:29.220Z</time>
      </trkpt>
      <trkpt lat="53.62605" lon="11.41344">
        <ele>81.891482</ele>
        <time>2024-07-20T12:16:51.251Z</time>
      </trkpt>
      <trkpt lat="53.62613" lon="11.41329">
        <ele>82.504545</ele>
        <time>2024-07-20T12:16:55.231Z</time>
      </trkpt>
      <trkpt lat="53.62619" lon="11.41317">
        <ele>83.036178</ele>
        <time>2024-07-20T12:16:58.217Z</time>
      </trkpt>
      <trkpt lat="53.62626" lon="11.41305">
        <ele>83.571392</ele>
        <time>2024-07-20T12:17:01.262Z</time>
      </trkpt>
      <trkpt lat="53.62632" lon="11.41293">
        <ele>84.087639</ele>
        <time>2024-07-20T12:17:04.222Z</time>
      </trkpt>
      <trkpt lat="53.6264" lon="11.41282">
        <ele>84.642414</ele>
        <time>2024-07-20T12:17:07.243Z</time>
      </trkpt>
      <trkpt lat="53.62648" lon="11.41268">
        <ele>85.254307</ele>
        <time>2024-07-20T12:17:10.237Z</time>
      </trkpt>
      <trkpt lat="53.62654" lon="11.41256">
        <ele>85.78099</ele>
        <time>2024-07-20T12:17:13.228Z</time>
      </trkpt>
      <trkpt lat="53.62661" lon="11.41243">
        <ele>86.324717</ele>
        <time>2024-07-20T12:17:16.247Z</time>
      </trkpt>
      <trkpt lat="53.62669" lon="11.41229">
        <ele>86.954573</ele>
        <time>2024-07-20T12:17:20.221Z</time>
      </trkpt>
      <trkpt lat="53.62676" lon="11.41217">
        <ele>87.495124</ele>
        <time>2024-07-20T12:17:24.239Z</time>
      </trkpt>
      <trkpt lat="53.62683" lon="11.41205">
        <ele>88.012835</ele>
        <time>2024-07-20T12:17:30.249Z</time>
      </trkpt>
      <trkpt lat="53.62693" lon="11.41209">
        <ele>88.567232</ele>
        <time>2024-07-20T12:17:35.233Z</time>
      </trkpt>
      <trkpt lat="53.62701" lon="11.41216">
        <ele>89.085245</ele>
        <time>2024-07-20T12:17:39.238Z</time>
      </trkpt>
      <trkpt lat="53.6271" lon="11.41221">
        <ele>89.586165</ele>
        <time>2024-07-20T12:17:43.235Z</time>
      </trkpt>
      <trkpt lat="53.6272" lon="11.41226">
        <ele>90.172048</ele>
        <time>2024-07-20T12:17:47.231Z</time>
      </trkpt>
      <trkpt lat="53.62731" lon="11.41232">
        <ele>90.808342</ele>
        <time>2024-07-20T12:17:51.265Z</time>
      </trkpt>
      <trkpt lat="53.62743" lon="11.41236">
        <ele>91.41187</ele>
        <time>2024-07-20T12:17:55.224Z</time>
      </trkpt>
      <trkpt lat="53.62751" lon="11.41242">
        <ele>91.657071</ele>
        <time>2024-07-20T12:17:58.232Z</time>
      </trkpt>
      <trkpt lat="53.62762" lon="11.41243">
        <ele>91.934092</ele>
        <time>2024-07-20T12:18:02.219Z</time>
      </trkpt>
      <trkpt lat="53.62773" lon="11.41244">
        <ele>92.207856</ele>
        <time>2024-07-20T12:18:06.217Z</time>
      </trkpt>
      <trkpt lat="53.62782" lon="11.4124">
        <ele>92.463586</ele>
        <time>2024-07-20T12:18:12.235Z</time>
      </trkpt>
      <trkpt lat="53.62791" lon="11.41246">
        <ele>92.702883</ele>
        <time>2024-07-20T12:18:21.242Z</time>
      </trkpt>
      <trkpt lat="53.628" lon="11.4125">
        <ele>92.93736</ele>
        <time>2024-07-20T12:18:29.215Z</time>
      </trkpt>
      <trkpt lat="53.62814" lon="11.41253">
        <ele>93.295256</ele>
        <time>2024-07-20T12:19:01.245Z</time>
      </trkpt>
      <trkpt lat="53.62824" lon="11.41258">
        <ele>93.559138</ele>
        <time>2024-07-20T12:19:06.216Z</time>
      </trkpt>
      <trkpt lat="53.62834" lon="11.41258">
        <ele>93.822494</ele>
        <time>2024-07-20T12:19:11.270Z</time>
      </trkpt>
      <trkpt lat="53.62844" lon="11.41257">
        <ele>94.094368</ele>
        <time>2024-07-20T12:19:17.234Z</time>
      </trkpt>
      <trkpt lat="53.62854" lon="11.41255">
        <ele>94.34542</ele>
        <time>2024-07-20T12:19:25.219Z</time>
      </trkpt>
      <trkpt lat="53.62865" lon="11.41257">
        <ele>94.620413</ele>
        <time>2024-07-20T12:19:58.228Z</time>
      </trkpt>
      <trkpt lat="53.62874" lon="11.41257">
        <ele>94.855349</ele>
        <time>2024-07-20T12:20:02.221Z</time>
      </trkpt>
      <trkpt lat="53.62884" lon="11.41256">
        <ele>95.129797</ele>
        <time>2024-07-20T12:20:07.221Z</time>
      </trkpt>
      <trkpt lat="53.62894" lon="11.41255">
        <ele>95.393952</ele>
        <time>2024-07-20T12:20:12.226Z</time>
      </trkpt>
      <trkpt lat="53.62904" lon="11.4126">
        <ele>95.666916</ele>
        <time>2024-07-20T12:20:17.281Z</time>
      </trkpt>
      <trkpt lat="53.62908" lon="11.41278">
        <ele>95.960255</ele>
        <time>2024-07-20T12:20:22.231Z</time>
      </trkpt>
      <trkpt lat="53.6291" lon="11.41296">
        <ele>95.760442</ele>
        <time>2024-07-20T12:20:27.207Z</time>
      </trkpt>
      <trkpt lat="53.62911" lon="11.41311">
        <ele>95.396094</ele>
        <time>2024-07-20T12:20:33.213Z</time>
      </trkpt>
      <trkpt lat="53.62915" lon="11.41327">
        <ele>95.011777</ele>
        <time>2024-07-20T12:20:41.252Z</time>
      </trkpt>
      <trkpt lat="53.62917" lon="11.41344">
        <ele>94.598841</ele>
        <time>2024-07-20T12:20:48.201Z</time>
      </trkpt>
      <trkpt lat="53.62919" lon="11.41362">
        <ele>94.180554</ele>
        <time>2024-07-20T12:20:54.211Z</time>
      </trkpt>
      <trkpt lat="53.62914" lon="11.41377">
        <ele>93.786479</ele>
        <time>2024-07-20T12:20:59.222Z</time>
      </trkpt>
      <trkpt lat="53.62913" lon="11.41393">
        <ele>93.416344</ele>
        <time>2024-07-20T12:21:04.220Z</time>
      </trkpt>
      <trkpt lat="53.62912" lon="11.4141">
        <ele>93.033705</ele>
        <time>2024-07-20T12:21:09.202Z</time>
      </trkpt>
      <trkpt lat="53.6291" lon="11.41426">
        <ele>92.658008</ele>
        <time>2024-07-20T12:21:14.220Z</time>
      </trkpt>
      <trkpt lat="53.62908" lon="11.41442">
        <ele>92.280368</ele>
        <time>2024-07-20T12:21:19.245Z</time>
      </trkpt>
      <trkpt lat="53.62904" lon="11.41456">
        <ele>91.920608</ele>
        <time>2024-07-20T12:21:24.211Z</time>
      </trkpt>
      <trkpt lat="53.629" lon="11.41469">
        <ele>91.56298</ele>
        <time>2024-07-20T12:21:30.226Z</time>
      </trkpt>
      <trkpt lat="53.62894" lon="11.41482">
        <ele>91.199821</ele>
        <time>2024-07-20T12:21:37.222Z</time>
      </trkpt>
      <trkpt lat="53.6289" lon="11.41497">
        <ele>90.811297</ele>
        <time>2024-07-20T12:21:43.235Z</time>
      </trkpt>
      <trkpt lat="53.62883" lon="11.41509">
        <ele>90.429944</ele>
        <time>2024-07-20T12:21:49.212Z</time>
      </trkpt>
      <trkpt lat="53.62877" lon="11.41521">
        <ele>90.063071</ele>
        <time>2024-07-20T12:21:57.220Z</time>
      </trkpt>
      <trkpt lat="53.62868" lon="11.41514">
        <ele>89.685152</ele>
        <time>2024-07-20T12:22:10.250Z</time>
      </trkpt>
      <trkpt lat="53.62858" lon="11.41509">
        <ele>89.298958</ele>
        <time>2024-07-20T12:22:19.212Z</time>
      </trkpt>
      <trkpt lat="53.62849" lon="11.41506">
        <ele>89.050898</ele>
        <time>2024-07-20T12:22:53.207Z</time>
      </trkpt>
      <trkpt lat="53.62849" lon="11.41506">
        <ele>89.054667</ele>
        <time>2024-07-20T12:22:55.054Z</time>
      </trkpt>
      <trkpt lat="53.62852" lon="11.41527">
        <ele>89.13648</ele>
        <time>2024-07-20T13:06:48.234Z</time>
      </trkpt>
      <trkpt lat="53.6285" lon="11.41501">
        <ele>89.232791</ele>
        <time>2024-07-20T13:06:49.210Z</time>
      </trkpt>
      <trkpt lat="53.62842" lon="11.41507">
        <ele>89.290537</ele>
        <time>2024-07-20T13:09:05.228Z</time>
      </trkpt>
      <trkpt lat="53.62833" lon="11.41506">
        <ele>89.346026</ele>
        <time>2024-07-20T13:09:11.225Z</time>
      </trkpt>
      <trkpt lat="53.62823" lon="11.41504">
        <ele>89.408128</ele>
        <time>2024-07-20T13:09:16.225Z</time>
      </trkpt>
      <trkpt lat="53.62813" lon="11.415">
        <ele>89.468278</ele>
        <time>2024-07-20T13:09:20.222Z</time>
      </trkpt>
      <trkpt lat="53.62802" lon="11.41496">
        <ele>89.536912</ele>
        <time>2024-07-20T13:09:25.238Z</time>
      </trkpt>
      <trkpt lat="53.62793" lon="11.41495">
        <ele>89.594987</ele>
        <time>2024-07-20T13:09:29.223Z</time>
      </trkpt>
      <trkpt lat="53.62783" lon="11.41492">
        <ele>89.659627</ele>
        <time>2024-07-20T13:09:33.217Z</time>
      </trkpt>
      <trkpt lat="53.62774" lon="11.41486">
        <ele>89.718433</ele>
        <time>2024-07-20T13:09:37.229Z</time>
      </trkpt>
      <trkpt lat="53.62764" lon="11.41479">
        <ele>89.781366</ele>
        <time>2024-07-20T13:09:41.220Z</time>
      </trkpt>
      <trkpt lat="53.62756" lon="11.4147">
        <ele>89.83913</ele>
        <time>2024-07-20T13:09:45.226Z</time>
      </trkpt>
      <trkpt lat="53.62748" lon="11.41464">
        <ele>89.896586</ele>
        <time>2024-07-20T13:09:49.223Z</time>
      </trkpt>
      <trkpt lat="53.62741" lon="11.41452">
        <ele>89.959117</ele>
        <time>2024-07-20T13:09:54.232Z</time>
      </trkpt>
      <trkpt lat="53.62732" lon="11.41457">
        <ele>90.015933</ele>
        <time>2024-07-20T13:10:07.226Z</time>
      </trkpt>
      <trkpt lat="53.62723" lon="11.41465">
        <ele>90.07609</ele>
        <time>2024-07-20T13:10:14.210Z</time>
      </trkpt>
      <trkpt lat="53.62717" lon="11.41478">
        <ele>90.136767</ele>
        <time>2024-07-20T13:10:18.226Z</time>
      </trkpt>
      <trkpt lat="53.62711" lon="11.4149">
        <ele>89.714272</ele>
        <time>2024-07-20T13:10:23.243Z</time>
      </trkpt>
      <trkpt lat="53.62702" lon="11.41499">
        <ele>89.249326</ele>
        <time>2024-07-20T13:10:27.230Z</time>
      </trkpt>
      <trkpt lat="53.62695" lon="11.41509">
        <ele>88.79797</ele>
        <time>2024-07-20T13:10:30.230Z</time>
      </trkpt>
      <trkpt lat="53.62686" lon="11.41519">
        <ele>88.286812</ele>
        <time>2024-07-20T13:10:34.236Z</time>
      </trkpt>
      <trkpt lat="53.62677" lon="11.41532">
        <ele>87.750833</ele>
        <time>2024-07-20T13:10:38.198Z</time>
      </trkpt>
      <trkpt lat="53.62669" lon="11.41544">
        <ele>87.218492</ele>
        <time>2024-07-20T13:10:42.244Z</time>
      </trkpt>
      <trkpt lat="53.62662" lon="11.41553">
        <ele>86.790628</ele>
        <time>2024-07-20T13:10:45.210Z</time>
      </trkpt>
      <trkpt lat="53.62652" lon="11.41565">
        <ele>86.242883</ele>
        <time>2024-07-20T13:10:49.232Z</time>
      </trkpt>
      <trkpt lat="53.62643" lon="11.41573">
        <ele>85.762254</ele>
        <time>2024-07-20T13:10:53.251Z</time>
      </trkpt>
      <trkpt lat="53.62635" lon="11.41585">
        <ele>85.260027</ele>
        <time>2024-07-20T13:10:57.226Z</time>
      </trkpt>
      <trkpt lat="53.62628" lon="11.41596">
        <ele>84.797219</ele>
        <time>2024-07-20T13:11:01.225Z</time>
      </trkpt>
      <trkpt lat="53.62619" lon="11.41601">
        <ele>84.350765</ele>
        <time>2024-07-20T13:11:04.238Z</time>
      </trkpt>
      <trkpt lat="53.62612" lon="11.41613">
        <ele>83.859588</ele>
        <time>2024-07-20T13:11:08.225Z</time>
      </trkpt>
      <trkpt lat="53.62605" lon="11.41628">
        <ele>83.349059</ele>
        <time>2024-07-20T13:11:12.233Z</time>
      </trkpt>
      <trkpt lat="53.62596" lon="11.41638">
        <ele>82.813414</ele>
        <time>2024-07-20T13:11:16.229Z</time>
      </trkpt>
      <trkpt lat="53.62587" lon="11.41651">
        <ele>82.269467</ele>
        <time>2024-07-20T13:11:20.229Z</time>
      </trkpt>
      <trkpt lat="53.62581" lon="11.41663">
        <ele>81.838242</ele>
        <time>2024-07-20T13:11:23.235Z</time>
      </trkpt>
      <trkpt lat="53.62573" lon="11.41678">
        <ele>81.67145</ele>
        <time>2024-07-20T13:11:27.209Z</time>
      </trkpt>
      <trkpt lat="53.62565" lon="11.4169">
        <ele>81.700085</ele>
        <time>2024-07-20T13:11:31.234Z</time>
      </trkpt>
      <trkpt lat="53.62556" lon="11.41703">
        <ele>81.730911</ele>
        <time>2024-07-20T13:11:35.229Z</time>
      </trkpt>
      <trkpt lat="53.62549" lon="11.41713">
        <ele>81.756281</ele>
        <time>2024-07-20T13:11:39.241Z</time>
      </trkpt>
      <trkpt lat="53.62542" lon="11.41725">
        <ele>81.783117</ele>
        <time>2024-07-20T13:11:44.230Z</time>
      </trkpt>
      <trkpt lat="53.62533" lon="11.41735">
        <ele>81.810237</ele>
        <time>2024-07-20T13:11:51.230Z</time>
      </trkpt>
      <trkpt lat="53.62526" lon="11.41747">
        <ele>81.83735</ele>
        <time>2024-07-20T13:11:57.228Z</time>
      </trkpt>
      <trkpt lat="53.62518" lon="11.41762">
        <ele>81.868153</ele>
        <time>2024-07-20T13:12:01.234Z</time>
      </trkpt>
      <trkpt lat="53.62508" lon="11.41766">
        <ele>81.894955</ele>
        <time>2024-07-20T13:12:05.221Z</time>
      </trkpt>
      <trkpt lat="53.62498" lon="11.41766">
        <ele>81.92087</ele>
        <time>2024-07-20T13:12:10.237Z</time>
      </trkpt>
      <trkpt lat="53.62486" lon="11.41766">
        <ele>81.953116</ele>
        <time>2024-07-20T13:12:51.240Z</time>
      </trkpt>
      <trkpt lat="53.62476" lon="11.41763">
        <ele>81.981376</ele>
        <time>2024-07-20T13:12:55.222Z</time>
      </trkpt>
      <trkpt lat="53.62465" lon="11.41759">
        <ele>82.010345</ele>
        <time>2024-07-20T13:12:59.230Z</time>
      </trkpt>
      <trkpt lat="53.62455" lon="11.41751">
        <ele>82.039707</ele>
        <time>2024-07-20T13:13:03.220Z</time>
      </trkpt>
      <trkpt lat="53.62445" lon="11.41746">
        <ele>82.06753</ele>
        <time>2024-07-20T13:13:08.225Z</time>
      </trkpt>
      <trkpt lat="53.62435" lon="11.41749">
        <ele>82.093654</ele>
        <time>2024-07-20T13:13:14.213Z</time>
      </trkpt>
      <trkpt lat="53.62424" lon="11.41752">
        <ele>82.122585</ele>
        <time>2024-07-20T13:13:19.223Z</time>
      </trkpt>
      <trkpt lat="53.62415" lon="11.41758">
        <ele>82.079169</ele>
        <time>2024-07-20T13:13:23.217Z</time>
      </trkpt>
      <trkpt lat="53.62408" lon="11.41767">
        <ele>82.025467</ele>
        <time>2024-07-20T13:13:27.231Z</time>
      </trkpt>
      <trkpt lat="53.62399" lon="11.41776">
        <ele>81.969542</ele>
        <time>2024-07-20T13:13:31.229Z</time>
      </trkpt>
      <trkpt lat="53.6239" lon="11.41784">
        <ele>81.913965</ele>
        <time>2024-07-20T13:13:35.222Z</time>
      </trkpt>
      <trkpt lat="53.62381" lon="11.4179">
        <ele>81.858791</ele>
        <time>2024-07-20T13:13:39.252Z</time>
      </trkpt>
      <trkpt lat="53.62372" lon="11.41794">
        <ele>81.807008</ele>
        <time>2024-07-20T13:13:43.225Z</time>
      </trkpt>
      <trkpt lat="53.62363" lon="11.41789">
        <ele>81.751814</ele>
        <time>2024-07-20T13:13:47.223Z</time>
      </trkpt>
      <trkpt lat="53.62354" lon="11.41784">
        <ele>81.698281</ele>
        <time>2024-07-20T13:13:52.235Z</time>
      </trkpt>
      <trkpt lat="53.62345" lon="11.41777">
        <ele>81.645424</ele>
        <time>2024-07-20T13:14:14.235Z</time>
      </trkpt>
      <trkpt lat="53.62337" lon="11.41769">
        <ele>81.590162</ele>
        <time>2024-07-20T13:14:20.231Z</time>
      </trkpt>
      <trkpt lat="53.62328" lon="11.41762">
        <ele>81.538975</ele>
        <time>2024-07-20T13:14:25.232Z</time>
      </trkpt>
      <trkpt lat="53.6232" lon="11.41757">
        <ele>81.487456</ele>
        <time>2024-07-20T13:14:29.221Z</time>
      </trkpt>
      <trkpt lat="53.62309" lon="11.41752">
        <ele>81.427558</ele>
        <time>2024-07-20T13:14:34.223Z</time>
      </trkpt>
      <trkpt lat="53.62301" lon="11.41745">
        <ele>81.374792</ele>
        <time>2024-07-20T13:14:39.223Z</time>
      </trkpt>
      <trkpt lat="53.62291" lon="11.41738">
        <ele>81.316009</ele>
        <time>2024-07-20T13:14:45.221Z</time>
      </trkpt>
      <trkpt lat="53.62287" lon="11.41735">
        <ele>81.292598</ele>
        <time>2024-07-20T13:14:50.643Z</time>
      </trkpt>
      <trkpt lat="53.62289" lon="11.41699">
        <ele>81.174733</ele>
        <time>2024-07-20T13:15:33.151Z</time>
      </trkpt>
      <trkpt lat="53.62282" lon="11.4173">
        <ele>81.039155</ele>
        <time>2024-07-20T13:15:34.244Z</time>
      </trkpt>
      <trkpt lat="53.62271" lon="11.41739">
        <ele>80.940612</ele>
        <time>2024-07-20T13:15:41.238Z</time>
      </trkpt>
      <trkpt lat="53.62264" lon="11.41749">
        <ele>80.863593</ele>
        <time>2024-07-20T13:15:44.231Z</time>
      </trkpt>
      <trkpt lat="53.62259" lon="11.41762">
        <ele>80.786068</ele>
        <time>2024-07-20T13:15:47.260Z</time>
      </trkpt>
      <trkpt lat="53.62252" lon="11.41778">
        <ele>80.687782</ele>
        <time>2024-07-20T13:15:51.217Z</time>
      </trkpt>
      <trkpt lat="53.62244" lon="11.41789">
        <ele>80.602688</ele>
        <time>2024-07-20T13:15:55.255Z</time>
      </trkpt>
      <trkpt lat="53.62236" lon="11.41802">
        <ele>80.507783</ele>
        <time>2024-07-20T13:15:59.221Z</time>
      </trkpt>
      <trkpt lat="53.62229" lon="11.41812">
        <ele>80.427016</ele>
        <time>2024-07-20T13:16:02.220Z</time>
      </trkpt>
      <trkpt lat="53.62219" lon="11.4182">
        <ele>80.334865</ele>
        <time>2024-07-20T13:16:06.226Z</time>
      </trkpt>
      <trkpt lat="53.62207" lon="11.41825">
        <ele>80.234794</ele>
        <time>2024-07-20T13:16:10.243Z</time>
      </trkpt>
      <trkpt lat="53.62195" lon="11.41824">
        <ele>80.133106</ele>
        <time>2024-07-20T13:16:14.226Z</time>
      </trkpt>
      <trkpt lat="53.62185" lon="11.41818">
        <ele>80.040361</ele>
        <time>2024-07-20T13:16:17.220Z</time>
      </trkpt>
      <trkpt lat="53.62174" lon="11.41809">
        <ele>79.942238</ele>
        <time>2024-07-20T13:16:20.218Z</time>
      </trkpt>
      <trkpt lat="53.62164" lon="11.41802">
        <ele>79.845926</ele>
        <time>2024-07-20T13:16:23.227Z</time>
      </trkpt>
      <trkpt lat="53.62153" lon="11.41792">
        <ele>79.74488</ele>
        <time>2024-07-20T13:16:26.235Z</time>
      </trkpt>
      <trkpt lat="53.62142" lon="11.41783">
        <ele>79.643834</ele>
        <time>2024-07-20T13:16:29.220Z</time>
      </trkpt>
      <trkpt lat="53.62131" lon="11.41775">
        <ele>79.5751</ele>
        <time>2024-07-20T13:16:32.233Z</time>
      </trkpt>
      <trkpt lat="53.6212" lon="11.41765">
        <ele>79.521426</ele>
        <time>2024-07-20T13:16:35.230Z</time>
      </trkpt>
      <trkpt lat="53.62108" lon="11.41758">
        <ele>79.467375</ele>
        <time>2024-07-20T13:16:38.226Z</time>
      </trkpt>
      <trkpt lat="53.62098" lon="11.41749">
        <ele>79.41617</ele>
        <time>2024-07-20T13:16:41.236Z</time>
      </trkpt>
      <trkpt lat="53.62086" lon="11.41746">
        <ele>79.366134</ele>
        <time>2024-07-20T13:16:44.229Z</time>
      </trkpt>
      <trkpt lat="53.62074" lon="11.41747">
        <ele>79.314223</ele>
        <time>2024-07-20T13:16:47.227Z</time>
      </trkpt>
      <trkpt lat="53.62064" lon="11.4176">
        <ele>79.259622</ele>
        <time>2024-07-20T13:16:50.231Z</time>
      </trkpt>
      <trkpt lat="53.62059" lon="11.41773">
        <ele>79.220655</ele>
        <time>2024-07-20T13:16:52.225Z</time>
      </trkpt>
      <trkpt lat="53.62053" lon="11.41792">
        <ele>79.165976</ele>
        <time>2024-07-20T13:16:55.233Z</time>
      </trkpt>
      <trkpt lat="53.62047" lon="11.41811">
        <ele>79.108974</ele>
        <time>2024-07-20T13:16:58.223Z</time>
      </trkpt>
      <trkpt lat="53.6204" lon="11.41831">
        <ele>79.051049</ele>
        <time>2024-07-20T13:17:01.252Z</time>
      </trkpt>
      <trkpt lat="53.62035" lon="11.41849">
        <ele>78.997902</ele>
        <time>2024-07-20T13:17:04.231Z</time>
      </trkpt>
      <trkpt lat="53.62028" lon="11.41868">
        <ele>78.942218</ele>
        <time>2024-07-20T13:17:07.214Z</time>
      </trkpt>
      <trkpt lat="53.62022" lon="11.41884">
        <ele>78.893116</ele>
        <time>2024-07-20T13:17:10.232Z</time>
      </trkpt>
      <trkpt lat="53.62018" lon="11.41901">
        <ele>78.84563</ele>
        <time>2024-07-20T13:17:13.203Z</time>
      </trkpt>
      <trkpt lat="53.62013" lon="11.41917">
        <ele>78.841181</ele>
        <time>2024-07-20T13:17:16.238Z</time>
      </trkpt>
      <trkpt lat="53.62009" lon="11.41932">
        <ele>78.849902</ele>
        <time>2024-07-20T13:17:19.226Z</time>
      </trkpt>
      <trkpt lat="53.62011" lon="11.41949">
        <ele>78.859537</ele>
        <time>2024-07-20T13:17:22.232Z</time>
      </trkpt>
      <trkpt lat="53.62011" lon="11.41967">
        <ele>78.869486</ele>
        <time>2024-07-20T13:17:25.234Z</time>
      </trkpt>
      <trkpt lat="53.62012" lon="11.41986">
        <ele>78.880136</ele>
        <time>2024-07-20T13:17:28.236Z</time>
      </trkpt>
      <trkpt lat="53.62015" lon="11.42005">
        <ele>78.891071</ele>
        <time>2024-07-20T13:17:31.257Z</time>
      </trkpt>
      <trkpt lat="53.62021" lon="11.42022">
        <ele>78.902082</ele>
        <time>2024-07-20T13:17:34.231Z</time>
      </trkpt>
      <trkpt lat="53.6203" lon="11.42036">
        <ele>78.913545</ele>
        <time>2024-07-20T13:17:37.210Z</time>
      </trkpt>
      <trkpt lat="53.62039" lon="11.42051">
        <ele>78.925231</ele>
        <time>2024-07-20T13:17:40.217Z</time>
      </trkpt>
      <trkpt lat="53.62046" lon="11.42063">
        <ele>78.934021</ele>
        <time>2024-07-20T13:17:42.225Z</time>
      </trkpt>
      <trkpt lat="53.62054" lon="11.42076">
        <ele>78.944883</ele>
        <time>2024-07-20T13:17:45.232Z</time>
      </trkpt>
      <trkpt lat="53.62064" lon="11.42087">
        <ele>78.95602</ele>
        <time>2024-07-20T13:17:48.224Z</time>
      </trkpt>
      <trkpt lat="53.62074" lon="11.42096">
        <ele>78.966446</ele>
        <time>2024-07-20T13:17:51.253Z</time>
      </trkpt>
      <trkpt lat="53.62085" lon="11.42102">
        <ele>78.976756</ele>
        <time>2024-07-20T13:17:54.232Z</time>
      </trkpt>
      <trkpt lat="53.62095" lon="11.42107">
        <ele>78.986626</ele>
        <time>2024-07-20T13:17:57.235Z</time>
      </trkpt>
      <trkpt lat="53.62106" lon="11.42115">
        <ele>78.997571</ele>
        <time>2024-07-20T13:18:00.244Z</time>
      </trkpt>
      <trkpt lat="53.62115" lon="11.42123">
        <ele>79.012872</ele>
        <time>2024-07-20T13:18:03.233Z</time>
      </trkpt>
      <trkpt lat="53.62123" lon="11.42132">
        <ele>79.031109</ele>
        <time>2024-07-20T13:18:06.228Z</time>
      </trkpt>
      <trkpt lat="53.62131" lon="11.42144">
        <ele>79.049932</ele>
        <time>2024-07-20T13:18:09.211Z</time>
      </trkpt>
      <trkpt lat="53.62139" lon="11.42155">
        <ele>79.068766</ele>
        <time>2024-07-20T13:18:12.234Z</time>
      </trkpt>
      <trkpt lat="53.62145" lon="11.42169">
        <ele>79.087536</ele>
        <time>2024-07-20T13:18:15.213Z</time>
      </trkpt>
      <trkpt lat="53.62153" lon="11.42183">
        <ele>79.108631</ele>
        <time>2024-07-20T13:18:18.227Z</time>
      </trkpt>
      <trkpt lat="53.62159" lon="11.42198">
        <ele>79.128011</ele>
        <time>2024-07-20T13:18:21.257Z</time>
      </trkpt>
      <trkpt lat="53.62166" lon="11.42216">
        <ele>79.150737</ele>
        <time>2024-07-20T13:18:24.241Z</time>
      </trkpt>
      <trkpt lat="53.62171" lon="11.42232">
        <ele>79.170759</ele>
        <time>2024-07-20T13:18:27.234Z</time>
      </trkpt>
      <trkpt lat="53.62177" lon="11.42247">
        <ele>79.189828</ele>
        <time>2024-07-20T13:18:30.224Z</time>
      </trkpt>
      <trkpt lat="53.62183" lon="11.42263">
        <ele>79.210416</ele>
        <time>2024-07-20T13:18:33.230Z</time>
      </trkpt>
      <trkpt lat="53.62188" lon="11.42279">
        <ele>79.230259</ele>
        <time>2024-07-20T13:18:36.219Z</time>
      </trkpt>
      <trkpt lat="53.62193" lon="11.42297">
        <ele>79.251326</ele>
        <time>2024-07-20T13:18:39.219Z</time>
      </trkpt>
      <trkpt lat="53.62197" lon="11.42316">
        <ele>79.273281</ele>
        <time>2024-07-20T13:18:42.238Z</time>
      </trkpt>
      <trkpt lat="53.62197" lon="11.42332">
        <ele>79.289804</ele>
        <time>2024-07-20T13:18:44.225Z</time>
      </trkpt>
      <trkpt lat="53.62199" lon="11.42351">
        <ele>79.311128</ele>
        <time>2024-07-20T13:18:47.224Z</time>
      </trkpt>
      <trkpt lat="53.62197" lon="11.42371">
        <ele>79.302325</ele>
        <time>2024-07-20T13:18:50.225Z</time>
      </trkpt>
      <trkpt lat="53.62194" lon="11.4239">
        <ele>79.189674</ele>
        <time>2024-07-20T13:18:53.222Z</time>
      </trkpt>
      <trkpt lat="53.62192" lon="11.42411">
        <ele>79.065867</ele>
        <time>2024-07-20T13:18:56.242Z</time>
      </trkpt>
      <trkpt lat="53.62189" lon="11.4243">
        <ele>78.94703</ele>
        <time>2024-07-20T13:18:59.229Z</time>
      </trkpt>
      <trkpt lat="53.62189" lon="11.42451">
        <ele>78.824041</ele>
        <time>2024-07-20T13:19:02.217Z</time>
      </trkpt>
      <trkpt lat="53.6219" lon="11.42473">
        <ele>78.696194</ele>
        <time>2024-07-20T13:19:05.245Z</time>
      </trkpt>
      <trkpt lat="53.62189" lon="11.42495">
        <ele>78.564403</ele>
        <time>2024-07-20T13:19:08.228Z</time>
      </trkpt>
      <trkpt lat="53.6219" lon="11.42515">
        <ele>78.450846</ele>
        <time>2024-07-20T13:19:11.273Z</time>
      </trkpt>
      <trkpt lat="53.6219" lon="11.42535">
        <ele>78.332984</ele>
        <time>2024-07-20T13:19:14.232Z</time>
      </trkpt>
      <trkpt lat="53.6219" lon="11.42556">
        <ele>78.208204</ele>
        <time>2024-07-20T13:19:17.234Z</time>
      </trkpt>
      <trkpt lat="53.6219" lon="11.42576">
        <ele>78.087589</ele>
        <time>2024-07-20T13:19:20.243Z</time>
      </trkpt>
      <trkpt lat="53.62189" lon="11.42596">
        <ele>77.97401</ele>
        <time>2024-07-20T13:19:23.219Z</time>
      </trkpt>
      <trkpt lat="53.62187" lon="11.42616">
        <ele>77.850695</ele>
        <time>2024-07-20T13:19:26.211Z</time>
      </trkpt>
      <trkpt lat="53.62185" lon="11.42635">
        <ele>77.735077</ele>
        <time>2024-07-20T13:19:29.234Z</time>
      </trkpt>
      <trkpt lat="53.62184" lon="11.42653">
        <ele>77.633407</ele>
        <time>2024-07-20T13:19:31.258Z</time>
      </trkpt>
      <trkpt lat="53.62183" lon="11.42669">
        <ele>77.544213</ele>
        <time>2024-07-20T13:19:33.229Z</time>
      </trkpt>
      <trkpt lat="53.6218" lon="11.42687">
        <ele>77.544373</ele>
        <time>2024-07-20T13:19:35.226Z</time>
      </trkpt>
      <trkpt lat="53.62176" lon="11.42704">
        <ele>77.54453</ele>
        <time>2024-07-20T13:19:37.224Z</time>
      </trkpt>
      <trkpt lat="53.62172" lon="11.4272">
        <ele>77.544674</ele>
        <time>2024-07-20T13:19:39.215Z</time>
      </trkpt>
      <trkpt lat="53.62167" lon="11.42733">
        <ele>77.544811</ele>
        <time>2024-07-20T13:19:41.246Z</time>
      </trkpt>
      <trkpt lat="53.62162" lon="11.42748">
        <ele>77.544955</ele>
        <time>2024-07-20T13:19:43.230Z</time>
      </trkpt>
      <trkpt lat="53.62157" lon="11.42761">
        <ele>77.545089</ele>
        <time>2024-07-20T13:19:45.229Z</time>
      </trkpt>
      <trkpt lat="53.62152" lon="11.42781">
        <ele>77.545281</ele>
        <time>2024-07-20T13:19:48.217Z</time>
      </trkpt>
      <trkpt lat="53.62148" lon="11.42802">
        <ele>77.545469</ele>
        <time>2024-07-20T13:19:51.247Z</time>
      </trkpt>
      <trkpt lat="53.62143" lon="11.42822">
        <ele>77.545654</ele>
        <time>2024-07-20T13:19:54.244Z</time>
      </trkpt>
      <trkpt lat="53.62138" lon="11.42841">
        <ele>77.54584</ele>
        <time>2024-07-20T13:19:57.228Z</time>
      </trkpt>
      <trkpt lat="53.62131" lon="11.4286">
        <ele>77.546027</ele>
        <time>2024-07-20T13:20:00.230Z</time>
      </trkpt>
      <trkpt lat="53.62122" lon="11.42874">
        <ele>77.546204</ele>
        <time>2024-07-20T13:20:03.201Z</time>
      </trkpt>
      <trkpt lat="53.62114" lon="11.42885">
        <ele>77.546357</ele>
        <time>2024-07-20T13:20:06.224Z</time>
      </trkpt>
      <trkpt lat="53.62106" lon="11.42896">
        <ele>77.546504</ele>
        <time>2024-07-20T13:20:09.235Z</time>
      </trkpt>
      <trkpt lat="53.62098" lon="11.42904">
        <ele>77.546641</ele>
        <time>2024-07-20T13:20:11.247Z</time>
      </trkpt>
      <trkpt lat="53.62089" lon="11.42914">
        <ele>77.546798</ele>
        <time>2024-07-20T13:20:13.212Z</time>
      </trkpt>
      <trkpt lat="53.62081" lon="11.42925">
        <ele>77.677688</ele>
        <time>2024-07-20T13:20:15.208Z</time>
      </trkpt>
      <trkpt lat="53.62077" lon="11.42941">
        <ele>77.825236</ele>
        <time>2024-07-20T13:20:17.206Z</time>
      </trkpt>
      <trkpt lat="53.62074" lon="11.42957">
        <ele>77.969303</ele>
        <time>2024-07-20T13:20:19.207Z</time>
      </trkpt>
      <trkpt lat="53.62073" lon="11.42975">
        <ele>78.123366</ele>
        <time>2024-07-20T13:20:21.257Z</time>
      </trkpt>
      <trkpt lat="53.62072" lon="11.42991">
        <ele>78.260256</ele>
        <time>2024-07-20T13:20:23.211Z</time>
      </trkpt>
      <trkpt lat="53.62071" lon="11.43007">
        <ele>78.401245</ele>
        <time>2024-07-20T13:20:25.220Z</time>
      </trkpt>
      <trkpt lat="53.62071" lon="11.43024">
        <ele>78.545447</ele>
        <time>2024-07-20T13:20:27.220Z</time>
      </trkpt>
      <trkpt lat="53.62071" lon="11.43041">
        <ele>78.689648</ele>
        <time>2024-07-20T13:20:29.222Z</time>
      </trkpt>
      <trkpt lat="53.6207" lon="11.43057">
        <ele>78.828084</ele>
        <time>2024-07-20T13:20:31.275Z</time>
      </trkpt>
      <trkpt lat="53.62069" lon="11.43074">
        <ele>78.967467</ele>
        <time>2024-07-20T13:20:33.219Z</time>
      </trkpt>
      <trkpt lat="53.62066" lon="11.43089">
        <ele>79.108248</ele>
        <time>2024-07-20T13:20:35.225Z</time>
      </trkpt>
      <trkpt lat="53.62063" lon="11.43104">
        <ele>79.24003</ele>
        <time>2024-07-20T13:20:37.220Z</time>
      </trkpt>
      <trkpt lat="53.62057" lon="11.43125">
        <ele>79.438694</ele>
        <time>2024-07-20T13:20:40.236Z</time>
      </trkpt>
      <trkpt lat="53.62052" lon="11.43138">
        <ele>79.577804</ele>
        <time>2024-07-20T13:20:42.225Z</time>
      </trkpt>
      <trkpt lat="53.62045" lon="11.4315">
        <ele>79.718306</ele>
        <time>2024-07-20T13:20:44.216Z</time>
      </trkpt>
      <trkpt lat="53.62038" lon="11.43162">
        <ele>79.863137</ele>
        <time>2024-07-20T13:20:46.223Z</time>
      </trkpt>
      <trkpt lat="53.6203" lon="11.43173">
        <ele>80.007789</ele>
        <time>2024-07-20T13:20:48.212Z</time>
      </trkpt>
      <trkpt lat="53.62022" lon="11.43182">
        <ele>80.131733</ele>
        <time>2024-07-20T13:20:50.236Z</time>
      </trkpt>
      <trkpt lat="53.62014" lon="11.4319">
        <ele>80.121012</ele>
        <time>2024-07-20T13:20:52.228Z</time>
      </trkpt>
      <trkpt lat="53.62002" lon="11.43198">
        <ele>80.106586</ele>
        <time>2024-07-20T13:20:55.231Z</time>
      </trkpt>
      <trkpt lat="53.61989" lon="11.43198">
        <ele>80.092258</ele>
        <time>2024-07-20T13:20:58.221Z</time>
      </trkpt>
      <trkpt lat="53.61977" lon="11.43197">
        <ele>80.078824</ele>
        <time>2024-07-20T13:21:01.265Z</time>
      </trkpt>
      <trkpt lat="53.61966" lon="11.43194">
        <ele>80.065909</ele>
        <time>2024-07-20T13:21:04.225Z</time>
      </trkpt>
      <trkpt lat="53.61957" lon="11.4319">
        <ele>80.055104</ele>
        <time>2024-07-20T13:21:06.222Z</time>
      </trkpt>
      <trkpt lat="53.61944" lon="11.43184">
        <ele>80.039968</ele>
        <time>2024-07-20T13:21:09.210Z</time>
      </trkpt>
      <trkpt lat="53.61935" lon="11.43176">
        <ele>80.029248</ele>
        <time>2024-07-20T13:21:11.239Z</time>
      </trkpt>
      <trkpt lat="53.61927" lon="11.43166">
        <ele>80.018263</ele>
        <time>2024-07-20T13:21:13.217Z</time>
      </trkpt>
      <trkpt lat="53.6192" lon="11.43155">
        <ele>80.007051</ele>
        <time>2024-07-20T13:21:15.213Z</time>
      </trkpt>
      <trkpt lat="53.61912" lon="11.43145">
        <ele>79.996227</ele>
        <time>2024-07-20T13:21:17.229Z</time>
      </trkpt>
      <trkpt lat="53.61905" lon="11.43136">
        <ele>79.985973</ele>
        <time>2024-07-20T13:21:19.237Z</time>
      </trkpt>
      <trkpt lat="53.61897" lon="11.43129">
        <ele>79.975665</ele>
        <time>2024-07-20T13:21:21.265Z</time>
      </trkpt>
      <trkpt lat="53.61883" lon="11.43126">
        <ele>79.959812</ele>
        <time>2024-07-20T13:21:24.214Z</time>
      </trkpt>
      <trkpt lat="53.61874" lon="11.43124">
        <ele>79.949132</ele>
        <time>2024-07-20T13:21:26.212Z</time>
      </trkpt>
      <trkpt lat="53.61864" lon="11.43125">
        <ele>79.938161</ele>
        <time>2024-07-20T13:21:28.211Z</time>
      </trkpt>
      <trkpt lat="53.61851" lon="11.43132">
        <ele>79.924584</ele>
        <time>2024-07-20T13:21:31.244Z</time>
      </trkpt>
      <trkpt lat="53.61843" lon="11.43139">
        <ele>79.916291</ele>
        <time>2024-07-20T13:21:33.205Z</time>
      </trkpt>
      <trkpt lat="53.61833" lon="11.43149">
        <ele>79.905032</ele>
        <time>2024-07-20T13:21:36.215Z</time>
      </trkpt>
      <trkpt lat="53.61822" lon="11.43162">
        <ele>79.893001</ele>
        <time>2024-07-20T13:21:39.193Z</time>
      </trkpt>
      <trkpt lat="53.61812" lon="11.43177">
        <ele>79.880715</ele>
        <time>2024-07-20T13:21:42.216Z</time>
      </trkpt>
      <trkpt lat="53.61806" lon="11.43188">
        <ele>79.872329</ele>
        <time>2024-07-20T13:21:44.225Z</time>
      </trkpt>
      <trkpt lat="53.61799" lon="11.43206">
        <ele>79.860523</ele>
        <time>2024-07-20T13:21:47.212Z</time>
      </trkpt>
      <trkpt lat="53.61793" lon="11.43226">
        <ele>79.848439</ele>
        <time>2024-07-20T13:21:50.219Z</time>
      </trkpt>
      <trkpt lat="53.61789" lon="11.43246">
        <ele>79.836813</ele>
        <time>2024-07-20T13:21:53.231Z</time>
      </trkpt>
      <trkpt lat="53.61783" lon="11.43265">
        <ele>79.825174</ele>
        <time>2024-07-20T13:21:56.228Z</time>
      </trkpt>
      <trkpt lat="53.61778" lon="11.43284">
        <ele>79.813575</ele>
        <time>2024-07-20T13:21:59.224Z</time>
      </trkpt>
      <trkpt lat="53.61771" lon="11.43304">
        <ele>79.801502</ele>
        <time>2024-07-20T13:22:02.237Z</time>
      </trkpt>
      <trkpt lat="53.61765" lon="11.43317">
        <ele>79.792095</ele>
        <time>2024-07-20T13:22:05.217Z</time>
      </trkpt>
      <trkpt lat="53.61759" lon="11.4333">
        <ele>79.782919</ele>
        <time>2024-07-20T13:22:10.207Z</time>
      </trkpt>
      <trkpt lat="53.61751" lon="11.43346">
        <ele>79.771644</ele>
        <time>2024-07-20T13:22:14.213Z</time>
      </trkpt>
      <trkpt lat="53.61745" lon="11.4336">
        <ele>79.704446</ele>
        <time>2024-07-20T13:22:17.228Z</time>
      </trkpt>
      <trkpt lat="53.61739" lon="11.43373">
        <ele>79.499449</ele>
        <time>2024-07-20T13:22:20.226Z</time>
      </trkpt>
      <trkpt lat="53.61734" lon="11.43386">
        <ele>79.302992</ele>
        <time>2024-07-20T13:22:23.217Z</time>
      </trkpt>
      <trkpt lat="53.61728" lon="11.43398">
        <ele>79.092605</ele>
        <time>2024-07-20T13:22:26.228Z</time>
      </trkpt>
      <trkpt lat="53.6172" lon="11.43414">
        <ele>78.825133</ele>
        <time>2024-07-20T13:22:30.226Z</time>
      </trkpt>
      <trkpt lat="53.61714" lon="11.43426">
        <ele>78.619349</ele>
        <time>2024-07-20T13:22:33.226Z</time>
      </trkpt>
      <trkpt lat="53.61707" lon="11.43438">
        <ele>78.406828</ele>
        <time>2024-07-20T13:22:36.222Z</time>
      </trkpt>
      <trkpt lat="53.617" lon="11.4345">
        <ele>78.194064</ele>
        <time>2024-07-20T13:22:39.213Z</time>
      </trkpt>
      <trkpt lat="53.61693" lon="11.43462">
        <ele>77.96632</ele>
        <time>2024-07-20T13:22:42.229Z</time>
      </trkpt>
      <trkpt lat="53.61683" lon="11.43475">
        <ele>77.694292</ele>
        <time>2024-07-20T13:22:45.225Z</time>
      </trkpt>
      <trkpt lat="53.61675" lon="11.43486">
        <ele>77.461539</ele>
        <time>2024-07-20T13:22:48.224Z</time>
      </trkpt>
      <trkpt lat="53.61666" lon="11.435">
        <ele>77.198893</ele>
        <time>2024-07-20T13:22:51.273Z</time>
      </trkpt>
      <trkpt lat="53.61655" lon="11.43509">
        <ele>76.950527</ele>
        <time>2024-07-20T13:22:54.205Z</time>
      </trkpt>
      <trkpt lat="53.61645" lon="11.43517">
        <ele>76.699488</ele>
        <time>2024-07-20T13:22:57.236Z</time>
      </trkpt>
      <trkpt lat="53.61634" lon="11.43522">
        <ele>76.446929</ele>
        <time>2024-07-20T13:23:00.223Z</time>
      </trkpt>
      <trkpt lat="53.61622" lon="11.43526">
        <ele>76.193239</ele>
        <time>2024-07-20T13:23:03.222Z</time>
      </trkpt>
      <trkpt lat="53.61611" lon="11.43529">
        <ele>75.935753</ele>
        <time>2024-07-20T13:23:06.229Z</time>
      </trkpt>
      <trkpt lat="53.61599" lon="11.43531">
        <ele>75.998883</ele>
        <time>2024-07-20T13:23:09.224Z</time>
      </trkpt>
      <trkpt lat="53.61588" lon="11.43535">
        <ele>76.213962</ele>
        <time>2024-07-20T13:23:12.216Z</time>
      </trkpt>
      <trkpt lat="53.61578" lon="11.43538">
        <ele>76.390715</ele>
        <time>2024-07-20T13:23:15.245Z</time>
      </trkpt>
      <trkpt lat="53.61572" lon="11.43546">
        <ele>76.529169</ele>
        <time>2024-07-20T13:23:26.966Z</time>
      </trkpt>
      <trkpt lat="53.61564" lon="11.43542">
        <ele>76.699458</ele>
        <time>2024-07-20T13:39:02.217Z</time>
      </trkpt>
      <trkpt lat="53.61554" lon="11.43541">
        <ele>76.878512</ele>
        <time>2024-07-20T13:39:08.229Z</time>
      </trkpt>
      <trkpt lat="53.61544" lon="11.43543">
        <ele>77.054877</ele>
        <time>2024-07-20T13:39:13.224Z</time>
      </trkpt>
      <trkpt lat="53.61534" lon="11.43545">
        <ele>77.242634</ele>
        <time>2024-07-20T13:39:17.245Z</time>
      </trkpt>
      <trkpt lat="53.61522" lon="11.43549">
        <ele>77.463295</ele>
        <time>2024-07-20T13:39:21.251Z</time>
      </trkpt>
      <trkpt lat="53.61513" lon="11.43552">
        <ele>77.629342</ele>
        <time>2024-07-20T13:39:24.232Z</time>
      </trkpt>
      <trkpt lat="53.61504" lon="11.43555">
        <ele>77.795729</ele>
        <time>2024-07-20T13:39:27.239Z</time>
      </trkpt>
      <trkpt lat="53.61495" lon="11.43558">
        <ele>77.966236</ele>
        <time>2024-07-20T13:39:30.235Z</time>
      </trkpt>
      <trkpt lat="53.61486" lon="11.43561">
        <ele>78.133102</ele>
        <time>2024-07-20T13:39:33.225Z</time>
      </trkpt>
      <trkpt lat="53.61476" lon="11.43564">
        <ele>78.316214</ele>
        <time>2024-07-20T13:39:36.231Z</time>
      </trkpt>
      <trkpt lat="53.61466" lon="11.43568">
        <ele>78.50032</ele>
        <time>2024-07-20T13:39:39.240Z</time>
      </trkpt>
      <trkpt lat="53.61457" lon="11.43572">
        <ele>78.684174</ele>
        <time>2024-07-20T13:39:42.229Z</time>
      </trkpt>
      <trkpt lat="53.61446" lon="11.43576">
        <ele>78.876148</ele>
        <time>2024-07-20T13:39:45.240Z</time>
      </trkpt>
      <trkpt lat="53.61436" lon="11.43581">
        <ele>79.080081</ele>
        <time>2024-07-20T13:39:48.232Z</time>
      </trkpt>
      <trkpt lat="53.61426" lon="11.43585">
        <ele>79.214332</ele>
        <time>2024-07-20T13:39:51.240Z</time>
      </trkpt>
      <trkpt lat="53.61418" lon="11.4359">
        <ele>79.322364</ele>
        <time>2024-07-20T13:39:54.228Z</time>
      </trkpt>
      <trkpt lat="53.61408" lon="11.43594">
        <ele>79.44061</ele>
        <time>2024-07-20T13:39:57.227Z</time>
      </trkpt>
      <trkpt lat="53.61398" lon="11.43598">
        <ele>79.558687</ele>
        <time>2024-07-20T13:40:00.230Z</time>
      </trkpt>
      <trkpt lat="53.61387" lon="11.43605">
        <ele>79.699419</ele>
        <time>2024-07-20T13:40:03.241Z</time>
      </trkpt>
      <trkpt lat="53.61378" lon="11.43611">
        <ele>79.810861</ele>
        <time>2024-07-20T13:40:05.232Z</time>
      </trkpt>
      <trkpt lat="53.61368" lon="11.4362">
        <ele>79.951795</ele>
        <time>2024-07-20T13:40:08.238Z</time>
      </trkpt>
      <trkpt lat="53.61356" lon="11.43626">
        <ele>80.091629</ele>
        <time>2024-07-20T13:40:11.248Z</time>
      </trkpt>
      <trkpt lat="53.61347" lon="11.43633">
        <ele>80.21889</ele>
        <time>2024-07-20T13:40:14.234Z</time>
      </trkpt>
      <trkpt lat="53.61337" lon="11.4364">
        <ele>80.343767</ele>
        <time>2024-07-20T13:40:17.231Z</time>
      </trkpt>
      <trkpt lat="53.61327" lon="11.43647">
        <ele>80.468878</ele>
        <time>2024-07-20T13:40:20.227Z</time>
      </trkpt>
      <trkpt lat="53.61316" lon="11.43655">
        <ele>80.616811</ele>
        <time>2024-07-20T13:40:23.198Z</time>
      </trkpt>
      <trkpt lat="53.61305" lon="11.43662">
        <ele>80.745748</ele>
        <time>2024-07-20T13:40:26.226Z</time>
      </trkpt>
      <trkpt lat="53.61296" lon="11.43666">
        <ele>80.865312</ele>
        <time>2024-07-20T13:40:29.231Z</time>
      </trkpt>
      <trkpt lat="53.61286" lon="11.43664">
        <ele>80.973824</ele>
        <time>2024-07-20T13:40:32.228Z</time>
      </trkpt>
      <trkpt lat="53.61277" lon="11.43664">
        <ele>81.081433</ele>
        <time>2024-07-20T13:40:35.234Z</time>
      </trkpt>
      <trkpt lat="53.61266" lon="11.43666">
        <ele>81.211913</ele>
        <time>2024-07-20T13:40:39.223Z</time>
      </trkpt>
      <trkpt lat="53.61257" lon="11.43674">
        <ele>81.345219</ele>
        <time>2024-07-20T13:40:42.240Z</time>
      </trkpt>
      <trkpt lat="53.61246" lon="11.43683">
        <ele>81.522889</ele>
        <time>2024-07-20T13:40:45.228Z</time>
      </trkpt>
      <trkpt lat="53.61235" lon="11.43691">
        <ele>81.689958</ele>
        <time>2024-07-20T13:40:48.231Z</time>
      </trkpt>
      <trkpt lat="53.61222" lon="11.43698">
        <ele>81.870321</ele>
        <time>2024-07-20T13:40:51.238Z</time>
      </trkpt>
      <trkpt lat="53.61211" lon="11.43708">
        <ele>82.045543</ele>
        <time>2024-07-20T13:40:54.214Z</time>
      </trkpt>
      <trkpt lat="53.61201" lon="11.43715">
        <ele>82.199789</ele>
        <time>2024-07-20T13:40:57.232Z</time>
      </trkpt>
      <trkpt lat="53.61192" lon="11.43722">
        <ele>82.336333</ele>
        <time>2024-07-20T13:41:00.253Z</time>
      </trkpt>
      <trkpt lat="53.61182" lon="11.4373">
        <ele>82.497711</ele>
        <time>2024-07-20T13:41:03.238Z</time>
      </trkpt>
      <trkpt lat="53.61171" lon="11.43741">
        <ele>82.670868</ele>
        <time>2024-07-20T13:41:06.229Z</time>
      </trkpt>
      <trkpt lat="53.61163" lon="11.4375">
        <ele>82.805457</ele>
        <time>2024-07-20T13:41:08.228Z</time>
      </trkpt>
      <trkpt lat="53.61155" lon="11.43759">
        <ele>82.942863</ele>
        <time>2024-07-20T13:41:10.230Z</time>
      </trkpt>
      <trkpt lat="53.61145" lon="11.43769">
        <ele>83.106866</ele>
        <time>2024-07-20T13:41:13.236Z</time>
      </trkpt>
      <trkpt lat="53.61136" lon="11.43779">
        <ele>83.256951</ele>
        <time>2024-07-20T13:41:16.228Z</time>
      </trkpt>
      <trkpt lat="53.61127" lon="11.4379">
        <ele>83.411982</ele>
        <time>2024-07-20T13:41:18.206Z</time>
      </trkpt>
      <trkpt lat="53.61119" lon="11.43801">
        <ele>83.55287</ele>
        <time>2024-07-20T13:41:20.240Z</time>
      </trkpt>
      <trkpt lat="53.61111" lon="11.43813">
        <ele>83.703873</ele>
        <time>2024-07-20T13:41:22.246Z</time>
      </trkpt>
      <trkpt lat="53.61103" lon="11.43825">
        <ele>83.692671</ele>
        <time>2024-07-20T13:41:24.237Z</time>
      </trkpt>
      <trkpt lat="53.61096" lon="11.43836">
        <ele>83.553605</ele>
        <time>2024-07-20T13:41:26.227Z</time>
      </trkpt>
      <trkpt lat="53.61088" lon="11.43851">
        <ele>83.364635</ele>
        <time>2024-07-20T13:41:29.245Z</time>
      </trkpt>
      <trkpt lat="53.6108" lon="11.43862">
        <ele>83.21021</ele>
        <time>2024-07-20T13:41:31.235Z</time>
      </trkpt>
      <trkpt lat="53.61073" lon="11.43872">
        <ele>83.068994</ele>
        <time>2024-07-20T13:41:33.236Z</time>
      </trkpt>
      <trkpt lat="53.61063" lon="11.43888">
        <ele>82.868831</ele>
        <time>2024-07-20T13:41:36.207Z</time>
      </trkpt>
      <trkpt lat="53.61055" lon="11.439">
        <ele>82.701769</ele>
        <time>2024-07-20T13:41:39.201Z</time>
      </trkpt>
      <trkpt lat="53.61047" lon="11.43912">
        <ele>82.546625</ele>
        <time>2024-07-20T13:41:42.231Z</time>
      </trkpt>
      <trkpt lat="53.61039" lon="11.43924">
        <ele>82.390877</ele>
        <time>2024-07-20T13:41:45.229Z</time>
      </trkpt>
      <trkpt lat="53.61032" lon="11.43938">
        <ele>82.228167</ele>
        <time>2024-07-20T13:41:48.227Z</time>
      </trkpt>
      <trkpt lat="53.61025" lon="11.43948">
        <ele>82.079478</ele>
        <time>2024-07-20T13:41:50.234Z</time>
      </trkpt>
      <trkpt lat="53.61016" lon="11.43963">
        <ele>81.900638</ele>
        <time>2024-07-20T13:41:53.225Z</time>
      </trkpt>
      <trkpt lat="53.61009" lon="11.43975">
        <ele>81.743058</ele>
        <time>2024-07-20T13:41:56.242Z</time>
      </trkpt>
      <trkpt lat="53.61" lon="11.4399">
        <ele>81.553192</ele>
        <time>2024-07-20T13:42:00.237Z</time>
      </trkpt>
      <trkpt lat="53.60991" lon="11.44003">
        <ele>81.376842</ele>
        <time>2024-07-20T13:42:02.230Z</time>
      </trkpt>
      <trkpt lat="53.60985" lon="11.44014">
        <ele>81.240867</ele>
        <time>2024-07-20T13:42:04.224Z</time>
      </trkpt>
      <trkpt lat="53.60976" lon="11.44028">
        <ele>81.071131</ele>
        <time>2024-07-20T13:42:07.223Z</time>
      </trkpt>
      <trkpt lat="53.60968" lon="11.44041">
        <ele>81.042232</ele>
        <time>2024-07-20T13:42:10.244Z</time>
      </trkpt>
      <trkpt lat="53.60959" lon="11.44054">
        <ele>81.012648</ele>
        <time>2024-07-20T13:42:13.210Z</time>
      </trkpt>
      <trkpt lat="53.60951" lon="11.44071">
        <ele>80.978836</ele>
        <time>2024-07-20T13:42:16.237Z</time>
      </trkpt>
      <trkpt lat="53.60945" lon="11.44083">
        <ele>80.954887</ele>
        <time>2024-07-20T13:42:18.223Z</time>
      </trkpt>
      <trkpt lat="53.6094" lon="11.44096">
        <ele>80.931472</ele>
        <time>2024-07-20T13:42:20.229Z</time>
      </trkpt>
      <trkpt lat="53.60933" lon="11.44109">
        <ele>80.905885</ele>
        <time>2024-07-20T13:42:22.205Z</time>
      </trkpt>
      <trkpt lat="53.60925" lon="11.44124">
        <ele>80.874512</ele>
        <time>2024-07-20T13:42:24.222Z</time>
      </trkpt>
      <trkpt lat="53.60917" lon="11.44138">
        <ele>80.846091</ele>
        <time>2024-07-20T13:42:26.235Z</time>
      </trkpt>
      <trkpt lat="53.60911" lon="11.44153">
        <ele>80.817117</ele>
        <time>2024-07-20T13:42:28.233Z</time>
      </trkpt>
      <trkpt lat="53.60905" lon="11.44169">
        <ele>80.788883</ele>
        <time>2024-07-20T13:42:30.225Z</time>
      </trkpt>
      <trkpt lat="53.60897" lon="11.44186">
        <ele>80.757075</ele>
        <time>2024-07-20T13:42:32.236Z</time>
      </trkpt>
      <trkpt lat="53.6089" lon="11.442">
        <ele>80.728243</ele>
        <time>2024-07-20T13:42:34.234Z</time>
      </trkpt>
      <trkpt lat="53.60884" lon="11.44214">
        <ele>80.701955</ele>
        <time>2024-07-20T13:42:36.239Z</time>
      </trkpt>
      <trkpt lat="53.60878" lon="11.44228">
        <ele>80.676959</ele>
        <time>2024-07-20T13:42:38.240Z</time>
      </trkpt>
      <trkpt lat="53.60872" lon="11.44244">
        <ele>80.647937</ele>
        <time>2024-07-20T13:42:40.239Z</time>
      </trkpt>
      <trkpt lat="53.60866" lon="11.44257">
        <ele>80.621954</ele>
        <time>2024-07-20T13:42:42.227Z</time>
      </trkpt>
      <trkpt lat="53.6086" lon="11.44272">
        <ele>80.620736</ele>
        <time>2024-07-20T13:42:44.233Z</time>
      </trkpt>
      <trkpt lat="53.60854" lon="11.44286">
        <ele>80.632684</ele>
        <time>2024-07-20T13:42:46.230Z</time>
      </trkpt>
      <trkpt lat="53.60849" lon="11.44299">
        <ele>80.644222</ele>
        <time>2024-07-20T13:42:48.220Z</time>
      </trkpt>
      <trkpt lat="53.60842" lon="11.44317">
        <ele>80.65913</ele>
        <time>2024-07-20T13:42:51.244Z</time>
      </trkpt>
      <trkpt lat="53.60837" lon="11.44334">
        <ele>80.67284</ele>
        <time>2024-07-20T13:42:54.233Z</time>
      </trkpt>
      <trkpt lat="53.60832" lon="11.44349">
        <ele>80.685008</ele>
        <time>2024-07-20T13:42:57.234Z</time>
      </trkpt>
      <trkpt lat="53.60824" lon="11.44363">
        <ele>80.698462</ele>
        <time>2024-07-20T13:43:00.226Z</time>
      </trkpt>
      <trkpt lat="53.60816" lon="11.44375">
        <ele>80.711637</ele>
        <time>2024-07-20T13:43:03.241Z</time>
      </trkpt>
      <trkpt lat="53.60807" lon="11.44384">
        <ele>80.724079</ele>
        <time>2024-07-20T13:43:06.213Z</time>
      </trkpt>
      <trkpt lat="53.60798" lon="11.44391">
        <ele>80.73556</ele>
        <time>2024-07-20T13:43:09.225Z</time>
      </trkpt>
      <trkpt lat="53.60789" lon="11.444">
        <ele>80.748286</ele>
        <time>2024-07-20T13:43:11.241Z</time>
      </trkpt>
      <trkpt lat="53.6078" lon="11.44407">
        <ele>80.759491</ele>
        <time>2024-07-20T13:43:13.241Z</time>
      </trkpt>
      <trkpt lat="53.60771" lon="11.44416">
        <ele>80.772349</ele>
        <time>2024-07-20T13:43:16.226Z</time>
      </trkpt>
      <trkpt lat="53.60762" lon="11.44424">
        <ele>80.784061</ele>
        <time>2024-07-20T13:43:21.242Z</time>
      </trkpt>
      <trkpt lat="53.60753" lon="11.44434">
        <ele>80.797612</ele>
        <time>2024-07-20T13:43:24.222Z</time>
      </trkpt>
      <trkpt lat="53.60743" lon="11.44444">
        <ele>80.811272</ele>
        <time>2024-07-20T13:43:27.221Z</time>
      </trkpt>
      <trkpt lat="53.60734" lon="11.44452">
        <ele>80.823366</ele>
        <time>2024-07-20T13:43:30.242Z</time>
      </trkpt>
      <trkpt lat="53.60724" lon="11.44464">
        <ele>80.803432</ele>
        <time>2024-07-20T13:43:33.223Z</time>
      </trkpt>
      <trkpt lat="53.60716" lon="11.44474">
        <ele>80.777481</ele>
        <time>2024-07-20T13:43:36.225Z</time>
      </trkpt>
      <trkpt lat="53.60707" lon="11.44486">
        <ele>80.747855</ele>
        <time>2024-07-20T13:43:39.235Z</time>
      </trkpt>
      <trkpt lat="53.60698" lon="11.44499">
        <ele>80.718437</ele>
        <time>2024-07-20T13:43:42.230Z</time>
      </trkpt>
      <trkpt lat="53.60691" lon="11.44513">
        <ele>80.691192</ele>
        <time>2024-07-20T13:43:45.247Z</time>
      </trkpt>
      <trkpt lat="53.60684" lon="11.44524">
        <ele>80.664419</ele>
        <time>2024-07-20T13:43:48.235Z</time>
      </trkpt>
      <trkpt lat="53.60676" lon="11.44537">
        <ele>80.636031</ele>
        <time>2024-07-20T13:43:51.237Z</time>
      </trkpt>
      <trkpt lat="53.60666" lon="11.44553">
        <ele>80.602244</ele>
        <time>2024-07-20T13:43:54.227Z</time>
      </trkpt>
      <trkpt lat="53.6066" lon="11.44563">
        <ele>80.578903</ele>
        <time>2024-07-20T13:43:56.229Z</time>
      </trkpt>
      <trkpt lat="53.6065" lon="11.44578">
        <ele>80.545373</ele>
        <time>2024-07-20T13:43:59.227Z</time>
      </trkpt>
      <trkpt lat="53.6064" lon="11.44589">
        <ele>80.515013</ele>
        <time>2024-07-20T13:44:02.259Z</time>
      </trkpt>
      <trkpt lat="53.60627" lon="11.44598">
        <ele>80.480396</ele>
        <time>2024-07-20T13:44:05.218Z</time>
      </trkpt>
      <trkpt lat="53.60615" lon="11.44608">
        <ele>80.445043</ele>
        <time>2024-07-20T13:44:08.239Z</time>
      </trkpt>
      <trkpt lat="53.60607" lon="11.44615">
        <ele>80.42128</ele>
        <time>2024-07-20T13:44:10.209Z</time>
      </trkpt>
      <trkpt lat="53.60595" lon="11.44625">
        <ele>80.387914</ele>
        <time>2024-07-20T13:44:13.232Z</time>
      </trkpt>
      <trkpt lat="53.60585" lon="11.44632">
        <ele>80.375708</ele>
        <time>2024-07-20T13:44:16.239Z</time>
      </trkpt>
      <trkpt lat="53.60574" lon="11.44639">
        <ele>80.418696</ele>
        <time>2024-07-20T13:44:19.241Z</time>
      </trkpt>
      <trkpt lat="53.60564" lon="11.44648">
        <ele>80.460853</ele>
        <time>2024-07-20T13:44:22.224Z</time>
      </trkpt>
      <trkpt lat="53.60555" lon="11.44655">
        <ele>80.498636</ele>
        <time>2024-07-20T13:44:25.235Z</time>
      </trkpt>
      <trkpt lat="53.60545" lon="11.44664">
        <ele>80.539174</ele>
        <time>2024-07-20T13:44:28.205Z</time>
      </trkpt>
      <trkpt lat="53.60532" lon="11.44675">
        <ele>80.594132</ele>
        <time>2024-07-20T13:44:31.245Z</time>
      </trkpt>
      <trkpt lat="53.60521" lon="11.44684">
        <ele>80.637438</ele>
        <time>2024-07-20T13:44:34.234Z</time>
      </trkpt>
      <trkpt lat="53.60511" lon="11.44693">
        <ele>80.681637</ele>
        <time>2024-07-20T13:44:37.240Z</time>
      </trkpt>
      <trkpt lat="53.60503" lon="11.44702">
        <ele>80.716837</ele>
        <time>2024-07-20T13:44:39.233Z</time>
      </trkpt>
      <trkpt lat="53.60491" lon="11.44716">
        <ele>80.771101</ele>
        <time>2024-07-20T13:44:41.237Z</time>
      </trkpt>
      <trkpt lat="53.60482" lon="11.44728">
        <ele>80.814122</ele>
        <time>2024-07-20T13:44:43.234Z</time>
      </trkpt>
      <trkpt lat="53.60471" lon="11.44737">
        <ele>80.858385</ele>
        <time>2024-07-20T13:44:46.226Z</time>
      </trkpt>
      <trkpt lat="53.60459" lon="11.44746">
        <ele>80.908238</ele>
        <time>2024-07-20T13:44:49.249Z</time>
      </trkpt>
      <trkpt lat="53.60448" lon="11.44759">
        <ele>80.956569</ele>
        <time>2024-07-20T13:44:51.211Z</time>
      </trkpt>
      <trkpt lat="53.60439" lon="11.4477">
        <ele>80.997553</ele>
        <time>2024-07-20T13:44:53.229Z</time>
      </trkpt>
      <trkpt lat="53.60432" lon="11.4478">
        <ele>81.032024</ele>
        <time>2024-07-20T13:44:55.224Z</time>
      </trkpt>
      <trkpt lat="53.60425" lon="11.44798">
        <ele>81.203286</ele>
        <time>2024-07-20T13:44:58.222Z</time>
      </trkpt>
      <trkpt lat="53.6042" lon="11.44817">
        <ele>81.373843</ele>
        <time>2024-07-20T13:45:01.248Z</time>
      </trkpt>
      <trkpt lat="53.60415" lon="11.44833">
        <ele>81.523844</ele>
        <time>2024-07-20T13:45:03.247Z</time>
      </trkpt>
      <trkpt lat="53.60409" lon="11.44849">
        <ele>81.684578</ele>
        <time>2024-07-20T13:45:05.228Z</time>
      </trkpt>
      <trkpt lat="53.60404" lon="11.44864">
        <ele>81.822905</ele>
        <time>2024-07-20T13:45:07.223Z</time>
      </trkpt>
      <trkpt lat="53.60399" lon="11.44882">
        <ele>81.986645</ele>
        <time>2024-07-20T13:45:10.233Z</time>
      </trkpt>
      <trkpt lat="53.60396" lon="11.44901">
        <ele>82.153709</ele>
        <time>2024-07-20T13:45:13.216Z</time>
      </trkpt>
      <trkpt lat="53.60391" lon="11.44925">
        <ele>82.362396</ele>
        <time>2024-07-20T13:45:16.243Z</time>
      </trkpt>
      <trkpt lat="53.60385" lon="11.44942">
        <ele>82.523704</ele>
        <time>2024-07-20T13:45:18.234Z</time>
      </trkpt>
      <trkpt lat="53.60379" lon="11.44958">
        <ele>82.679986</ele>
        <time>2024-07-20T13:45:20.237Z</time>
      </trkpt>
      <trkpt lat="53.60374" lon="11.44975">
        <ele>82.830897</ele>
        <time>2024-07-20T13:45:22.231Z</time>
      </trkpt>
      <trkpt lat="53.6037" lon="11.44989">
        <ele>82.96385</ele>
        <time>2024-07-20T13:45:24.231Z</time>
      </trkpt>
      <trkpt lat="53.60364" lon="11.45009">
        <ele>83.144408</ele>
        <time>2024-07-20T13:45:27.238Z</time>
      </trkpt>
      <trkpt lat="53.60361" lon="11.45023">
        <ele>83.271181</ele>
        <time>2024-07-20T13:45:29.212Z</time>
      </trkpt>
      <trkpt lat="53.60357" lon="11.45037">
        <ele>83.397403</ele>
        <time>2024-07-20T13:45:31.242Z</time>
      </trkpt>
      <trkpt lat="53.60353" lon="11.45059">
        <ele>83.492742</ele>
        <time>2024-07-20T13:45:34.249Z</time>
      </trkpt>
      <trkpt lat="53.60348" lon="11.45075">
        <ele>83.364759</ele>
        <time>2024-07-20T13:45:36.230Z</time>
      </trkpt>
      <trkpt lat="53.60344" lon="11.45089">
        <ele>83.249543</ele>
        <time>2024-07-20T13:45:38.242Z</time>
      </trkpt>
      <trkpt lat="53.60339" lon="11.45102">
        <ele>83.14109</ele>
        <time>2024-07-20T13:45:40.243Z</time>
      </trkpt>
      <trkpt lat="53.60334" lon="11.45117">
        <ele>83.024001</ele>
        <time>2024-07-20T13:45:42.226Z</time>
      </trkpt>
      <trkpt lat="53.6033" lon="11.45137">
        <ele>82.870081</ele>
        <time>2024-07-20T13:45:45.239Z</time>
      </trkpt>
      <trkpt lat="53.60325" lon="11.45151">
        <ele>82.757302</ele>
        <time>2024-07-20T13:45:47.225Z</time>
      </trkpt>
      <trkpt lat="53.6032" lon="11.45171">
        <ele>82.602635</ele>
        <time>2024-07-20T13:45:50.213Z</time>
      </trkpt>
      <trkpt lat="53.60315" lon="11.45191">
        <ele>82.451332</ele>
        <time>2024-07-20T13:45:53.209Z</time>
      </trkpt>
      <trkpt lat="53.60312" lon="11.45206">
        <ele>82.341323</ele>
        <time>2024-07-20T13:45:56.215Z</time>
      </trkpt>
      <trkpt lat="53.6031" lon="11.45223">
        <ele>82.212559</ele>
        <time>2024-07-20T13:46:01.222Z</time>
      </trkpt>
      <trkpt lat="53.60306" lon="11.45241">
        <ele>82.079461</ele>
        <time>2024-07-20T13:46:06.223Z</time>
      </trkpt>
      <trkpt lat="53.603" lon="11.45253">
        <ele>81.970994</ele>
        <time>2024-07-20T13:46:12.206Z</time>
      </trkpt>
      <trkpt lat="53.60292" lon="11.45262">
        <ele>81.849776</ele>
        <time>2024-07-20T13:46:17.209Z</time>
      </trkpt>
      <trkpt lat="53.60289" lon="11.4528">
        <ele>81.713961</ele>
        <time>2024-07-20T13:46:21.222Z</time>
      </trkpt>
      <trkpt lat="53.60285" lon="11.45299">
        <ele>81.576348</ele>
        <time>2024-07-20T13:46:25.218Z</time>
      </trkpt>
      <trkpt lat="53.60281" lon="11.45318">
        <ele>81.433655</ele>
        <time>2024-07-20T13:46:29.203Z</time>
      </trkpt>
      <trkpt lat="53.60277" lon="11.45335">
        <ele>81.42534</ele>
        <time>2024-07-20T13:46:33.230Z</time>
      </trkpt>
      <trkpt lat="53.60274" lon="11.4535">
        <ele>81.470014</ele>
        <time>2024-07-20T13:46:37.249Z</time>
      </trkpt>
      <trkpt lat="53.60273" lon="11.45366">
        <ele>81.514591</ele>
        <time>2024-07-20T13:46:41.237Z</time>
      </trkpt>
      <trkpt lat="53.60271" lon="11.45384">
        <ele>81.567698</ele>
        <time>2024-07-20T13:46:46.209Z</time>
      </trkpt>
      <trkpt lat="53.6027" lon="11.45401">
        <ele>81.617375</ele>
        <time>2024-07-20T13:46:50.210Z</time>
      </trkpt>
      <trkpt lat="53.60269" lon="11.4542">
        <ele>81.672031</ele>
        <time>2024-07-20T13:46:54.224Z</time>
      </trkpt>
      <trkpt lat="53.60269" lon="11.45438">
        <ele>81.725487</ele>
        <time>2024-07-20T13:46:58.251Z</time>
      </trkpt>
      <trkpt lat="53.60269" lon="11.45459">
        <ele>81.783924</ele>
        <time>2024-07-20T13:47:02.207Z</time>
      </trkpt>
      <trkpt lat="53.60269" lon="11.45478">
        <ele>81.839729</ele>
        <time>2024-07-20T13:47:06.239Z</time>
      </trkpt>
      <trkpt lat="53.60269" lon="11.45494">
        <ele>81.884871</ele>
        <time>2024-07-20T13:47:09.232Z</time>
      </trkpt>
      <trkpt lat="53.60269" lon="11.45509">
        <ele>81.928852</ele>
        <time>2024-07-20T13:47:12.248Z</time>
      </trkpt>
      <trkpt lat="53.60269" lon="11.45524">
        <ele>81.972888</ele>
        <time>2024-07-20T13:47:15.243Z</time>
      </trkpt>
      <trkpt lat="53.60271" lon="11.45545">
        <ele>82.030897</ele>
        <time>2024-07-20T13:47:19.222Z</time>
      </trkpt>
      <trkpt lat="53.6027" lon="11.45561">
        <ele>82.078929</ele>
        <time>2024-07-20T13:47:22.218Z</time>
      </trkpt>
      <trkpt lat="53.60271" lon="11.45579">
        <ele>82.131289</ele>
        <time>2024-07-20T13:47:25.227Z</time>
      </trkpt>
      <trkpt lat="53.60271" lon="11.45599">
        <ele>82.186501</ele>
        <time>2024-07-20T13:47:28.232Z</time>
      </trkpt>
      <trkpt lat="53.60271" lon="11.45617">
        <ele>82.240537</ele>
        <time>2024-07-20T13:47:31.240Z</time>
      </trkpt>
      <trkpt lat="53.60274" lon="11.45634">
        <ele>82.211412</ele>
        <time>2024-07-20T13:47:34.225Z</time>
      </trkpt>
      <trkpt lat="53.60275" lon="11.45651">
        <ele>82.126025</ele>
        <time>2024-07-20T13:47:37.236Z</time>
      </trkpt>
      <trkpt lat="53.60277" lon="11.45666">
        <ele>82.047028</ele>
        <time>2024-07-20T13:47:40.220Z</time>
      </trkpt>
      <trkpt lat="53.60279" lon="11.45682">
        <ele>81.967541</ele>
        <time>2024-07-20T13:47:43.239Z</time>
      </trkpt>
      <trkpt lat="53.60281" lon="11.45697">
        <ele>81.890965</ele>
        <time>2024-07-20T13:47:46.232Z</time>
      </trkpt>
      <trkpt lat="53.60285" lon="11.45716">
        <ele>81.789844</ele>
        <time>2024-07-20T13:47:50.248Z</time>
      </trkpt>
      <trkpt lat="53.60287" lon="11.45731">
        <ele>81.710618</ele>
        <time>2024-07-20T13:47:54.208Z</time>
      </trkpt>
      <trkpt lat="53.60289" lon="11.45746">
        <ele>81.634097</ele>
        <time>2024-07-20T13:47:59.219Z</time>
      </trkpt>
      <trkpt lat="53.60291" lon="11.45762">
        <ele>81.55117</ele>
        <time>2024-07-20T13:48:03.219Z</time>
      </trkpt>
      <trkpt lat="53.60294" lon="11.45779">
        <ele>81.463891</ele>
        <time>2024-07-20T13:48:07.230Z</time>
      </trkpt>
      <trkpt lat="53.60297" lon="11.45796">
        <ele>81.374703</ele>
        <time>2024-07-20T13:48:11.244Z</time>
      </trkpt>
      <trkpt lat="53.60301" lon="11.45813">
        <ele>81.282055</ele>
        <time>2024-07-20T13:48:15.210Z</time>
      </trkpt>
      <trkpt lat="53.60306" lon="11.45823">
        <ele>81.21779</ele>
        <time>2024-07-20T13:48:28.837Z</time>
      </trkpt>
      <trkpt lat="53.60313" lon="11.45857">
        <ele>81.039636</ele>
        <time>2024-07-20T13:49:18.240Z</time>
      </trkpt>
      <trkpt lat="53.60317" lon="11.45871">
        <ele>80.956118</ele>
        <time>2024-07-20T13:49:21.242Z</time>
      </trkpt>
      <trkpt lat="53.60321" lon="11.45888">
        <ele>80.867109</ele>
        <time>2024-07-20T13:49:24.222Z</time>
      </trkpt>
      <trkpt lat="53.60326" lon="11.45905">
        <ele>80.770325</ele>
        <time>2024-07-20T13:49:27.207Z</time>
      </trkpt>
      <trkpt lat="53.60331" lon="11.45922">
        <ele>80.762304</ele>
        <time>2024-07-20T13:49:30.240Z</time>
      </trkpt>
      <trkpt lat="53.60336" lon="11.45937">
        <ele>80.786171</ele>
        <time>2024-07-20T13:49:33.222Z</time>
      </trkpt>
      <trkpt lat="53.60342" lon="11.4595">
        <ele>80.808223</ele>
        <time>2024-07-20T13:49:36.223Z</time>
      </trkpt>
      <trkpt lat="53.60349" lon="11.45964">
        <ele>80.832543</ele>
        <time>2024-07-20T13:49:39.225Z</time>
      </trkpt>
      <trkpt lat="53.60355" lon="11.4598">
        <ele>80.858135</ele>
        <time>2024-07-20T13:49:42.223Z</time>
      </trkpt>
      <trkpt lat="53.60361" lon="11.45995">
        <ele>80.882821</ele>
        <time>2024-07-20T13:49:45.240Z</time>
      </trkpt>
      <trkpt lat="53.60368" lon="11.4601">
        <ele>80.907227</ele>
        <time>2024-07-20T13:49:48.207Z</time>
      </trkpt>
      <trkpt lat="53.60374" lon="11.46024">
        <ele>80.930735</ele>
        <time>2024-07-20T13:49:51.243Z</time>
      </trkpt>
      <trkpt lat="53.6038" lon="11.4604">
        <ele>80.956129</ele>
        <time>2024-07-20T13:49:55.217Z</time>
      </trkpt>
      <trkpt lat="53.60386" lon="11.46055">
        <ele>80.980486</ele>
        <time>2024-07-20T13:49:59.220Z</time>
      </trkpt>
      <trkpt lat="53.60392" lon="11.46069">
        <ele>81.005427</ele>
        <time>2024-07-20T13:50:03.224Z</time>
      </trkpt>
      <trkpt lat="53.60399" lon="11.46085">
        <ele>81.031287</ele>
        <time>2024-07-20T13:50:07.229Z</time>
      </trkpt>
      <trkpt lat="53.60403" lon="11.46099">
        <ele>81.052683</ele>
        <time>2024-07-20T13:50:10.197Z</time>
      </trkpt>
      <trkpt lat="53.60408" lon="11.46118">
        <ele>81.079574</ele>
        <time>2024-07-20T13:50:14.211Z</time>
      </trkpt>
      <trkpt lat="53.60409" lon="11.46137">
        <ele>81.106277</ele>
        <time>2024-07-20T13:50:18.211Z</time>
      </trkpt>
      <trkpt lat="53.60408" lon="11.46154">
        <ele>81.128579</ele>
        <time>2024-07-20T13:50:21.234Z</time>
      </trkpt>
      <trkpt lat="53.60408" lon="11.4617">
        <ele>81.149908</ele>
        <time>2024-07-20T13:50:24.225Z</time>
      </trkpt>
      <trkpt lat="53.60404" lon="11.46186">
        <ele>81.358781</ele>
        <time>2024-07-20T13:50:27.226Z</time>
      </trkpt>
      <trkpt lat="53.60401" lon="11.46202">
        <ele>81.58663</ele>
        <time>2024-07-20T13:50:30.232Z</time>
      </trkpt>
      <trkpt lat="53.60396" lon="11.46216">
        <ele>81.812801</ele>
        <time>2024-07-20T13:50:33.219Z</time>
      </trkpt>
      <trkpt lat="53.6039" lon="11.46231">
        <ele>82.056628</ele>
        <time>2024-07-20T13:50:36.198Z</time>
      </trkpt>
      <trkpt lat="53.60385" lon="11.46247">
        <ele>82.300539</ele>
        <time>2024-07-20T13:50:39.215Z</time>
      </trkpt>
      <trkpt lat="53.60379" lon="11.46261">
        <ele>82.538884</ele>
        <time>2024-07-20T13:50:42.221Z</time>
      </trkpt>
      <trkpt lat="53.60373" lon="11.46275">
        <ele>82.780686</ele>
        <time>2024-07-20T13:50:45.215Z</time>
      </trkpt>
      <trkpt lat="53.60367" lon="11.46289">
        <ele>83.014716</ele>
        <time>2024-07-20T13:50:48.220Z</time>
      </trkpt>
      <trkpt lat="53.60361" lon="11.46302">
        <ele>83.248905</ele>
        <time>2024-07-20T13:50:51.226Z</time>
      </trkpt>
      <trkpt lat="53.60355" lon="11.46316">
        <ele>83.475951</ele>
        <time>2024-07-20T13:50:54.233Z</time>
      </trkpt>
      <trkpt lat="53.60348" lon="11.46329">
        <ele>83.708575</ele>
        <time>2024-07-20T13:50:57.222Z</time>
      </trkpt>
      <trkpt lat="53.60342" lon="11.4634">
        <ele>83.922806</ele>
        <time>2024-07-20T13:51:00.240Z</time>
      </trkpt>
      <trkpt lat="53.60335" lon="11.46352">
        <ele>84.150247</ele>
        <time>2024-07-20T13:51:03.229Z</time>
      </trkpt>
      <trkpt lat="53.60328" lon="11.46363">
        <ele>84.372544</ele>
        <time>2024-07-20T13:51:06.221Z</time>
      </trkpt>
      <trkpt lat="53.60321" lon="11.46373">
        <ele>84.588657</ele>
        <time>2024-07-20T13:51:09.229Z</time>
      </trkpt>
      <trkpt lat="53.60313" lon="11.46381">
        <ele>84.806104</ele>
        <time>2024-07-20T13:51:12.220Z</time>
      </trkpt>
      <trkpt lat="53.60305" lon="11.46391">
        <ele>85.037225</ele>
        <time>2024-07-20T13:51:15.222Z</time>
      </trkpt>
      <trkpt lat="53.60297" lon="11.46399">
        <ele>85.248411</ele>
        <time>2024-07-20T13:51:18.221Z</time>
      </trkpt>
      <trkpt lat="53.60289" lon="11.46407">
        <ele>85.392376</ele>
        <time>2024-07-20T13:51:21.230Z</time>
      </trkpt>
      <trkpt lat="53.6028" lon="11.46415">
        <ele>85.513564</ele>
        <time>2024-07-20T13:51:24.219Z</time>
      </trkpt>
      <trkpt lat="53.60271" lon="11.46421">
        <ele>85.630734</ele>
        <time>2024-07-20T13:51:27.198Z</time>
      </trkpt>
      <trkpt lat="53.60264" lon="11.4643">
        <ele>85.742317</ele>
        <time>2024-07-20T13:51:30.206Z</time>
      </trkpt>
      <trkpt lat="53.60262" lon="11.4645">
        <ele>85.889855</ele>
        <time>2024-07-20T13:51:34.221Z</time>
      </trkpt>
      <trkpt lat="53.60265" lon="11.46468">
        <ele>86.029511</ele>
        <time>2024-07-20T13:51:38.214Z</time>
      </trkpt>
      <trkpt lat="53.6027" lon="11.46482">
        <ele>86.143738</ele>
        <time>2024-07-20T13:51:42.218Z</time>
      </trkpt>
      <trkpt lat="53.60276" lon="11.46496">
        <ele>86.270468</ele>
        <time>2024-07-20T13:51:48.214Z</time>
      </trkpt>
      <trkpt lat="53.60277" lon="11.46511">
        <ele>86.382836</ele>
        <time>2024-07-20T13:51:58.234Z</time>
      </trkpt>
      <trkpt lat="53.60271" lon="11.46523">
        <ele>86.500988</ele>
        <time>2024-07-20T13:52:07.217Z</time>
      </trkpt>
      <trkpt lat="53.60259" lon="11.46523">
        <ele>86.645727</ele>
        <time>2024-07-20T13:52:12.223Z</time>
      </trkpt>
      <trkpt lat="53.60248" lon="11.46515">
        <ele>86.78734</ele>
        <time>2024-07-20T13:52:16.235Z</time>
      </trkpt>
      <trkpt lat="53.60238" lon="11.4651">
        <ele>86.919537</ele>
        <time>2024-07-20T13:52:21.234Z</time>
      </trkpt>
      <trkpt lat="53.60227" lon="11.46511">
        <ele>87.055055</ele>
        <time>2024-07-20T13:52:26.219Z</time>
      </trkpt>
      <trkpt lat="53.60217" lon="11.46516">
        <ele>87.183248</ele>
        <time>2024-07-20T13:52:30.229Z</time>
      </trkpt>
      <trkpt lat="53.60206" lon="11.46519">
        <ele>87.319496</ele>
        <time>2024-07-20T13:52:34.210Z</time>
      </trkpt>
      <trkpt lat="53.60196" lon="11.46523">
        <ele>87.458457</ele>
        <time>2024-07-20T13:52:38.215Z</time>
      </trkpt>
      <trkpt lat="53.60185" lon="11.46528">
        <ele>87.552413</ele>
        <time>2024-07-20T13:52:42.220Z</time>
      </trkpt>
      <trkpt lat="53.60174" lon="11.46534">
        <ele>87.60067</ele>
        <time>2024-07-20T13:52:46.215Z</time>
      </trkpt>
      <trkpt lat="53.60165" lon="11.46541">
        <ele>87.647883</ele>
        <time>2024-07-20T13:52:50.209Z</time>
      </trkpt>
      <trkpt lat="53.60155" lon="11.46548">
        <ele>87.694395</ele>
        <time>2024-07-20T13:52:54.214Z</time>
      </trkpt>
      <trkpt lat="53.60147" lon="11.46557">
        <ele>87.737845</ele>
        <time>2024-07-20T13:52:58.217Z</time>
      </trkpt>
      <trkpt lat="53.60138" lon="11.46567">
        <ele>87.786019</ele>
        <time>2024-07-20T13:53:02.236Z</time>
      </trkpt>
      <trkpt lat="53.60129" lon="11.46573">
        <ele>87.829036</ele>
        <time>2024-07-20T13:53:05.220Z</time>
      </trkpt>
      <trkpt lat="53.60119" lon="11.46583">
        <ele>87.878656</ele>
        <time>2024-07-20T13:53:08.228Z</time>
      </trkpt>
      <trkpt lat="53.60111" lon="11.46593">
        <ele>87.924779</ele>
        <time>2024-07-20T13:53:11.221Z</time>
      </trkpt>
      <trkpt lat="53.60107" lon="11.46608">
        <ele>87.967828</ele>
        <time>2024-07-20T13:53:14.220Z</time>
      </trkpt>
      <trkpt lat="53.60099" lon="11.46619">
        <ele>88.013163</ele>
        <time>2024-07-20T13:53:18.211Z</time>
      </trkpt>
      <trkpt lat="53.60089" lon="11.46607">
        <ele>88.065845</ele>
        <time>2024-07-20T13:53:22.234Z</time>
      </trkpt>
      <trkpt lat="53.60081" lon="11.46602">
        <ele>88.106459</ele>
        <time>2024-07-20T13:53:25.225Z</time>
      </trkpt>
      <trkpt lat="53.60072" lon="11.46607">
        <ele>88.148433</ele>
        <time>2024-07-20T13:53:28.228Z</time>
      </trkpt>
      <trkpt lat="53.60062" lon="11.46609">
        <ele>88.192851</ele>
        <time>2024-07-20T13:53:32.228Z</time>
      </trkpt>
      <trkpt lat="53.60053" lon="11.46617">
        <ele>88.238179</ele>
        <time>2024-07-20T13:53:38.225Z</time>
      </trkpt>
      <trkpt lat="53.60043" lon="11.46624">
        <ele>88.284682</ele>
        <time>2024-07-20T13:53:42.226Z</time>
      </trkpt>
      <trkpt lat="53.60036" lon="11.46635">
        <ele>88.314594</ele>
        <time>2024-07-20T13:53:47.221Z</time>
      </trkpt>
      <trkpt lat="53.60029" lon="11.46645">
        <ele>87.936908</ele>
        <time>2024-07-20T13:53:52.210Z</time>
      </trkpt>
      <trkpt lat="53.60023" lon="11.4666">
        <ele>87.531733</ele>
        <time>2024-07-20T13:53:57.215Z</time>
      </trkpt>
      <trkpt lat="53.60022" lon="11.46675">
        <ele>87.160236</ele>
        <time>2024-07-20T13:54:01.237Z</time>
      </trkpt>
      <trkpt lat="53.60022" lon="11.4669">
        <ele>86.793526</ele>
        <time>2024-07-20T13:54:05.224Z</time>
      </trkpt>
      <trkpt lat="53.60022" lon="11.46708">
        <ele>86.362967</ele>
        <time>2024-07-20T13:54:09.228Z</time>
      </trkpt>
      <trkpt lat="53.60019" lon="11.46725">
        <ele>85.945428</ele>
        <time>2024-07-20T13:54:11.239Z</time>
      </trkpt>
      <trkpt lat="53.60017" lon="11.46744">
        <ele>85.476168</ele>
        <time>2024-07-20T13:54:13.237Z</time>
      </trkpt>
      <trkpt lat="53.60016" lon="11.46764">
        <ele>85.006985</ele>
        <time>2024-07-20T13:54:15.229Z</time>
      </trkpt>
      <trkpt lat="53.60016" lon="11.46785">
        <ele>84.489633</ele>
        <time>2024-07-20T13:54:17.227Z</time>
      </trkpt>
      <trkpt lat="53.60015" lon="11.46806">
        <ele>83.995634</ele>
        <time>2024-07-20T13:54:19.224Z</time>
      </trkpt>
      <trkpt lat="53.60014" lon="11.46826">
        <ele>83.507485</ele>
        <time>2024-07-20T13:54:21.226Z</time>
      </trkpt>
      <trkpt lat="53.60014" lon="11.46847">
        <ele>83.017211</ele>
        <time>2024-07-20T13:54:23.210Z</time>
      </trkpt>
      <trkpt lat="53.60015" lon="11.46866">
        <ele>82.550835</ele>
        <time>2024-07-20T13:54:25.232Z</time>
      </trkpt>
      <trkpt lat="53.60015" lon="11.46886">
        <ele>82.093971</ele>
        <time>2024-07-20T13:54:27.229Z</time>
      </trkpt>
      <trkpt lat="53.60015" lon="11.46905">
        <ele>81.625204</ele>
        <time>2024-07-20T13:54:29.231Z</time>
      </trkpt>
      <trkpt lat="53.60015" lon="11.46923">
        <ele>81.18947</ele>
        <time>2024-07-20T13:54:31.251Z</time>
      </trkpt>
      <trkpt lat="53.60016" lon="11.46941">
        <ele>81.077964</ele>
        <time>2024-07-20T13:54:33.230Z</time>
      </trkpt>
      <trkpt lat="53.60016" lon="11.46958">
        <ele>81.076621</ele>
        <time>2024-07-20T13:54:35.227Z</time>
      </trkpt>
      <trkpt lat="53.60016" lon="11.46974">
        <ele>81.075309</ele>
        <time>2024-07-20T13:54:37.228Z</time>
      </trkpt>
      <trkpt lat="53.60016" lon="11.46991">
        <ele>81.073926</ele>
        <time>2024-07-20T13:54:39.230Z</time>
      </trkpt>
      <trkpt lat="53.60016" lon="11.47007">
        <ele>81.072653</ele>
        <time>2024-07-20T13:54:41.242Z</time>
      </trkpt>
      <trkpt lat="53.60017" lon="11.47023">
        <ele>81.071397</ele>
        <time>2024-07-20T13:54:43.241Z</time>
      </trkpt>
      <trkpt lat="53.60016" lon="11.47038">
        <ele>81.070197</ele>
        <time>2024-07-20T13:54:45.228Z</time>
      </trkpt>
      <trkpt lat="53.60017" lon="11.47061">
        <ele>81.068392</ele>
        <time>2024-07-20T13:54:48.223Z</time>
      </trkpt>
      <trkpt lat="53.60017" lon="11.47076">
        <ele>81.067168</ele>
        <time>2024-07-20T13:54:50.224Z</time>
      </trkpt>
      <trkpt lat="53.60017" lon="11.47092">
        <ele>81.065952</ele>
        <time>2024-07-20T13:54:52.243Z</time>
      </trkpt>
      <trkpt lat="53.60017" lon="11.47114">
        <ele>81.064195</ele>
        <time>2024-07-20T13:54:55.229Z</time>
      </trkpt>
      <trkpt lat="53.60016" lon="11.47135">
        <ele>81.062527</ele>
        <time>2024-07-20T13:54:58.229Z</time>
      </trkpt>
      <trkpt lat="53.60015" lon="11.47155">
        <ele>81.060882</ele>
        <time>2024-07-20T13:55:01.241Z</time>
      </trkpt>
      <trkpt lat="53.60015" lon="11.47174">
        <ele>81.059377</ele>
        <time>2024-07-20T13:55:04.238Z</time>
      </trkpt>
      <trkpt lat="53.60013" lon="11.47192">
        <ele>81.057921</ele>
        <time>2024-07-20T13:55:07.229Z</time>
      </trkpt>
      <trkpt lat="53.60011" lon="11.47209">
        <ele>81.056544</ele>
        <time>2024-07-20T13:55:10.222Z</time>
      </trkpt>
      <trkpt lat="53.60008" lon="11.47227">
        <ele>81.055113</ele>
        <time>2024-07-20T13:55:13.233Z</time>
      </trkpt>
      <trkpt lat="53.60004" lon="11.47243">
        <ele>81.095272</ele>
        <time>2024-07-20T13:55:16.213Z</time>
      </trkpt>
      <trkpt lat="53.60001" lon="11.47261">
        <ele>81.145228</ele>
        <time>2024-07-20T13:55:19.225Z</time>
      </trkpt>
      <trkpt lat="53.59996" lon="11.47281">
        <ele>81.200961</ele>
        <time>2024-07-20T13:55:22.246Z</time>
      </trkpt>
      <trkpt lat="53.59992" lon="11.47299">
        <ele>81.254622</ele>
        <time>2024-07-20T13:55:25.242Z</time>
      </trkpt>
      <trkpt lat="53.59986" lon="11.47316">
        <ele>81.306135</ele>
        <time>2024-07-20T13:55:28.225Z</time>
      </trkpt>
      <trkpt lat="53.59981" lon="11.47334">
        <ele>81.35846</ele>
        <time>2024-07-20T13:55:31.220Z</time>
      </trkpt>
      <trkpt lat="53.59977" lon="11.47352">
        <ele>81.409973</ele>
        <time>2024-07-20T13:55:34.222Z</time>
      </trkpt>
      <trkpt lat="53.59972" lon="11.4737">
        <ele>81.4624</ele>
        <time>2024-07-20T13:55:37.223Z</time>
      </trkpt>
      <trkpt lat="53.59968" lon="11.47388">
        <ele>81.514937</ele>
        <time>2024-07-20T13:55:40.240Z</time>
      </trkpt>
      <trkpt lat="53.59963" lon="11.47407">
        <ele>81.571018</ele>
        <time>2024-07-20T13:55:43.216Z</time>
      </trkpt>
      <trkpt lat="53.59959" lon="11.47427">
        <ele>81.625699</ele>
        <time>2024-07-20T13:55:46.219Z</time>
      </trkpt>
      <trkpt lat="53.59955" lon="11.47445">
        <ele>81.678449</ele>
        <time>2024-07-20T13:55:49.228Z</time>
      </trkpt>
      <trkpt lat="53.59951" lon="11.47462">
        <ele>81.725821</ele>
        <time>2024-07-20T13:55:52.224Z</time>
      </trkpt>
      <trkpt lat="53.59948" lon="11.47478">
        <ele>81.772435</ele>
        <time>2024-07-20T13:55:55.229Z</time>
      </trkpt>
      <trkpt lat="53.59945" lon="11.47493">
        <ele>81.813015</ele>
        <time>2024-07-20T13:55:58.224Z</time>
      </trkpt>
      <trkpt lat="53.59942" lon="11.47508">
        <ele>81.855448</ele>
        <time>2024-07-20T13:56:02.226Z</time>
      </trkpt>
      <trkpt lat="53.59939" lon="11.47523">
        <ele>81.91542</ele>
        <time>2024-07-20T13:56:07.220Z</time>
      </trkpt>
      <trkpt lat="53.59935" lon="11.47537">
        <ele>81.976789</ele>
        <time>2024-07-20T13:56:11.237Z</time>
      </trkpt>
      <trkpt lat="53.59935" lon="11.47556">
        <ele>82.050121</ele>
        <time>2024-07-20T13:56:16.230Z</time>
      </trkpt>
      <trkpt lat="53.5993" lon="11.47571">
        <ele>82.121293</ele>
        <time>2024-07-20T13:57:02.229Z</time>
      </trkpt>
      <trkpt lat="53.5993" lon="11.47589">
        <ele>82.19006</ele>
        <time>2024-07-20T13:57:06.220Z</time>
      </trkpt>
      <trkpt lat="53.59938" lon="11.47604">
        <ele>82.267301</ele>
        <time>2024-07-20T13:57:10.221Z</time>
      </trkpt>
      <trkpt lat="53.59943" lon="11.47622">
        <ele>82.346439</ele>
        <time>2024-07-20T13:57:14.220Z</time>
      </trkpt>
      <trkpt lat="53.59947" lon="11.47636">
        <ele>82.410533</ele>
        <time>2024-07-20T13:57:17.227Z</time>
      </trkpt>
      <trkpt lat="53.59952" lon="11.47651">
        <ele>82.474669</ele>
        <time>2024-07-20T13:57:20.214Z</time>
      </trkpt>
      <trkpt lat="53.59957" lon="11.47664">
        <ele>82.53938</ele>
        <time>2024-07-20T13:57:23.215Z</time>
      </trkpt>
      <trkpt lat="53.59961" lon="11.47683">
        <ele>82.617088</ele>
        <time>2024-07-20T13:57:27.251Z</time>
      </trkpt>
      <trkpt lat="53.59965" lon="11.47696">
        <ele>82.677139</ele>
        <time>2024-07-20T13:57:30.223Z</time>
      </trkpt>
      <trkpt lat="53.59969" lon="11.47711">
        <ele>82.740731</ele>
        <time>2024-07-20T13:57:33.213Z</time>
      </trkpt>
      <trkpt lat="53.59973" lon="11.47726">
        <ele>82.805766</ele>
        <time>2024-07-20T13:57:36.220Z</time>
      </trkpt>
      <trkpt lat="53.59977" lon="11.4774">
        <ele>82.869952</ele>
        <time>2024-07-20T13:57:39.220Z</time>
      </trkpt>
      <trkpt lat="53.59981" lon="11.47755">
        <ele>82.934534</ele>
        <time>2024-07-20T13:57:42.223Z</time>
      </trkpt>
      <trkpt lat="53.59985" lon="11.47771">
        <ele>83.003393</ele>
        <time>2024-07-20T13:57:45.231Z</time>
      </trkpt>
      <trkpt lat="53.59989" lon="11.47787">
        <ele>83.081356</ele>
        <time>2024-07-20T13:57:48.234Z</time>
      </trkpt>
      <trkpt lat="53.59993" lon="11.47803">
        <ele>83.339513</ele>
        <time>2024-07-20T13:57:51.217Z</time>
      </trkpt>
      <trkpt lat="53.59996" lon="11.4782">
        <ele>83.610789</ele>
        <time>2024-07-20T13:57:54.221Z</time>
      </trkpt>
      <trkpt lat="53.59998" lon="11.47838">
        <ele>83.881416</ele>
        <time>2024-07-20T13:57:57.224Z</time>
      </trkpt>
      <trkpt lat="53.6" lon="11.47854">
        <ele>84.139252</ele>
        <time>2024-07-20T13:58:00.212Z</time>
      </trkpt>
      <trkpt lat="53.60001" lon="11.47873">
        <ele>84.416937</ele>
        <time>2024-07-20T13:58:03.224Z</time>
      </trkpt>
      <trkpt lat="53.60003" lon="11.47892">
        <ele>84.707286</ele>
        <time>2024-07-20T13:58:06.224Z</time>
      </trkpt>
      <trkpt lat="53.60003" lon="11.47911">
        <ele>84.986019</ele>
        <time>2024-07-20T13:58:09.216Z</time>
      </trkpt>
      <trkpt lat="53.60003" lon="11.47928">
        <ele>85.242023</ele>
        <time>2024-07-20T13:58:12.225Z</time>
      </trkpt>
      <trkpt lat="53.60003" lon="11.47945">
        <ele>85.504015</ele>
        <time>2024-07-20T13:58:15.239Z</time>
      </trkpt>
      <trkpt lat="53.60003" lon="11.47964">
        <ele>85.782473</ele>
        <time>2024-07-20T13:58:18.229Z</time>
      </trkpt>
      <trkpt lat="53.60004" lon="11.47983">
        <ele>86.076768</ele>
        <time>2024-07-20T13:58:21.248Z</time>
      </trkpt>
      <trkpt lat="53.60004" lon="11.48002">
        <ele>86.347917</ele>
        <time>2024-07-20T13:58:24.221Z</time>
      </trkpt>
      <trkpt lat="53.60005" lon="11.48021">
        <ele>86.636242</ele>
        <time>2024-07-20T13:58:27.260Z</time>
      </trkpt>
      <trkpt lat="53.60005" lon="11.4804">
        <ele>86.931199</ele>
        <time>2024-07-20T13:58:30.219Z</time>
      </trkpt>
      <trkpt lat="53.60004" lon="11.4806">
        <ele>87.231464</ele>
        <time>2024-07-20T13:58:33.227Z</time>
      </trkpt>
      <trkpt lat="53.60003" lon="11.48079">
        <ele>87.516447</ele>
        <time>2024-07-20T13:58:36.223Z</time>
      </trkpt>
      <trkpt lat="53.60003" lon="11.48098">
        <ele>87.477982</ele>
        <time>2024-07-20T13:58:39.228Z</time>
      </trkpt>
      <trkpt lat="53.60002" lon="11.48117">
        <ele>87.303519</ele>
        <time>2024-07-20T13:58:42.236Z</time>
      </trkpt>
      <trkpt lat="53.60002" lon="11.48137">
        <ele>87.117111</ele>
        <time>2024-07-20T13:58:45.236Z</time>
      </trkpt>
      <trkpt lat="53.60003" lon="11.4816">
        <ele>86.904655</ele>
        <time>2024-07-20T13:58:48.229Z</time>
      </trkpt>
      <trkpt lat="53.60003" lon="11.48181">
        <ele>86.701494</ele>
        <time>2024-07-20T13:58:51.230Z</time>
      </trkpt>
      <trkpt lat="53.60004" lon="11.48203">
        <ele>86.499367</ele>
        <time>2024-07-20T13:58:54.221Z</time>
      </trkpt>
      <trkpt lat="53.60005" lon="11.48225">
        <ele>86.293064</ele>
        <time>2024-07-20T13:58:57.223Z</time>
      </trkpt>
      <trkpt lat="53.60005" lon="11.4824">
        <ele>86.148025</ele>
        <time>2024-07-20T13:58:59.243Z</time>
      </trkpt>
      <trkpt lat="53.60005" lon="11.48257">
        <ele>85.995332</ele>
        <time>2024-07-20T13:59:01.214Z</time>
      </trkpt>
      <trkpt lat="53.60006" lon="11.48274">
        <ele>85.837104</ele>
        <time>2024-07-20T13:59:03.218Z</time>
      </trkpt>
      <trkpt lat="53.60005" lon="11.48292">
        <ele>85.669527</ele>
        <time>2024-07-20T13:59:05.217Z</time>
      </trkpt>
      <trkpt lat="53.60004" lon="11.4831">
        <ele>85.496808</ele>
        <time>2024-07-20T13:59:07.223Z</time>
      </trkpt>
      <trkpt lat="53.60004" lon="11.48329">
        <ele>85.319988</ele>
        <time>2024-07-20T13:59:09.211Z</time>
      </trkpt>
      <trkpt lat="53.60004" lon="11.48348">
        <ele>85.143934</ele>
        <time>2024-07-20T13:59:11.223Z</time>
      </trkpt>
      <trkpt lat="53.60003" lon="11.48366">
        <ele>84.967993</ele>
        <time>2024-07-20T13:59:13.225Z</time>
      </trkpt>
      <trkpt lat="53.60004" lon="11.48385">
        <ele>84.792052</ele>
        <time>2024-07-20T13:59:15.219Z</time>
      </trkpt>
      <trkpt lat="53.60005" lon="11.48404">
        <ele>84.686566</ele>
        <time>2024-07-20T13:59:17.229Z</time>
      </trkpt>
      <trkpt lat="53.60005" lon="11.48424">
        <ele>84.592556</ele>
        <time>2024-07-20T13:59:19.228Z</time>
      </trkpt>
      <trkpt lat="53.60005" lon="11.48444">
        <ele>84.494695</ele>
        <time>2024-07-20T13:59:21.227Z</time>
      </trkpt>
      <trkpt lat="53.60007" lon="11.48464">
        <ele>84.396341</ele>
        <time>2024-07-20T13:59:23.230Z</time>
      </trkpt>
      <trkpt lat="53.60007" lon="11.48484">
        <ele>84.29556</ele>
        <time>2024-07-20T13:59:25.222Z</time>
      </trkpt>
      <trkpt lat="53.60008" lon="11.48505">
        <ele>84.194252</ele>
        <time>2024-07-20T13:59:27.231Z</time>
      </trkpt>
      <trkpt lat="53.60008" lon="11.48525">
        <ele>84.095915</ele>
        <time>2024-07-20T13:59:29.231Z</time>
      </trkpt>
      <trkpt lat="53.60008" lon="11.48546">
        <ele>83.993673</ele>
        <time>2024-07-20T13:59:31.228Z</time>
      </trkpt>
      <trkpt lat="53.60008" lon="11.48568">
        <ele>83.889485</ele>
        <time>2024-07-20T13:59:33.229Z</time>
      </trkpt>
      <trkpt lat="53.60006" lon="11.48588">
        <ele>83.791223</ele>
        <time>2024-07-20T13:59:35.225Z</time>
      </trkpt>
      <trkpt lat="53.60005" lon="11.48608">
        <ele>83.694248</ele>
        <time>2024-07-20T13:59:37.217Z</time>
      </trkpt>
      <trkpt lat="53.60004" lon="11.48629">
        <ele>83.592146</ele>
        <time>2024-07-20T13:59:39.198Z</time>
      </trkpt>
      <trkpt lat="53.60001" lon="11.48649">
        <ele>83.490254</ele>
        <time>2024-07-20T13:59:41.234Z</time>
      </trkpt>
      <trkpt lat="53.59999" lon="11.48669">
        <ele>83.390221</ele>
        <time>2024-07-20T13:59:43.202Z</time>
      </trkpt>
      <trkpt lat="53.59995" lon="11.48688">
        <ele>83.295942</ele>
        <time>2024-07-20T13:59:45.214Z</time>
      </trkpt>
      <trkpt lat="53.59992" lon="11.48705">
        <ele>83.190945</ele>
        <time>2024-07-20T13:59:47.201Z</time>
      </trkpt>
      <trkpt lat="53.59989" lon="11.48723">
        <ele>83.083611</ele>
        <time>2024-07-20T13:59:49.213Z</time>
      </trkpt>
      <trkpt lat="53.59986" lon="11.4874">
        <ele>82.979965</ele>
        <time>2024-07-20T13:59:51.227Z</time>
      </trkpt>
      <trkpt lat="53.59983" lon="11.48756">
        <ele>82.883004</ele>
        <time>2024-07-20T13:59:53.227Z</time>
      </trkpt>
      <trkpt lat="53.5998" lon="11.48772">
        <ele>82.78323</ele>
        <time>2024-07-20T13:59:55.216Z</time>
      </trkpt>
      <trkpt lat="53.59977" lon="11.48788">
        <ele>82.688481</ele>
        <time>2024-07-20T13:59:57.224Z</time>
      </trkpt>
      <trkpt lat="53.59974" lon="11.48803">
        <ele>82.592234</ele>
        <time>2024-07-20T13:59:59.246Z</time>
      </trkpt>
      <trkpt lat="53.59971" lon="11.48819">
        <ele>82.49947</ele>
        <time>2024-07-20T14:00:01.214Z</time>
      </trkpt>
      <trkpt lat="53.59969" lon="11.48835">
        <ele>82.404687</ele>
        <time>2024-07-20T14:00:03.232Z</time>
      </trkpt>
      <trkpt lat="53.59967" lon="11.4885">
        <ele>82.310591</ele>
        <time>2024-07-20T14:00:05.221Z</time>
      </trkpt>
      <trkpt lat="53.59964" lon="11.48865">
        <ele>82.221022</ele>
        <time>2024-07-20T14:00:07.223Z</time>
      </trkpt>
      <trkpt lat="53.59961" lon="11.48879">
        <ele>82.131853</ele>
        <time>2024-07-20T14:00:09.225Z</time>
      </trkpt>
      <trkpt lat="53.59957" lon="11.489">
        <ele>82.005102</ele>
        <time>2024-07-20T14:00:12.220Z</time>
      </trkpt>
      <trkpt lat="53.59953" lon="11.48922">
        <ele>81.874662</ele>
        <time>2024-07-20T14:00:15.231Z</time>
      </trkpt>
      <trkpt lat="53.59948" lon="11.48943">
        <ele>81.744772</ele>
        <time>2024-07-20T14:00:18.229Z</time>
      </trkpt>
      <trkpt lat="53.59944" lon="11.48957">
        <ele>81.647732</ele>
        <time>2024-07-20T14:00:20.218Z</time>
      </trkpt>
      <trkpt lat="53.59938" lon="11.48971">
        <ele>81.552689</ele>
        <time>2024-07-20T14:00:22.239Z</time>
      </trkpt>
      <trkpt lat="53.59933" lon="11.48984">
        <ele>81.530366</ele>
        <time>2024-07-20T14:00:24.252Z</time>
      </trkpt>
      <trkpt lat="53.59928" lon="11.48997">
        <ele>81.531102</ele>
        <time>2024-07-20T14:00:26.234Z</time>
      </trkpt>
      <trkpt lat="53.59921" lon="11.49008">
        <ele>81.531851</ele>
        <time>2024-07-20T14:00:28.218Z</time>
      </trkpt>
      <trkpt lat="53.59914" lon="11.49019">
        <ele>81.532602</ele>
        <time>2024-07-20T14:00:30.209Z</time>
      </trkpt>
      <trkpt lat="53.59907" lon="11.4903">
        <ele>81.533364</ele>
        <time>2024-07-20T14:00:32.230Z</time>
      </trkpt>
      <trkpt lat="53.599" lon="11.49039">
        <ele>81.534106</ele>
        <time>2024-07-20T14:00:34.231Z</time>
      </trkpt>
      <trkpt lat="53.59889" lon="11.49052">
        <ele>81.535145</ele>
        <time>2024-07-20T14:00:37.245Z</time>
      </trkpt>
      <trkpt lat="53.59878" lon="11.49063">
        <ele>81.536183</ele>
        <time>2024-07-20T14:00:40.229Z</time>
      </trkpt>
      <trkpt lat="53.59867" lon="11.49075">
        <ele>81.537217</ele>
        <time>2024-07-20T14:00:43.232Z</time>
      </trkpt>
      <trkpt lat="53.59856" lon="11.49087">
        <ele>81.538248</ele>
        <time>2024-07-20T14:00:46.230Z</time>
      </trkpt>
      <trkpt lat="53.59849" lon="11.49095">
        <ele>81.538976</ele>
        <time>2024-07-20T14:00:48.237Z</time>
      </trkpt>
      <trkpt lat="53.59841" lon="11.49104">
        <ele>81.539709</ele>
        <time>2024-07-20T14:00:50.225Z</time>
      </trkpt>
      <trkpt lat="53.5983" lon="11.49117">
        <ele>81.540784</ele>
        <time>2024-07-20T14:00:53.235Z</time>
      </trkpt>
      <trkpt lat="53.59822" lon="11.49125">
        <ele>81.541522</ele>
        <time>2024-07-20T14:00:55.209Z</time>
      </trkpt>
      <trkpt lat="53.59814" lon="11.49133">
        <ele>81.542298</ele>
        <time>2024-07-20T14:00:57.228Z</time>
      </trkpt>
      <trkpt lat="53.59806" lon="11.49141">
        <ele>81.543069</ele>
        <time>2024-07-20T14:00:59.229Z</time>
      </trkpt>
      <trkpt lat="53.59797" lon="11.49149">
        <ele>81.543853</ele>
        <time>2024-07-20T14:01:01.249Z</time>
      </trkpt>
      <trkpt lat="53.59787" lon="11.49158">
        <ele>81.613075</ele>
        <time>2024-07-20T14:01:03.243Z</time>
      </trkpt>
      <trkpt lat="53.59777" lon="11.49165">
        <ele>81.721184</ele>
        <time>2024-07-20T14:01:05.257Z</time>
      </trkpt>
      <trkpt lat="53.59767" lon="11.49172">
        <ele>81.828809</ele>
        <time>2024-07-20T14:01:07.248Z</time>
      </trkpt>
      <trkpt lat="53.59757" lon="11.49179">
        <ele>81.931731</ele>
        <time>2024-07-20T14:01:09.228Z</time>
      </trkpt>
      <trkpt lat="53.59746" lon="11.49185">
        <ele>82.04024</ele>
        <time>2024-07-20T14:01:11.240Z</time>
      </trkpt>
      <trkpt lat="53.59735" lon="11.4919">
        <ele>82.154337</ele>
        <time>2024-07-20T14:01:13.224Z</time>
      </trkpt>
      <trkpt lat="53.59725" lon="11.49197">
        <ele>82.258251</ele>
        <time>2024-07-20T14:01:15.230Z</time>
      </trkpt>
      <trkpt lat="53.59716" lon="11.49201">
        <ele>82.352346</ele>
        <time>2024-07-20T14:01:17.219Z</time>
      </trkpt>
      <trkpt lat="53.59707" lon="11.49205">
        <ele>82.441343</ele>
        <time>2024-07-20T14:01:19.230Z</time>
      </trkpt>
      <trkpt lat="53.59698" lon="11.49209">
        <ele>82.529761</ele>
        <time>2024-07-20T14:01:21.223Z</time>
      </trkpt>
      <trkpt lat="53.5969" lon="11.49215">
        <ele>82.619885</ele>
        <time>2024-07-20T14:01:23.211Z</time>
      </trkpt>
      <trkpt lat="53.59681" lon="11.49219">
        <ele>82.707704</ele>
        <time>2024-07-20T14:01:25.209Z</time>
      </trkpt>
      <trkpt lat="53.59669" lon="11.49226">
        <ele>82.828244</ele>
        <time>2024-07-20T14:01:28.217Z</time>
      </trkpt>
      <trkpt lat="53.59657" lon="11.49231">
        <ele>82.951866</ele>
        <time>2024-07-20T14:01:31.225Z</time>
      </trkpt>
      <trkpt lat="53.59645" lon="11.49238">
        <ele>83.077236</ele>
        <time>2024-07-20T14:01:34.224Z</time>
      </trkpt>
      <trkpt lat="53.59634" lon="11.49231">
        <ele>83.185614</ele>
        <time>2024-07-20T14:01:37.215Z</time>
      </trkpt>
      <trkpt lat="53.59633" lon="11.49215">
        <ele>83.280092</ele>
        <time>2024-07-20T14:01:40.232Z</time>
      </trkpt>
      <trkpt lat="53.59625" lon="11.49201">
        <ele>83.395787</ele>
        <time>2024-07-20T14:01:44.242Z</time>
      </trkpt>
      <trkpt lat="53.59615" lon="11.49192">
        <ele>83.512764</ele>
        <time>2024-07-20T14:01:48.222Z</time>
      </trkpt>
      <trkpt lat="53.59604" lon="11.49187">
        <ele>83.625366</ele>
        <time>2024-07-20T14:01:52.223Z</time>
      </trkpt>
      <trkpt lat="53.59594" lon="11.4919">
        <ele>83.72814</ele>
        <time>2024-07-20T14:01:56.223Z</time>
      </trkpt>
      <trkpt lat="53.59588" lon="11.49202">
        <ele>83.829297</ele>
        <time>2024-07-20T14:02:00.227Z</time>
      </trkpt>
      <trkpt lat="53.59583" lon="11.49218">
        <ele>83.934038</ele>
        <time>2024-07-20T14:02:04.220Z</time>
      </trkpt>
      <trkpt lat="53.5958" lon="11.49234">
        <ele>84.039273</ele>
        <time>2024-07-20T14:02:08.223Z</time>
      </trkpt>
      <trkpt lat="53.59577" lon="11.4925">
        <ele>84.138933</ele>
        <time>2024-07-20T14:02:12.222Z</time>
      </trkpt>
      <trkpt lat="53.59573" lon="11.49265">
        <ele>84.240159</ele>
        <time>2024-07-20T14:02:16.245Z</time>
      </trkpt>
      <trkpt lat="53.5957" lon="11.49281">
        <ele>84.343007</ele>
        <time>2024-07-20T14:02:21.234Z</time>
      </trkpt>
      <trkpt lat="53.59569" lon="11.49285">
        <ele>84.367713</ele>
        <time>2024-07-20T14:02:34.179Z</time>
      </trkpt>
      <trkpt lat="53.59563" lon="11.4931">
        <ele>84.527023</ele>
        <time>2024-07-20T14:03:21.230Z</time>
      </trkpt>
      <trkpt lat="53.5956" lon="11.49324">
        <ele>84.618865</ele>
        <time>2024-07-20T14:03:24.243Z</time>
      </trkpt>
      <trkpt lat="53.59558" lon="11.49343">
        <ele>84.735681</ele>
        <time>2024-07-20T14:03:28.232Z</time>
      </trkpt>
      <trkpt lat="53.59556" lon="11.49358">
        <ele>84.827563</ele>
        <time>2024-07-20T14:03:31.239Z</time>
      </trkpt>
      <trkpt lat="53.59553" lon="11.49373">
        <ele>84.924642</ele>
        <time>2024-07-20T14:03:34.218Z</time>
      </trkpt>
      <trkpt lat="53.59552" lon="11.4939">
        <ele>85.029868</ele>
        <time>2024-07-20T14:03:37.257Z</time>
      </trkpt>
      <trkpt lat="53.5955" lon="11.49407">
        <ele>85.12841</ele>
        <time>2024-07-20T14:03:40.235Z</time>
      </trkpt>
      <trkpt lat="53.59549" lon="11.49425">
        <ele>85.058563</ele>
        <time>2024-07-20T14:03:43.210Z</time>
      </trkpt>
      <trkpt lat="53.59548" lon="11.49441">
        <ele>84.999473</ele>
        <time>2024-07-20T14:03:46.228Z</time>
      </trkpt>
      <trkpt lat="53.59547" lon="11.49456">
        <ele>84.940951</ele>
        <time>2024-07-20T14:03:49.219Z</time>
      </trkpt>
      <trkpt lat="53.59547" lon="11.49474">
        <ele>84.873483</ele>
        <time>2024-07-20T14:03:53.209Z</time>
      </trkpt>
      <trkpt lat="53.59547" lon="11.4949">
        <ele>84.812134</ele>
        <time>2024-07-20T14:03:57.210Z</time>
      </trkpt>
      <trkpt lat="53.59548" lon="11.49508">
        <ele>84.744236</ele>
        <time>2024-07-20T14:04:02.234Z</time>
      </trkpt>
      <trkpt lat="53.5955" lon="11.49524">
        <ele>84.68114</ele>
        <time>2024-07-20T14:04:07.234Z</time>
      </trkpt>
      <trkpt lat="53.59554" lon="11.49507">
        <ele>84.611329</ele>
        <time>2024-07-20T14:05:06.237Z</time>
      </trkpt>
      <trkpt lat="53.59547" lon="11.49502">
        <ele>84.563547</ele>
        <time>2024-07-20T14:05:18.175Z</time>
      </trkpt>
      <trkpt lat="53.59557" lon="11.49503">
        <ele>84.503155</ele>
        <time>2024-07-20T14:06:00.336Z</time>
      </trkpt>
      <trkpt lat="53.59556" lon="11.49519">
        <ele>84.440338</ele>
        <time>2024-07-20T14:06:09.228Z</time>
      </trkpt>
      <trkpt lat="53.59555" lon="11.49536">
        <ele>84.375155</ele>
        <time>2024-07-20T14:06:16.231Z</time>
      </trkpt>
      <trkpt lat="53.59555" lon="11.49555">
        <ele>84.30418</ele>
        <time>2024-07-20T14:06:22.226Z</time>
      </trkpt>
      <trkpt lat="53.59554" lon="11.49574">
        <ele>84.232476</ele>
        <time>2024-07-20T14:06:26.228Z</time>
      </trkpt>
      <trkpt lat="53.59554" lon="11.49591">
        <ele>84.167167</ele>
        <time>2024-07-20T14:06:31.240Z</time>
      </trkpt>
      <trkpt lat="53.59556" lon="11.49606">
        <ele>84.10696</ele>
        <time>2024-07-20T14:06:37.239Z</time>
      </trkpt>
      <trkpt lat="53.59564" lon="11.49614">
        <ele>84.045381</ele>
        <time>2024-07-20T14:06:42.224Z</time>
      </trkpt>
      <trkpt lat="53.59572" lon="11.49627">
        <ele>83.977726</ele>
        <time>2024-07-20T14:06:46.225Z</time>
      </trkpt>
      <trkpt lat="53.59579" lon="11.49643">
        <ele>84.120151</ele>
        <time>2024-07-20T14:06:49.245Z</time>
      </trkpt>
      <trkpt lat="53.59585" lon="11.49655">
        <ele>84.238173</ele>
        <time>2024-07-20T14:06:51.257Z</time>
      </trkpt>
      <trkpt lat="53.59593" lon="11.49669">
        <ele>84.379163</ele>
        <time>2024-07-20T14:06:53.233Z</time>
      </trkpt>
      <trkpt lat="53.59601" lon="11.49684">
        <ele>84.525189</ele>
        <time>2024-07-20T14:06:55.228Z</time>
      </trkpt>
      <trkpt lat="53.5961" lon="11.49701">
        <ele>84.692375</ele>
        <time>2024-07-20T14:06:57.221Z</time>
      </trkpt>
      <trkpt lat="53.5962" lon="11.49718">
        <ele>84.868999</ele>
        <time>2024-07-20T14:06:59.221Z</time>
      </trkpt>
      <trkpt lat="53.5963" lon="11.49734">
        <ele>85.042673</ele>
        <time>2024-07-20T14:07:01.236Z</time>
      </trkpt>
      <trkpt lat="53.59641" lon="11.49747">
        <ele>85.211505</ele>
        <time>2024-07-20T14:07:03.211Z</time>
      </trkpt>
      <trkpt lat="53.59651" lon="11.49758">
        <ele>85.36359</ele>
        <time>2024-07-20T14:07:05.213Z</time>
      </trkpt>
      <trkpt lat="53.5966" lon="11.49768">
        <ele>85.491367</ele>
        <time>2024-07-20T14:07:07.219Z</time>
      </trkpt>
      <trkpt lat="53.5967" lon="11.49779">
        <ele>85.639381</ele>
        <time>2024-07-20T14:07:10.221Z</time>
      </trkpt>
      <trkpt lat="53.59678" lon="11.49787">
        <ele>85.751343</ele>
        <time>2024-07-20T14:07:13.223Z</time>
      </trkpt>
      <trkpt lat="53.59687" lon="11.49795">
        <ele>85.878345</ele>
        <time>2024-07-20T14:07:17.228Z</time>
      </trkpt>
      <trkpt lat="53.59695" lon="11.49803">
        <ele>85.993385</ele>
        <time>2024-07-20T14:07:21.240Z</time>
      </trkpt>
      <trkpt lat="53.59704" lon="11.49812">
        <ele>86.128311</ele>
        <time>2024-07-20T14:07:26.210Z</time>
      </trkpt>
      <trkpt lat="53.59713" lon="11.49821">
        <ele>86.206701</ele>
        <time>2024-07-20T14:07:31.253Z</time>
      </trkpt>
      <trkpt lat="53.59722" lon="11.4983">
        <ele>86.206701</ele>
        <time>2024-07-20T14:07:36.238Z</time>
      </trkpt>
      <trkpt lat="53.59732" lon="11.4984">
        <ele>86.206701</ele>
        <time>2024-07-20T14:07:41.228Z</time>
      </trkpt>
      <trkpt lat="53.59741" lon="11.49849">
        <ele>86.206701</ele>
        <time>2024-07-20T14:07:46.229Z</time>
      </trkpt>
      <trkpt lat="53.59748" lon="11.4986">
        <ele>86.206701</ele>
        <time>2024-07-20T14:07:51.217Z</time>
      </trkpt>
      <trkpt lat="53.59756" lon="11.49869">
        <ele>86.206701</ele>
        <time>2024-07-20T14:07:56.214Z</time>
      </trkpt>
      <trkpt lat="53.59764" lon="11.49878">
        <ele>86.206701</ele>
        <time>2024-07-20T14:08:01.221Z</time>
      </trkpt>
      <trkpt lat="53.59773" lon="11.49889">
        <ele>86.206701</ele>
        <time>2024-07-20T14:08:06.216Z</time>
      </trkpt>
      <trkpt lat="53.59782" lon="11.499">
        <ele>86.206701</ele>
        <time>2024-07-20T14:08:11.230Z</time>
      </trkpt>
      <trkpt lat="53.59791" lon="11.4991">
        <ele>86.206701</ele>
        <time>2024-07-20T14:08:16.247Z</time>
      </trkpt>
      <trkpt lat="53.59798" lon="11.49919">
        <ele>86.206701</ele>
        <time>2024-07-20T14:08:20.212Z</time>
      </trkpt>
      <trkpt lat="53.59806" lon="11.49931">
        <ele>86.206701</ele>
        <time>2024-07-20T14:08:25.245Z</time>
      </trkpt>
      <trkpt lat="53.59814" lon="11.49945">
        <ele>86.206701</ele>
        <time>2024-07-20T14:08:30.224Z</time>
      </trkpt>
      <trkpt lat="53.59821" lon="11.49955">
        <ele>86.206701</ele>
        <time>2024-07-20T14:08:34.234Z</time>
      </trkpt>
      <trkpt lat="53.59829" lon="11.49969">
        <ele>86.206701</ele>
        <time>2024-07-20T14:08:39.217Z</time>
      </trkpt>
      <trkpt lat="53.59837" lon="11.49982">
        <ele>86.206701</ele>
        <time>2024-07-20T14:08:44.222Z</time>
      </trkpt>
      <trkpt lat="53.59844" lon="11.49995">
        <ele>86.206701</ele>
        <time>2024-07-20T14:08:49.216Z</time>
      </trkpt>
      <trkpt lat="53.59851" lon="11.5001">
        <ele>86.206701</ele>
        <time>2024-07-20T14:08:54.212Z</time>
      </trkpt>
      <trkpt lat="53.59856" lon="11.50024">
        <ele>86.206701</ele>
        <time>2024-07-20T14:08:59.229Z</time>
      </trkpt>
      <trkpt lat="53.59862" lon="11.50038">
        <ele>86.206701</ele>
        <time>2024-07-20T14:09:04.226Z</time>
      </trkpt>
      <trkpt lat="53.5987" lon="11.50048">
        <ele>86.206701</ele>
        <time>2024-07-20T14:09:11.219Z</time>
      </trkpt>
      <trkpt lat="53.59873" lon="11.50046">
        <ele>86.206701</ele>
        <time>2024-07-20T14:09:14.191Z</time>
      </trkpt>
    </trkseg>
  </trk>
</gpx>